<?xml version="1.0" encoding="UTF-8" standalone="no" ?>
<gpx xmlns="http://www.topografix.com/GPX/1/1" xmlns:xsi="http://www.w3.org/2001/XMLSchema-instance" xsi:schemaLocation="http://www.topografix.com/GPX/1/1 http://www.topografix.com/GPX/1/1/gpx.xsd" version="1.1" creator="VisuGPX - https://www.visugpx.com">
  <metadata>
    <name>Pornichet 14/10/2021</name>
    <desc><![CDATA[Sortie vtt du jeudi 14 octobre 2021]]></desc>
  </metadata>
  <trk>
    <name><![CDATA[Pornichet Cyclisme]]></name>
    <trkseg>
      <trkpt lat="47.26406" lon="-2.31563">
        <ele>9.6</ele>
        <time>2021-10-14T06:51:13.000Z</time>
      </trkpt>
      <trkpt lat="47.26406" lon="-2.31579">
        <ele>9.6</ele>
        <time>2021-10-14T06:51:17.000Z</time>
      </trkpt>
      <trkpt lat="47.26406" lon="-2.31584">
        <ele>9.6</ele>
        <time>2021-10-14T06:51:18.000Z</time>
      </trkpt>
      <trkpt lat="47.26407" lon="-2.31595">
        <ele>9.6</ele>
        <time>2021-10-14T06:51:20.000Z</time>
      </trkpt>
      <trkpt lat="47.26408" lon="-2.31636">
        <ele>9.1</ele>
        <time>2021-10-14T06:51:27.000Z</time>
      </trkpt>
      <trkpt lat="47.26408" lon="-2.31642">
        <ele>8.9</ele>
        <time>2021-10-14T06:51:28.000Z</time>
      </trkpt>
      <trkpt lat="47.26409" lon="-2.31658">
        <ele>8.3</ele>
        <time>2021-10-14T06:51:31.000Z</time>
      </trkpt>
      <trkpt lat="47.26399" lon="-2.31667">
        <ele>8</ele>
        <time>2021-10-14T06:51:35.000Z</time>
      </trkpt>
      <trkpt lat="47.26373" lon="-2.31681">
        <ele>7.5</ele>
        <time>2021-10-14T06:51:40.000Z</time>
      </trkpt>
      <trkpt lat="47.26364" lon="-2.31686">
        <ele>-0.60000002384186</ele>
        <time>2021-10-14T06:51:42.000Z</time>
      </trkpt>
      <trkpt lat="47.26362" lon="-2.31688">
        <ele>-1.2000000476837</ele>
        <time>2021-10-14T06:51:43.000Z</time>
      </trkpt>
      <trkpt lat="47.2636" lon="-2.31689">
        <ele>-1.6000000238419</ele>
        <time>2021-10-14T06:51:44.000Z</time>
      </trkpt>
      <trkpt lat="47.2636" lon="-2.31689">
        <ele>-2.2000000476837</ele>
        <time>2021-10-14T06:51:45.000Z</time>
      </trkpt>
      <trkpt lat="47.2636" lon="-2.31689">
        <ele>-2.7999999523163</ele>
        <time>2021-10-14T06:51:46.000Z</time>
      </trkpt>
      <trkpt lat="47.26361" lon="-2.31688">
        <ele>-2.7999999523163</ele>
        <time>2021-10-14T06:51:48.000Z</time>
      </trkpt>
      <trkpt lat="47.26367" lon="-2.31684">
        <ele>-2.7999999523163</ele>
        <time>2021-10-14T06:51:53.000Z</time>
      </trkpt>
      <trkpt lat="47.26367" lon="-2.31684">
        <ele>-2.7999999523163</ele>
        <time>2021-10-14T06:51:54.000Z</time>
      </trkpt>
      <trkpt lat="47.26365" lon="-2.31685">
        <ele>-2.7999999523163</ele>
        <time>2021-10-14T06:52:04.000Z</time>
      </trkpt>
      <trkpt lat="47.26361" lon="-2.31688">
        <ele>-2.7999999523163</ele>
        <time>2021-10-14T06:52:06.000Z</time>
      </trkpt>
      <trkpt lat="47.26347" lon="-2.31695">
        <ele>-2.7999999523163</ele>
        <time>2021-10-14T06:52:10.000Z</time>
      </trkpt>
      <trkpt lat="47.26322" lon="-2.31707">
        <ele>-2.7999999523163</ele>
        <time>2021-10-14T06:52:15.000Z</time>
      </trkpt>
      <trkpt lat="47.26308" lon="-2.31715">
        <ele>-2.7999999523163</ele>
        <time>2021-10-14T06:52:18.000Z</time>
      </trkpt>
      <trkpt lat="47.26306" lon="-2.31719">
        <ele>-3.2000000476837</ele>
        <time>2021-10-14T06:52:19.000Z</time>
      </trkpt>
      <trkpt lat="47.26304" lon="-2.31725">
        <ele>-3.7999999523163</ele>
        <time>2021-10-14T06:52:20.000Z</time>
      </trkpt>
      <trkpt lat="47.26304" lon="-2.31732">
        <ele>-4.1999998092651</ele>
        <time>2021-10-14T06:52:21.000Z</time>
      </trkpt>
      <trkpt lat="47.26304" lon="-2.31738">
        <ele>-5.1999998092651</ele>
        <time>2021-10-14T06:52:22.000Z</time>
      </trkpt>
      <trkpt lat="47.26305" lon="-2.31745">
        <ele>-5.1999998092651</ele>
        <time>2021-10-14T06:52:23.000Z</time>
      </trkpt>
      <trkpt lat="47.26308" lon="-2.3177">
        <ele>-5.1999998092651</ele>
        <time>2021-10-14T06:52:27.000Z</time>
      </trkpt>
      <trkpt lat="47.26309" lon="-2.31777">
        <ele>-5.1999998092651</ele>
        <time>2021-10-14T06:52:28.000Z</time>
      </trkpt>
      <trkpt lat="47.26309" lon="-2.31804">
        <ele>-5.1999998092651</ele>
        <time>2021-10-14T06:52:32.000Z</time>
      </trkpt>
      <trkpt lat="47.26308" lon="-2.31818">
        <ele>-5.1999998092651</ele>
        <time>2021-10-14T06:52:34.000Z</time>
      </trkpt>
      <trkpt lat="47.26306" lon="-2.31866">
        <ele>-5.1999998092651</ele>
        <time>2021-10-14T06:52:41.000Z</time>
      </trkpt>
      <trkpt lat="47.26304" lon="-2.31877">
        <ele>-5.1999998092651</ele>
        <time>2021-10-14T06:52:43.000Z</time>
      </trkpt>
      <trkpt lat="47.26298" lon="-2.31884">
        <ele>-5.1999998092651</ele>
        <time>2021-10-14T06:52:45.000Z</time>
      </trkpt>
      <trkpt lat="47.26292" lon="-2.3189">
        <ele>-5.1999998092651</ele>
        <time>2021-10-14T06:52:47.000Z</time>
      </trkpt>
      <trkpt lat="47.26278" lon="-2.31909">
        <ele>-5.1999998092651</ele>
        <time>2021-10-14T06:52:52.000Z</time>
      </trkpt>
      <trkpt lat="47.26276" lon="-2.31913">
        <ele>-5.1999998092651</ele>
        <time>2021-10-14T06:52:53.000Z</time>
      </trkpt>
      <trkpt lat="47.26263" lon="-2.31931">
        <ele>-5.1999998092651</ele>
        <time>2021-10-14T06:52:58.000Z</time>
      </trkpt>
      <trkpt lat="47.26259" lon="-2.3194">
        <ele>-5.1999998092651</ele>
        <time>2021-10-14T06:53:03.000Z</time>
      </trkpt>
      <trkpt lat="47.26259" lon="-2.3194">
        <ele>-5.5999999046326</ele>
        <time>2021-10-14T06:53:04.000Z</time>
      </trkpt>
      <trkpt lat="47.26259" lon="-2.31941">
        <ele>-6</ele>
        <time>2021-10-14T06:53:05.000Z</time>
      </trkpt>
      <trkpt lat="47.26259" lon="-2.31942">
        <ele>-6.4000000953674</ele>
        <time>2021-10-14T06:53:06.000Z</time>
      </trkpt>
      <trkpt lat="47.26259" lon="-2.31942">
        <ele>-6.8000001907349</ele>
        <time>2021-10-14T06:53:07.000Z</time>
      </trkpt>
      <trkpt lat="47.26259" lon="-2.31942">
        <ele>-7.1999998092651</ele>
        <time>2021-10-14T06:53:08.000Z</time>
      </trkpt>
      <trkpt lat="47.26259" lon="-2.31942">
        <ele>-7.1999998092651</ele>
        <time>2021-10-14T06:53:10.000Z</time>
      </trkpt>
      <trkpt lat="47.26259" lon="-2.31942">
        <ele>-7.1999998092651</ele>
        <time>2021-10-14T06:53:11.000Z</time>
      </trkpt>
      <trkpt lat="47.26256" lon="-2.31944">
        <ele>-7.1999998092651</ele>
        <time>2021-10-14T06:53:15.000Z</time>
      </trkpt>
      <trkpt lat="47.26252" lon="-2.31947">
        <ele>-7.1999998092651</ele>
        <time>2021-10-14T06:53:17.000Z</time>
      </trkpt>
      <trkpt lat="47.26237" lon="-2.31962">
        <ele>-7.1999998092651</ele>
        <time>2021-10-14T06:53:21.000Z</time>
      </trkpt>
      <trkpt lat="47.2622" lon="-2.3198">
        <ele>-7.1999998092651</ele>
        <time>2021-10-14T06:53:27.000Z</time>
      </trkpt>
      <trkpt lat="47.26211" lon="-2.31991">
        <ele>-7.1999998092651</ele>
        <time>2021-10-14T06:53:31.000Z</time>
      </trkpt>
      <trkpt lat="47.26207" lon="-2.32003">
        <ele>-7.1999998092651</ele>
        <time>2021-10-14T06:53:35.000Z</time>
      </trkpt>
      <trkpt lat="47.26205" lon="-2.32003">
        <ele>-7.1999998092651</ele>
        <time>2021-10-14T06:53:36.000Z</time>
      </trkpt>
      <trkpt lat="47.26196" lon="-2.32001">
        <ele>-7.1999998092651</ele>
        <time>2021-10-14T06:53:39.000Z</time>
      </trkpt>
      <trkpt lat="47.26185" lon="-2.32007">
        <ele>-7.1999998092651</ele>
        <time>2021-10-14T06:53:42.000Z</time>
      </trkpt>
      <trkpt lat="47.26181" lon="-2.3201">
        <ele>-7.1999998092651</ele>
        <time>2021-10-14T06:53:43.000Z</time>
      </trkpt>
      <trkpt lat="47.26167" lon="-2.32032">
        <ele>-7.1999998092651</ele>
        <time>2021-10-14T06:53:47.000Z</time>
      </trkpt>
      <trkpt lat="47.26164" lon="-2.32039">
        <ele>-7.1999998092651</ele>
        <time>2021-10-14T06:53:48.000Z</time>
      </trkpt>
      <trkpt lat="47.26152" lon="-2.32074">
        <ele>-7.1999998092651</ele>
        <time>2021-10-14T06:53:53.000Z</time>
      </trkpt>
      <trkpt lat="47.26138" lon="-2.32121">
        <ele>-7.1999998092651</ele>
        <time>2021-10-14T06:54:00.000Z</time>
      </trkpt>
      <trkpt lat="47.26133" lon="-2.32133">
        <ele>-7.1999998092651</ele>
        <time>2021-10-14T06:54:02.000Z</time>
      </trkpt>
      <trkpt lat="47.26126" lon="-2.32152">
        <ele>-7.1999998092651</ele>
        <time>2021-10-14T06:54:05.000Z</time>
      </trkpt>
      <trkpt lat="47.26123" lon="-2.32159">
        <ele>-7.1999998092651</ele>
        <time>2021-10-14T06:54:06.000Z</time>
      </trkpt>
      <trkpt lat="47.26118" lon="-2.32171">
        <ele>-7.1999998092651</ele>
        <time>2021-10-14T06:54:08.000Z</time>
      </trkpt>
      <trkpt lat="47.26109" lon="-2.32191">
        <ele>-7.1999998092651</ele>
        <time>2021-10-14T06:54:11.000Z</time>
      </trkpt>
      <trkpt lat="47.26105" lon="-2.32197">
        <ele>-7.1999998092651</ele>
        <time>2021-10-14T06:54:12.000Z</time>
      </trkpt>
      <trkpt lat="47.26093" lon="-2.32217">
        <ele>-7.1999998092651</ele>
        <time>2021-10-14T06:54:15.000Z</time>
      </trkpt>
      <trkpt lat="47.26082" lon="-2.3223">
        <ele>-7.1999998092651</ele>
        <time>2021-10-14T06:54:17.000Z</time>
      </trkpt>
      <trkpt lat="47.26056" lon="-2.3226">
        <ele>-7.1999998092651</ele>
        <time>2021-10-14T06:54:23.000Z</time>
      </trkpt>
      <trkpt lat="47.26028" lon="-2.32291">
        <ele>-7.1999998092651</ele>
        <time>2021-10-14T06:54:29.000Z</time>
      </trkpt>
      <trkpt lat="47.26024" lon="-2.32296">
        <ele>-7.1999998092651</ele>
        <time>2021-10-14T06:54:30.000Z</time>
      </trkpt>
      <trkpt lat="47.25999" lon="-2.32328">
        <ele>-7.1999998092651</ele>
        <time>2021-10-14T06:54:36.000Z</time>
      </trkpt>
      <trkpt lat="47.25974" lon="-2.32362">
        <ele>-7.1999998092651</ele>
        <time>2021-10-14T06:54:43.000Z</time>
      </trkpt>
      <trkpt lat="47.25943" lon="-2.32405">
        <ele>-7.1999998092651</ele>
        <time>2021-10-14T06:54:51.000Z</time>
      </trkpt>
      <trkpt lat="47.25921" lon="-2.32431">
        <ele>-7.1999998092651</ele>
        <time>2021-10-14T06:54:56.000Z</time>
      </trkpt>
      <trkpt lat="47.25912" lon="-2.32441">
        <ele>-7.1999998092651</ele>
        <time>2021-10-14T06:54:58.000Z</time>
      </trkpt>
      <trkpt lat="47.25908" lon="-2.32446">
        <ele>-7.1999998092651</ele>
        <time>2021-10-14T06:54:59.000Z</time>
      </trkpt>
      <trkpt lat="47.25906" lon="-2.32462">
        <ele>-7.1999998092651</ele>
        <time>2021-10-14T06:55:02.000Z</time>
      </trkpt>
      <trkpt lat="47.25916" lon="-2.32473">
        <ele>-7.1999998092651</ele>
        <time>2021-10-14T06:55:05.000Z</time>
      </trkpt>
      <trkpt lat="47.25929" lon="-2.32496">
        <ele>-7.1999998092651</ele>
        <time>2021-10-14T06:55:09.000Z</time>
      </trkpt>
      <trkpt lat="47.25931" lon="-2.32503">
        <ele>-7.1999998092651</ele>
        <time>2021-10-14T06:55:10.000Z</time>
      </trkpt>
      <trkpt lat="47.25945" lon="-2.32548">
        <ele>-7.1999998092651</ele>
        <time>2021-10-14T06:55:16.000Z</time>
      </trkpt>
      <trkpt lat="47.25953" lon="-2.32578">
        <ele>-7.1999998092651</ele>
        <time>2021-10-14T06:55:20.000Z</time>
      </trkpt>
      <trkpt lat="47.25959" lon="-2.32601">
        <ele>-7.1999998092651</ele>
        <time>2021-10-14T06:55:23.000Z</time>
      </trkpt>
      <trkpt lat="47.25963" lon="-2.32638">
        <ele>-7.1999998092651</ele>
        <time>2021-10-14T06:55:28.000Z</time>
      </trkpt>
      <trkpt lat="47.25962" lon="-2.32645">
        <ele>-7.1999998092651</ele>
        <time>2021-10-14T06:55:29.000Z</time>
      </trkpt>
      <trkpt lat="47.25968" lon="-2.32656">
        <ele>-7.1999998092651</ele>
        <time>2021-10-14T06:55:32.000Z</time>
      </trkpt>
      <trkpt lat="47.25982" lon="-2.32657">
        <ele>-7.1999998092651</ele>
        <time>2021-10-14T06:55:35.000Z</time>
      </trkpt>
      <trkpt lat="47.26001" lon="-2.32657">
        <ele>-7.1999998092651</ele>
        <time>2021-10-14T06:55:39.000Z</time>
      </trkpt>
      <trkpt lat="47.26006" lon="-2.32656">
        <ele>-6.8000001907349</ele>
        <time>2021-10-14T06:55:40.000Z</time>
      </trkpt>
      <trkpt lat="47.26011" lon="-2.32655">
        <ele>-6.4000000953674</ele>
        <time>2021-10-14T06:55:41.000Z</time>
      </trkpt>
      <trkpt lat="47.26016" lon="-2.32655">
        <ele>-5.8000001907349</ele>
        <time>2021-10-14T06:55:42.000Z</time>
      </trkpt>
      <trkpt lat="47.26021" lon="-2.32654">
        <ele>-5.4000000953674</ele>
        <time>2021-10-14T06:55:43.000Z</time>
      </trkpt>
      <trkpt lat="47.26026" lon="-2.32653">
        <ele>-5</ele>
        <time>2021-10-14T06:55:44.000Z</time>
      </trkpt>
      <trkpt lat="47.26051" lon="-2.32649">
        <ele>-5</ele>
        <time>2021-10-14T06:55:49.000Z</time>
      </trkpt>
      <trkpt lat="47.26092" lon="-2.32641">
        <ele>-5</ele>
        <time>2021-10-14T06:55:57.000Z</time>
      </trkpt>
      <trkpt lat="47.26132" lon="-2.3264">
        <ele>-4.1999998092651</ele>
        <time>2021-10-14T06:56:05.000Z</time>
      </trkpt>
      <trkpt lat="47.26138" lon="-2.32641">
        <ele>-3.7999999523163</ele>
        <time>2021-10-14T06:56:06.000Z</time>
      </trkpt>
      <trkpt lat="47.26143" lon="-2.32643">
        <ele>-3.4000000953674</ele>
        <time>2021-10-14T06:56:07.000Z</time>
      </trkpt>
      <trkpt lat="47.26148" lon="-2.32645">
        <ele>-3</ele>
        <time>2021-10-14T06:56:08.000Z</time>
      </trkpt>
      <trkpt lat="47.26168" lon="-2.32653">
        <ele>-3</ele>
        <time>2021-10-14T06:56:12.000Z</time>
      </trkpt>
      <trkpt lat="47.26196" lon="-2.32675">
        <ele>-3</ele>
        <time>2021-10-14T06:56:18.000Z</time>
      </trkpt>
      <trkpt lat="47.26213" lon="-2.32693">
        <ele>-3</ele>
        <time>2021-10-14T06:56:22.000Z</time>
      </trkpt>
      <trkpt lat="47.26234" lon="-2.3272">
        <ele>-3</ele>
        <time>2021-10-14T06:56:27.000Z</time>
      </trkpt>
      <trkpt lat="47.26267" lon="-2.3277">
        <ele>-3</ele>
        <time>2021-10-14T06:56:35.000Z</time>
      </trkpt>
      <trkpt lat="47.2628" lon="-2.328">
        <ele>-3</ele>
        <time>2021-10-14T06:56:39.000Z</time>
      </trkpt>
      <trkpt lat="47.26283" lon="-2.32807">
        <ele>-3.4000000953674</ele>
        <time>2021-10-14T06:56:40.000Z</time>
      </trkpt>
      <trkpt lat="47.26285" lon="-2.32815">
        <ele>-3.7999999523163</ele>
        <time>2021-10-14T06:56:41.000Z</time>
      </trkpt>
      <trkpt lat="47.26287" lon="-2.32823">
        <ele>-4.1999998092651</ele>
        <time>2021-10-14T06:56:42.000Z</time>
      </trkpt>
      <trkpt lat="47.26288" lon="-2.32831">
        <ele>-4.5999999046326</ele>
        <time>2021-10-14T06:56:43.000Z</time>
      </trkpt>
      <trkpt lat="47.26289" lon="-2.3284">
        <ele>-5</ele>
        <time>2021-10-14T06:56:44.000Z</time>
      </trkpt>
      <trkpt lat="47.26291" lon="-2.32847">
        <ele>-5</ele>
        <time>2021-10-14T06:56:45.000Z</time>
      </trkpt>
      <trkpt lat="47.26293" lon="-2.32854">
        <ele>-5</ele>
        <time>2021-10-14T06:56:46.000Z</time>
      </trkpt>
      <trkpt lat="47.26307" lon="-2.32865">
        <ele>-5</ele>
        <time>2021-10-14T06:56:49.000Z</time>
      </trkpt>
      <trkpt lat="47.26312" lon="-2.32868">
        <ele>-5</ele>
        <time>2021-10-14T06:56:50.000Z</time>
      </trkpt>
      <trkpt lat="47.26317" lon="-2.32872">
        <ele>-5</ele>
        <time>2021-10-14T06:56:51.000Z</time>
      </trkpt>
      <trkpt lat="47.26323" lon="-2.32885">
        <ele>-5</ele>
        <time>2021-10-14T06:56:53.000Z</time>
      </trkpt>
      <trkpt lat="47.26327" lon="-2.32899">
        <ele>-5</ele>
        <time>2021-10-14T06:56:55.000Z</time>
      </trkpt>
      <trkpt lat="47.26337" lon="-2.32929">
        <ele>-5</ele>
        <time>2021-10-14T06:56:59.000Z</time>
      </trkpt>
      <trkpt lat="47.2635" lon="-2.32966">
        <ele>-5</ele>
        <time>2021-10-14T06:57:04.000Z</time>
      </trkpt>
      <trkpt lat="47.26361" lon="-2.32983">
        <ele>-5</ele>
        <time>2021-10-14T06:57:07.000Z</time>
      </trkpt>
      <trkpt lat="47.26364" lon="-2.3299">
        <ele>-5</ele>
        <time>2021-10-14T06:57:08.000Z</time>
      </trkpt>
      <trkpt lat="47.26366" lon="-2.33005">
        <ele>-5</ele>
        <time>2021-10-14T06:57:10.000Z</time>
      </trkpt>
      <trkpt lat="47.26368" lon="-2.33021">
        <ele>-5</ele>
        <time>2021-10-14T06:57:12.000Z</time>
      </trkpt>
      <trkpt lat="47.26369" lon="-2.33062">
        <ele>-5</ele>
        <time>2021-10-14T06:57:17.000Z</time>
      </trkpt>
      <trkpt lat="47.26374" lon="-2.33128">
        <ele>-5</ele>
        <time>2021-10-14T06:57:25.000Z</time>
      </trkpt>
      <trkpt lat="47.26376" lon="-2.33153">
        <ele>-5</ele>
        <time>2021-10-14T06:57:28.000Z</time>
      </trkpt>
      <trkpt lat="47.26379" lon="-2.33211">
        <ele>-5</ele>
        <time>2021-10-14T06:57:35.000Z</time>
      </trkpt>
      <trkpt lat="47.26381" lon="-2.33243">
        <ele>-5</ele>
        <time>2021-10-14T06:57:39.000Z</time>
      </trkpt>
      <trkpt lat="47.26386" lon="-2.33257">
        <ele>-5</ele>
        <time>2021-10-14T06:57:41.000Z</time>
      </trkpt>
      <trkpt lat="47.264" lon="-2.33268">
        <ele>-5</ele>
        <time>2021-10-14T06:57:44.000Z</time>
      </trkpt>
      <trkpt lat="47.26411" lon="-2.33268">
        <ele>-5</ele>
        <time>2021-10-14T06:57:46.000Z</time>
      </trkpt>
      <trkpt lat="47.26427" lon="-2.3327">
        <ele>-5</ele>
        <time>2021-10-14T06:57:49.000Z</time>
      </trkpt>
      <trkpt lat="47.26476" lon="-2.33278">
        <ele>-5</ele>
        <time>2021-10-14T06:57:58.000Z</time>
      </trkpt>
      <trkpt lat="47.265" lon="-2.33281">
        <ele>-5</ele>
        <time>2021-10-14T06:58:04.000Z</time>
      </trkpt>
      <trkpt lat="47.26511" lon="-2.33289">
        <ele>-5</ele>
        <time>2021-10-14T06:58:08.000Z</time>
      </trkpt>
      <trkpt lat="47.26515" lon="-2.33291">
        <ele>-5</ele>
        <time>2021-10-14T06:58:09.000Z</time>
      </trkpt>
      <trkpt lat="47.26527" lon="-2.33291">
        <ele>-5</ele>
        <time>2021-10-14T06:58:12.000Z</time>
      </trkpt>
      <trkpt lat="47.26537" lon="-2.33297">
        <ele>-5</ele>
        <time>2021-10-14T06:58:15.000Z</time>
      </trkpt>
      <trkpt lat="47.26546" lon="-2.33295">
        <ele>-5</ele>
        <time>2021-10-14T06:58:18.000Z</time>
      </trkpt>
      <trkpt lat="47.26556" lon="-2.33284">
        <ele>-5</ele>
        <time>2021-10-14T06:58:21.000Z</time>
      </trkpt>
      <trkpt lat="47.26563" lon="-2.33276">
        <ele>-5</ele>
        <time>2021-10-14T06:58:23.000Z</time>
      </trkpt>
      <trkpt lat="47.26571" lon="-2.33268">
        <ele>-5</ele>
        <time>2021-10-14T06:58:25.000Z</time>
      </trkpt>
      <trkpt lat="47.26588" lon="-2.3325">
        <ele>-5</ele>
        <time>2021-10-14T06:58:29.000Z</time>
      </trkpt>
      <trkpt lat="47.26619" lon="-2.33218">
        <ele>-5</ele>
        <time>2021-10-14T06:58:36.000Z</time>
      </trkpt>
      <trkpt lat="47.26652" lon="-2.33184">
        <ele>-5</ele>
        <time>2021-10-14T06:58:44.000Z</time>
      </trkpt>
      <trkpt lat="47.26675" lon="-2.3316">
        <ele>-5</ele>
        <time>2021-10-14T06:58:50.000Z</time>
      </trkpt>
      <trkpt lat="47.26699" lon="-2.33136">
        <ele>-5</ele>
        <time>2021-10-14T06:58:56.000Z</time>
      </trkpt>
      <trkpt lat="47.26731" lon="-2.33102">
        <ele>-5</ele>
        <time>2021-10-14T06:59:04.000Z</time>
      </trkpt>
      <trkpt lat="47.26738" lon="-2.33095">
        <ele>-5</ele>
        <time>2021-10-14T06:59:06.000Z</time>
      </trkpt>
      <trkpt lat="47.26749" lon="-2.33085">
        <ele>-5</ele>
        <time>2021-10-14T06:59:09.000Z</time>
      </trkpt>
      <trkpt lat="47.26754" lon="-2.33086">
        <ele>-5</ele>
        <time>2021-10-14T06:59:10.000Z</time>
      </trkpt>
      <trkpt lat="47.26758" lon="-2.33091">
        <ele>-5</ele>
        <time>2021-10-14T06:59:11.000Z</time>
      </trkpt>
      <trkpt lat="47.26763" lon="-2.33114">
        <ele>-5</ele>
        <time>2021-10-14T06:59:14.000Z</time>
      </trkpt>
      <trkpt lat="47.26759" lon="-2.33147">
        <ele>-5</ele>
        <time>2021-10-14T06:59:18.000Z</time>
      </trkpt>
      <trkpt lat="47.26757" lon="-2.33155">
        <ele>-5</ele>
        <time>2021-10-14T06:59:19.000Z</time>
      </trkpt>
      <trkpt lat="47.26745" lon="-2.332">
        <ele>-5</ele>
        <time>2021-10-14T06:59:25.000Z</time>
      </trkpt>
      <trkpt lat="47.26737" lon="-2.33228">
        <ele>-5</ele>
        <time>2021-10-14T06:59:29.000Z</time>
      </trkpt>
      <trkpt lat="47.26731" lon="-2.3325">
        <ele>-5</ele>
        <time>2021-10-14T06:59:32.000Z</time>
      </trkpt>
      <trkpt lat="47.26731" lon="-2.33281">
        <ele>-5</ele>
        <time>2021-10-14T06:59:36.000Z</time>
      </trkpt>
      <trkpt lat="47.26735" lon="-2.33297">
        <ele>-5</ele>
        <time>2021-10-14T06:59:38.000Z</time>
      </trkpt>
      <trkpt lat="47.26737" lon="-2.33304">
        <ele>-5</ele>
        <time>2021-10-14T06:59:39.000Z</time>
      </trkpt>
      <trkpt lat="47.26742" lon="-2.33319">
        <ele>-5</ele>
        <time>2021-10-14T06:59:41.000Z</time>
      </trkpt>
      <trkpt lat="47.26745" lon="-2.33335">
        <ele>-5</ele>
        <time>2021-10-14T06:59:43.000Z</time>
      </trkpt>
      <trkpt lat="47.26748" lon="-2.33361">
        <ele>-5</ele>
        <time>2021-10-14T06:59:46.000Z</time>
      </trkpt>
      <trkpt lat="47.26755" lon="-2.33418">
        <ele>-5</ele>
        <time>2021-10-14T06:59:53.000Z</time>
      </trkpt>
      <trkpt lat="47.26763" lon="-2.33483">
        <ele>-5</ele>
        <time>2021-10-14T07:00:01.000Z</time>
      </trkpt>
      <trkpt lat="47.26773" lon="-2.33531">
        <ele>-5</ele>
        <time>2021-10-14T07:00:07.000Z</time>
      </trkpt>
      <trkpt lat="47.26779" lon="-2.33596">
        <ele>-5</ele>
        <time>2021-10-14T07:00:15.000Z</time>
      </trkpt>
      <trkpt lat="47.26779" lon="-2.33642">
        <ele>-4.5999999046326</ele>
        <time>2021-10-14T07:00:21.000Z</time>
      </trkpt>
      <trkpt lat="47.26779" lon="-2.3365">
        <ele>-4.1999998092651</ele>
        <time>2021-10-14T07:00:22.000Z</time>
      </trkpt>
      <trkpt lat="47.26779" lon="-2.33657">
        <ele>-3.7999999523163</ele>
        <time>2021-10-14T07:00:23.000Z</time>
      </trkpt>
      <trkpt lat="47.26779" lon="-2.33665">
        <ele>-3.4000000953674</ele>
        <time>2021-10-14T07:00:24.000Z</time>
      </trkpt>
      <trkpt lat="47.26779" lon="-2.33672">
        <ele>-3</ele>
        <time>2021-10-14T07:00:25.000Z</time>
      </trkpt>
      <trkpt lat="47.2678" lon="-2.33685">
        <ele>-3</ele>
        <time>2021-10-14T07:00:27.000Z</time>
      </trkpt>
      <trkpt lat="47.26782" lon="-2.33698">
        <ele>-3</ele>
        <time>2021-10-14T07:00:29.000Z</time>
      </trkpt>
      <trkpt lat="47.26792" lon="-2.33715">
        <ele>-3</ele>
        <time>2021-10-14T07:00:32.000Z</time>
      </trkpt>
      <trkpt lat="47.26796" lon="-2.3372">
        <ele>-3</ele>
        <time>2021-10-14T07:00:33.000Z</time>
      </trkpt>
      <trkpt lat="47.26804" lon="-2.33728">
        <ele>-2.5999999046326</ele>
        <time>2021-10-14T07:00:35.000Z</time>
      </trkpt>
      <trkpt lat="47.26808" lon="-2.33732">
        <ele>-1.7999999523163</ele>
        <time>2021-10-14T07:00:36.000Z</time>
      </trkpt>
      <trkpt lat="47.26813" lon="-2.33737">
        <ele>-1.3999999761581</ele>
        <time>2021-10-14T07:00:37.000Z</time>
      </trkpt>
      <trkpt lat="47.26817" lon="-2.33741">
        <ele>-1</ele>
        <time>2021-10-14T07:00:38.000Z</time>
      </trkpt>
      <trkpt lat="47.26821" lon="-2.33745">
        <ele>-1</ele>
        <time>2021-10-14T07:00:39.000Z</time>
      </trkpt>
      <trkpt lat="47.26845" lon="-2.33773">
        <ele>-1</ele>
        <time>2021-10-14T07:00:45.000Z</time>
      </trkpt>
      <trkpt lat="47.2685" lon="-2.33776">
        <ele>-1</ele>
        <time>2021-10-14T07:00:46.000Z</time>
      </trkpt>
      <trkpt lat="47.26879" lon="-2.33789">
        <ele>-1</ele>
        <time>2021-10-14T07:00:52.000Z</time>
      </trkpt>
      <trkpt lat="47.26893" lon="-2.33798">
        <ele>-1</ele>
        <time>2021-10-14T07:00:55.000Z</time>
      </trkpt>
      <trkpt lat="47.26898" lon="-2.33809">
        <ele>-1</ele>
        <time>2021-10-14T07:00:57.000Z</time>
      </trkpt>
      <trkpt lat="47.26901" lon="-2.33822">
        <ele>-1</ele>
        <time>2021-10-14T07:00:59.000Z</time>
      </trkpt>
      <trkpt lat="47.26906" lon="-2.33842">
        <ele>-1</ele>
        <time>2021-10-14T07:01:02.000Z</time>
      </trkpt>
      <trkpt lat="47.26918" lon="-2.3389">
        <ele>-1</ele>
        <time>2021-10-14T07:01:09.000Z</time>
      </trkpt>
      <trkpt lat="47.26929" lon="-2.33937">
        <ele>-1</ele>
        <time>2021-10-14T07:01:16.000Z</time>
      </trkpt>
      <trkpt lat="47.2694" lon="-2.33985">
        <ele>-1</ele>
        <time>2021-10-14T07:01:23.000Z</time>
      </trkpt>
      <trkpt lat="47.26941" lon="-2.33992">
        <ele>-0.60000002384186</ele>
        <time>2021-10-14T07:01:24.000Z</time>
      </trkpt>
      <trkpt lat="47.26943" lon="-2.33999">
        <ele>0.20000000298023</ele>
        <time>2021-10-14T07:01:25.000Z</time>
      </trkpt>
      <trkpt lat="47.26944" lon="-2.34005">
        <ele>0.60000002384186</ele>
        <time>2021-10-14T07:01:26.000Z</time>
      </trkpt>
      <trkpt lat="47.26945" lon="-2.34012">
        <ele>1</ele>
        <time>2021-10-14T07:01:27.000Z</time>
      </trkpt>
      <trkpt lat="47.26947" lon="-2.34018">
        <ele>1</ele>
        <time>2021-10-14T07:01:28.000Z</time>
      </trkpt>
      <trkpt lat="47.26951" lon="-2.34031">
        <ele>1</ele>
        <time>2021-10-14T07:01:30.000Z</time>
      </trkpt>
      <trkpt lat="47.26963" lon="-2.34086">
        <ele>1</ele>
        <time>2021-10-14T07:01:38.000Z</time>
      </trkpt>
      <trkpt lat="47.26979" lon="-2.34159">
        <ele>1</ele>
        <time>2021-10-14T07:01:48.000Z</time>
      </trkpt>
      <trkpt lat="47.26993" lon="-2.34216">
        <ele>1</ele>
        <time>2021-10-14T07:01:56.000Z</time>
      </trkpt>
      <trkpt lat="47.27006" lon="-2.34277">
        <ele>1</ele>
        <time>2021-10-14T07:02:05.000Z</time>
      </trkpt>
      <trkpt lat="47.27008" lon="-2.3429">
        <ele>1</ele>
        <time>2021-10-14T07:02:07.000Z</time>
      </trkpt>
      <trkpt lat="47.27008" lon="-2.34309">
        <ele>1</ele>
        <time>2021-10-14T07:02:10.000Z</time>
      </trkpt>
      <trkpt lat="47.27009" lon="-2.34313">
        <ele>1</ele>
        <time>2021-10-14T07:02:12.000Z</time>
      </trkpt>
      <trkpt lat="47.2701" lon="-2.34315">
        <ele>1</ele>
        <time>2021-10-14T07:02:13.000Z</time>
      </trkpt>
      <trkpt lat="47.27021" lon="-2.34319">
        <ele>1</ele>
        <time>2021-10-14T07:02:17.000Z</time>
      </trkpt>
      <trkpt lat="47.27035" lon="-2.34327">
        <ele>1</ele>
        <time>2021-10-14T07:02:21.000Z</time>
      </trkpt>
      <trkpt lat="47.27038" lon="-2.34332">
        <ele>1</ele>
        <time>2021-10-14T07:02:22.000Z</time>
      </trkpt>
      <trkpt lat="47.27044" lon="-2.34353">
        <ele>1</ele>
        <time>2021-10-14T07:02:25.000Z</time>
      </trkpt>
      <trkpt lat="47.27046" lon="-2.3436">
        <ele>1</ele>
        <time>2021-10-14T07:02:26.000Z</time>
      </trkpt>
      <trkpt lat="47.27059" lon="-2.34418">
        <ele>1</ele>
        <time>2021-10-14T07:02:34.000Z</time>
      </trkpt>
      <trkpt lat="47.27073" lon="-2.34479">
        <ele>1</ele>
        <time>2021-10-14T07:02:42.000Z</time>
      </trkpt>
      <trkpt lat="47.27083" lon="-2.34524">
        <ele>1</ele>
        <time>2021-10-14T07:02:48.000Z</time>
      </trkpt>
      <trkpt lat="47.27087" lon="-2.34538">
        <ele>1.3999999761581</ele>
        <time>2021-10-14T07:02:50.000Z</time>
      </trkpt>
      <trkpt lat="47.27089" lon="-2.34546">
        <ele>2</ele>
        <time>2021-10-14T07:02:51.000Z</time>
      </trkpt>
      <trkpt lat="47.2709" lon="-2.34553">
        <ele>2.4000000953674</ele>
        <time>2021-10-14T07:02:52.000Z</time>
      </trkpt>
      <trkpt lat="47.27092" lon="-2.34561">
        <ele>2.7999999523163</ele>
        <time>2021-10-14T07:02:53.000Z</time>
      </trkpt>
      <trkpt lat="47.27094" lon="-2.34569">
        <ele>3.2000000476837</ele>
        <time>2021-10-14T07:02:54.000Z</time>
      </trkpt>
      <trkpt lat="47.27101" lon="-2.34599">
        <ele>3.2000000476837</ele>
        <time>2021-10-14T07:02:58.000Z</time>
      </trkpt>
      <trkpt lat="47.27115" lon="-2.34658">
        <ele>3.2000000476837</ele>
        <time>2021-10-14T07:03:05.000Z</time>
      </trkpt>
      <trkpt lat="47.27126" lon="-2.34708">
        <ele>3.2000000476837</ele>
        <time>2021-10-14T07:03:11.000Z</time>
      </trkpt>
      <trkpt lat="47.27138" lon="-2.34764">
        <ele>3.2000000476837</ele>
        <time>2021-10-14T07:03:18.000Z</time>
      </trkpt>
      <trkpt lat="47.27153" lon="-2.34834">
        <ele>3.2000000476837</ele>
        <time>2021-10-14T07:03:27.000Z</time>
      </trkpt>
      <trkpt lat="47.27168" lon="-2.34895">
        <ele>3.2000000476837</ele>
        <time>2021-10-14T07:03:35.000Z</time>
      </trkpt>
      <trkpt lat="47.27192" lon="-2.34968">
        <ele>3.2000000476837</ele>
        <time>2021-10-14T07:03:45.000Z</time>
      </trkpt>
      <trkpt lat="47.27208" lon="-2.35017">
        <ele>3.2000000476837</ele>
        <time>2021-10-14T07:03:52.000Z</time>
      </trkpt>
      <trkpt lat="47.27227" lon="-2.35065">
        <ele>3.2000000476837</ele>
        <time>2021-10-14T07:03:59.000Z</time>
      </trkpt>
      <trkpt lat="47.27248" lon="-2.35112">
        <ele>3.2000000476837</ele>
        <time>2021-10-14T07:04:06.000Z</time>
      </trkpt>
      <trkpt lat="47.27255" lon="-2.35123">
        <ele>3.2000000476837</ele>
        <time>2021-10-14T07:04:08.000Z</time>
      </trkpt>
      <trkpt lat="47.27264" lon="-2.35122">
        <ele>3.2000000476837</ele>
        <time>2021-10-14T07:04:10.000Z</time>
      </trkpt>
      <trkpt lat="47.27272" lon="-2.35117">
        <ele>3.2000000476837</ele>
        <time>2021-10-14T07:04:12.000Z</time>
      </trkpt>
      <trkpt lat="47.27284" lon="-2.3511">
        <ele>3.5999999046326</ele>
        <time>2021-10-14T07:04:15.000Z</time>
      </trkpt>
      <trkpt lat="47.27288" lon="-2.35109">
        <ele>4</ele>
        <time>2021-10-14T07:04:16.000Z</time>
      </trkpt>
      <trkpt lat="47.27291" lon="-2.35106">
        <ele>4.4000000953674</ele>
        <time>2021-10-14T07:04:17.000Z</time>
      </trkpt>
      <trkpt lat="47.27293" lon="-2.35104">
        <ele>5.1999998092651</ele>
        <time>2021-10-14T07:04:18.000Z</time>
      </trkpt>
      <trkpt lat="47.27298" lon="-2.35102">
        <ele>5.1999998092651</ele>
        <time>2021-10-14T07:04:21.000Z</time>
      </trkpt>
      <trkpt lat="47.27313" lon="-2.35095">
        <ele>5.1999998092651</ele>
        <time>2021-10-14T07:04:27.000Z</time>
      </trkpt>
      <trkpt lat="47.27319" lon="-2.35092">
        <ele>5.5999999046326</ele>
        <time>2021-10-14T07:04:29.000Z</time>
      </trkpt>
      <trkpt lat="47.27322" lon="-2.35091">
        <ele>6</ele>
        <time>2021-10-14T07:04:30.000Z</time>
      </trkpt>
      <trkpt lat="47.27325" lon="-2.3509">
        <ele>6.4000000953674</ele>
        <time>2021-10-14T07:04:31.000Z</time>
      </trkpt>
      <trkpt lat="47.27329" lon="-2.35088">
        <ele>6.8000001907349</ele>
        <time>2021-10-14T07:04:32.000Z</time>
      </trkpt>
      <trkpt lat="47.27332" lon="-2.35086">
        <ele>7.1999998092651</ele>
        <time>2021-10-14T07:04:33.000Z</time>
      </trkpt>
      <trkpt lat="47.27344" lon="-2.35081">
        <ele>7.8000001907349</ele>
        <time>2021-10-14T07:04:37.000Z</time>
      </trkpt>
      <trkpt lat="47.27348" lon="-2.3508">
        <ele>8.1999998092651</ele>
        <time>2021-10-14T07:04:38.000Z</time>
      </trkpt>
      <trkpt lat="47.27352" lon="-2.35077">
        <ele>8.6000003814697</ele>
        <time>2021-10-14T07:04:39.000Z</time>
      </trkpt>
      <trkpt lat="47.27355" lon="-2.35075">
        <ele>9</ele>
        <time>2021-10-14T07:04:40.000Z</time>
      </trkpt>
      <trkpt lat="47.27359" lon="-2.35071">
        <ele>9.6000003814697</ele>
        <time>2021-10-14T07:04:41.000Z</time>
      </trkpt>
      <trkpt lat="47.27371" lon="-2.35065">
        <ele>9.6000003814697</ele>
        <time>2021-10-14T07:04:44.000Z</time>
      </trkpt>
      <trkpt lat="47.27389" lon="-2.35056">
        <ele>10</ele>
        <time>2021-10-14T07:04:49.000Z</time>
      </trkpt>
      <trkpt lat="47.27393" lon="-2.35056">
        <ele>10.39999961853</ele>
        <time>2021-10-14T07:04:50.000Z</time>
      </trkpt>
      <trkpt lat="47.27395" lon="-2.35058">
        <ele>10.800000190735</ele>
        <time>2021-10-14T07:04:51.000Z</time>
      </trkpt>
      <trkpt lat="47.27397" lon="-2.35061">
        <ele>11.199999809265</ele>
        <time>2021-10-14T07:04:52.000Z</time>
      </trkpt>
      <trkpt lat="47.27399" lon="-2.35066">
        <ele>11.60000038147</ele>
        <time>2021-10-14T07:04:53.000Z</time>
      </trkpt>
      <trkpt lat="47.27401" lon="-2.3507">
        <ele>11.60000038147</ele>
        <time>2021-10-14T07:04:54.000Z</time>
      </trkpt>
      <trkpt lat="47.27409" lon="-2.35096">
        <ele>11.60000038147</ele>
        <time>2021-10-14T07:04:59.000Z</time>
      </trkpt>
      <trkpt lat="47.27421" lon="-2.3515">
        <ele>11.60000038147</ele>
        <time>2021-10-14T07:05:08.000Z</time>
      </trkpt>
      <trkpt lat="47.27432" lon="-2.35172">
        <ele>11.60000038147</ele>
        <time>2021-10-14T07:05:13.000Z</time>
      </trkpt>
      <trkpt lat="47.27444" lon="-2.35168">
        <ele>11.60000038147</ele>
        <time>2021-10-14T07:05:16.000Z</time>
      </trkpt>
      <trkpt lat="47.27448" lon="-2.35166">
        <ele>11.60000038147</ele>
        <time>2021-10-14T07:05:17.000Z</time>
      </trkpt>
      <trkpt lat="47.27467" lon="-2.35157">
        <ele>12</ele>
        <time>2021-10-14T07:05:22.000Z</time>
      </trkpt>
      <trkpt lat="47.27471" lon="-2.35155">
        <ele>12.39999961853</ele>
        <time>2021-10-14T07:05:23.000Z</time>
      </trkpt>
      <trkpt lat="47.27474" lon="-2.35153">
        <ele>12.800000190735</ele>
        <time>2021-10-14T07:05:24.000Z</time>
      </trkpt>
      <trkpt lat="47.27477" lon="-2.35151">
        <ele>13.199999809265</ele>
        <time>2021-10-14T07:05:25.000Z</time>
      </trkpt>
      <trkpt lat="47.27481" lon="-2.3515">
        <ele>13.60000038147</ele>
        <time>2021-10-14T07:05:26.000Z</time>
      </trkpt>
      <trkpt lat="47.27498" lon="-2.35141">
        <ele>13.60000038147</ele>
        <time>2021-10-14T07:05:31.000Z</time>
      </trkpt>
      <trkpt lat="47.27503" lon="-2.35134">
        <ele>13.60000038147</ele>
        <time>2021-10-14T07:05:33.000Z</time>
      </trkpt>
      <trkpt lat="47.27509" lon="-2.3513">
        <ele>13.60000038147</ele>
        <time>2021-10-14T07:05:35.000Z</time>
      </trkpt>
      <trkpt lat="47.27521" lon="-2.35135">
        <ele>14</ele>
        <time>2021-10-14T07:05:38.000Z</time>
      </trkpt>
      <trkpt lat="47.27525" lon="-2.35136">
        <ele>14.39999961853</ele>
        <time>2021-10-14T07:05:39.000Z</time>
      </trkpt>
      <trkpt lat="47.27529" lon="-2.35138">
        <ele>14.800000190735</ele>
        <time>2021-10-14T07:05:40.000Z</time>
      </trkpt>
      <trkpt lat="47.27533" lon="-2.3514">
        <ele>15.199999809265</ele>
        <time>2021-10-14T07:05:41.000Z</time>
      </trkpt>
      <trkpt lat="47.27537" lon="-2.35141">
        <ele>15.60000038147</ele>
        <time>2021-10-14T07:05:42.000Z</time>
      </trkpt>
      <trkpt lat="47.27547" lon="-2.35141">
        <ele>15.60000038147</ele>
        <time>2021-10-14T07:05:44.000Z</time>
      </trkpt>
      <trkpt lat="47.27552" lon="-2.3514">
        <ele>15.60000038147</ele>
        <time>2021-10-14T07:05:45.000Z</time>
      </trkpt>
      <trkpt lat="47.27575" lon="-2.35136">
        <ele>15.60000038147</ele>
        <time>2021-10-14T07:05:50.000Z</time>
      </trkpt>
      <trkpt lat="47.27603" lon="-2.35137">
        <ele>15.60000038147</ele>
        <time>2021-10-14T07:05:55.000Z</time>
      </trkpt>
      <trkpt lat="47.2761" lon="-2.35158">
        <ele>15.60000038147</ele>
        <time>2021-10-14T07:05:58.000Z</time>
      </trkpt>
      <trkpt lat="47.27611" lon="-2.35166">
        <ele>15.60000038147</ele>
        <time>2021-10-14T07:05:59.000Z</time>
      </trkpt>
      <trkpt lat="47.27614" lon="-2.35172">
        <ele>15.60000038147</ele>
        <time>2021-10-14T07:06:00.000Z</time>
      </trkpt>
      <trkpt lat="47.27623" lon="-2.35179">
        <ele>15.60000038147</ele>
        <time>2021-10-14T07:06:02.000Z</time>
      </trkpt>
      <trkpt lat="47.2764" lon="-2.3518">
        <ele>15.60000038147</ele>
        <time>2021-10-14T07:06:05.000Z</time>
      </trkpt>
      <trkpt lat="47.27668" lon="-2.35178">
        <ele>15.199999809265</ele>
        <time>2021-10-14T07:06:10.000Z</time>
      </trkpt>
      <trkpt lat="47.27672" lon="-2.35182">
        <ele>14.800000190735</ele>
        <time>2021-10-14T07:06:11.000Z</time>
      </trkpt>
      <trkpt lat="47.27674" lon="-2.35188">
        <ele>14.39999961853</ele>
        <time>2021-10-14T07:06:12.000Z</time>
      </trkpt>
      <trkpt lat="47.27675" lon="-2.35196">
        <ele>13.800000190735</ele>
        <time>2021-10-14T07:06:13.000Z</time>
      </trkpt>
      <trkpt lat="47.27675" lon="-2.35205">
        <ele>13.39999961853</ele>
        <time>2021-10-14T07:06:14.000Z</time>
      </trkpt>
      <trkpt lat="47.27679" lon="-2.35222">
        <ele>13</ele>
        <time>2021-10-14T07:06:17.000Z</time>
      </trkpt>
      <trkpt lat="47.27682" lon="-2.35222">
        <ele>12.60000038147</ele>
        <time>2021-10-14T07:06:18.000Z</time>
      </trkpt>
      <trkpt lat="47.27687" lon="-2.35221">
        <ele>12.199999809265</ele>
        <time>2021-10-14T07:06:19.000Z</time>
      </trkpt>
      <trkpt lat="47.27692" lon="-2.35219">
        <ele>11.39999961853</ele>
        <time>2021-10-14T07:06:20.000Z</time>
      </trkpt>
      <trkpt lat="47.27697" lon="-2.35218">
        <ele>11.39999961853</ele>
        <time>2021-10-14T07:06:21.000Z</time>
      </trkpt>
      <trkpt lat="47.27733" lon="-2.35206">
        <ele>11.39999961853</ele>
        <time>2021-10-14T07:06:27.000Z</time>
      </trkpt>
      <trkpt lat="47.27751" lon="-2.35202">
        <ele>11</ele>
        <time>2021-10-14T07:06:30.000Z</time>
      </trkpt>
      <trkpt lat="47.27757" lon="-2.352">
        <ele>10.60000038147</ele>
        <time>2021-10-14T07:06:31.000Z</time>
      </trkpt>
      <trkpt lat="47.27763" lon="-2.35199">
        <ele>10.199999809265</ele>
        <time>2021-10-14T07:06:32.000Z</time>
      </trkpt>
      <trkpt lat="47.27767" lon="-2.35199">
        <ele>9.8000001907349</ele>
        <time>2021-10-14T07:06:33.000Z</time>
      </trkpt>
      <trkpt lat="47.2777" lon="-2.352">
        <ele>9.3999996185303</ele>
        <time>2021-10-14T07:06:34.000Z</time>
      </trkpt>
      <trkpt lat="47.27778" lon="-2.35217">
        <ele>9.3999996185303</ele>
        <time>2021-10-14T07:06:38.000Z</time>
      </trkpt>
      <trkpt lat="47.27782" lon="-2.35249">
        <ele>9.3999996185303</ele>
        <time>2021-10-14T07:06:42.000Z</time>
      </trkpt>
      <trkpt lat="47.27796" lon="-2.35314">
        <ele>9.3999996185303</ele>
        <time>2021-10-14T07:06:50.000Z</time>
      </trkpt>
      <trkpt lat="47.27804" lon="-2.35345">
        <ele>9.3999996185303</ele>
        <time>2021-10-14T07:06:54.000Z</time>
      </trkpt>
      <trkpt lat="47.27812" lon="-2.35357">
        <ele>9.3999996185303</ele>
        <time>2021-10-14T07:06:56.000Z</time>
      </trkpt>
      <trkpt lat="47.27828" lon="-2.3536">
        <ele>9.3999996185303</ele>
        <time>2021-10-14T07:06:59.000Z</time>
      </trkpt>
      <trkpt lat="47.27838" lon="-2.35359">
        <ele>9.3999996185303</ele>
        <time>2021-10-14T07:07:01.000Z</time>
      </trkpt>
      <trkpt lat="47.27848" lon="-2.35359">
        <ele>9.3999996185303</ele>
        <time>2021-10-14T07:07:03.000Z</time>
      </trkpt>
      <trkpt lat="47.27858" lon="-2.35359">
        <ele>9.3999996185303</ele>
        <time>2021-10-14T07:07:05.000Z</time>
      </trkpt>
      <trkpt lat="47.27881" lon="-2.35365">
        <ele>9.3999996185303</ele>
        <time>2021-10-14T07:07:10.000Z</time>
      </trkpt>
      <trkpt lat="47.27885" lon="-2.3537">
        <ele>9.3999996185303</ele>
        <time>2021-10-14T07:07:11.000Z</time>
      </trkpt>
      <trkpt lat="47.27907" lon="-2.35401">
        <ele>9.3999996185303</ele>
        <time>2021-10-14T07:07:17.000Z</time>
      </trkpt>
      <trkpt lat="47.27943" lon="-2.35448">
        <ele>9.3999996185303</ele>
        <time>2021-10-14T07:07:26.000Z</time>
      </trkpt>
      <trkpt lat="47.27957" lon="-2.3546">
        <ele>9.3999996185303</ele>
        <time>2021-10-14T07:07:29.000Z</time>
      </trkpt>
      <trkpt lat="47.27971" lon="-2.35469">
        <ele>9.3999996185303</ele>
        <time>2021-10-14T07:07:32.000Z</time>
      </trkpt>
      <trkpt lat="47.27975" lon="-2.35474">
        <ele>9.3999996185303</ele>
        <time>2021-10-14T07:07:33.000Z</time>
      </trkpt>
      <trkpt lat="47.27983" lon="-2.35486">
        <ele>9.3999996185303</ele>
        <time>2021-10-14T07:07:35.000Z</time>
      </trkpt>
      <trkpt lat="47.27989" lon="-2.35499">
        <ele>9.3999996185303</ele>
        <time>2021-10-14T07:07:37.000Z</time>
      </trkpt>
      <trkpt lat="47.27997" lon="-2.35518">
        <ele>9.3999996185303</ele>
        <time>2021-10-14T07:07:40.000Z</time>
      </trkpt>
      <trkpt lat="47.28001" lon="-2.35529">
        <ele>9.3999996185303</ele>
        <time>2021-10-14T07:07:42.000Z</time>
      </trkpt>
      <trkpt lat="47.28004" lon="-2.35545">
        <ele>9.3999996185303</ele>
        <time>2021-10-14T07:07:45.000Z</time>
      </trkpt>
      <trkpt lat="47.28011" lon="-2.3556">
        <ele>9.8000001907349</ele>
        <time>2021-10-14T07:07:49.000Z</time>
      </trkpt>
      <trkpt lat="47.28013" lon="-2.35564">
        <ele>10.199999809265</ele>
        <time>2021-10-14T07:07:50.000Z</time>
      </trkpt>
      <trkpt lat="47.28016" lon="-2.35566">
        <ele>10.60000038147</ele>
        <time>2021-10-14T07:07:51.000Z</time>
      </trkpt>
      <trkpt lat="47.28019" lon="-2.35566">
        <ele>11</ele>
        <time>2021-10-14T07:07:52.000Z</time>
      </trkpt>
      <trkpt lat="47.28022" lon="-2.35566">
        <ele>11.39999961853</ele>
        <time>2021-10-14T07:07:53.000Z</time>
      </trkpt>
      <trkpt lat="47.28035" lon="-2.35576">
        <ele>11.39999961853</ele>
        <time>2021-10-14T07:07:57.000Z</time>
      </trkpt>
      <trkpt lat="47.28038" lon="-2.35593">
        <ele>11.39999961853</ele>
        <time>2021-10-14T07:08:01.000Z</time>
      </trkpt>
      <trkpt lat="47.28039" lon="-2.35597">
        <ele>11.800000190735</ele>
        <time>2021-10-14T07:08:02.000Z</time>
      </trkpt>
      <trkpt lat="47.28039" lon="-2.35599">
        <ele>12.199999809265</ele>
        <time>2021-10-14T07:08:03.000Z</time>
      </trkpt>
      <trkpt lat="47.28041" lon="-2.35601">
        <ele>12.60000038147</ele>
        <time>2021-10-14T07:08:04.000Z</time>
      </trkpt>
      <trkpt lat="47.28043" lon="-2.35602">
        <ele>13</ele>
        <time>2021-10-14T07:08:05.000Z</time>
      </trkpt>
      <trkpt lat="47.28045" lon="-2.35603">
        <ele>13.39999961853</ele>
        <time>2021-10-14T07:08:06.000Z</time>
      </trkpt>
      <trkpt lat="47.28052" lon="-2.35603">
        <ele>13.39999961853</ele>
        <time>2021-10-14T07:08:09.000Z</time>
      </trkpt>
      <trkpt lat="47.28056" lon="-2.35604">
        <ele>13.39999961853</ele>
        <time>2021-10-14T07:08:11.000Z</time>
      </trkpt>
      <trkpt lat="47.28062" lon="-2.35604">
        <ele>13.39999961853</ele>
        <time>2021-10-14T07:08:17.000Z</time>
      </trkpt>
      <trkpt lat="47.28064" lon="-2.35606">
        <ele>13.39999961853</ele>
        <time>2021-10-14T07:08:21.000Z</time>
      </trkpt>
      <trkpt lat="47.28064" lon="-2.35606">
        <ele>13.39999961853</ele>
        <time>2021-10-14T07:08:22.000Z</time>
      </trkpt>
      <trkpt lat="47.28071" lon="-2.35608">
        <ele>13.39999961853</ele>
        <time>2021-10-14T07:15:41.000Z</time>
      </trkpt>
      <trkpt lat="47.28074" lon="-2.35615">
        <ele>13.39999961853</ele>
        <time>2021-10-14T07:15:46.000Z</time>
      </trkpt>
      <trkpt lat="47.28074" lon="-2.35617">
        <ele>13.39999961853</ele>
        <time>2021-10-14T07:15:47.000Z</time>
      </trkpt>
      <trkpt lat="47.2808" lon="-2.35638">
        <ele>13.39999961853</ele>
        <time>2021-10-14T07:15:54.000Z</time>
      </trkpt>
      <trkpt lat="47.2808" lon="-2.35641">
        <ele>13.800000190735</ele>
        <time>2021-10-14T07:15:55.000Z</time>
      </trkpt>
      <trkpt lat="47.28081" lon="-2.35644">
        <ele>14.199999809265</ele>
        <time>2021-10-14T07:15:56.000Z</time>
      </trkpt>
      <trkpt lat="47.28082" lon="-2.35647">
        <ele>14.60000038147</ele>
        <time>2021-10-14T07:15:57.000Z</time>
      </trkpt>
      <trkpt lat="47.28082" lon="-2.3565">
        <ele>15</ele>
        <time>2021-10-14T07:15:58.000Z</time>
      </trkpt>
      <trkpt lat="47.28083" lon="-2.35652">
        <ele>15.39999961853</ele>
        <time>2021-10-14T07:15:59.000Z</time>
      </trkpt>
      <trkpt lat="47.28085" lon="-2.3566">
        <ele>15.39999961853</ele>
        <time>2021-10-14T07:16:02.000Z</time>
      </trkpt>
      <trkpt lat="47.28086" lon="-2.35663">
        <ele>15.800000190735</ele>
        <time>2021-10-14T07:16:03.000Z</time>
      </trkpt>
      <trkpt lat="47.28086" lon="-2.35666">
        <ele>16.39999961853</ele>
        <time>2021-10-14T07:16:04.000Z</time>
      </trkpt>
      <trkpt lat="47.28087" lon="-2.35668">
        <ele>16.799999237061</ele>
        <time>2021-10-14T07:16:05.000Z</time>
      </trkpt>
      <trkpt lat="47.28088" lon="-2.35671">
        <ele>17.200000762939</ele>
        <time>2021-10-14T07:16:06.000Z</time>
      </trkpt>
      <trkpt lat="47.28089" lon="-2.35674">
        <ele>17.60000038147</ele>
        <time>2021-10-14T07:16:07.000Z</time>
      </trkpt>
      <trkpt lat="47.28089" lon="-2.35676">
        <ele>17.60000038147</ele>
        <time>2021-10-14T07:16:08.000Z</time>
      </trkpt>
      <trkpt lat="47.28094" lon="-2.35696">
        <ele>17.60000038147</ele>
        <time>2021-10-14T07:16:16.000Z</time>
      </trkpt>
      <trkpt lat="47.28094" lon="-2.35701">
        <ele>18</ele>
        <time>2021-10-14T07:16:18.000Z</time>
      </trkpt>
      <trkpt lat="47.28095" lon="-2.35703">
        <ele>18.39999961853</ele>
        <time>2021-10-14T07:16:19.000Z</time>
      </trkpt>
      <trkpt lat="47.28095" lon="-2.35706">
        <ele>18.799999237061</ele>
        <time>2021-10-14T07:16:20.000Z</time>
      </trkpt>
      <trkpt lat="47.28095" lon="-2.35708">
        <ele>19.39999961853</ele>
        <time>2021-10-14T07:16:21.000Z</time>
      </trkpt>
      <trkpt lat="47.28094" lon="-2.35711">
        <ele>19.799999237061</ele>
        <time>2021-10-14T07:16:22.000Z</time>
      </trkpt>
      <trkpt lat="47.28093" lon="-2.35713">
        <ele>19.799999237061</ele>
        <time>2021-10-14T07:16:23.000Z</time>
      </trkpt>
      <trkpt lat="47.28091" lon="-2.35721">
        <ele>19.799999237061</ele>
        <time>2021-10-14T07:16:26.000Z</time>
      </trkpt>
      <trkpt lat="47.28089" lon="-2.35726">
        <ele>19.799999237061</ele>
        <time>2021-10-14T07:16:28.000Z</time>
      </trkpt>
      <trkpt lat="47.28085" lon="-2.35753">
        <ele>19.799999237061</ele>
        <time>2021-10-14T07:16:35.000Z</time>
      </trkpt>
      <trkpt lat="47.28085" lon="-2.35759">
        <ele>19.39999961853</ele>
        <time>2021-10-14T07:16:36.000Z</time>
      </trkpt>
      <trkpt lat="47.28084" lon="-2.35763">
        <ele>18.60000038147</ele>
        <time>2021-10-14T07:16:37.000Z</time>
      </trkpt>
      <trkpt lat="47.28083" lon="-2.35767">
        <ele>18.200000762939</ele>
        <time>2021-10-14T07:16:38.000Z</time>
      </trkpt>
      <trkpt lat="47.28083" lon="-2.35771">
        <ele>17.799999237061</ele>
        <time>2021-10-14T07:16:39.000Z</time>
      </trkpt>
      <trkpt lat="47.28082" lon="-2.35775">
        <ele>17.799999237061</ele>
        <time>2021-10-14T07:16:40.000Z</time>
      </trkpt>
      <trkpt lat="47.28079" lon="-2.35784">
        <ele>17.799999237061</ele>
        <time>2021-10-14T07:16:42.000Z</time>
      </trkpt>
      <trkpt lat="47.28078" lon="-2.358">
        <ele>17.200000762939</ele>
        <time>2021-10-14T07:16:46.000Z</time>
      </trkpt>
      <trkpt lat="47.2808" lon="-2.35804">
        <ele>16.799999237061</ele>
        <time>2021-10-14T07:16:47.000Z</time>
      </trkpt>
      <trkpt lat="47.28082" lon="-2.35806">
        <ele>16.39999961853</ele>
        <time>2021-10-14T07:16:48.000Z</time>
      </trkpt>
      <trkpt lat="47.28084" lon="-2.35807">
        <ele>15.800000190735</ele>
        <time>2021-10-14T07:16:49.000Z</time>
      </trkpt>
      <trkpt lat="47.28086" lon="-2.35805">
        <ele>15.39999961853</ele>
        <time>2021-10-14T07:16:50.000Z</time>
      </trkpt>
      <trkpt lat="47.28092" lon="-2.358">
        <ele>15.39999961853</ele>
        <time>2021-10-14T07:16:52.000Z</time>
      </trkpt>
      <trkpt lat="47.281" lon="-2.35787">
        <ele>15</ele>
        <time>2021-10-14T07:16:55.000Z</time>
      </trkpt>
      <trkpt lat="47.28102" lon="-2.35783">
        <ele>14.60000038147</ele>
        <time>2021-10-14T07:16:56.000Z</time>
      </trkpt>
      <trkpt lat="47.28104" lon="-2.35778">
        <ele>14.199999809265</ele>
        <time>2021-10-14T07:16:57.000Z</time>
      </trkpt>
      <trkpt lat="47.28105" lon="-2.35774">
        <ele>13.800000190735</ele>
        <time>2021-10-14T07:16:58.000Z</time>
      </trkpt>
      <trkpt lat="47.28107" lon="-2.3577">
        <ele>13.199999809265</ele>
        <time>2021-10-14T07:16:59.000Z</time>
      </trkpt>
      <trkpt lat="47.28108" lon="-2.35766">
        <ele>13.199999809265</ele>
        <time>2021-10-14T07:17:00.000Z</time>
      </trkpt>
      <trkpt lat="47.28115" lon="-2.35755">
        <ele>13.199999809265</ele>
        <time>2021-10-14T07:17:05.000Z</time>
      </trkpt>
      <trkpt lat="47.28128" lon="-2.35753">
        <ele>13.199999809265</ele>
        <time>2021-10-14T07:17:10.000Z</time>
      </trkpt>
      <trkpt lat="47.28132" lon="-2.35756">
        <ele>13.199999809265</ele>
        <time>2021-10-14T07:17:12.000Z</time>
      </trkpt>
      <trkpt lat="47.28134" lon="-2.35762">
        <ele>13.199999809265</ele>
        <time>2021-10-14T07:17:15.000Z</time>
      </trkpt>
      <trkpt lat="47.28135" lon="-2.3578">
        <ele>13.199999809265</ele>
        <time>2021-10-14T07:17:21.000Z</time>
      </trkpt>
      <trkpt lat="47.28136" lon="-2.35783">
        <ele>13.199999809265</ele>
        <time>2021-10-14T07:17:22.000Z</time>
      </trkpt>
      <trkpt lat="47.28142" lon="-2.35801">
        <ele>13.199999809265</ele>
        <time>2021-10-14T07:17:28.000Z</time>
      </trkpt>
      <trkpt lat="47.28152" lon="-2.3581">
        <ele>13.800000190735</ele>
        <time>2021-10-14T07:17:33.000Z</time>
      </trkpt>
      <trkpt lat="47.28154" lon="-2.35811">
        <ele>14.199999809265</ele>
        <time>2021-10-14T07:17:34.000Z</time>
      </trkpt>
      <trkpt lat="47.28156" lon="-2.35812">
        <ele>14.60000038147</ele>
        <time>2021-10-14T07:17:35.000Z</time>
      </trkpt>
      <trkpt lat="47.28157" lon="-2.35813">
        <ele>15</ele>
        <time>2021-10-14T07:17:36.000Z</time>
      </trkpt>
      <trkpt lat="47.28159" lon="-2.35814">
        <ele>15.39999961853</ele>
        <time>2021-10-14T07:17:37.000Z</time>
      </trkpt>
      <trkpt lat="47.28169" lon="-2.35832">
        <ele>15.39999961853</ele>
        <time>2021-10-14T07:17:42.000Z</time>
      </trkpt>
      <trkpt lat="47.28181" lon="-2.35849">
        <ele>15.39999961853</ele>
        <time>2021-10-14T07:17:48.000Z</time>
      </trkpt>
      <trkpt lat="47.28189" lon="-2.35875">
        <ele>15.39999961853</ele>
        <time>2021-10-14T07:17:54.000Z</time>
      </trkpt>
      <trkpt lat="47.28199" lon="-2.35888">
        <ele>15.39999961853</ele>
        <time>2021-10-14T07:17:59.000Z</time>
      </trkpt>
      <trkpt lat="47.28218" lon="-2.35891">
        <ele>15.39999961853</ele>
        <time>2021-10-14T07:18:06.000Z</time>
      </trkpt>
      <trkpt lat="47.28239" lon="-2.35894">
        <ele>15.39999961853</ele>
        <time>2021-10-14T07:18:13.000Z</time>
      </trkpt>
      <trkpt lat="47.28244" lon="-2.35897">
        <ele>15.39999961853</ele>
        <time>2021-10-14T07:18:16.000Z</time>
      </trkpt>
      <trkpt lat="47.28246" lon="-2.35901">
        <ele>15.800000190735</ele>
        <time>2021-10-14T07:18:19.000Z</time>
      </trkpt>
      <trkpt lat="47.28247" lon="-2.35902">
        <ele>16.200000762939</ele>
        <time>2021-10-14T07:18:20.000Z</time>
      </trkpt>
      <trkpt lat="47.28248" lon="-2.35904">
        <ele>16.60000038147</ele>
        <time>2021-10-14T07:18:21.000Z</time>
      </trkpt>
      <trkpt lat="47.28249" lon="-2.35906">
        <ele>17</ele>
        <time>2021-10-14T07:18:22.000Z</time>
      </trkpt>
      <trkpt lat="47.28251" lon="-2.3591">
        <ele>17.39999961853</ele>
        <time>2021-10-14T07:18:23.000Z</time>
      </trkpt>
      <trkpt lat="47.28253" lon="-2.35913">
        <ele>17.39999961853</ele>
        <time>2021-10-14T07:18:24.000Z</time>
      </trkpt>
      <trkpt lat="47.28262" lon="-2.35927">
        <ele>17.39999961853</ele>
        <time>2021-10-14T07:18:27.000Z</time>
      </trkpt>
      <trkpt lat="47.28265" lon="-2.35935">
        <ele>17.39999961853</ele>
        <time>2021-10-14T07:18:28.000Z</time>
      </trkpt>
      <trkpt lat="47.28277" lon="-2.35966">
        <ele>17</ele>
        <time>2021-10-14T07:18:32.000Z</time>
      </trkpt>
      <trkpt lat="47.28279" lon="-2.35973">
        <ele>16.60000038147</ele>
        <time>2021-10-14T07:18:33.000Z</time>
      </trkpt>
      <trkpt lat="47.28279" lon="-2.35978">
        <ele>16.200000762939</ele>
        <time>2021-10-14T07:18:34.000Z</time>
      </trkpt>
      <trkpt lat="47.28279" lon="-2.35983">
        <ele>15.800000190735</ele>
        <time>2021-10-14T07:18:35.000Z</time>
      </trkpt>
      <trkpt lat="47.28277" lon="-2.35987">
        <ele>15.39999961853</ele>
        <time>2021-10-14T07:18:36.000Z</time>
      </trkpt>
      <trkpt lat="47.28272" lon="-2.35993">
        <ele>15.39999961853</ele>
        <time>2021-10-14T07:18:38.000Z</time>
      </trkpt>
      <trkpt lat="47.28259" lon="-2.36013">
        <ele>15.39999961853</ele>
        <time>2021-10-14T07:18:43.000Z</time>
      </trkpt>
      <trkpt lat="47.28256" lon="-2.36023">
        <ele>15.39999961853</ele>
        <time>2021-10-14T07:18:45.000Z</time>
      </trkpt>
      <trkpt lat="47.28253" lon="-2.36038">
        <ele>15.39999961853</ele>
        <time>2021-10-14T07:18:49.000Z</time>
      </trkpt>
      <trkpt lat="47.28249" lon="-2.36065">
        <ele>15.39999961853</ele>
        <time>2021-10-14T07:18:56.000Z</time>
      </trkpt>
      <trkpt lat="47.28244" lon="-2.36087">
        <ele>15.39999961853</ele>
        <time>2021-10-14T07:19:02.000Z</time>
      </trkpt>
      <trkpt lat="47.28249" lon="-2.36109">
        <ele>15.39999961853</ele>
        <time>2021-10-14T07:19:06.000Z</time>
      </trkpt>
      <trkpt lat="47.28254" lon="-2.36122">
        <ele>15.39999961853</ele>
        <time>2021-10-14T07:19:08.000Z</time>
      </trkpt>
      <trkpt lat="47.28264" lon="-2.36148">
        <ele>15.39999961853</ele>
        <time>2021-10-14T07:19:12.000Z</time>
      </trkpt>
      <trkpt lat="47.28272" lon="-2.36184">
        <ele>15.39999961853</ele>
        <time>2021-10-14T07:19:18.000Z</time>
      </trkpt>
      <trkpt lat="47.28282" lon="-2.3622">
        <ele>14.800000190735</ele>
        <time>2021-10-14T07:19:24.000Z</time>
      </trkpt>
      <trkpt lat="47.28285" lon="-2.36226">
        <ele>14.39999961853</ele>
        <time>2021-10-14T07:19:25.000Z</time>
      </trkpt>
      <trkpt lat="47.28289" lon="-2.36232">
        <ele>14</ele>
        <time>2021-10-14T07:19:26.000Z</time>
      </trkpt>
      <trkpt lat="47.28292" lon="-2.36235">
        <ele>13.60000038147</ele>
        <time>2021-10-14T07:19:27.000Z</time>
      </trkpt>
      <trkpt lat="47.28297" lon="-2.36237">
        <ele>13.199999809265</ele>
        <time>2021-10-14T07:19:28.000Z</time>
      </trkpt>
      <trkpt lat="47.28311" lon="-2.36239">
        <ele>13.199999809265</ele>
        <time>2021-10-14T07:19:32.000Z</time>
      </trkpt>
      <trkpt lat="47.28337" lon="-2.36249">
        <ele>13.199999809265</ele>
        <time>2021-10-14T07:19:39.000Z</time>
      </trkpt>
      <trkpt lat="47.28354" lon="-2.3626">
        <ele>13.199999809265</ele>
        <time>2021-10-14T07:19:44.000Z</time>
      </trkpt>
      <trkpt lat="47.28371" lon="-2.36267">
        <ele>13.199999809265</ele>
        <time>2021-10-14T07:19:49.000Z</time>
      </trkpt>
      <trkpt lat="47.28374" lon="-2.36268">
        <ele>13.60000038147</ele>
        <time>2021-10-14T07:19:50.000Z</time>
      </trkpt>
      <trkpt lat="47.28377" lon="-2.36268">
        <ele>14.199999809265</ele>
        <time>2021-10-14T07:19:51.000Z</time>
      </trkpt>
      <trkpt lat="47.2838" lon="-2.36269">
        <ele>14.60000038147</ele>
        <time>2021-10-14T07:19:52.000Z</time>
      </trkpt>
      <trkpt lat="47.28382" lon="-2.36269">
        <ele>15</ele>
        <time>2021-10-14T07:19:53.000Z</time>
      </trkpt>
      <trkpt lat="47.28385" lon="-2.36269">
        <ele>15.60000038147</ele>
        <time>2021-10-14T07:19:54.000Z</time>
      </trkpt>
      <trkpt lat="47.28391" lon="-2.3627">
        <ele>15.60000038147</ele>
        <time>2021-10-14T07:19:56.000Z</time>
      </trkpt>
      <trkpt lat="47.28405" lon="-2.36276">
        <ele>16</ele>
        <time>2021-10-14T07:20:01.000Z</time>
      </trkpt>
      <trkpt lat="47.28407" lon="-2.36278">
        <ele>16.39999961853</ele>
        <time>2021-10-14T07:20:02.000Z</time>
      </trkpt>
      <trkpt lat="47.2841" lon="-2.36279">
        <ele>16.799999237061</ele>
        <time>2021-10-14T07:20:03.000Z</time>
      </trkpt>
      <trkpt lat="47.28413" lon="-2.36281">
        <ele>17.200000762939</ele>
        <time>2021-10-14T07:20:04.000Z</time>
      </trkpt>
      <trkpt lat="47.28417" lon="-2.36282">
        <ele>17.60000038147</ele>
        <time>2021-10-14T07:20:05.000Z</time>
      </trkpt>
      <trkpt lat="47.28432" lon="-2.36289">
        <ele>17.60000038147</ele>
        <time>2021-10-14T07:20:09.000Z</time>
      </trkpt>
      <trkpt lat="47.2845" lon="-2.36296">
        <ele>18</ele>
        <time>2021-10-14T07:20:14.000Z</time>
      </trkpt>
      <trkpt lat="47.28453" lon="-2.36296">
        <ele>18.39999961853</ele>
        <time>2021-10-14T07:20:15.000Z</time>
      </trkpt>
      <trkpt lat="47.28456" lon="-2.36295">
        <ele>18.799999237061</ele>
        <time>2021-10-14T07:20:16.000Z</time>
      </trkpt>
      <trkpt lat="47.28458" lon="-2.36293">
        <ele>19.200000762939</ele>
        <time>2021-10-14T07:20:17.000Z</time>
      </trkpt>
      <trkpt lat="47.28458" lon="-2.36291">
        <ele>19.60000038147</ele>
        <time>2021-10-14T07:20:18.000Z</time>
      </trkpt>
      <trkpt lat="47.28459" lon="-2.36278">
        <ele>19.60000038147</ele>
        <time>2021-10-14T07:20:21.000Z</time>
      </trkpt>
      <trkpt lat="47.28457" lon="-2.36253">
        <ele>19.60000038147</ele>
        <time>2021-10-14T07:20:27.000Z</time>
      </trkpt>
      <trkpt lat="47.28456" lon="-2.36227">
        <ele>19.60000038147</ele>
        <time>2021-10-14T07:20:32.000Z</time>
      </trkpt>
      <trkpt lat="47.28454" lon="-2.36209">
        <ele>19.60000038147</ele>
        <time>2021-10-14T07:20:37.000Z</time>
      </trkpt>
      <trkpt lat="47.28454" lon="-2.36201">
        <ele>20</ele>
        <time>2021-10-14T07:20:40.000Z</time>
      </trkpt>
      <trkpt lat="47.28454" lon="-2.36198">
        <ele>20.39999961853</ele>
        <time>2021-10-14T07:20:41.000Z</time>
      </trkpt>
      <trkpt lat="47.28454" lon="-2.36196">
        <ele>20.799999237061</ele>
        <time>2021-10-14T07:20:42.000Z</time>
      </trkpt>
      <trkpt lat="47.28454" lon="-2.36194">
        <ele>21.200000762939</ele>
        <time>2021-10-14T07:20:43.000Z</time>
      </trkpt>
      <trkpt lat="47.28452" lon="-2.36192">
        <ele>21.60000038147</ele>
        <time>2021-10-14T07:20:44.000Z</time>
      </trkpt>
      <trkpt lat="47.28449" lon="-2.3618">
        <ele>21.60000038147</ele>
        <time>2021-10-14T07:20:48.000Z</time>
      </trkpt>
      <trkpt lat="47.28449" lon="-2.36177">
        <ele>21.60000038147</ele>
        <time>2021-10-14T07:20:49.000Z</time>
      </trkpt>
      <trkpt lat="47.28449" lon="-2.36172">
        <ele>22</ele>
        <time>2021-10-14T07:20:51.000Z</time>
      </trkpt>
      <trkpt lat="47.28449" lon="-2.3617">
        <ele>22.39999961853</ele>
        <time>2021-10-14T07:20:52.000Z</time>
      </trkpt>
      <trkpt lat="47.28449" lon="-2.36167">
        <ele>22.799999237061</ele>
        <time>2021-10-14T07:20:53.000Z</time>
      </trkpt>
      <trkpt lat="47.28449" lon="-2.36163">
        <ele>23.200000762939</ele>
        <time>2021-10-14T07:20:54.000Z</time>
      </trkpt>
      <trkpt lat="47.28448" lon="-2.36161">
        <ele>23.60000038147</ele>
        <time>2021-10-14T07:20:55.000Z</time>
      </trkpt>
      <trkpt lat="47.28445" lon="-2.36153">
        <ele>23.60000038147</ele>
        <time>2021-10-14T07:20:58.000Z</time>
      </trkpt>
      <trkpt lat="47.28443" lon="-2.36146">
        <ele>24</ele>
        <time>2021-10-14T07:21:00.000Z</time>
      </trkpt>
      <trkpt lat="47.28443" lon="-2.36142">
        <ele>24.39999961853</ele>
        <time>2021-10-14T07:21:01.000Z</time>
      </trkpt>
      <trkpt lat="47.28443" lon="-2.36138">
        <ele>24.799999237061</ele>
        <time>2021-10-14T07:21:02.000Z</time>
      </trkpt>
      <trkpt lat="47.28443" lon="-2.36134">
        <ele>25.200000762939</ele>
        <time>2021-10-14T07:21:03.000Z</time>
      </trkpt>
      <trkpt lat="47.28442" lon="-2.36131">
        <ele>25.60000038147</ele>
        <time>2021-10-14T07:21:04.000Z</time>
      </trkpt>
      <trkpt lat="47.28439" lon="-2.36116">
        <ele>25.60000038147</ele>
        <time>2021-10-14T07:21:08.000Z</time>
      </trkpt>
      <trkpt lat="47.28438" lon="-2.36108">
        <ele>26.200000762939</ele>
        <time>2021-10-14T07:21:10.000Z</time>
      </trkpt>
      <trkpt lat="47.28438" lon="-2.36103">
        <ele>26.60000038147</ele>
        <time>2021-10-14T07:21:11.000Z</time>
      </trkpt>
      <trkpt lat="47.28438" lon="-2.36099">
        <ele>27</ele>
        <time>2021-10-14T07:21:12.000Z</time>
      </trkpt>
      <trkpt lat="47.28437" lon="-2.36095">
        <ele>27.39999961853</ele>
        <time>2021-10-14T07:21:13.000Z</time>
      </trkpt>
      <trkpt lat="47.28437" lon="-2.36091">
        <ele>27.799999237061</ele>
        <time>2021-10-14T07:21:14.000Z</time>
      </trkpt>
      <trkpt lat="47.28436" lon="-2.36071">
        <ele>27.799999237061</ele>
        <time>2021-10-14T07:21:19.000Z</time>
      </trkpt>
      <trkpt lat="47.28436" lon="-2.36067">
        <ele>28.200000762939</ele>
        <time>2021-10-14T07:21:20.000Z</time>
      </trkpt>
      <trkpt lat="47.28436" lon="-2.36063">
        <ele>28.60000038147</ele>
        <time>2021-10-14T07:21:21.000Z</time>
      </trkpt>
      <trkpt lat="47.28435" lon="-2.36059">
        <ele>29</ele>
        <time>2021-10-14T07:21:22.000Z</time>
      </trkpt>
      <trkpt lat="47.28435" lon="-2.36055">
        <ele>29.39999961853</ele>
        <time>2021-10-14T07:21:23.000Z</time>
      </trkpt>
      <trkpt lat="47.28436" lon="-2.3605">
        <ele>30</ele>
        <time>2021-10-14T07:21:24.000Z</time>
      </trkpt>
      <trkpt lat="47.28436" lon="-2.36046">
        <ele>30</ele>
        <time>2021-10-14T07:21:25.000Z</time>
      </trkpt>
      <trkpt lat="47.28438" lon="-2.36032">
        <ele>30</ele>
        <time>2021-10-14T07:21:31.000Z</time>
      </trkpt>
      <trkpt lat="47.2844" lon="-2.36023">
        <ele>30</ele>
        <time>2021-10-14T07:21:38.000Z</time>
      </trkpt>
      <trkpt lat="47.28444" lon="-2.36014">
        <ele>30.39999961853</ele>
        <time>2021-10-14T07:21:46.000Z</time>
      </trkpt>
      <trkpt lat="47.28444" lon="-2.36011">
        <ele>30.799999237061</ele>
        <time>2021-10-14T07:21:47.000Z</time>
      </trkpt>
      <trkpt lat="47.28445" lon="-2.36008">
        <ele>31.200000762939</ele>
        <time>2021-10-14T07:21:48.000Z</time>
      </trkpt>
      <trkpt lat="47.28447" lon="-2.36005">
        <ele>31.60000038147</ele>
        <time>2021-10-14T07:21:49.000Z</time>
      </trkpt>
      <trkpt lat="47.28448" lon="-2.36002">
        <ele>32</ele>
        <time>2021-10-14T07:21:50.000Z</time>
      </trkpt>
      <trkpt lat="47.2845" lon="-2.35998">
        <ele>32</ele>
        <time>2021-10-14T07:21:51.000Z</time>
      </trkpt>
      <trkpt lat="47.28462" lon="-2.3598">
        <ele>32</ele>
        <time>2021-10-14T07:21:56.000Z</time>
      </trkpt>
      <trkpt lat="47.2848" lon="-2.35955">
        <ele>32</ele>
        <time>2021-10-14T07:22:02.000Z</time>
      </trkpt>
      <trkpt lat="47.28484" lon="-2.35951">
        <ele>31.60000038147</ele>
        <time>2021-10-14T07:22:03.000Z</time>
      </trkpt>
      <trkpt lat="47.28489" lon="-2.35948">
        <ele>31.200000762939</ele>
        <time>2021-10-14T07:22:04.000Z</time>
      </trkpt>
      <trkpt lat="47.28493" lon="-2.35945">
        <ele>30.799999237061</ele>
        <time>2021-10-14T07:22:05.000Z</time>
      </trkpt>
      <trkpt lat="47.28497" lon="-2.35944">
        <ele>30.39999961853</ele>
        <time>2021-10-14T07:22:06.000Z</time>
      </trkpt>
      <trkpt lat="47.285" lon="-2.35943">
        <ele>29.799999237061</ele>
        <time>2021-10-14T07:22:07.000Z</time>
      </trkpt>
      <trkpt lat="47.28526" lon="-2.35938">
        <ele>29.799999237061</ele>
        <time>2021-10-14T07:22:14.000Z</time>
      </trkpt>
      <trkpt lat="47.28538" lon="-2.35932">
        <ele>29.799999237061</ele>
        <time>2021-10-14T07:22:18.000Z</time>
      </trkpt>
      <trkpt lat="47.28541" lon="-2.35928">
        <ele>29.799999237061</ele>
        <time>2021-10-14T07:22:19.000Z</time>
      </trkpt>
      <trkpt lat="47.28549" lon="-2.35904">
        <ele>29.799999237061</ele>
        <time>2021-10-14T07:22:23.000Z</time>
      </trkpt>
      <trkpt lat="47.28551" lon="-2.35898">
        <ele>29.39999961853</ele>
        <time>2021-10-14T07:22:24.000Z</time>
      </trkpt>
      <trkpt lat="47.28554" lon="-2.35894">
        <ele>29</ele>
        <time>2021-10-14T07:22:25.000Z</time>
      </trkpt>
      <trkpt lat="47.28557" lon="-2.35891">
        <ele>28.39999961853</ele>
        <time>2021-10-14T07:22:26.000Z</time>
      </trkpt>
      <trkpt lat="47.2856" lon="-2.3589">
        <ele>28</ele>
        <time>2021-10-14T07:22:27.000Z</time>
      </trkpt>
      <trkpt lat="47.28564" lon="-2.35892">
        <ele>27.39999961853</ele>
        <time>2021-10-14T07:22:28.000Z</time>
      </trkpt>
      <trkpt lat="47.28568" lon="-2.35896">
        <ele>27</ele>
        <time>2021-10-14T07:22:29.000Z</time>
      </trkpt>
      <trkpt lat="47.28571" lon="-2.35901">
        <ele>26.60000038147</ele>
        <time>2021-10-14T07:22:30.000Z</time>
      </trkpt>
      <trkpt lat="47.28573" lon="-2.35907">
        <ele>26.200000762939</ele>
        <time>2021-10-14T07:22:31.000Z</time>
      </trkpt>
      <trkpt lat="47.28573" lon="-2.35912">
        <ele>25.60000038147</ele>
        <time>2021-10-14T07:22:32.000Z</time>
      </trkpt>
      <trkpt lat="47.28573" lon="-2.35917">
        <ele>25.200000762939</ele>
        <time>2021-10-14T07:22:33.000Z</time>
      </trkpt>
      <trkpt lat="47.28574" lon="-2.35921">
        <ele>25.200000762939</ele>
        <time>2021-10-14T07:22:34.000Z</time>
      </trkpt>
      <trkpt lat="47.28576" lon="-2.35926">
        <ele>25.200000762939</ele>
        <time>2021-10-14T07:22:35.000Z</time>
      </trkpt>
      <trkpt lat="47.28582" lon="-2.35934">
        <ele>25.200000762939</ele>
        <time>2021-10-14T07:22:37.000Z</time>
      </trkpt>
      <trkpt lat="47.28598" lon="-2.35941">
        <ele>25.200000762939</ele>
        <time>2021-10-14T07:22:41.000Z</time>
      </trkpt>
      <trkpt lat="47.28602" lon="-2.35942">
        <ele>25.200000762939</ele>
        <time>2021-10-14T07:22:42.000Z</time>
      </trkpt>
      <trkpt lat="47.28614" lon="-2.35948">
        <ele>25.200000762939</ele>
        <time>2021-10-14T07:22:45.000Z</time>
      </trkpt>
      <trkpt lat="47.28618" lon="-2.35949">
        <ele>25.200000762939</ele>
        <time>2021-10-14T07:22:46.000Z</time>
      </trkpt>
      <trkpt lat="47.28638" lon="-2.35954">
        <ele>25.200000762939</ele>
        <time>2021-10-14T07:22:50.000Z</time>
      </trkpt>
      <trkpt lat="47.28642" lon="-2.35953">
        <ele>25.200000762939</ele>
        <time>2021-10-14T07:22:51.000Z</time>
      </trkpt>
      <trkpt lat="47.28659" lon="-2.35941">
        <ele>24.799999237061</ele>
        <time>2021-10-14T07:22:55.000Z</time>
      </trkpt>
      <trkpt lat="47.28663" lon="-2.35937">
        <ele>24.39999961853</ele>
        <time>2021-10-14T07:22:56.000Z</time>
      </trkpt>
      <trkpt lat="47.28667" lon="-2.35933">
        <ele>24</ele>
        <time>2021-10-14T07:22:57.000Z</time>
      </trkpt>
      <trkpt lat="47.28671" lon="-2.35928">
        <ele>23.60000038147</ele>
        <time>2021-10-14T07:22:58.000Z</time>
      </trkpt>
      <trkpt lat="47.28675" lon="-2.35923">
        <ele>23.200000762939</ele>
        <time>2021-10-14T07:22:59.000Z</time>
      </trkpt>
      <trkpt lat="47.28687" lon="-2.35907">
        <ele>23.200000762939</ele>
        <time>2021-10-14T07:23:02.000Z</time>
      </trkpt>
      <trkpt lat="47.2871" lon="-2.35876">
        <ele>23.200000762939</ele>
        <time>2021-10-14T07:23:08.000Z</time>
      </trkpt>
      <trkpt lat="47.28734" lon="-2.35834">
        <ele>23.200000762939</ele>
        <time>2021-10-14T07:23:16.000Z</time>
      </trkpt>
      <trkpt lat="47.28751" lon="-2.35802">
        <ele>23.200000762939</ele>
        <time>2021-10-14T07:23:23.000Z</time>
      </trkpt>
      <trkpt lat="47.28761" lon="-2.35783">
        <ele>23.200000762939</ele>
        <time>2021-10-14T07:23:27.000Z</time>
      </trkpt>
      <trkpt lat="47.28771" lon="-2.35764">
        <ele>23.200000762939</ele>
        <time>2021-10-14T07:23:31.000Z</time>
      </trkpt>
      <trkpt lat="47.28793" lon="-2.3572">
        <ele>23.200000762939</ele>
        <time>2021-10-14T07:23:40.000Z</time>
      </trkpt>
      <trkpt lat="47.28812" lon="-2.35684">
        <ele>23.200000762939</ele>
        <time>2021-10-14T07:23:47.000Z</time>
      </trkpt>
      <trkpt lat="47.28835" lon="-2.35652">
        <ele>23.200000762939</ele>
        <time>2021-10-14T07:23:54.000Z</time>
      </trkpt>
      <trkpt lat="47.28865" lon="-2.35622">
        <ele>23.200000762939</ele>
        <time>2021-10-14T07:24:02.000Z</time>
      </trkpt>
      <trkpt lat="47.28886" lon="-2.35597">
        <ele>23.200000762939</ele>
        <time>2021-10-14T07:24:08.000Z</time>
      </trkpt>
      <trkpt lat="47.28911" lon="-2.3557">
        <ele>23.200000762939</ele>
        <time>2021-10-14T07:24:15.000Z</time>
      </trkpt>
      <trkpt lat="47.28927" lon="-2.35557">
        <ele>23.200000762939</ele>
        <time>2021-10-14T07:24:21.000Z</time>
      </trkpt>
      <trkpt lat="47.28932" lon="-2.3557">
        <ele>23.200000762939</ele>
        <time>2021-10-14T07:24:24.000Z</time>
      </trkpt>
      <trkpt lat="47.28936" lon="-2.35581">
        <ele>23.200000762939</ele>
        <time>2021-10-14T07:24:26.000Z</time>
      </trkpt>
      <trkpt lat="47.28947" lon="-2.35609">
        <ele>23.200000762939</ele>
        <time>2021-10-14T07:24:31.000Z</time>
      </trkpt>
      <trkpt lat="47.28962" lon="-2.35647">
        <ele>23.200000762939</ele>
        <time>2021-10-14T07:24:38.000Z</time>
      </trkpt>
      <trkpt lat="47.28982" lon="-2.3569">
        <ele>23.200000762939</ele>
        <time>2021-10-14T07:24:46.000Z</time>
      </trkpt>
      <trkpt lat="47.28986" lon="-2.35695">
        <ele>23.200000762939</ele>
        <time>2021-10-14T07:24:47.000Z</time>
      </trkpt>
      <trkpt lat="47.29004" lon="-2.35706">
        <ele>23.200000762939</ele>
        <time>2021-10-14T07:24:51.000Z</time>
      </trkpt>
      <trkpt lat="47.29009" lon="-2.35707">
        <ele>23.60000038147</ele>
        <time>2021-10-14T07:24:52.000Z</time>
      </trkpt>
      <trkpt lat="47.29014" lon="-2.35706">
        <ele>24</ele>
        <time>2021-10-14T07:24:53.000Z</time>
      </trkpt>
      <trkpt lat="47.29019" lon="-2.35705">
        <ele>24.39999961853</ele>
        <time>2021-10-14T07:24:54.000Z</time>
      </trkpt>
      <trkpt lat="47.29024" lon="-2.35703">
        <ele>24.799999237061</ele>
        <time>2021-10-14T07:24:55.000Z</time>
      </trkpt>
      <trkpt lat="47.29029" lon="-2.35699">
        <ele>25.200000762939</ele>
        <time>2021-10-14T07:24:56.000Z</time>
      </trkpt>
      <trkpt lat="47.29038" lon="-2.35691">
        <ele>25.200000762939</ele>
        <time>2021-10-14T07:24:58.000Z</time>
      </trkpt>
      <trkpt lat="47.29046" lon="-2.35683">
        <ele>25.200000762939</ele>
        <time>2021-10-14T07:25:00.000Z</time>
      </trkpt>
      <trkpt lat="47.29078" lon="-2.35648">
        <ele>25.200000762939</ele>
        <time>2021-10-14T07:25:09.000Z</time>
      </trkpt>
      <trkpt lat="47.29085" lon="-2.35641">
        <ele>25.200000762939</ele>
        <time>2021-10-14T07:25:13.000Z</time>
      </trkpt>
      <trkpt lat="47.29089" lon="-2.35647">
        <ele>25.200000762939</ele>
        <time>2021-10-14T07:25:17.000Z</time>
      </trkpt>
      <trkpt lat="47.29093" lon="-2.3566">
        <ele>25.200000762939</ele>
        <time>2021-10-14T07:25:23.000Z</time>
      </trkpt>
      <trkpt lat="47.29094" lon="-2.35672">
        <ele>25.200000762939</ele>
        <time>2021-10-14T07:25:25.000Z</time>
      </trkpt>
      <trkpt lat="47.29094" lon="-2.35678">
        <ele>25.200000762939</ele>
        <time>2021-10-14T07:25:26.000Z</time>
      </trkpt>
      <trkpt lat="47.29097" lon="-2.35706">
        <ele>25.200000762939</ele>
        <time>2021-10-14T07:25:30.000Z</time>
      </trkpt>
      <trkpt lat="47.29102" lon="-2.35718">
        <ele>25.200000762939</ele>
        <time>2021-10-14T07:25:32.000Z</time>
      </trkpt>
      <trkpt lat="47.29112" lon="-2.35746">
        <ele>25.200000762939</ele>
        <time>2021-10-14T07:25:37.000Z</time>
      </trkpt>
      <trkpt lat="47.2913" lon="-2.35788">
        <ele>25.200000762939</ele>
        <time>2021-10-14T07:25:45.000Z</time>
      </trkpt>
      <trkpt lat="47.29141" lon="-2.3582">
        <ele>25.200000762939</ele>
        <time>2021-10-14T07:25:52.000Z</time>
      </trkpt>
      <trkpt lat="47.29145" lon="-2.35826">
        <ele>25.200000762939</ele>
        <time>2021-10-14T07:25:54.000Z</time>
      </trkpt>
      <trkpt lat="47.29151" lon="-2.35827">
        <ele>25.200000762939</ele>
        <time>2021-10-14T07:25:56.000Z</time>
      </trkpt>
      <trkpt lat="47.29162" lon="-2.3582">
        <ele>25.200000762939</ele>
        <time>2021-10-14T07:25:59.000Z</time>
      </trkpt>
      <trkpt lat="47.29167" lon="-2.35818">
        <ele>25.200000762939</ele>
        <time>2021-10-14T07:26:00.000Z</time>
      </trkpt>
      <trkpt lat="47.29208" lon="-2.35791">
        <ele>25.200000762939</ele>
        <time>2021-10-14T07:26:09.000Z</time>
      </trkpt>
      <trkpt lat="47.29212" lon="-2.35788">
        <ele>25.200000762939</ele>
        <time>2021-10-14T07:26:10.000Z</time>
      </trkpt>
      <trkpt lat="47.2922" lon="-2.3578">
        <ele>25.200000762939</ele>
        <time>2021-10-14T07:26:12.000Z</time>
      </trkpt>
      <trkpt lat="47.29235" lon="-2.35764">
        <ele>25.200000762939</ele>
        <time>2021-10-14T07:26:16.000Z</time>
      </trkpt>
      <trkpt lat="47.29255" lon="-2.35737">
        <ele>25.200000762939</ele>
        <time>2021-10-14T07:26:23.000Z</time>
      </trkpt>
      <trkpt lat="47.29257" lon="-2.35727">
        <ele>25.200000762939</ele>
        <time>2021-10-14T07:26:28.000Z</time>
      </trkpt>
      <trkpt lat="47.29258" lon="-2.35726">
        <ele>25.200000762939</ele>
        <time>2021-10-14T07:26:29.000Z</time>
      </trkpt>
      <trkpt lat="47.29265" lon="-2.3573">
        <ele>25.200000762939</ele>
        <time>2021-10-14T07:26:32.000Z</time>
      </trkpt>
      <trkpt lat="47.29273" lon="-2.35737">
        <ele>25.200000762939</ele>
        <time>2021-10-14T07:26:34.000Z</time>
      </trkpt>
      <trkpt lat="47.29283" lon="-2.35747">
        <ele>25.200000762939</ele>
        <time>2021-10-14T07:26:37.000Z</time>
      </trkpt>
      <trkpt lat="47.29305" lon="-2.35768">
        <ele>25.200000762939</ele>
        <time>2021-10-14T07:26:43.000Z</time>
      </trkpt>
      <trkpt lat="47.2934" lon="-2.358">
        <ele>25.200000762939</ele>
        <time>2021-10-14T07:26:51.000Z</time>
      </trkpt>
      <trkpt lat="47.29373" lon="-2.3583">
        <ele>25.200000762939</ele>
        <time>2021-10-14T07:26:59.000Z</time>
      </trkpt>
      <trkpt lat="47.29401" lon="-2.35857">
        <ele>25.200000762939</ele>
        <time>2021-10-14T07:27:06.000Z</time>
      </trkpt>
      <trkpt lat="47.29432" lon="-2.35895">
        <ele>25.200000762939</ele>
        <time>2021-10-14T07:27:15.000Z</time>
      </trkpt>
      <trkpt lat="47.29436" lon="-2.35899">
        <ele>25.200000762939</ele>
        <time>2021-10-14T07:27:16.000Z</time>
      </trkpt>
      <trkpt lat="47.29447" lon="-2.35903">
        <ele>25.200000762939</ele>
        <time>2021-10-14T07:27:19.000Z</time>
      </trkpt>
      <trkpt lat="47.29451" lon="-2.35903">
        <ele>25.200000762939</ele>
        <time>2021-10-14T07:27:20.000Z</time>
      </trkpt>
      <trkpt lat="47.29467" lon="-2.359">
        <ele>25.200000762939</ele>
        <time>2021-10-14T07:27:24.000Z</time>
      </trkpt>
      <trkpt lat="47.29495" lon="-2.359">
        <ele>25.200000762939</ele>
        <time>2021-10-14T07:27:31.000Z</time>
      </trkpt>
      <trkpt lat="47.29499" lon="-2.35903">
        <ele>25.200000762939</ele>
        <time>2021-10-14T07:27:32.000Z</time>
      </trkpt>
      <trkpt lat="47.29504" lon="-2.35913">
        <ele>25.200000762939</ele>
        <time>2021-10-14T07:27:34.000Z</time>
      </trkpt>
      <trkpt lat="47.29508" lon="-2.35929">
        <ele>25.200000762939</ele>
        <time>2021-10-14T07:27:37.000Z</time>
      </trkpt>
      <trkpt lat="47.29513" lon="-2.35938">
        <ele>25.200000762939</ele>
        <time>2021-10-14T07:27:39.000Z</time>
      </trkpt>
      <trkpt lat="47.29523" lon="-2.35938">
        <ele>25.200000762939</ele>
        <time>2021-10-14T07:27:42.000Z</time>
      </trkpt>
      <trkpt lat="47.29527" lon="-2.35936">
        <ele>25.200000762939</ele>
        <time>2021-10-14T07:27:43.000Z</time>
      </trkpt>
      <trkpt lat="47.29531" lon="-2.35933">
        <ele>25.200000762939</ele>
        <time>2021-10-14T07:27:44.000Z</time>
      </trkpt>
      <trkpt lat="47.29544" lon="-2.35925">
        <ele>25.200000762939</ele>
        <time>2021-10-14T07:27:47.000Z</time>
      </trkpt>
      <trkpt lat="47.29578" lon="-2.35908">
        <ele>25.200000762939</ele>
        <time>2021-10-14T07:27:54.000Z</time>
      </trkpt>
      <trkpt lat="47.29618" lon="-2.35884">
        <ele>25.200000762939</ele>
        <time>2021-10-14T07:28:02.000Z</time>
      </trkpt>
      <trkpt lat="47.29637" lon="-2.35873">
        <ele>25.200000762939</ele>
        <time>2021-10-14T07:28:06.000Z</time>
      </trkpt>
      <trkpt lat="47.29646" lon="-2.35865">
        <ele>25.200000762939</ele>
        <time>2021-10-14T07:28:08.000Z</time>
      </trkpt>
      <trkpt lat="47.2965" lon="-2.3586">
        <ele>25.200000762939</ele>
        <time>2021-10-14T07:28:09.000Z</time>
      </trkpt>
      <trkpt lat="47.29662" lon="-2.35839">
        <ele>25.200000762939</ele>
        <time>2021-10-14T07:28:13.000Z</time>
      </trkpt>
      <trkpt lat="47.29676" lon="-2.35839">
        <ele>25.200000762939</ele>
        <time>2021-10-14T07:28:16.000Z</time>
      </trkpt>
      <trkpt lat="47.29687" lon="-2.35839">
        <ele>25.200000762939</ele>
        <time>2021-10-14T07:28:18.000Z</time>
      </trkpt>
      <trkpt lat="47.29708" lon="-2.35833">
        <ele>25.200000762939</ele>
        <time>2021-10-14T07:28:22.000Z</time>
      </trkpt>
      <trkpt lat="47.29735" lon="-2.35819">
        <ele>25.200000762939</ele>
        <time>2021-10-14T07:28:28.000Z</time>
      </trkpt>
      <trkpt lat="47.29761" lon="-2.35805">
        <ele>25.60000038147</ele>
        <time>2021-10-14T07:28:35.000Z</time>
      </trkpt>
      <trkpt lat="47.29765" lon="-2.35804">
        <ele>26</ele>
        <time>2021-10-14T07:28:36.000Z</time>
      </trkpt>
      <trkpt lat="47.29768" lon="-2.35802">
        <ele>26.39999961853</ele>
        <time>2021-10-14T07:28:37.000Z</time>
      </trkpt>
      <trkpt lat="47.29772" lon="-2.35801">
        <ele>26.799999237061</ele>
        <time>2021-10-14T07:28:38.000Z</time>
      </trkpt>
      <trkpt lat="47.29776" lon="-2.35799">
        <ele>27.200000762939</ele>
        <time>2021-10-14T07:28:39.000Z</time>
      </trkpt>
      <trkpt lat="47.29788" lon="-2.35795">
        <ele>27.200000762939</ele>
        <time>2021-10-14T07:28:42.000Z</time>
      </trkpt>
      <trkpt lat="47.29827" lon="-2.35781">
        <ele>27.200000762939</ele>
        <time>2021-10-14T07:28:51.000Z</time>
      </trkpt>
      <trkpt lat="47.29861" lon="-2.3577">
        <ele>27.200000762939</ele>
        <time>2021-10-14T07:28:57.000Z</time>
      </trkpt>
      <trkpt lat="47.29886" lon="-2.3576">
        <ele>27.200000762939</ele>
        <time>2021-10-14T07:29:02.000Z</time>
      </trkpt>
      <trkpt lat="47.29896" lon="-2.35754">
        <ele>27.200000762939</ele>
        <time>2021-10-14T07:29:05.000Z</time>
      </trkpt>
      <trkpt lat="47.29897" lon="-2.35749">
        <ele>27.200000762939</ele>
        <time>2021-10-14T07:29:06.000Z</time>
      </trkpt>
      <trkpt lat="47.29896" lon="-2.35733">
        <ele>27.200000762939</ele>
        <time>2021-10-14T07:29:09.000Z</time>
      </trkpt>
      <trkpt lat="47.29894" lon="-2.35727">
        <ele>27.200000762939</ele>
        <time>2021-10-14T07:29:10.000Z</time>
      </trkpt>
      <trkpt lat="47.29887" lon="-2.35702">
        <ele>27.200000762939</ele>
        <time>2021-10-14T07:29:14.000Z</time>
      </trkpt>
      <trkpt lat="47.29876" lon="-2.35653">
        <ele>27.200000762939</ele>
        <time>2021-10-14T07:29:21.000Z</time>
      </trkpt>
      <trkpt lat="47.29868" lon="-2.35611">
        <ele>26.799999237061</ele>
        <time>2021-10-14T07:29:27.000Z</time>
      </trkpt>
      <trkpt lat="47.29866" lon="-2.35603">
        <ele>26.39999961853</ele>
        <time>2021-10-14T07:29:28.000Z</time>
      </trkpt>
      <trkpt lat="47.29864" lon="-2.35596">
        <ele>26</ele>
        <time>2021-10-14T07:29:29.000Z</time>
      </trkpt>
      <trkpt lat="47.29862" lon="-2.35589">
        <ele>25.39999961853</ele>
        <time>2021-10-14T07:29:30.000Z</time>
      </trkpt>
      <trkpt lat="47.2986" lon="-2.35583">
        <ele>25</ele>
        <time>2021-10-14T07:29:31.000Z</time>
      </trkpt>
      <trkpt lat="47.29853" lon="-2.35558">
        <ele>25</ele>
        <time>2021-10-14T07:29:35.000Z</time>
      </trkpt>
      <trkpt lat="47.29839" lon="-2.35509">
        <ele>25</ele>
        <time>2021-10-14T07:29:43.000Z</time>
      </trkpt>
      <trkpt lat="47.29833" lon="-2.35492">
        <ele>24.200000762939</ele>
        <time>2021-10-14T07:29:46.000Z</time>
      </trkpt>
      <trkpt lat="47.29832" lon="-2.35486">
        <ele>23.799999237061</ele>
        <time>2021-10-14T07:29:47.000Z</time>
      </trkpt>
      <trkpt lat="47.29831" lon="-2.35481">
        <ele>23.39999961853</ele>
        <time>2021-10-14T07:29:48.000Z</time>
      </trkpt>
      <trkpt lat="47.29829" lon="-2.35475">
        <ele>22.799999237061</ele>
        <time>2021-10-14T07:29:49.000Z</time>
      </trkpt>
      <trkpt lat="47.2983" lon="-2.35464">
        <ele>22.799999237061</ele>
        <time>2021-10-14T07:29:51.000Z</time>
      </trkpt>
      <trkpt lat="47.29832" lon="-2.35457">
        <ele>22.799999237061</ele>
        <time>2021-10-14T07:29:52.000Z</time>
      </trkpt>
      <trkpt lat="47.29848" lon="-2.35436">
        <ele>22.799999237061</ele>
        <time>2021-10-14T07:29:56.000Z</time>
      </trkpt>
      <trkpt lat="47.29854" lon="-2.35431">
        <ele>22.799999237061</ele>
        <time>2021-10-14T07:29:57.000Z</time>
      </trkpt>
      <trkpt lat="47.29873" lon="-2.35413">
        <ele>22.799999237061</ele>
        <time>2021-10-14T07:30:01.000Z</time>
      </trkpt>
      <trkpt lat="47.29883" lon="-2.35403">
        <ele>22.799999237061</ele>
        <time>2021-10-14T07:30:03.000Z</time>
      </trkpt>
      <trkpt lat="47.29919" lon="-2.3536">
        <ele>22.799999237061</ele>
        <time>2021-10-14T07:30:11.000Z</time>
      </trkpt>
      <trkpt lat="47.29957" lon="-2.35312">
        <ele>22.39999961853</ele>
        <time>2021-10-14T07:30:20.000Z</time>
      </trkpt>
      <trkpt lat="47.29961" lon="-2.35306">
        <ele>22</ele>
        <time>2021-10-14T07:30:21.000Z</time>
      </trkpt>
      <trkpt lat="47.29965" lon="-2.35301">
        <ele>21.60000038147</ele>
        <time>2021-10-14T07:30:22.000Z</time>
      </trkpt>
      <trkpt lat="47.29969" lon="-2.35296">
        <ele>21.200000762939</ele>
        <time>2021-10-14T07:30:23.000Z</time>
      </trkpt>
      <trkpt lat="47.29973" lon="-2.35291">
        <ele>20.799999237061</ele>
        <time>2021-10-14T07:30:24.000Z</time>
      </trkpt>
      <trkpt lat="47.29988" lon="-2.35273">
        <ele>20.799999237061</ele>
        <time>2021-10-14T07:30:28.000Z</time>
      </trkpt>
      <trkpt lat="47.30006" lon="-2.35256">
        <ele>20.799999237061</ele>
        <time>2021-10-14T07:30:34.000Z</time>
      </trkpt>
      <trkpt lat="47.30014" lon="-2.35255">
        <ele>20.799999237061</ele>
        <time>2021-10-14T07:30:39.000Z</time>
      </trkpt>
      <trkpt lat="47.30019" lon="-2.35251">
        <ele>20.799999237061</ele>
        <time>2021-10-14T07:30:44.000Z</time>
      </trkpt>
      <trkpt lat="47.30024" lon="-2.35246">
        <ele>20.799999237061</ele>
        <time>2021-10-14T07:30:48.000Z</time>
      </trkpt>
      <trkpt lat="47.30027" lon="-2.35245">
        <ele>20.799999237061</ele>
        <time>2021-10-14T07:30:50.000Z</time>
      </trkpt>
      <trkpt lat="47.30037" lon="-2.35238">
        <ele>20.799999237061</ele>
        <time>2021-10-14T07:30:54.000Z</time>
      </trkpt>
      <trkpt lat="47.30057" lon="-2.35231">
        <ele>20.799999237061</ele>
        <time>2021-10-14T07:31:00.000Z</time>
      </trkpt>
      <trkpt lat="47.30072" lon="-2.35221">
        <ele>20.799999237061</ele>
        <time>2021-10-14T07:31:05.000Z</time>
      </trkpt>
      <trkpt lat="47.30089" lon="-2.35216">
        <ele>20.799999237061</ele>
        <time>2021-10-14T07:31:09.000Z</time>
      </trkpt>
      <trkpt lat="47.30107" lon="-2.35208">
        <ele>20.799999237061</ele>
        <time>2021-10-14T07:31:14.000Z</time>
      </trkpt>
      <trkpt lat="47.30128" lon="-2.35196">
        <ele>20.799999237061</ele>
        <time>2021-10-14T07:31:19.000Z</time>
      </trkpt>
      <trkpt lat="47.3014" lon="-2.35195">
        <ele>20.799999237061</ele>
        <time>2021-10-14T07:31:23.000Z</time>
      </trkpt>
      <trkpt lat="47.30156" lon="-2.35191">
        <ele>20.799999237061</ele>
        <time>2021-10-14T07:31:29.000Z</time>
      </trkpt>
      <trkpt lat="47.30171" lon="-2.35178">
        <ele>20.799999237061</ele>
        <time>2021-10-14T07:31:35.000Z</time>
      </trkpt>
      <trkpt lat="47.30191" lon="-2.35173">
        <ele>20.799999237061</ele>
        <time>2021-10-14T07:31:41.000Z</time>
      </trkpt>
      <trkpt lat="47.30199" lon="-2.35169">
        <ele>20.799999237061</ele>
        <time>2021-10-14T07:31:43.000Z</time>
      </trkpt>
      <trkpt lat="47.30206" lon="-2.35159">
        <ele>20.799999237061</ele>
        <time>2021-10-14T07:31:45.000Z</time>
      </trkpt>
      <trkpt lat="47.30209" lon="-2.35138">
        <ele>20.799999237061</ele>
        <time>2021-10-14T07:31:48.000Z</time>
      </trkpt>
      <trkpt lat="47.30209" lon="-2.35131">
        <ele>20.799999237061</ele>
        <time>2021-10-14T07:31:49.000Z</time>
      </trkpt>
      <trkpt lat="47.30209" lon="-2.35117">
        <ele>21.200000762939</ele>
        <time>2021-10-14T07:31:51.000Z</time>
      </trkpt>
      <trkpt lat="47.30209" lon="-2.3511">
        <ele>21.799999237061</ele>
        <time>2021-10-14T07:31:52.000Z</time>
      </trkpt>
      <trkpt lat="47.3021" lon="-2.35104">
        <ele>22.200000762939</ele>
        <time>2021-10-14T07:31:53.000Z</time>
      </trkpt>
      <trkpt lat="47.30211" lon="-2.35097">
        <ele>22.60000038147</ele>
        <time>2021-10-14T07:31:54.000Z</time>
      </trkpt>
      <trkpt lat="47.30211" lon="-2.35089">
        <ele>23</ele>
        <time>2021-10-14T07:31:55.000Z</time>
      </trkpt>
      <trkpt lat="47.30211" lon="-2.35082">
        <ele>23</ele>
        <time>2021-10-14T07:31:56.000Z</time>
      </trkpt>
      <trkpt lat="47.30211" lon="-2.35052">
        <ele>23</ele>
        <time>2021-10-14T07:32:00.000Z</time>
      </trkpt>
      <trkpt lat="47.3021" lon="-2.35037">
        <ele>23</ele>
        <time>2021-10-14T07:32:02.000Z</time>
      </trkpt>
      <trkpt lat="47.3021" lon="-2.35015">
        <ele>23</ele>
        <time>2021-10-14T07:32:05.000Z</time>
      </trkpt>
      <trkpt lat="47.30209" lon="-2.34993">
        <ele>23</ele>
        <time>2021-10-14T07:32:08.000Z</time>
      </trkpt>
      <trkpt lat="47.30209" lon="-2.34986">
        <ele>23.39999961853</ele>
        <time>2021-10-14T07:32:09.000Z</time>
      </trkpt>
      <trkpt lat="47.30209" lon="-2.3498">
        <ele>23.799999237061</ele>
        <time>2021-10-14T07:32:10.000Z</time>
      </trkpt>
      <trkpt lat="47.30209" lon="-2.34973">
        <ele>24.39999961853</ele>
        <time>2021-10-14T07:32:11.000Z</time>
      </trkpt>
      <trkpt lat="47.30209" lon="-2.34967">
        <ele>24.799999237061</ele>
        <time>2021-10-14T07:32:12.000Z</time>
      </trkpt>
      <trkpt lat="47.30209" lon="-2.3496">
        <ele>25.200000762939</ele>
        <time>2021-10-14T07:32:13.000Z</time>
      </trkpt>
      <trkpt lat="47.3021" lon="-2.34946">
        <ele>25.200000762939</ele>
        <time>2021-10-14T07:32:15.000Z</time>
      </trkpt>
      <trkpt lat="47.30209" lon="-2.34939">
        <ele>25.200000762939</ele>
        <time>2021-10-14T07:32:16.000Z</time>
      </trkpt>
      <trkpt lat="47.30209" lon="-2.34925">
        <ele>25.200000762939</ele>
        <time>2021-10-14T07:32:18.000Z</time>
      </trkpt>
      <trkpt lat="47.30209" lon="-2.34913">
        <ele>25.200000762939</ele>
        <time>2021-10-14T07:32:20.000Z</time>
      </trkpt>
      <trkpt lat="47.30216" lon="-2.34897">
        <ele>25.60000038147</ele>
        <time>2021-10-14T07:32:23.000Z</time>
      </trkpt>
      <trkpt lat="47.30219" lon="-2.34893">
        <ele>26</ele>
        <time>2021-10-14T07:32:24.000Z</time>
      </trkpt>
      <trkpt lat="47.30223" lon="-2.34888">
        <ele>26.39999961853</ele>
        <time>2021-10-14T07:32:25.000Z</time>
      </trkpt>
      <trkpt lat="47.30227" lon="-2.34883">
        <ele>26.799999237061</ele>
        <time>2021-10-14T07:32:26.000Z</time>
      </trkpt>
      <trkpt lat="47.30231" lon="-2.34879">
        <ele>27.200000762939</ele>
        <time>2021-10-14T07:32:27.000Z</time>
      </trkpt>
      <trkpt lat="47.30241" lon="-2.34874">
        <ele>27.200000762939</ele>
        <time>2021-10-14T07:32:29.000Z</time>
      </trkpt>
      <trkpt lat="47.30254" lon="-2.34867">
        <ele>27.200000762939</ele>
        <time>2021-10-14T07:32:32.000Z</time>
      </trkpt>
      <trkpt lat="47.30268" lon="-2.34859">
        <ele>27.200000762939</ele>
        <time>2021-10-14T07:32:35.000Z</time>
      </trkpt>
      <trkpt lat="47.30283" lon="-2.34853">
        <ele>27.200000762939</ele>
        <time>2021-10-14T07:32:38.000Z</time>
      </trkpt>
      <trkpt lat="47.30287" lon="-2.34849">
        <ele>27.200000762939</ele>
        <time>2021-10-14T07:32:39.000Z</time>
      </trkpt>
      <trkpt lat="47.30299" lon="-2.34837">
        <ele>27.200000762939</ele>
        <time>2021-10-14T07:32:42.000Z</time>
      </trkpt>
      <trkpt lat="47.30318" lon="-2.34812">
        <ele>27.200000762939</ele>
        <time>2021-10-14T07:32:47.000Z</time>
      </trkpt>
      <trkpt lat="47.30321" lon="-2.34806">
        <ele>27.200000762939</ele>
        <time>2021-10-14T07:32:48.000Z</time>
      </trkpt>
      <trkpt lat="47.30333" lon="-2.34784">
        <ele>27.200000762939</ele>
        <time>2021-10-14T07:32:52.000Z</time>
      </trkpt>
      <trkpt lat="47.30342" lon="-2.34775">
        <ele>27.200000762939</ele>
        <time>2021-10-14T07:32:54.000Z</time>
      </trkpt>
      <trkpt lat="47.3035" lon="-2.34768">
        <ele>27.200000762939</ele>
        <time>2021-10-14T07:32:56.000Z</time>
      </trkpt>
      <trkpt lat="47.30354" lon="-2.34765">
        <ele>27.200000762939</ele>
        <time>2021-10-14T07:32:57.000Z</time>
      </trkpt>
      <trkpt lat="47.30369" lon="-2.34758">
        <ele>27.200000762939</ele>
        <time>2021-10-14T07:33:00.000Z</time>
      </trkpt>
      <trkpt lat="47.304" lon="-2.34741">
        <ele>27.200000762939</ele>
        <time>2021-10-14T07:33:06.000Z</time>
      </trkpt>
      <trkpt lat="47.3042" lon="-2.34728">
        <ele>27.200000762939</ele>
        <time>2021-10-14T07:33:10.000Z</time>
      </trkpt>
      <trkpt lat="47.30433" lon="-2.34714">
        <ele>27.200000762939</ele>
        <time>2021-10-14T07:33:13.000Z</time>
      </trkpt>
      <trkpt lat="47.30447" lon="-2.34701">
        <ele>27.200000762939</ele>
        <time>2021-10-14T07:33:16.000Z</time>
      </trkpt>
      <trkpt lat="47.30457" lon="-2.34693">
        <ele>27.200000762939</ele>
        <time>2021-10-14T07:33:18.000Z</time>
      </trkpt>
      <trkpt lat="47.30467" lon="-2.34683">
        <ele>27.200000762939</ele>
        <time>2021-10-14T07:33:20.000Z</time>
      </trkpt>
      <trkpt lat="47.30476" lon="-2.34672">
        <ele>27.200000762939</ele>
        <time>2021-10-14T07:33:22.000Z</time>
      </trkpt>
      <trkpt lat="47.30481" lon="-2.34667">
        <ele>27.200000762939</ele>
        <time>2021-10-14T07:33:23.000Z</time>
      </trkpt>
      <trkpt lat="47.3049" lon="-2.34656">
        <ele>27.200000762939</ele>
        <time>2021-10-14T07:33:25.000Z</time>
      </trkpt>
      <trkpt lat="47.305" lon="-2.34639">
        <ele>27.200000762939</ele>
        <time>2021-10-14T07:33:28.000Z</time>
      </trkpt>
      <trkpt lat="47.30513" lon="-2.34617">
        <ele>27.200000762939</ele>
        <time>2021-10-14T07:33:32.000Z</time>
      </trkpt>
      <trkpt lat="47.30521" lon="-2.34607">
        <ele>27.200000762939</ele>
        <time>2021-10-14T07:33:34.000Z</time>
      </trkpt>
      <trkpt lat="47.30529" lon="-2.34596">
        <ele>27.200000762939</ele>
        <time>2021-10-14T07:33:36.000Z</time>
      </trkpt>
      <trkpt lat="47.30544" lon="-2.34574">
        <ele>27.200000762939</ele>
        <time>2021-10-14T07:33:40.000Z</time>
      </trkpt>
      <trkpt lat="47.30566" lon="-2.34539">
        <ele>27.200000762939</ele>
        <time>2021-10-14T07:33:46.000Z</time>
      </trkpt>
      <trkpt lat="47.30582" lon="-2.34505">
        <ele>27.60000038147</ele>
        <time>2021-10-14T07:33:52.000Z</time>
      </trkpt>
      <trkpt lat="47.30585" lon="-2.345">
        <ele>28</ele>
        <time>2021-10-14T07:33:53.000Z</time>
      </trkpt>
      <trkpt lat="47.30587" lon="-2.34494">
        <ele>28.39999961853</ele>
        <time>2021-10-14T07:33:54.000Z</time>
      </trkpt>
      <trkpt lat="47.30589" lon="-2.34489">
        <ele>29.200000762939</ele>
        <time>2021-10-14T07:33:55.000Z</time>
      </trkpt>
      <trkpt lat="47.30598" lon="-2.34469">
        <ele>29.200000762939</ele>
        <time>2021-10-14T07:33:58.000Z</time>
      </trkpt>
      <trkpt lat="47.30605" lon="-2.34457">
        <ele>29.200000762939</ele>
        <time>2021-10-14T07:34:00.000Z</time>
      </trkpt>
      <trkpt lat="47.30618" lon="-2.3444">
        <ele>29.200000762939</ele>
        <time>2021-10-14T07:34:03.000Z</time>
      </trkpt>
      <trkpt lat="47.30646" lon="-2.34405">
        <ele>29.200000762939</ele>
        <time>2021-10-14T07:34:09.000Z</time>
      </trkpt>
      <trkpt lat="47.30672" lon="-2.34362">
        <ele>29.200000762939</ele>
        <time>2021-10-14T07:34:16.000Z</time>
      </trkpt>
      <trkpt lat="47.30693" lon="-2.3432">
        <ele>29.200000762939</ele>
        <time>2021-10-14T07:34:22.000Z</time>
      </trkpt>
      <trkpt lat="47.30711" lon="-2.34286">
        <ele>29.200000762939</ele>
        <time>2021-10-14T07:34:27.000Z</time>
      </trkpt>
      <trkpt lat="47.30713" lon="-2.34278">
        <ele>29.200000762939</ele>
        <time>2021-10-14T07:34:28.000Z</time>
      </trkpt>
      <trkpt lat="47.3072" lon="-2.34248">
        <ele>29.200000762939</ele>
        <time>2021-10-14T07:34:32.000Z</time>
      </trkpt>
      <trkpt lat="47.30721" lon="-2.34241">
        <ele>29.200000762939</ele>
        <time>2021-10-14T07:34:33.000Z</time>
      </trkpt>
      <trkpt lat="47.30728" lon="-2.34233">
        <ele>29.200000762939</ele>
        <time>2021-10-14T07:34:35.000Z</time>
      </trkpt>
      <trkpt lat="47.30737" lon="-2.34229">
        <ele>29.200000762939</ele>
        <time>2021-10-14T07:34:37.000Z</time>
      </trkpt>
      <trkpt lat="47.30754" lon="-2.34224">
        <ele>29.200000762939</ele>
        <time>2021-10-14T07:34:40.000Z</time>
      </trkpt>
      <trkpt lat="47.30759" lon="-2.34221">
        <ele>29.200000762939</ele>
        <time>2021-10-14T07:34:41.000Z</time>
      </trkpt>
      <trkpt lat="47.30766" lon="-2.3421">
        <ele>29.200000762939</ele>
        <time>2021-10-14T07:34:43.000Z</time>
      </trkpt>
      <trkpt lat="47.30768" lon="-2.3419">
        <ele>29.200000762939</ele>
        <time>2021-10-14T07:34:46.000Z</time>
      </trkpt>
      <trkpt lat="47.30769" lon="-2.34159">
        <ele>29.200000762939</ele>
        <time>2021-10-14T07:34:50.000Z</time>
      </trkpt>
      <trkpt lat="47.30771" lon="-2.3414">
        <ele>29.200000762939</ele>
        <time>2021-10-14T07:34:52.000Z</time>
      </trkpt>
      <trkpt lat="47.30776" lon="-2.3408">
        <ele>29.200000762939</ele>
        <time>2021-10-14T07:34:59.000Z</time>
      </trkpt>
      <trkpt lat="47.30779" lon="-2.34019">
        <ele>29.200000762939</ele>
        <time>2021-10-14T07:35:06.000Z</time>
      </trkpt>
      <trkpt lat="47.3078" lon="-2.33986">
        <ele>28.799999237061</ele>
        <time>2021-10-14T07:35:11.000Z</time>
      </trkpt>
      <trkpt lat="47.30781" lon="-2.33985">
        <ele>28.39999961853</ele>
        <time>2021-10-14T07:35:12.000Z</time>
      </trkpt>
      <trkpt lat="47.30781" lon="-2.33982">
        <ele>28</ele>
        <time>2021-10-14T07:35:13.000Z</time>
      </trkpt>
      <trkpt lat="47.30783" lon="-2.3398">
        <ele>27.39999961853</ele>
        <time>2021-10-14T07:35:14.000Z</time>
      </trkpt>
      <trkpt lat="47.30784" lon="-2.33978">
        <ele>27</ele>
        <time>2021-10-14T07:35:15.000Z</time>
      </trkpt>
      <trkpt lat="47.30799" lon="-2.33969">
        <ele>27</ele>
        <time>2021-10-14T07:35:19.000Z</time>
      </trkpt>
      <trkpt lat="47.30819" lon="-2.33959">
        <ele>27</ele>
        <time>2021-10-14T07:35:24.000Z</time>
      </trkpt>
      <trkpt lat="47.30844" lon="-2.33951">
        <ele>27</ele>
        <time>2021-10-14T07:35:29.000Z</time>
      </trkpt>
      <trkpt lat="47.30881" lon="-2.33946">
        <ele>27</ele>
        <time>2021-10-14T07:35:36.000Z</time>
      </trkpt>
      <trkpt lat="47.30914" lon="-2.33942">
        <ele>27</ele>
        <time>2021-10-14T07:35:42.000Z</time>
      </trkpt>
      <trkpt lat="47.30942" lon="-2.33946">
        <ele>27</ele>
        <time>2021-10-14T07:35:47.000Z</time>
      </trkpt>
      <trkpt lat="47.30987" lon="-2.33952">
        <ele>27</ele>
        <time>2021-10-14T07:35:55.000Z</time>
      </trkpt>
      <trkpt lat="47.31019" lon="-2.3395">
        <ele>27</ele>
        <time>2021-10-14T07:36:01.000Z</time>
      </trkpt>
      <trkpt lat="47.31052" lon="-2.33943">
        <ele>27</ele>
        <time>2021-10-14T07:36:07.000Z</time>
      </trkpt>
      <trkpt lat="47.31054" lon="-2.33943">
        <ele>26.60000038147</ele>
        <time>2021-10-14T07:36:08.000Z</time>
      </trkpt>
      <trkpt lat="47.31056" lon="-2.33943">
        <ele>26.200000762939</ele>
        <time>2021-10-14T07:36:09.000Z</time>
      </trkpt>
      <trkpt lat="47.31058" lon="-2.33943">
        <ele>25.799999237061</ele>
        <time>2021-10-14T07:36:10.000Z</time>
      </trkpt>
      <trkpt lat="47.31059" lon="-2.33944">
        <ele>25.39999961853</ele>
        <time>2021-10-14T07:36:11.000Z</time>
      </trkpt>
      <trkpt lat="47.31061" lon="-2.33945">
        <ele>24.799999237061</ele>
        <time>2021-10-14T07:36:12.000Z</time>
      </trkpt>
      <trkpt lat="47.31065" lon="-2.33946">
        <ele>24.799999237061</ele>
        <time>2021-10-14T07:36:15.000Z</time>
      </trkpt>
      <trkpt lat="47.31065" lon="-2.33948">
        <ele>24.799999237061</ele>
        <time>2021-10-14T07:36:16.000Z</time>
      </trkpt>
      <trkpt lat="47.31065" lon="-2.33961">
        <ele>24.799999237061</ele>
        <time>2021-10-14T07:36:20.000Z</time>
      </trkpt>
      <trkpt lat="47.31065" lon="-2.33965">
        <ele>24.799999237061</ele>
        <time>2021-10-14T07:36:21.000Z</time>
      </trkpt>
      <trkpt lat="47.31065" lon="-2.33986">
        <ele>24.799999237061</ele>
        <time>2021-10-14T07:36:27.000Z</time>
      </trkpt>
      <trkpt lat="47.31066" lon="-2.34016">
        <ele>24.799999237061</ele>
        <time>2021-10-14T07:36:34.000Z</time>
      </trkpt>
      <trkpt lat="47.3107" lon="-2.34054">
        <ele>24.799999237061</ele>
        <time>2021-10-14T07:36:41.000Z</time>
      </trkpt>
      <trkpt lat="47.31078" lon="-2.34084">
        <ele>24.799999237061</ele>
        <time>2021-10-14T07:36:46.000Z</time>
      </trkpt>
      <trkpt lat="47.31089" lon="-2.34111">
        <ele>24.39999961853</ele>
        <time>2021-10-14T07:36:50.000Z</time>
      </trkpt>
      <trkpt lat="47.31092" lon="-2.34118">
        <ele>24</ele>
        <time>2021-10-14T07:36:51.000Z</time>
      </trkpt>
      <trkpt lat="47.31096" lon="-2.34125">
        <ele>23.60000038147</ele>
        <time>2021-10-14T07:36:52.000Z</time>
      </trkpt>
      <trkpt lat="47.31099" lon="-2.34132">
        <ele>23.200000762939</ele>
        <time>2021-10-14T07:36:53.000Z</time>
      </trkpt>
      <trkpt lat="47.31103" lon="-2.3414">
        <ele>22.60000038147</ele>
        <time>2021-10-14T07:36:54.000Z</time>
      </trkpt>
      <trkpt lat="47.31116" lon="-2.34165">
        <ele>22.200000762939</ele>
        <time>2021-10-14T07:36:57.000Z</time>
      </trkpt>
      <trkpt lat="47.3112" lon="-2.34173">
        <ele>21.799999237061</ele>
        <time>2021-10-14T07:36:58.000Z</time>
      </trkpt>
      <trkpt lat="47.31124" lon="-2.34182">
        <ele>21.39999961853</ele>
        <time>2021-10-14T07:36:59.000Z</time>
      </trkpt>
      <trkpt lat="47.31129" lon="-2.3419">
        <ele>21</ele>
        <time>2021-10-14T07:37:00.000Z</time>
      </trkpt>
      <trkpt lat="47.31134" lon="-2.34199">
        <ele>20.60000038147</ele>
        <time>2021-10-14T07:37:01.000Z</time>
      </trkpt>
      <trkpt lat="47.31138" lon="-2.34208">
        <ele>20.200000762939</ele>
        <time>2021-10-14T07:37:02.000Z</time>
      </trkpt>
      <trkpt lat="47.31143" lon="-2.34218">
        <ele>19.60000038147</ele>
        <time>2021-10-14T07:37:03.000Z</time>
      </trkpt>
      <trkpt lat="47.31148" lon="-2.34227">
        <ele>19.200000762939</ele>
        <time>2021-10-14T07:37:04.000Z</time>
      </trkpt>
      <trkpt lat="47.31153" lon="-2.34237">
        <ele>18.60000038147</ele>
        <time>2021-10-14T07:37:05.000Z</time>
      </trkpt>
      <trkpt lat="47.31158" lon="-2.34246">
        <ele>18.200000762939</ele>
        <time>2021-10-14T07:37:06.000Z</time>
      </trkpt>
      <trkpt lat="47.31167" lon="-2.34265">
        <ele>17.799999237061</ele>
        <time>2021-10-14T07:37:08.000Z</time>
      </trkpt>
      <trkpt lat="47.31172" lon="-2.34273">
        <ele>17.39999961853</ele>
        <time>2021-10-14T07:37:09.000Z</time>
      </trkpt>
      <trkpt lat="47.31176" lon="-2.34283">
        <ele>17</ele>
        <time>2021-10-14T07:37:10.000Z</time>
      </trkpt>
      <trkpt lat="47.3118" lon="-2.34292">
        <ele>16.60000038147</ele>
        <time>2021-10-14T07:37:11.000Z</time>
      </trkpt>
      <trkpt lat="47.31184" lon="-2.34301">
        <ele>16.200000762939</ele>
        <time>2021-10-14T07:37:12.000Z</time>
      </trkpt>
      <trkpt lat="47.31202" lon="-2.3433">
        <ele>16.200000762939</ele>
        <time>2021-10-14T07:37:16.000Z</time>
      </trkpt>
      <trkpt lat="47.31207" lon="-2.34336">
        <ele>16.200000762939</ele>
        <time>2021-10-14T07:37:17.000Z</time>
      </trkpt>
      <trkpt lat="47.3123" lon="-2.34349">
        <ele>16.200000762939</ele>
        <time>2021-10-14T07:37:21.000Z</time>
      </trkpt>
      <trkpt lat="47.31236" lon="-2.34351">
        <ele>16.200000762939</ele>
        <time>2021-10-14T07:37:22.000Z</time>
      </trkpt>
      <trkpt lat="47.31252" lon="-2.3436">
        <ele>16.200000762939</ele>
        <time>2021-10-14T07:37:25.000Z</time>
      </trkpt>
      <trkpt lat="47.31261" lon="-2.34371">
        <ele>16.200000762939</ele>
        <time>2021-10-14T07:37:27.000Z</time>
      </trkpt>
      <trkpt lat="47.3127" lon="-2.34404">
        <ele>16.200000762939</ele>
        <time>2021-10-14T07:37:31.000Z</time>
      </trkpt>
      <trkpt lat="47.31271" lon="-2.34412">
        <ele>16.200000762939</ele>
        <time>2021-10-14T07:37:32.000Z</time>
      </trkpt>
      <trkpt lat="47.31273" lon="-2.3443">
        <ele>16.60000038147</ele>
        <time>2021-10-14T07:37:34.000Z</time>
      </trkpt>
      <trkpt lat="47.31274" lon="-2.34438">
        <ele>17</ele>
        <time>2021-10-14T07:37:35.000Z</time>
      </trkpt>
      <trkpt lat="47.31274" lon="-2.34445">
        <ele>17.39999961853</ele>
        <time>2021-10-14T07:37:36.000Z</time>
      </trkpt>
      <trkpt lat="47.31274" lon="-2.34453">
        <ele>17.799999237061</ele>
        <time>2021-10-14T07:37:37.000Z</time>
      </trkpt>
      <trkpt lat="47.31275" lon="-2.3446">
        <ele>18.200000762939</ele>
        <time>2021-10-14T07:37:38.000Z</time>
      </trkpt>
      <trkpt lat="47.31281" lon="-2.345">
        <ele>18.200000762939</ele>
        <time>2021-10-14T07:37:44.000Z</time>
      </trkpt>
      <trkpt lat="47.31281" lon="-2.34506">
        <ele>18.60000038147</ele>
        <time>2021-10-14T07:37:45.000Z</time>
      </trkpt>
      <trkpt lat="47.31282" lon="-2.34513">
        <ele>19</ele>
        <time>2021-10-14T07:37:46.000Z</time>
      </trkpt>
      <trkpt lat="47.31282" lon="-2.34519">
        <ele>19.39999961853</ele>
        <time>2021-10-14T07:37:47.000Z</time>
      </trkpt>
      <trkpt lat="47.31283" lon="-2.34527">
        <ele>19.799999237061</ele>
        <time>2021-10-14T07:37:48.000Z</time>
      </trkpt>
      <trkpt lat="47.31283" lon="-2.34533">
        <ele>20.200000762939</ele>
        <time>2021-10-14T07:37:49.000Z</time>
      </trkpt>
      <trkpt lat="47.31287" lon="-2.34573">
        <ele>20.200000762939</ele>
        <time>2021-10-14T07:37:55.000Z</time>
      </trkpt>
      <trkpt lat="47.31289" lon="-2.34592">
        <ele>20.60000038147</ele>
        <time>2021-10-14T07:37:58.000Z</time>
      </trkpt>
      <trkpt lat="47.31289" lon="-2.34598">
        <ele>21</ele>
        <time>2021-10-14T07:37:59.000Z</time>
      </trkpt>
      <trkpt lat="47.3129" lon="-2.34603">
        <ele>21.39999961853</ele>
        <time>2021-10-14T07:38:00.000Z</time>
      </trkpt>
      <trkpt lat="47.3129" lon="-2.34609">
        <ele>22</ele>
        <time>2021-10-14T07:38:01.000Z</time>
      </trkpt>
      <trkpt lat="47.3129" lon="-2.34615">
        <ele>22.39999961853</ele>
        <time>2021-10-14T07:38:02.000Z</time>
      </trkpt>
      <trkpt lat="47.31293" lon="-2.34647">
        <ele>22.39999961853</ele>
        <time>2021-10-14T07:38:09.000Z</time>
      </trkpt>
      <trkpt lat="47.31293" lon="-2.3465">
        <ele>22.799999237061</ele>
        <time>2021-10-14T07:38:10.000Z</time>
      </trkpt>
      <trkpt lat="47.31294" lon="-2.34652">
        <ele>23.200000762939</ele>
        <time>2021-10-14T07:38:11.000Z</time>
      </trkpt>
      <trkpt lat="47.31294" lon="-2.34654">
        <ele>23.60000038147</ele>
        <time>2021-10-14T07:38:12.000Z</time>
      </trkpt>
      <trkpt lat="47.31294" lon="-2.34655">
        <ele>24</ele>
        <time>2021-10-14T07:38:13.000Z</time>
      </trkpt>
      <trkpt lat="47.31294" lon="-2.34658">
        <ele>24.39999961853</ele>
        <time>2021-10-14T07:38:14.000Z</time>
      </trkpt>
      <trkpt lat="47.31293" lon="-2.34676">
        <ele>24.39999961853</ele>
        <time>2021-10-14T07:38:20.000Z</time>
      </trkpt>
      <trkpt lat="47.31292" lon="-2.34679">
        <ele>24.39999961853</ele>
        <time>2021-10-14T07:38:21.000Z</time>
      </trkpt>
      <trkpt lat="47.31285" lon="-2.34687">
        <ele>24.39999961853</ele>
        <time>2021-10-14T07:38:24.000Z</time>
      </trkpt>
      <trkpt lat="47.31276" lon="-2.34711">
        <ele>24.39999961853</ele>
        <time>2021-10-14T07:38:30.000Z</time>
      </trkpt>
      <trkpt lat="47.31282" lon="-2.34743">
        <ele>24.39999961853</ele>
        <time>2021-10-14T07:38:35.000Z</time>
      </trkpt>
      <trkpt lat="47.31284" lon="-2.34755">
        <ele>24.799999237061</ele>
        <time>2021-10-14T07:38:37.000Z</time>
      </trkpt>
      <trkpt lat="47.31286" lon="-2.34761">
        <ele>25.200000762939</ele>
        <time>2021-10-14T07:38:38.000Z</time>
      </trkpt>
      <trkpt lat="47.31287" lon="-2.34767">
        <ele>25.60000038147</ele>
        <time>2021-10-14T07:38:39.000Z</time>
      </trkpt>
      <trkpt lat="47.31288" lon="-2.34773">
        <ele>26</ele>
        <time>2021-10-14T07:38:40.000Z</time>
      </trkpt>
      <trkpt lat="47.3129" lon="-2.34781">
        <ele>26.39999961853</ele>
        <time>2021-10-14T07:38:41.000Z</time>
      </trkpt>
      <trkpt lat="47.31292" lon="-2.34795">
        <ele>26.39999961853</ele>
        <time>2021-10-14T07:38:43.000Z</time>
      </trkpt>
      <trkpt lat="47.31301" lon="-2.34842">
        <ele>26.39999961853</ele>
        <time>2021-10-14T07:38:50.000Z</time>
      </trkpt>
      <trkpt lat="47.31311" lon="-2.34879">
        <ele>26.39999961853</ele>
        <time>2021-10-14T07:38:56.000Z</time>
      </trkpt>
      <trkpt lat="47.31325" lon="-2.34924">
        <ele>26.39999961853</ele>
        <time>2021-10-14T07:39:03.000Z</time>
      </trkpt>
      <trkpt lat="47.31337" lon="-2.34973">
        <ele>26.39999961853</ele>
        <time>2021-10-14T07:39:10.000Z</time>
      </trkpt>
      <trkpt lat="47.31345" lon="-2.35015">
        <ele>26.39999961853</ele>
        <time>2021-10-14T07:39:16.000Z</time>
      </trkpt>
      <trkpt lat="47.31344" lon="-2.35022">
        <ele>26.39999961853</ele>
        <time>2021-10-14T07:39:17.000Z</time>
      </trkpt>
      <trkpt lat="47.31345" lon="-2.35055">
        <ele>26.39999961853</ele>
        <time>2021-10-14T07:39:22.000Z</time>
      </trkpt>
      <trkpt lat="47.31345" lon="-2.35069">
        <ele>26.39999961853</ele>
        <time>2021-10-14T07:39:24.000Z</time>
      </trkpt>
      <trkpt lat="47.31344" lon="-2.35097">
        <ele>26.39999961853</ele>
        <time>2021-10-14T07:39:28.000Z</time>
      </trkpt>
      <trkpt lat="47.31343" lon="-2.35146">
        <ele>26.39999961853</ele>
        <time>2021-10-14T07:39:34.000Z</time>
      </trkpt>
      <trkpt lat="47.31341" lon="-2.35211">
        <ele>26.39999961853</ele>
        <time>2021-10-14T07:39:42.000Z</time>
      </trkpt>
      <trkpt lat="47.3134" lon="-2.35275">
        <ele>26.39999961853</ele>
        <time>2021-10-14T07:39:50.000Z</time>
      </trkpt>
      <trkpt lat="47.31339" lon="-2.35331">
        <ele>26.39999961853</ele>
        <time>2021-10-14T07:39:57.000Z</time>
      </trkpt>
      <trkpt lat="47.31338" lon="-2.35385">
        <ele>26.39999961853</ele>
        <time>2021-10-14T07:40:04.000Z</time>
      </trkpt>
      <trkpt lat="47.31338" lon="-2.35435">
        <ele>26.39999961853</ele>
        <time>2021-10-14T07:40:11.000Z</time>
      </trkpt>
      <trkpt lat="47.31336" lon="-2.3549">
        <ele>26.39999961853</ele>
        <time>2021-10-14T07:40:18.000Z</time>
      </trkpt>
      <trkpt lat="47.31334" lon="-2.35539">
        <ele>26.39999961853</ele>
        <time>2021-10-14T07:40:25.000Z</time>
      </trkpt>
      <trkpt lat="47.3133" lon="-2.35573">
        <ele>26.39999961853</ele>
        <time>2021-10-14T07:40:30.000Z</time>
      </trkpt>
      <trkpt lat="47.31332" lon="-2.35604">
        <ele>26.39999961853</ele>
        <time>2021-10-14T07:40:34.000Z</time>
      </trkpt>
      <trkpt lat="47.31332" lon="-2.35611">
        <ele>26.39999961853</ele>
        <time>2021-10-14T07:40:35.000Z</time>
      </trkpt>
      <trkpt lat="47.31333" lon="-2.35638">
        <ele>26.39999961853</ele>
        <time>2021-10-14T07:40:39.000Z</time>
      </trkpt>
      <trkpt lat="47.31334" lon="-2.35644">
        <ele>26.799999237061</ele>
        <time>2021-10-14T07:40:40.000Z</time>
      </trkpt>
      <trkpt lat="47.31334" lon="-2.3565">
        <ele>27.200000762939</ele>
        <time>2021-10-14T07:40:41.000Z</time>
      </trkpt>
      <trkpt lat="47.31334" lon="-2.35657">
        <ele>27.60000038147</ele>
        <time>2021-10-14T07:40:42.000Z</time>
      </trkpt>
      <trkpt lat="47.31334" lon="-2.35663">
        <ele>28</ele>
        <time>2021-10-14T07:40:43.000Z</time>
      </trkpt>
      <trkpt lat="47.31334" lon="-2.3567">
        <ele>28.39999961853</ele>
        <time>2021-10-14T07:40:44.000Z</time>
      </trkpt>
      <trkpt lat="47.31334" lon="-2.35683">
        <ele>28.39999961853</ele>
        <time>2021-10-14T07:40:46.000Z</time>
      </trkpt>
      <trkpt lat="47.31334" lon="-2.35697">
        <ele>28.39999961853</ele>
        <time>2021-10-14T07:40:48.000Z</time>
      </trkpt>
      <trkpt lat="47.31333" lon="-2.35712">
        <ele>28.39999961853</ele>
        <time>2021-10-14T07:40:50.000Z</time>
      </trkpt>
      <trkpt lat="47.31334" lon="-2.35719">
        <ele>28.39999961853</ele>
        <time>2021-10-14T07:40:51.000Z</time>
      </trkpt>
      <trkpt lat="47.31333" lon="-2.35734">
        <ele>28.39999961853</ele>
        <time>2021-10-14T07:40:53.000Z</time>
      </trkpt>
      <trkpt lat="47.31333" lon="-2.35764">
        <ele>28.39999961853</ele>
        <time>2021-10-14T07:40:57.000Z</time>
      </trkpt>
      <trkpt lat="47.31334" lon="-2.35779">
        <ele>28.39999961853</ele>
        <time>2021-10-14T07:40:59.000Z</time>
      </trkpt>
      <trkpt lat="47.3134" lon="-2.35836">
        <ele>28.39999961853</ele>
        <time>2021-10-14T07:41:06.000Z</time>
      </trkpt>
      <trkpt lat="47.31344" lon="-2.35863">
        <ele>28.39999961853</ele>
        <time>2021-10-14T07:41:09.000Z</time>
      </trkpt>
      <trkpt lat="47.31349" lon="-2.3588">
        <ele>28.39999961853</ele>
        <time>2021-10-14T07:41:11.000Z</time>
      </trkpt>
      <trkpt lat="47.31356" lon="-2.35895">
        <ele>28.39999961853</ele>
        <time>2021-10-14T07:41:13.000Z</time>
      </trkpt>
      <trkpt lat="47.3136" lon="-2.35902">
        <ele>28</ele>
        <time>2021-10-14T07:41:14.000Z</time>
      </trkpt>
      <trkpt lat="47.31364" lon="-2.35909">
        <ele>27.60000038147</ele>
        <time>2021-10-14T07:41:15.000Z</time>
      </trkpt>
      <trkpt lat="47.31367" lon="-2.35917">
        <ele>27.200000762939</ele>
        <time>2021-10-14T07:41:16.000Z</time>
      </trkpt>
      <trkpt lat="47.31371" lon="-2.35924">
        <ele>26.799999237061</ele>
        <time>2021-10-14T07:41:17.000Z</time>
      </trkpt>
      <trkpt lat="47.31375" lon="-2.35931">
        <ele>26.39999961853</ele>
        <time>2021-10-14T07:41:18.000Z</time>
      </trkpt>
      <trkpt lat="47.31387" lon="-2.35951">
        <ele>26.39999961853</ele>
        <time>2021-10-14T07:41:21.000Z</time>
      </trkpt>
      <trkpt lat="47.31391" lon="-2.35957">
        <ele>26.39999961853</ele>
        <time>2021-10-14T07:41:22.000Z</time>
      </trkpt>
      <trkpt lat="47.31395" lon="-2.35964">
        <ele>26.39999961853</ele>
        <time>2021-10-14T07:41:23.000Z</time>
      </trkpt>
      <trkpt lat="47.31402" lon="-2.35986">
        <ele>26.39999961853</ele>
        <time>2021-10-14T07:41:26.000Z</time>
      </trkpt>
      <trkpt lat="47.31416" lon="-2.36024">
        <ele>26.39999961853</ele>
        <time>2021-10-14T07:41:32.000Z</time>
      </trkpt>
      <trkpt lat="47.31419" lon="-2.36037">
        <ele>26.799999237061</ele>
        <time>2021-10-14T07:41:34.000Z</time>
      </trkpt>
      <trkpt lat="47.31421" lon="-2.36043">
        <ele>27.200000762939</ele>
        <time>2021-10-14T07:41:35.000Z</time>
      </trkpt>
      <trkpt lat="47.31423" lon="-2.36049">
        <ele>27.60000038147</ele>
        <time>2021-10-14T07:41:36.000Z</time>
      </trkpt>
      <trkpt lat="47.31425" lon="-2.36055">
        <ele>28</ele>
        <time>2021-10-14T07:41:37.000Z</time>
      </trkpt>
      <trkpt lat="47.31427" lon="-2.36061">
        <ele>28.39999961853</ele>
        <time>2021-10-14T07:41:38.000Z</time>
      </trkpt>
      <trkpt lat="47.31439" lon="-2.36096">
        <ele>28.39999961853</ele>
        <time>2021-10-14T07:41:44.000Z</time>
      </trkpt>
      <trkpt lat="47.31441" lon="-2.36101">
        <ele>29.200000762939</ele>
        <time>2021-10-14T07:41:45.000Z</time>
      </trkpt>
      <trkpt lat="47.31443" lon="-2.36107">
        <ele>29.60000038147</ele>
        <time>2021-10-14T07:41:46.000Z</time>
      </trkpt>
      <trkpt lat="47.31446" lon="-2.36113">
        <ele>30</ele>
        <time>2021-10-14T07:41:47.000Z</time>
      </trkpt>
      <trkpt lat="47.31448" lon="-2.36118">
        <ele>30.39999961853</ele>
        <time>2021-10-14T07:41:48.000Z</time>
      </trkpt>
      <trkpt lat="47.31451" lon="-2.36131">
        <ele>30.39999961853</ele>
        <time>2021-10-14T07:41:50.000Z</time>
      </trkpt>
      <trkpt lat="47.31453" lon="-2.36138">
        <ele>30.39999961853</ele>
        <time>2021-10-14T07:41:51.000Z</time>
      </trkpt>
      <trkpt lat="47.31463" lon="-2.36183">
        <ele>30.39999961853</ele>
        <time>2021-10-14T07:41:58.000Z</time>
      </trkpt>
      <trkpt lat="47.31474" lon="-2.36236">
        <ele>30.39999961853</ele>
        <time>2021-10-14T07:42:05.000Z</time>
      </trkpt>
      <trkpt lat="47.31479" lon="-2.36266">
        <ele>30.39999961853</ele>
        <time>2021-10-14T07:42:09.000Z</time>
      </trkpt>
      <trkpt lat="47.31483" lon="-2.3628">
        <ele>30.39999961853</ele>
        <time>2021-10-14T07:42:11.000Z</time>
      </trkpt>
      <trkpt lat="47.31486" lon="-2.36295">
        <ele>30</ele>
        <time>2021-10-14T07:42:13.000Z</time>
      </trkpt>
      <trkpt lat="47.31487" lon="-2.36302">
        <ele>29.60000038147</ele>
        <time>2021-10-14T07:42:14.000Z</time>
      </trkpt>
      <trkpt lat="47.31489" lon="-2.36311">
        <ele>29.200000762939</ele>
        <time>2021-10-14T07:42:15.000Z</time>
      </trkpt>
      <trkpt lat="47.3149" lon="-2.36319">
        <ele>28.799999237061</ele>
        <time>2021-10-14T07:42:16.000Z</time>
      </trkpt>
      <trkpt lat="47.31491" lon="-2.36326">
        <ele>28.39999961853</ele>
        <time>2021-10-14T07:42:17.000Z</time>
      </trkpt>
      <trkpt lat="47.31492" lon="-2.36335">
        <ele>28.39999961853</ele>
        <time>2021-10-14T07:42:18.000Z</time>
      </trkpt>
      <trkpt lat="47.31492" lon="-2.36361">
        <ele>28.39999961853</ele>
        <time>2021-10-14T07:42:21.000Z</time>
      </trkpt>
      <trkpt lat="47.31491" lon="-2.36369">
        <ele>28.39999961853</ele>
        <time>2021-10-14T07:42:22.000Z</time>
      </trkpt>
      <trkpt lat="47.31492" lon="-2.36378">
        <ele>28.39999961853</ele>
        <time>2021-10-14T07:42:23.000Z</time>
      </trkpt>
      <trkpt lat="47.31493" lon="-2.36405">
        <ele>27.799999237061</ele>
        <time>2021-10-14T07:42:26.000Z</time>
      </trkpt>
      <trkpt lat="47.31494" lon="-2.36414">
        <ele>27.39999961853</ele>
        <time>2021-10-14T07:42:27.000Z</time>
      </trkpt>
      <trkpt lat="47.31495" lon="-2.36424">
        <ele>26.799999237061</ele>
        <time>2021-10-14T07:42:28.000Z</time>
      </trkpt>
      <trkpt lat="47.31495" lon="-2.36432">
        <ele>26.39999961853</ele>
        <time>2021-10-14T07:42:29.000Z</time>
      </trkpt>
      <trkpt lat="47.31495" lon="-2.3644">
        <ele>26</ele>
        <time>2021-10-14T07:42:30.000Z</time>
      </trkpt>
      <trkpt lat="47.31494" lon="-2.3645">
        <ele>26</ele>
        <time>2021-10-14T07:42:31.000Z</time>
      </trkpt>
      <trkpt lat="47.31494" lon="-2.36467">
        <ele>25</ele>
        <time>2021-10-14T07:42:33.000Z</time>
      </trkpt>
      <trkpt lat="47.31495" lon="-2.36474">
        <ele>24.60000038147</ele>
        <time>2021-10-14T07:42:34.000Z</time>
      </trkpt>
      <trkpt lat="47.31496" lon="-2.36481">
        <ele>24.200000762939</ele>
        <time>2021-10-14T07:42:35.000Z</time>
      </trkpt>
      <trkpt lat="47.31497" lon="-2.36489">
        <ele>23.799999237061</ele>
        <time>2021-10-14T07:42:36.000Z</time>
      </trkpt>
      <trkpt lat="47.31497" lon="-2.36496">
        <ele>23.799999237061</ele>
        <time>2021-10-14T07:42:37.000Z</time>
      </trkpt>
      <trkpt lat="47.31499" lon="-2.36528">
        <ele>23.799999237061</ele>
        <time>2021-10-14T07:42:41.000Z</time>
      </trkpt>
      <trkpt lat="47.315" lon="-2.36551">
        <ele>23.799999237061</ele>
        <time>2021-10-14T07:42:44.000Z</time>
      </trkpt>
      <trkpt lat="47.315" lon="-2.36558">
        <ele>23.39999961853</ele>
        <time>2021-10-14T07:42:45.000Z</time>
      </trkpt>
      <trkpt lat="47.31501" lon="-2.36565">
        <ele>23</ele>
        <time>2021-10-14T07:42:46.000Z</time>
      </trkpt>
      <trkpt lat="47.31502" lon="-2.36571">
        <ele>22.60000038147</ele>
        <time>2021-10-14T07:42:47.000Z</time>
      </trkpt>
      <trkpt lat="47.31501" lon="-2.36577">
        <ele>22.200000762939</ele>
        <time>2021-10-14T07:42:48.000Z</time>
      </trkpt>
      <trkpt lat="47.31499" lon="-2.36582">
        <ele>21.799999237061</ele>
        <time>2021-10-14T07:42:49.000Z</time>
      </trkpt>
      <trkpt lat="47.31499" lon="-2.36599">
        <ele>21.799999237061</ele>
        <time>2021-10-14T07:42:52.000Z</time>
      </trkpt>
      <trkpt lat="47.31502" lon="-2.36611">
        <ele>21.799999237061</ele>
        <time>2021-10-14T07:42:54.000Z</time>
      </trkpt>
      <trkpt lat="47.31508" lon="-2.36634">
        <ele>21.799999237061</ele>
        <time>2021-10-14T07:42:59.000Z</time>
      </trkpt>
      <trkpt lat="47.31516" lon="-2.36663">
        <ele>21.799999237061</ele>
        <time>2021-10-14T07:43:04.000Z</time>
      </trkpt>
      <trkpt lat="47.31525" lon="-2.36706">
        <ele>21.799999237061</ele>
        <time>2021-10-14T07:43:10.000Z</time>
      </trkpt>
      <trkpt lat="47.31536" lon="-2.36748">
        <ele>22.200000762939</ele>
        <time>2021-10-14T07:43:16.000Z</time>
      </trkpt>
      <trkpt lat="47.31538" lon="-2.36755">
        <ele>22.60000038147</ele>
        <time>2021-10-14T07:43:17.000Z</time>
      </trkpt>
      <trkpt lat="47.3154" lon="-2.36762">
        <ele>23</ele>
        <time>2021-10-14T07:43:18.000Z</time>
      </trkpt>
      <trkpt lat="47.31541" lon="-2.3677">
        <ele>23.39999961853</ele>
        <time>2021-10-14T07:43:19.000Z</time>
      </trkpt>
      <trkpt lat="47.31543" lon="-2.36777">
        <ele>23.799999237061</ele>
        <time>2021-10-14T07:43:20.000Z</time>
      </trkpt>
      <trkpt lat="47.3155" lon="-2.36809">
        <ele>24.200000762939</ele>
        <time>2021-10-14T07:43:25.000Z</time>
      </trkpt>
      <trkpt lat="47.31552" lon="-2.36815">
        <ele>24.60000038147</ele>
        <time>2021-10-14T07:43:26.000Z</time>
      </trkpt>
      <trkpt lat="47.31554" lon="-2.36821">
        <ele>25</ele>
        <time>2021-10-14T07:43:27.000Z</time>
      </trkpt>
      <trkpt lat="47.31556" lon="-2.36828">
        <ele>25.39999961853</ele>
        <time>2021-10-14T07:43:28.000Z</time>
      </trkpt>
      <trkpt lat="47.31558" lon="-2.36834">
        <ele>25.799999237061</ele>
        <time>2021-10-14T07:43:29.000Z</time>
      </trkpt>
      <trkpt lat="47.31563" lon="-2.36853">
        <ele>25.799999237061</ele>
        <time>2021-10-14T07:43:32.000Z</time>
      </trkpt>
      <trkpt lat="47.31567" lon="-2.36865">
        <ele>26.200000762939</ele>
        <time>2021-10-14T07:43:34.000Z</time>
      </trkpt>
      <trkpt lat="47.31568" lon="-2.36872">
        <ele>26.60000038147</ele>
        <time>2021-10-14T07:43:35.000Z</time>
      </trkpt>
      <trkpt lat="47.3157" lon="-2.36878">
        <ele>27</ele>
        <time>2021-10-14T07:43:36.000Z</time>
      </trkpt>
      <trkpt lat="47.31573" lon="-2.36883">
        <ele>27.39999961853</ele>
        <time>2021-10-14T07:43:37.000Z</time>
      </trkpt>
      <trkpt lat="47.31575" lon="-2.36889">
        <ele>27.799999237061</ele>
        <time>2021-10-14T07:43:38.000Z</time>
      </trkpt>
      <trkpt lat="47.31576" lon="-2.36896">
        <ele>27.799999237061</ele>
        <time>2021-10-14T07:43:39.000Z</time>
      </trkpt>
      <trkpt lat="47.31578" lon="-2.36902">
        <ele>27.799999237061</ele>
        <time>2021-10-14T07:43:40.000Z</time>
      </trkpt>
      <trkpt lat="47.31581" lon="-2.36913">
        <ele>27.799999237061</ele>
        <time>2021-10-14T07:43:42.000Z</time>
      </trkpt>
      <trkpt lat="47.31583" lon="-2.36919">
        <ele>28.200000762939</ele>
        <time>2021-10-14T07:43:43.000Z</time>
      </trkpt>
      <trkpt lat="47.31584" lon="-2.36925">
        <ele>28.799999237061</ele>
        <time>2021-10-14T07:43:44.000Z</time>
      </trkpt>
      <trkpt lat="47.31586" lon="-2.36932">
        <ele>29.200000762939</ele>
        <time>2021-10-14T07:43:45.000Z</time>
      </trkpt>
      <trkpt lat="47.31588" lon="-2.36938">
        <ele>29.60000038147</ele>
        <time>2021-10-14T07:43:46.000Z</time>
      </trkpt>
      <trkpt lat="47.3159" lon="-2.36943">
        <ele>30</ele>
        <time>2021-10-14T07:43:47.000Z</time>
      </trkpt>
      <trkpt lat="47.31601" lon="-2.36981">
        <ele>30</ele>
        <time>2021-10-14T07:43:53.000Z</time>
      </trkpt>
      <trkpt lat="47.31607" lon="-2.37">
        <ele>30.39999961853</ele>
        <time>2021-10-14T07:43:56.000Z</time>
      </trkpt>
      <trkpt lat="47.31609" lon="-2.37006">
        <ele>30.799999237061</ele>
        <time>2021-10-14T07:43:57.000Z</time>
      </trkpt>
      <trkpt lat="47.31611" lon="-2.37012">
        <ele>31.200000762939</ele>
        <time>2021-10-14T07:43:58.000Z</time>
      </trkpt>
      <trkpt lat="47.31613" lon="-2.37017">
        <ele>31.60000038147</ele>
        <time>2021-10-14T07:43:59.000Z</time>
      </trkpt>
      <trkpt lat="47.31615" lon="-2.37023">
        <ele>32</ele>
        <time>2021-10-14T07:44:00.000Z</time>
      </trkpt>
      <trkpt lat="47.31632" lon="-2.37065">
        <ele>32</ele>
        <time>2021-10-14T07:44:08.000Z</time>
      </trkpt>
      <trkpt lat="47.3164" lon="-2.37082">
        <ele>32</ele>
        <time>2021-10-14T07:44:11.000Z</time>
      </trkpt>
      <trkpt lat="47.31646" lon="-2.37093">
        <ele>33</ele>
        <time>2021-10-14T07:44:13.000Z</time>
      </trkpt>
      <trkpt lat="47.31648" lon="-2.37099">
        <ele>33.400001525879</ele>
        <time>2021-10-14T07:44:14.000Z</time>
      </trkpt>
      <trkpt lat="47.3165" lon="-2.37104">
        <ele>33.799999237061</ele>
        <time>2021-10-14T07:44:15.000Z</time>
      </trkpt>
      <trkpt lat="47.31653" lon="-2.37109">
        <ele>34.200000762939</ele>
        <time>2021-10-14T07:44:16.000Z</time>
      </trkpt>
      <trkpt lat="47.31661" lon="-2.37125">
        <ele>34.200000762939</ele>
        <time>2021-10-14T07:44:19.000Z</time>
      </trkpt>
      <trkpt lat="47.31678" lon="-2.37156">
        <ele>34.200000762939</ele>
        <time>2021-10-14T07:44:25.000Z</time>
      </trkpt>
      <trkpt lat="47.31691" lon="-2.37188">
        <ele>34.200000762939</ele>
        <time>2021-10-14T07:44:30.000Z</time>
      </trkpt>
      <trkpt lat="47.31692" lon="-2.37195">
        <ele>34.200000762939</ele>
        <time>2021-10-14T07:44:31.000Z</time>
      </trkpt>
      <trkpt lat="47.3169" lon="-2.37217">
        <ele>34.200000762939</ele>
        <time>2021-10-14T07:44:34.000Z</time>
      </trkpt>
      <trkpt lat="47.31678" lon="-2.3724">
        <ele>34.200000762939</ele>
        <time>2021-10-14T07:44:38.000Z</time>
      </trkpt>
      <trkpt lat="47.31665" lon="-2.37253">
        <ele>34.200000762939</ele>
        <time>2021-10-14T07:44:41.000Z</time>
      </trkpt>
      <trkpt lat="47.31652" lon="-2.37263">
        <ele>34.200000762939</ele>
        <time>2021-10-14T07:44:44.000Z</time>
      </trkpt>
      <trkpt lat="47.31631" lon="-2.37283">
        <ele>34.200000762939</ele>
        <time>2021-10-14T07:44:50.000Z</time>
      </trkpt>
      <trkpt lat="47.31628" lon="-2.37287">
        <ele>34.200000762939</ele>
        <time>2021-10-14T07:44:51.000Z</time>
      </trkpt>
      <trkpt lat="47.31622" lon="-2.37307">
        <ele>34.200000762939</ele>
        <time>2021-10-14T07:44:54.000Z</time>
      </trkpt>
      <trkpt lat="47.31623" lon="-2.37336">
        <ele>34.200000762939</ele>
        <time>2021-10-14T07:44:58.000Z</time>
      </trkpt>
      <trkpt lat="47.31628" lon="-2.37356">
        <ele>34.200000762939</ele>
        <time>2021-10-14T07:45:01.000Z</time>
      </trkpt>
      <trkpt lat="47.31632" lon="-2.37375">
        <ele>34.200000762939</ele>
        <time>2021-10-14T07:45:04.000Z</time>
      </trkpt>
      <trkpt lat="47.31638" lon="-2.37426">
        <ele>34.200000762939</ele>
        <time>2021-10-14T07:45:11.000Z</time>
      </trkpt>
      <trkpt lat="47.31639" lon="-2.37472">
        <ele>33.799999237061</ele>
        <time>2021-10-14T07:45:17.000Z</time>
      </trkpt>
      <trkpt lat="47.3164" lon="-2.37479">
        <ele>33.400001525879</ele>
        <time>2021-10-14T07:45:18.000Z</time>
      </trkpt>
      <trkpt lat="47.3164" lon="-2.37486">
        <ele>33</ele>
        <time>2021-10-14T07:45:19.000Z</time>
      </trkpt>
      <trkpt lat="47.31639" lon="-2.37493">
        <ele>32.599998474121</ele>
        <time>2021-10-14T07:45:20.000Z</time>
      </trkpt>
      <trkpt lat="47.31638" lon="-2.375">
        <ele>32.200000762939</ele>
        <time>2021-10-14T07:45:21.000Z</time>
      </trkpt>
      <trkpt lat="47.31633" lon="-2.37521">
        <ele>32.200000762939</ele>
        <time>2021-10-14T07:45:24.000Z</time>
      </trkpt>
      <trkpt lat="47.31628" lon="-2.37535">
        <ele>32.200000762939</ele>
        <time>2021-10-14T07:45:26.000Z</time>
      </trkpt>
      <trkpt lat="47.3162" lon="-2.3756">
        <ele>32.200000762939</ele>
        <time>2021-10-14T07:45:30.000Z</time>
      </trkpt>
      <trkpt lat="47.31617" lon="-2.37574">
        <ele>32.200000762939</ele>
        <time>2021-10-14T07:45:32.000Z</time>
      </trkpt>
      <trkpt lat="47.31616" lon="-2.37594">
        <ele>32.200000762939</ele>
        <time>2021-10-14T07:45:35.000Z</time>
      </trkpt>
      <trkpt lat="47.3162" lon="-2.3764">
        <ele>32.200000762939</ele>
        <time>2021-10-14T07:45:42.000Z</time>
      </trkpt>
      <trkpt lat="47.31633" lon="-2.37657">
        <ele>32.200000762939</ele>
        <time>2021-10-14T07:45:46.000Z</time>
      </trkpt>
      <trkpt lat="47.31642" lon="-2.37661">
        <ele>32.200000762939</ele>
        <time>2021-10-14T07:45:48.000Z</time>
      </trkpt>
      <trkpt lat="47.3165" lon="-2.37665">
        <ele>32.200000762939</ele>
        <time>2021-10-14T07:45:50.000Z</time>
      </trkpt>
      <trkpt lat="47.31654" lon="-2.37668">
        <ele>32.200000762939</ele>
        <time>2021-10-14T07:45:51.000Z</time>
      </trkpt>
      <trkpt lat="47.31665" lon="-2.37679">
        <ele>32.200000762939</ele>
        <time>2021-10-14T07:45:54.000Z</time>
      </trkpt>
      <trkpt lat="47.31676" lon="-2.37693">
        <ele>32.200000762939</ele>
        <time>2021-10-14T07:45:57.000Z</time>
      </trkpt>
      <trkpt lat="47.31679" lon="-2.37697">
        <ele>32.200000762939</ele>
        <time>2021-10-14T07:45:58.000Z</time>
      </trkpt>
      <trkpt lat="47.31697" lon="-2.37711">
        <ele>32.200000762939</ele>
        <time>2021-10-14T07:46:03.000Z</time>
      </trkpt>
      <trkpt lat="47.31714" lon="-2.37716">
        <ele>32.200000762939</ele>
        <time>2021-10-14T07:46:07.000Z</time>
      </trkpt>
      <trkpt lat="47.31722" lon="-2.37714">
        <ele>32.200000762939</ele>
        <time>2021-10-14T07:46:09.000Z</time>
      </trkpt>
      <trkpt lat="47.31735" lon="-2.37711">
        <ele>32.200000762939</ele>
        <time>2021-10-14T07:46:12.000Z</time>
      </trkpt>
      <trkpt lat="47.31747" lon="-2.37704">
        <ele>32.200000762939</ele>
        <time>2021-10-14T07:46:15.000Z</time>
      </trkpt>
      <trkpt lat="47.31771" lon="-2.37683">
        <ele>32.200000762939</ele>
        <time>2021-10-14T07:46:22.000Z</time>
      </trkpt>
      <trkpt lat="47.31794" lon="-2.37661">
        <ele>32.200000762939</ele>
        <time>2021-10-14T07:46:28.000Z</time>
      </trkpt>
      <trkpt lat="47.31815" lon="-2.37652">
        <ele>31.799999237061</ele>
        <time>2021-10-14T07:46:33.000Z</time>
      </trkpt>
      <trkpt lat="47.31819" lon="-2.37652">
        <ele>31.39999961853</ele>
        <time>2021-10-14T07:46:34.000Z</time>
      </trkpt>
      <trkpt lat="47.31822" lon="-2.37656">
        <ele>31</ele>
        <time>2021-10-14T07:46:35.000Z</time>
      </trkpt>
      <trkpt lat="47.31825" lon="-2.37661">
        <ele>30.60000038147</ele>
        <time>2021-10-14T07:46:36.000Z</time>
      </trkpt>
      <trkpt lat="47.31825" lon="-2.37668">
        <ele>30.200000762939</ele>
        <time>2021-10-14T07:46:37.000Z</time>
      </trkpt>
      <trkpt lat="47.31823" lon="-2.37685">
        <ele>30.200000762939</ele>
        <time>2021-10-14T07:46:40.000Z</time>
      </trkpt>
      <trkpt lat="47.31817" lon="-2.37728">
        <ele>30.200000762939</ele>
        <time>2021-10-14T07:46:47.000Z</time>
      </trkpt>
      <trkpt lat="47.31816" lon="-2.37748">
        <ele>30.200000762939</ele>
        <time>2021-10-14T07:46:50.000Z</time>
      </trkpt>
      <trkpt lat="47.31814" lon="-2.37777">
        <ele>30.200000762939</ele>
        <time>2021-10-14T07:46:54.000Z</time>
      </trkpt>
      <trkpt lat="47.31807" lon="-2.37843">
        <ele>30.200000762939</ele>
        <time>2021-10-14T07:47:03.000Z</time>
      </trkpt>
      <trkpt lat="47.31805" lon="-2.37866">
        <ele>29.799999237061</ele>
        <time>2021-10-14T07:47:06.000Z</time>
      </trkpt>
      <trkpt lat="47.31804" lon="-2.37873">
        <ele>29.39999961853</ele>
        <time>2021-10-14T07:47:07.000Z</time>
      </trkpt>
      <trkpt lat="47.31803" lon="-2.37881">
        <ele>29</ele>
        <time>2021-10-14T07:47:08.000Z</time>
      </trkpt>
      <trkpt lat="47.31802" lon="-2.37889">
        <ele>28.60000038147</ele>
        <time>2021-10-14T07:47:09.000Z</time>
      </trkpt>
      <trkpt lat="47.31801" lon="-2.37897">
        <ele>28.200000762939</ele>
        <time>2021-10-14T07:47:10.000Z</time>
      </trkpt>
      <trkpt lat="47.318" lon="-2.37905">
        <ele>28.200000762939</ele>
        <time>2021-10-14T07:47:11.000Z</time>
      </trkpt>
      <trkpt lat="47.31797" lon="-2.37956">
        <ele>27.799999237061</ele>
        <time>2021-10-14T07:47:17.000Z</time>
      </trkpt>
      <trkpt lat="47.31796" lon="-2.37966">
        <ele>27.39999961853</ele>
        <time>2021-10-14T07:47:18.000Z</time>
      </trkpt>
      <trkpt lat="47.31796" lon="-2.37975">
        <ele>27</ele>
        <time>2021-10-14T07:47:19.000Z</time>
      </trkpt>
      <trkpt lat="47.31796" lon="-2.37985">
        <ele>26.60000038147</ele>
        <time>2021-10-14T07:47:20.000Z</time>
      </trkpt>
      <trkpt lat="47.31796" lon="-2.37995">
        <ele>26.200000762939</ele>
        <time>2021-10-14T07:47:21.000Z</time>
      </trkpt>
      <trkpt lat="47.31799" lon="-2.38051">
        <ele>26.200000762939</ele>
        <time>2021-10-14T07:47:27.000Z</time>
      </trkpt>
      <trkpt lat="47.318" lon="-2.3806">
        <ele>25.60000038147</ele>
        <time>2021-10-14T07:47:28.000Z</time>
      </trkpt>
      <trkpt lat="47.31801" lon="-2.38068">
        <ele>25.200000762939</ele>
        <time>2021-10-14T07:47:29.000Z</time>
      </trkpt>
      <trkpt lat="47.31801" lon="-2.38076">
        <ele>24.39999961853</ele>
        <time>2021-10-14T07:47:30.000Z</time>
      </trkpt>
      <trkpt lat="47.31802" lon="-2.38085">
        <ele>24</ele>
        <time>2021-10-14T07:47:31.000Z</time>
      </trkpt>
      <trkpt lat="47.31804" lon="-2.38103">
        <ele>24</ele>
        <time>2021-10-14T07:47:33.000Z</time>
      </trkpt>
      <trkpt lat="47.31807" lon="-2.38171">
        <ele>24</ele>
        <time>2021-10-14T07:47:41.000Z</time>
      </trkpt>
      <trkpt lat="47.31808" lon="-2.38228">
        <ele>24</ele>
        <time>2021-10-14T07:47:48.000Z</time>
      </trkpt>
      <trkpt lat="47.31809" lon="-2.38236">
        <ele>24.39999961853</ele>
        <time>2021-10-14T07:47:49.000Z</time>
      </trkpt>
      <trkpt lat="47.31809" lon="-2.38244">
        <ele>24.799999237061</ele>
        <time>2021-10-14T07:47:50.000Z</time>
      </trkpt>
      <trkpt lat="47.31809" lon="-2.38251">
        <ele>25.39999961853</ele>
        <time>2021-10-14T07:47:51.000Z</time>
      </trkpt>
      <trkpt lat="47.31809" lon="-2.38259">
        <ele>25.799999237061</ele>
        <time>2021-10-14T07:47:52.000Z</time>
      </trkpt>
      <trkpt lat="47.31809" lon="-2.38267">
        <ele>26.200000762939</ele>
        <time>2021-10-14T07:47:53.000Z</time>
      </trkpt>
      <trkpt lat="47.3181" lon="-2.38289">
        <ele>26.200000762939</ele>
        <time>2021-10-14T07:47:56.000Z</time>
      </trkpt>
      <trkpt lat="47.31811" lon="-2.38311">
        <ele>26.60000038147</ele>
        <time>2021-10-14T07:47:59.000Z</time>
      </trkpt>
      <trkpt lat="47.31811" lon="-2.38318">
        <ele>27</ele>
        <time>2021-10-14T07:48:00.000Z</time>
      </trkpt>
      <trkpt lat="47.31811" lon="-2.38326">
        <ele>27.39999961853</ele>
        <time>2021-10-14T07:48:01.000Z</time>
      </trkpt>
      <trkpt lat="47.31811" lon="-2.38334">
        <ele>27.799999237061</ele>
        <time>2021-10-14T07:48:02.000Z</time>
      </trkpt>
      <trkpt lat="47.31811" lon="-2.38341">
        <ele>28.200000762939</ele>
        <time>2021-10-14T07:48:03.000Z</time>
      </trkpt>
      <trkpt lat="47.31811" lon="-2.38357">
        <ele>28.200000762939</ele>
        <time>2021-10-14T07:48:05.000Z</time>
      </trkpt>
      <trkpt lat="47.31811" lon="-2.38402">
        <ele>28.60000038147</ele>
        <time>2021-10-14T07:48:11.000Z</time>
      </trkpt>
      <trkpt lat="47.31811" lon="-2.3841">
        <ele>29</ele>
        <time>2021-10-14T07:48:12.000Z</time>
      </trkpt>
      <trkpt lat="47.31811" lon="-2.38417">
        <ele>29.39999961853</ele>
        <time>2021-10-14T07:48:13.000Z</time>
      </trkpt>
      <trkpt lat="47.31811" lon="-2.38424">
        <ele>29.799999237061</ele>
        <time>2021-10-14T07:48:14.000Z</time>
      </trkpt>
      <trkpt lat="47.31811" lon="-2.38431">
        <ele>30.200000762939</ele>
        <time>2021-10-14T07:48:15.000Z</time>
      </trkpt>
      <trkpt lat="47.31811" lon="-2.3848">
        <ele>30.200000762939</ele>
        <time>2021-10-14T07:48:22.000Z</time>
      </trkpt>
      <trkpt lat="47.31811" lon="-2.38505">
        <ele>30.200000762939</ele>
        <time>2021-10-14T07:48:26.000Z</time>
      </trkpt>
      <trkpt lat="47.31811" lon="-2.38514">
        <ele>30.200000762939</ele>
        <time>2021-10-14T07:48:28.000Z</time>
      </trkpt>
      <trkpt lat="47.31809" lon="-2.38535">
        <ele>30.200000762939</ele>
        <time>2021-10-14T07:48:34.000Z</time>
      </trkpt>
      <trkpt lat="47.3181" lon="-2.38538">
        <ele>30.200000762939</ele>
        <time>2021-10-14T07:48:35.000Z</time>
      </trkpt>
      <trkpt lat="47.31814" lon="-2.38543">
        <ele>30.200000762939</ele>
        <time>2021-10-14T07:48:38.000Z</time>
      </trkpt>
      <trkpt lat="47.31827" lon="-2.38538">
        <ele>30.200000762939</ele>
        <time>2021-10-14T07:48:42.000Z</time>
      </trkpt>
      <trkpt lat="47.31831" lon="-2.38537">
        <ele>30.200000762939</ele>
        <time>2021-10-14T07:48:43.000Z</time>
      </trkpt>
      <trkpt lat="47.31851" lon="-2.38532">
        <ele>30.200000762939</ele>
        <time>2021-10-14T07:48:47.000Z</time>
      </trkpt>
      <trkpt lat="47.31886" lon="-2.38517">
        <ele>30.200000762939</ele>
        <time>2021-10-14T07:48:53.000Z</time>
      </trkpt>
      <trkpt lat="47.31918" lon="-2.385">
        <ele>29.799999237061</ele>
        <time>2021-10-14T07:48:58.000Z</time>
      </trkpt>
      <trkpt lat="47.31924" lon="-2.38497">
        <ele>29.39999961853</ele>
        <time>2021-10-14T07:48:59.000Z</time>
      </trkpt>
      <trkpt lat="47.31931" lon="-2.38495">
        <ele>29</ele>
        <time>2021-10-14T07:49:00.000Z</time>
      </trkpt>
      <trkpt lat="47.31937" lon="-2.38493">
        <ele>28.39999961853</ele>
        <time>2021-10-14T07:49:01.000Z</time>
      </trkpt>
      <trkpt lat="47.31943" lon="-2.38492">
        <ele>28</ele>
        <time>2021-10-14T07:49:02.000Z</time>
      </trkpt>
      <trkpt lat="47.3197" lon="-2.38483">
        <ele>28</ele>
        <time>2021-10-14T07:49:06.000Z</time>
      </trkpt>
      <trkpt lat="47.31976" lon="-2.38481">
        <ele>27.60000038147</ele>
        <time>2021-10-14T07:49:07.000Z</time>
      </trkpt>
      <trkpt lat="47.31983" lon="-2.38479">
        <ele>27.200000762939</ele>
        <time>2021-10-14T07:49:08.000Z</time>
      </trkpt>
      <trkpt lat="47.31989" lon="-2.38476">
        <ele>26.799999237061</ele>
        <time>2021-10-14T07:49:09.000Z</time>
      </trkpt>
      <trkpt lat="47.31996" lon="-2.38474">
        <ele>25.799999237061</ele>
        <time>2021-10-14T07:49:10.000Z</time>
      </trkpt>
      <trkpt lat="47.32014" lon="-2.38467">
        <ele>25.799999237061</ele>
        <time>2021-10-14T07:49:13.000Z</time>
      </trkpt>
      <trkpt lat="47.32059" lon="-2.38449">
        <ele>25.39999961853</ele>
        <time>2021-10-14T07:49:20.000Z</time>
      </trkpt>
      <trkpt lat="47.32065" lon="-2.38445">
        <ele>25</ele>
        <time>2021-10-14T07:49:21.000Z</time>
      </trkpt>
      <trkpt lat="47.32072" lon="-2.38443">
        <ele>24.60000038147</ele>
        <time>2021-10-14T07:49:22.000Z</time>
      </trkpt>
      <trkpt lat="47.32078" lon="-2.3844">
        <ele>24.200000762939</ele>
        <time>2021-10-14T07:49:23.000Z</time>
      </trkpt>
      <trkpt lat="47.32084" lon="-2.38437">
        <ele>23.799999237061</ele>
        <time>2021-10-14T07:49:24.000Z</time>
      </trkpt>
      <trkpt lat="47.32108" lon="-2.38427">
        <ele>23.39999961853</ele>
        <time>2021-10-14T07:49:28.000Z</time>
      </trkpt>
      <trkpt lat="47.32113" lon="-2.38424">
        <ele>23</ele>
        <time>2021-10-14T07:49:29.000Z</time>
      </trkpt>
      <trkpt lat="47.32119" lon="-2.38422">
        <ele>22.60000038147</ele>
        <time>2021-10-14T07:49:30.000Z</time>
      </trkpt>
      <trkpt lat="47.32124" lon="-2.38419">
        <ele>22.200000762939</ele>
        <time>2021-10-14T07:49:31.000Z</time>
      </trkpt>
      <trkpt lat="47.3213" lon="-2.38415">
        <ele>21.799999237061</ele>
        <time>2021-10-14T07:49:32.000Z</time>
      </trkpt>
      <trkpt lat="47.32136" lon="-2.3841">
        <ele>21.799999237061</ele>
        <time>2021-10-14T07:49:33.000Z</time>
      </trkpt>
      <trkpt lat="47.32141" lon="-2.38405">
        <ele>21.799999237061</ele>
        <time>2021-10-14T07:49:34.000Z</time>
      </trkpt>
      <trkpt lat="47.32146" lon="-2.38398">
        <ele>21.799999237061</ele>
        <time>2021-10-14T07:49:35.000Z</time>
      </trkpt>
      <trkpt lat="47.32159" lon="-2.38376">
        <ele>21.799999237061</ele>
        <time>2021-10-14T07:49:38.000Z</time>
      </trkpt>
      <trkpt lat="47.32169" lon="-2.38357">
        <ele>21.799999237061</ele>
        <time>2021-10-14T07:49:41.000Z</time>
      </trkpt>
      <trkpt lat="47.32176" lon="-2.38346">
        <ele>21.799999237061</ele>
        <time>2021-10-14T07:49:43.000Z</time>
      </trkpt>
      <trkpt lat="47.32181" lon="-2.3834">
        <ele>21.39999961853</ele>
        <time>2021-10-14T07:49:44.000Z</time>
      </trkpt>
      <trkpt lat="47.32185" lon="-2.38335">
        <ele>21</ele>
        <time>2021-10-14T07:49:45.000Z</time>
      </trkpt>
      <trkpt lat="47.32189" lon="-2.3833">
        <ele>20.60000038147</ele>
        <time>2021-10-14T07:49:46.000Z</time>
      </trkpt>
      <trkpt lat="47.32193" lon="-2.38325">
        <ele>20.200000762939</ele>
        <time>2021-10-14T07:49:47.000Z</time>
      </trkpt>
      <trkpt lat="47.32197" lon="-2.38319">
        <ele>19.799999237061</ele>
        <time>2021-10-14T07:49:48.000Z</time>
      </trkpt>
      <trkpt lat="47.32218" lon="-2.38294">
        <ele>19.799999237061</ele>
        <time>2021-10-14T07:49:53.000Z</time>
      </trkpt>
      <trkpt lat="47.32223" lon="-2.38295">
        <ele>19.799999237061</ele>
        <time>2021-10-14T07:49:54.000Z</time>
      </trkpt>
      <trkpt lat="47.32248" lon="-2.38292">
        <ele>19.799999237061</ele>
        <time>2021-10-14T07:49:59.000Z</time>
      </trkpt>
      <trkpt lat="47.32285" lon="-2.38289">
        <ele>19.799999237061</ele>
        <time>2021-10-14T07:50:06.000Z</time>
      </trkpt>
      <trkpt lat="47.32315" lon="-2.38299">
        <ele>19.799999237061</ele>
        <time>2021-10-14T07:50:12.000Z</time>
      </trkpt>
      <trkpt lat="47.32344" lon="-2.3831">
        <ele>20.200000762939</ele>
        <time>2021-10-14T07:50:18.000Z</time>
      </trkpt>
      <trkpt lat="47.32348" lon="-2.38311">
        <ele>20.60000038147</ele>
        <time>2021-10-14T07:50:19.000Z</time>
      </trkpt>
      <trkpt lat="47.32353" lon="-2.38313">
        <ele>21</ele>
        <time>2021-10-14T07:50:20.000Z</time>
      </trkpt>
      <trkpt lat="47.32357" lon="-2.38315">
        <ele>21.39999961853</ele>
        <time>2021-10-14T07:50:21.000Z</time>
      </trkpt>
      <trkpt lat="47.32362" lon="-2.38317">
        <ele>21.799999237061</ele>
        <time>2021-10-14T07:50:22.000Z</time>
      </trkpt>
      <trkpt lat="47.32376" lon="-2.38323">
        <ele>21.799999237061</ele>
        <time>2021-10-14T07:50:25.000Z</time>
      </trkpt>
      <trkpt lat="47.32394" lon="-2.38334">
        <ele>22.200000762939</ele>
        <time>2021-10-14T07:50:29.000Z</time>
      </trkpt>
      <trkpt lat="47.32399" lon="-2.38336">
        <ele>22.60000038147</ele>
        <time>2021-10-14T07:50:30.000Z</time>
      </trkpt>
      <trkpt lat="47.32404" lon="-2.38338">
        <ele>23</ele>
        <time>2021-10-14T07:50:31.000Z</time>
      </trkpt>
      <trkpt lat="47.32408" lon="-2.3834">
        <ele>23.39999961853</ele>
        <time>2021-10-14T07:50:32.000Z</time>
      </trkpt>
      <trkpt lat="47.32413" lon="-2.38342">
        <ele>24</ele>
        <time>2021-10-14T07:50:33.000Z</time>
      </trkpt>
      <trkpt lat="47.32443" lon="-2.38356">
        <ele>24</ele>
        <time>2021-10-14T07:50:39.000Z</time>
      </trkpt>
      <trkpt lat="47.32453" lon="-2.38361">
        <ele>24</ele>
        <time>2021-10-14T07:50:41.000Z</time>
      </trkpt>
      <trkpt lat="47.32467" lon="-2.38368">
        <ele>24</ele>
        <time>2021-10-14T07:50:44.000Z</time>
      </trkpt>
      <trkpt lat="47.32497" lon="-2.38381">
        <ele>24</ele>
        <time>2021-10-14T07:50:51.000Z</time>
      </trkpt>
      <trkpt lat="47.3252" lon="-2.38386">
        <ele>24</ele>
        <time>2021-10-14T07:50:57.000Z</time>
      </trkpt>
      <trkpt lat="47.32522" lon="-2.38382">
        <ele>24</ele>
        <time>2021-10-14T07:50:58.000Z</time>
      </trkpt>
      <trkpt lat="47.32525" lon="-2.38373">
        <ele>24</ele>
        <time>2021-10-14T07:51:00.000Z</time>
      </trkpt>
      <trkpt lat="47.32526" lon="-2.38351">
        <ele>24</ele>
        <time>2021-10-14T07:51:03.000Z</time>
      </trkpt>
      <trkpt lat="47.32527" lon="-2.38342">
        <ele>24</ele>
        <time>2021-10-14T07:51:04.000Z</time>
      </trkpt>
      <trkpt lat="47.32528" lon="-2.38321">
        <ele>24</ele>
        <time>2021-10-14T07:51:07.000Z</time>
      </trkpt>
      <trkpt lat="47.32536" lon="-2.38313">
        <ele>24</ele>
        <time>2021-10-14T07:51:09.000Z</time>
      </trkpt>
      <trkpt lat="47.32548" lon="-2.38307">
        <ele>23</ele>
        <time>2021-10-14T07:51:11.000Z</time>
      </trkpt>
      <trkpt lat="47.32553" lon="-2.38305">
        <ele>22.60000038147</ele>
        <time>2021-10-14T07:51:12.000Z</time>
      </trkpt>
      <trkpt lat="47.32559" lon="-2.38302">
        <ele>22.200000762939</ele>
        <time>2021-10-14T07:51:13.000Z</time>
      </trkpt>
      <trkpt lat="47.32565" lon="-2.383">
        <ele>21.799999237061</ele>
        <time>2021-10-14T07:51:14.000Z</time>
      </trkpt>
      <trkpt lat="47.32578" lon="-2.38295">
        <ele>21.799999237061</ele>
        <time>2021-10-14T07:51:16.000Z</time>
      </trkpt>
      <trkpt lat="47.32592" lon="-2.38291">
        <ele>21.799999237061</ele>
        <time>2021-10-14T07:51:18.000Z</time>
      </trkpt>
      <trkpt lat="47.32617" lon="-2.38301">
        <ele>21.799999237061</ele>
        <time>2021-10-14T07:51:22.000Z</time>
      </trkpt>
      <trkpt lat="47.32635" lon="-2.38328">
        <ele>21.799999237061</ele>
        <time>2021-10-14T07:51:26.000Z</time>
      </trkpt>
      <trkpt lat="47.32661" lon="-2.38362">
        <ele>22.200000762939</ele>
        <time>2021-10-14T07:51:33.000Z</time>
      </trkpt>
      <trkpt lat="47.32664" lon="-2.38367">
        <ele>22.60000038147</ele>
        <time>2021-10-14T07:51:34.000Z</time>
      </trkpt>
      <trkpt lat="47.32667" lon="-2.38372">
        <ele>23</ele>
        <time>2021-10-14T07:51:35.000Z</time>
      </trkpt>
      <trkpt lat="47.32671" lon="-2.38376">
        <ele>23.39999961853</ele>
        <time>2021-10-14T07:51:36.000Z</time>
      </trkpt>
      <trkpt lat="47.32674" lon="-2.38381">
        <ele>23.799999237061</ele>
        <time>2021-10-14T07:51:37.000Z</time>
      </trkpt>
      <trkpt lat="47.3268" lon="-2.38389">
        <ele>24.200000762939</ele>
        <time>2021-10-14T07:51:39.000Z</time>
      </trkpt>
      <trkpt lat="47.32683" lon="-2.38393">
        <ele>24.60000038147</ele>
        <time>2021-10-14T07:51:40.000Z</time>
      </trkpt>
      <trkpt lat="47.32686" lon="-2.38397">
        <ele>25</ele>
        <time>2021-10-14T07:51:41.000Z</time>
      </trkpt>
      <trkpt lat="47.32689" lon="-2.384">
        <ele>25.39999961853</ele>
        <time>2021-10-14T07:51:42.000Z</time>
      </trkpt>
      <trkpt lat="47.32693" lon="-2.38402">
        <ele>25.799999237061</ele>
        <time>2021-10-14T07:51:43.000Z</time>
      </trkpt>
      <trkpt lat="47.32704" lon="-2.38407">
        <ele>25.799999237061</ele>
        <time>2021-10-14T07:51:46.000Z</time>
      </trkpt>
      <trkpt lat="47.32708" lon="-2.38409">
        <ele>25.799999237061</ele>
        <time>2021-10-14T07:51:47.000Z</time>
      </trkpt>
      <trkpt lat="47.3272" lon="-2.38409">
        <ele>26.200000762939</ele>
        <time>2021-10-14T07:51:50.000Z</time>
      </trkpt>
      <trkpt lat="47.32724" lon="-2.38408">
        <ele>26.60000038147</ele>
        <time>2021-10-14T07:51:51.000Z</time>
      </trkpt>
      <trkpt lat="47.32728" lon="-2.38407">
        <ele>27</ele>
        <time>2021-10-14T07:51:52.000Z</time>
      </trkpt>
      <trkpt lat="47.32732" lon="-2.38407">
        <ele>27.39999961853</ele>
        <time>2021-10-14T07:51:53.000Z</time>
      </trkpt>
      <trkpt lat="47.32735" lon="-2.38404">
        <ele>27.799999237061</ele>
        <time>2021-10-14T07:51:54.000Z</time>
      </trkpt>
      <trkpt lat="47.32748" lon="-2.384">
        <ele>27.799999237061</ele>
        <time>2021-10-14T07:51:57.000Z</time>
      </trkpt>
      <trkpt lat="47.32772" lon="-2.38394">
        <ele>28.200000762939</ele>
        <time>2021-10-14T07:52:03.000Z</time>
      </trkpt>
      <trkpt lat="47.32776" lon="-2.38392">
        <ele>28.60000038147</ele>
        <time>2021-10-14T07:52:04.000Z</time>
      </trkpt>
      <trkpt lat="47.3278" lon="-2.3839">
        <ele>29</ele>
        <time>2021-10-14T07:52:05.000Z</time>
      </trkpt>
      <trkpt lat="47.32783" lon="-2.38386">
        <ele>29.39999961853</ele>
        <time>2021-10-14T07:52:06.000Z</time>
      </trkpt>
      <trkpt lat="47.32785" lon="-2.3838">
        <ele>29.799999237061</ele>
        <time>2021-10-14T07:52:07.000Z</time>
      </trkpt>
      <trkpt lat="47.32787" lon="-2.38366">
        <ele>29.799999237061</ele>
        <time>2021-10-14T07:52:09.000Z</time>
      </trkpt>
      <trkpt lat="47.32788" lon="-2.38358">
        <ele>29.799999237061</ele>
        <time>2021-10-14T07:52:10.000Z</time>
      </trkpt>
      <trkpt lat="47.3279" lon="-2.38349">
        <ele>29.799999237061</ele>
        <time>2021-10-14T07:52:11.000Z</time>
      </trkpt>
      <trkpt lat="47.32797" lon="-2.38313">
        <ele>29.799999237061</ele>
        <time>2021-10-14T07:52:15.000Z</time>
      </trkpt>
      <trkpt lat="47.328" lon="-2.38303">
        <ele>29.39999961853</ele>
        <time>2021-10-14T07:52:16.000Z</time>
      </trkpt>
      <trkpt lat="47.32802" lon="-2.38293">
        <ele>29</ele>
        <time>2021-10-14T07:52:17.000Z</time>
      </trkpt>
      <trkpt lat="47.32805" lon="-2.38281">
        <ele>28.60000038147</ele>
        <time>2021-10-14T07:52:18.000Z</time>
      </trkpt>
      <trkpt lat="47.32808" lon="-2.38271">
        <ele>28.200000762939</ele>
        <time>2021-10-14T07:52:19.000Z</time>
      </trkpt>
      <trkpt lat="47.3281" lon="-2.3826">
        <ele>27.799999237061</ele>
        <time>2021-10-14T07:52:20.000Z</time>
      </trkpt>
      <trkpt lat="47.32813" lon="-2.38248">
        <ele>27.799999237061</ele>
        <time>2021-10-14T07:52:21.000Z</time>
      </trkpt>
      <trkpt lat="47.32815" lon="-2.38236">
        <ele>27.39999961853</ele>
        <time>2021-10-14T07:52:22.000Z</time>
      </trkpt>
      <trkpt lat="47.32818" lon="-2.38224">
        <ele>27</ele>
        <time>2021-10-14T07:52:23.000Z</time>
      </trkpt>
      <trkpt lat="47.32822" lon="-2.38213">
        <ele>26.39999961853</ele>
        <time>2021-10-14T07:52:24.000Z</time>
      </trkpt>
      <trkpt lat="47.32825" lon="-2.38202">
        <ele>26</ele>
        <time>2021-10-14T07:52:25.000Z</time>
      </trkpt>
      <trkpt lat="47.3283" lon="-2.3819">
        <ele>25.60000038147</ele>
        <time>2021-10-14T07:52:26.000Z</time>
      </trkpt>
      <trkpt lat="47.32834" lon="-2.3818">
        <ele>24.60000038147</ele>
        <time>2021-10-14T07:52:27.000Z</time>
      </trkpt>
      <trkpt lat="47.32839" lon="-2.3817">
        <ele>24</ele>
        <time>2021-10-14T07:52:28.000Z</time>
      </trkpt>
      <trkpt lat="47.32843" lon="-2.38161">
        <ele>23.60000038147</ele>
        <time>2021-10-14T07:52:29.000Z</time>
      </trkpt>
      <trkpt lat="47.32853" lon="-2.38143">
        <ele>23</ele>
        <time>2021-10-14T07:52:31.000Z</time>
      </trkpt>
      <trkpt lat="47.32857" lon="-2.38135">
        <ele>22.60000038147</ele>
        <time>2021-10-14T07:52:32.000Z</time>
      </trkpt>
      <trkpt lat="47.32862" lon="-2.38126">
        <ele>22.200000762939</ele>
        <time>2021-10-14T07:52:33.000Z</time>
      </trkpt>
      <trkpt lat="47.32867" lon="-2.38118">
        <ele>21.60000038147</ele>
        <time>2021-10-14T07:52:34.000Z</time>
      </trkpt>
      <trkpt lat="47.32872" lon="-2.3811">
        <ele>21.200000762939</ele>
        <time>2021-10-14T07:52:35.000Z</time>
      </trkpt>
      <trkpt lat="47.32906" lon="-2.38055">
        <ele>21.200000762939</ele>
        <time>2021-10-14T07:52:42.000Z</time>
      </trkpt>
      <trkpt lat="47.3292" lon="-2.38031">
        <ele>20.799999237061</ele>
        <time>2021-10-14T07:52:45.000Z</time>
      </trkpt>
      <trkpt lat="47.32925" lon="-2.38024">
        <ele>20.39999961853</ele>
        <time>2021-10-14T07:52:46.000Z</time>
      </trkpt>
      <trkpt lat="47.32929" lon="-2.38018">
        <ele>20</ele>
        <time>2021-10-14T07:52:47.000Z</time>
      </trkpt>
      <trkpt lat="47.32934" lon="-2.38011">
        <ele>19.60000038147</ele>
        <time>2021-10-14T07:52:48.000Z</time>
      </trkpt>
      <trkpt lat="47.32938" lon="-2.38005">
        <ele>19.200000762939</ele>
        <time>2021-10-14T07:52:49.000Z</time>
      </trkpt>
      <trkpt lat="47.3297" lon="-2.3796">
        <ele>19.200000762939</ele>
        <time>2021-10-14T07:52:56.000Z</time>
      </trkpt>
      <trkpt lat="47.32995" lon="-2.37917">
        <ele>19.200000762939</ele>
        <time>2021-10-14T07:53:02.000Z</time>
      </trkpt>
      <trkpt lat="47.33016" lon="-2.37879">
        <ele>18.60000038147</ele>
        <time>2021-10-14T07:53:08.000Z</time>
      </trkpt>
      <trkpt lat="47.33017" lon="-2.37876">
        <ele>18.200000762939</ele>
        <time>2021-10-14T07:53:09.000Z</time>
      </trkpt>
      <trkpt lat="47.33018" lon="-2.37874">
        <ele>17.799999237061</ele>
        <time>2021-10-14T07:53:10.000Z</time>
      </trkpt>
      <trkpt lat="47.33019" lon="-2.37872">
        <ele>17.39999961853</ele>
        <time>2021-10-14T07:53:11.000Z</time>
      </trkpt>
      <trkpt lat="47.3302" lon="-2.37871">
        <ele>17</ele>
        <time>2021-10-14T07:53:12.000Z</time>
      </trkpt>
      <trkpt lat="47.33021" lon="-2.3787">
        <ele>17</ele>
        <time>2021-10-14T07:53:14.000Z</time>
      </trkpt>
      <trkpt lat="47.33021" lon="-2.37877">
        <ele>17</ele>
        <time>2021-10-14T07:53:31.000Z</time>
      </trkpt>
      <trkpt lat="47.3302" lon="-2.37878">
        <ele>17</ele>
        <time>2021-10-14T07:53:32.000Z</time>
      </trkpt>
      <trkpt lat="47.33011" lon="-2.37889">
        <ele>17</ele>
        <time>2021-10-14T07:53:37.000Z</time>
      </trkpt>
      <trkpt lat="47.32993" lon="-2.3792">
        <ele>17</ele>
        <time>2021-10-14T07:53:45.000Z</time>
      </trkpt>
      <trkpt lat="47.32974" lon="-2.3795">
        <ele>17</ele>
        <time>2021-10-14T07:53:53.000Z</time>
      </trkpt>
      <trkpt lat="47.32958" lon="-2.37973">
        <ele>17</ele>
        <time>2021-10-14T07:54:00.000Z</time>
      </trkpt>
      <trkpt lat="47.32949" lon="-2.37979">
        <ele>17</ele>
        <time>2021-10-14T07:54:03.000Z</time>
      </trkpt>
      <trkpt lat="47.32947" lon="-2.37977">
        <ele>17</ele>
        <time>2021-10-14T07:54:04.000Z</time>
      </trkpt>
      <trkpt lat="47.32948" lon="-2.37966">
        <ele>17</ele>
        <time>2021-10-14T07:54:07.000Z</time>
      </trkpt>
      <trkpt lat="47.3296" lon="-2.37948">
        <ele>17</ele>
        <time>2021-10-14T07:54:11.000Z</time>
      </trkpt>
      <trkpt lat="47.32968" lon="-2.37939">
        <ele>17</ele>
        <time>2021-10-14T07:54:13.000Z</time>
      </trkpt>
      <trkpt lat="47.32976" lon="-2.37927">
        <ele>17</ele>
        <time>2021-10-14T07:54:15.000Z</time>
      </trkpt>
      <trkpt lat="47.32983" lon="-2.37915">
        <ele>17</ele>
        <time>2021-10-14T07:54:17.000Z</time>
      </trkpt>
      <trkpt lat="47.33005" lon="-2.37877">
        <ele>17</ele>
        <time>2021-10-14T07:54:23.000Z</time>
      </trkpt>
      <trkpt lat="47.33008" lon="-2.37871">
        <ele>17</ele>
        <time>2021-10-14T07:54:24.000Z</time>
      </trkpt>
      <trkpt lat="47.33013" lon="-2.37848">
        <ele>17</ele>
        <time>2021-10-14T07:54:27.000Z</time>
      </trkpt>
      <trkpt lat="47.33014" lon="-2.37818">
        <ele>17</ele>
        <time>2021-10-14T07:54:31.000Z</time>
      </trkpt>
      <trkpt lat="47.33008" lon="-2.37762">
        <ele>17</ele>
        <time>2021-10-14T07:54:38.000Z</time>
      </trkpt>
      <trkpt lat="47.33006" lon="-2.37729">
        <ele>17</ele>
        <time>2021-10-14T07:54:42.000Z</time>
      </trkpt>
      <trkpt lat="47.33004" lon="-2.37705">
        <ele>17</ele>
        <time>2021-10-14T07:54:45.000Z</time>
      </trkpt>
      <trkpt lat="47.33003" lon="-2.37689">
        <ele>17</ele>
        <time>2021-10-14T07:54:47.000Z</time>
      </trkpt>
      <trkpt lat="47.33009" lon="-2.37664">
        <ele>17</ele>
        <time>2021-10-14T07:54:50.000Z</time>
      </trkpt>
      <trkpt lat="47.33017" lon="-2.3765">
        <ele>17</ele>
        <time>2021-10-14T07:54:52.000Z</time>
      </trkpt>
      <trkpt lat="47.33029" lon="-2.37629">
        <ele>17</ele>
        <time>2021-10-14T07:54:55.000Z</time>
      </trkpt>
      <trkpt lat="47.33037" lon="-2.37614">
        <ele>16.39999961853</ele>
        <time>2021-10-14T07:54:57.000Z</time>
      </trkpt>
      <trkpt lat="47.33041" lon="-2.37606">
        <ele>16</ele>
        <time>2021-10-14T07:54:58.000Z</time>
      </trkpt>
      <trkpt lat="47.33045" lon="-2.37599">
        <ele>15.60000038147</ele>
        <time>2021-10-14T07:54:59.000Z</time>
      </trkpt>
      <trkpt lat="47.33049" lon="-2.37591">
        <ele>15.199999809265</ele>
        <time>2021-10-14T07:55:00.000Z</time>
      </trkpt>
      <trkpt lat="47.33053" lon="-2.37584">
        <ele>14.800000190735</ele>
        <time>2021-10-14T07:55:01.000Z</time>
      </trkpt>
      <trkpt lat="47.3306" lon="-2.37568">
        <ele>14.800000190735</ele>
        <time>2021-10-14T07:55:03.000Z</time>
      </trkpt>
      <trkpt lat="47.33087" lon="-2.37507">
        <ele>14.39999961853</ele>
        <time>2021-10-14T07:55:10.000Z</time>
      </trkpt>
      <trkpt lat="47.33091" lon="-2.37498">
        <ele>14</ele>
        <time>2021-10-14T07:55:11.000Z</time>
      </trkpt>
      <trkpt lat="47.33095" lon="-2.37489">
        <ele>13.39999961853</ele>
        <time>2021-10-14T07:55:12.000Z</time>
      </trkpt>
      <trkpt lat="47.33099" lon="-2.37481">
        <ele>13</ele>
        <time>2021-10-14T07:55:13.000Z</time>
      </trkpt>
      <trkpt lat="47.33102" lon="-2.37473">
        <ele>12.60000038147</ele>
        <time>2021-10-14T07:55:14.000Z</time>
      </trkpt>
      <trkpt lat="47.33109" lon="-2.37456">
        <ele>12.60000038147</ele>
        <time>2021-10-14T07:55:16.000Z</time>
      </trkpt>
      <trkpt lat="47.33113" lon="-2.3744">
        <ele>12.60000038147</ele>
        <time>2021-10-14T07:55:18.000Z</time>
      </trkpt>
      <trkpt lat="47.33114" lon="-2.37421">
        <ele>12.60000038147</ele>
        <time>2021-10-14T07:55:20.000Z</time>
      </trkpt>
      <trkpt lat="47.3311" lon="-2.37363">
        <ele>12.60000038147</ele>
        <time>2021-10-14T07:55:26.000Z</time>
      </trkpt>
      <trkpt lat="47.33108" lon="-2.37346">
        <ele>12.60000038147</ele>
        <time>2021-10-14T07:55:28.000Z</time>
      </trkpt>
      <trkpt lat="47.33104" lon="-2.37322">
        <ele>12.60000038147</ele>
        <time>2021-10-14T07:55:31.000Z</time>
      </trkpt>
      <trkpt lat="47.33103" lon="-2.37315">
        <ele>12.60000038147</ele>
        <time>2021-10-14T07:55:32.000Z</time>
      </trkpt>
      <trkpt lat="47.33103" lon="-2.37292">
        <ele>12.60000038147</ele>
        <time>2021-10-14T07:55:35.000Z</time>
      </trkpt>
      <trkpt lat="47.33104" lon="-2.37284">
        <ele>12.60000038147</ele>
        <time>2021-10-14T07:55:36.000Z</time>
      </trkpt>
      <trkpt lat="47.33105" lon="-2.37256">
        <ele>12.60000038147</ele>
        <time>2021-10-14T07:55:40.000Z</time>
      </trkpt>
      <trkpt lat="47.33105" lon="-2.37249">
        <ele>13</ele>
        <time>2021-10-14T07:55:41.000Z</time>
      </trkpt>
      <trkpt lat="47.33105" lon="-2.37243">
        <ele>13.39999961853</ele>
        <time>2021-10-14T07:55:42.000Z</time>
      </trkpt>
      <trkpt lat="47.33105" lon="-2.37237">
        <ele>13.800000190735</ele>
        <time>2021-10-14T07:55:43.000Z</time>
      </trkpt>
      <trkpt lat="47.33105" lon="-2.37231">
        <ele>14.800000190735</ele>
        <time>2021-10-14T07:55:44.000Z</time>
      </trkpt>
      <trkpt lat="47.33104" lon="-2.37225">
        <ele>15.199999809265</ele>
        <time>2021-10-14T07:55:45.000Z</time>
      </trkpt>
      <trkpt lat="47.33104" lon="-2.3722">
        <ele>15.60000038147</ele>
        <time>2021-10-14T07:55:46.000Z</time>
      </trkpt>
      <trkpt lat="47.33104" lon="-2.37215">
        <ele>16</ele>
        <time>2021-10-14T07:55:47.000Z</time>
      </trkpt>
      <trkpt lat="47.33104" lon="-2.3721">
        <ele>16.39999961853</ele>
        <time>2021-10-14T07:55:48.000Z</time>
      </trkpt>
      <trkpt lat="47.33104" lon="-2.37205">
        <ele>16.799999237061</ele>
        <time>2021-10-14T07:55:49.000Z</time>
      </trkpt>
      <trkpt lat="47.33104" lon="-2.37194">
        <ele>17.200000762939</ele>
        <time>2021-10-14T07:55:51.000Z</time>
      </trkpt>
      <trkpt lat="47.33104" lon="-2.37189">
        <ele>17.60000038147</ele>
        <time>2021-10-14T07:55:52.000Z</time>
      </trkpt>
      <trkpt lat="47.33104" lon="-2.37184">
        <ele>18</ele>
        <time>2021-10-14T07:55:53.000Z</time>
      </trkpt>
      <trkpt lat="47.33105" lon="-2.37179">
        <ele>18.39999961853</ele>
        <time>2021-10-14T07:55:54.000Z</time>
      </trkpt>
      <trkpt lat="47.33105" lon="-2.37174">
        <ele>18.799999237061</ele>
        <time>2021-10-14T07:55:55.000Z</time>
      </trkpt>
      <trkpt lat="47.33105" lon="-2.37169">
        <ele>18.799999237061</ele>
        <time>2021-10-14T07:55:56.000Z</time>
      </trkpt>
      <trkpt lat="47.33104" lon="-2.37159">
        <ele>19.39999961853</ele>
        <time>2021-10-14T07:55:58.000Z</time>
      </trkpt>
      <trkpt lat="47.33105" lon="-2.37154">
        <ele>19.799999237061</ele>
        <time>2021-10-14T07:55:59.000Z</time>
      </trkpt>
      <trkpt lat="47.33105" lon="-2.37149">
        <ele>20.200000762939</ele>
        <time>2021-10-14T07:56:00.000Z</time>
      </trkpt>
      <trkpt lat="47.33105" lon="-2.37144">
        <ele>20.60000038147</ele>
        <time>2021-10-14T07:56:01.000Z</time>
      </trkpt>
      <trkpt lat="47.33105" lon="-2.37139">
        <ele>21</ele>
        <time>2021-10-14T07:56:02.000Z</time>
      </trkpt>
      <trkpt lat="47.33106" lon="-2.37117">
        <ele>21.39999961853</ele>
        <time>2021-10-14T07:56:06.000Z</time>
      </trkpt>
      <trkpt lat="47.33106" lon="-2.37111">
        <ele>21.799999237061</ele>
        <time>2021-10-14T07:56:07.000Z</time>
      </trkpt>
      <trkpt lat="47.33106" lon="-2.37106">
        <ele>22.200000762939</ele>
        <time>2021-10-14T07:56:08.000Z</time>
      </trkpt>
      <trkpt lat="47.33106" lon="-2.37101">
        <ele>23.200000762939</ele>
        <time>2021-10-14T07:56:09.000Z</time>
      </trkpt>
      <trkpt lat="47.33106" lon="-2.37078">
        <ele>23.200000762939</ele>
        <time>2021-10-14T07:56:13.000Z</time>
      </trkpt>
      <trkpt lat="47.33102" lon="-2.37042">
        <ele>23.200000762939</ele>
        <time>2021-10-14T07:56:19.000Z</time>
      </trkpt>
      <trkpt lat="47.33102" lon="-2.37028">
        <ele>23.200000762939</ele>
        <time>2021-10-14T07:56:21.000Z</time>
      </trkpt>
      <trkpt lat="47.33103" lon="-2.36999">
        <ele>23.200000762939</ele>
        <time>2021-10-14T07:56:25.000Z</time>
      </trkpt>
      <trkpt lat="47.33104" lon="-2.36956">
        <ele>23.200000762939</ele>
        <time>2021-10-14T07:56:30.000Z</time>
      </trkpt>
      <trkpt lat="47.33102" lon="-2.36911">
        <ele>23.200000762939</ele>
        <time>2021-10-14T07:56:35.000Z</time>
      </trkpt>
      <trkpt lat="47.33102" lon="-2.36905">
        <ele>22.799999237061</ele>
        <time>2021-10-14T07:56:36.000Z</time>
      </trkpt>
      <trkpt lat="47.33102" lon="-2.369">
        <ele>22.39999961853</ele>
        <time>2021-10-14T07:56:37.000Z</time>
      </trkpt>
      <trkpt lat="47.33104" lon="-2.36895">
        <ele>22</ele>
        <time>2021-10-14T07:56:38.000Z</time>
      </trkpt>
      <trkpt lat="47.33106" lon="-2.3689">
        <ele>21.60000038147</ele>
        <time>2021-10-14T07:56:39.000Z</time>
      </trkpt>
      <trkpt lat="47.3311" lon="-2.36886">
        <ele>21.200000762939</ele>
        <time>2021-10-14T07:56:40.000Z</time>
      </trkpt>
      <trkpt lat="47.33123" lon="-2.36872">
        <ele>21.200000762939</ele>
        <time>2021-10-14T07:56:43.000Z</time>
      </trkpt>
      <trkpt lat="47.33127" lon="-2.36866">
        <ele>21.200000762939</ele>
        <time>2021-10-14T07:56:44.000Z</time>
      </trkpt>
      <trkpt lat="47.33145" lon="-2.36847">
        <ele>21.200000762939</ele>
        <time>2021-10-14T07:56:47.000Z</time>
      </trkpt>
      <trkpt lat="47.33169" lon="-2.36822">
        <ele>20.60000038147</ele>
        <time>2021-10-14T07:56:51.000Z</time>
      </trkpt>
      <trkpt lat="47.33175" lon="-2.36816">
        <ele>20.200000762939</ele>
        <time>2021-10-14T07:56:52.000Z</time>
      </trkpt>
      <trkpt lat="47.33181" lon="-2.3681">
        <ele>19.799999237061</ele>
        <time>2021-10-14T07:56:53.000Z</time>
      </trkpt>
      <trkpt lat="47.33187" lon="-2.36804">
        <ele>19.39999961853</ele>
        <time>2021-10-14T07:56:54.000Z</time>
      </trkpt>
      <trkpt lat="47.33194" lon="-2.36798">
        <ele>19</ele>
        <time>2021-10-14T07:56:55.000Z</time>
      </trkpt>
      <trkpt lat="47.3323" lon="-2.36768">
        <ele>18.60000038147</ele>
        <time>2021-10-14T07:57:00.000Z</time>
      </trkpt>
      <trkpt lat="47.33237" lon="-2.36762">
        <ele>18.200000762939</ele>
        <time>2021-10-14T07:57:01.000Z</time>
      </trkpt>
      <trkpt lat="47.33243" lon="-2.36756">
        <ele>17.799999237061</ele>
        <time>2021-10-14T07:57:02.000Z</time>
      </trkpt>
      <trkpt lat="47.33248" lon="-2.36749">
        <ele>17.39999961853</ele>
        <time>2021-10-14T07:57:03.000Z</time>
      </trkpt>
      <trkpt lat="47.33253" lon="-2.36741">
        <ele>17</ele>
        <time>2021-10-14T07:57:04.000Z</time>
      </trkpt>
      <trkpt lat="47.33276" lon="-2.36694">
        <ele>17</ele>
        <time>2021-10-14T07:57:09.000Z</time>
      </trkpt>
      <trkpt lat="47.33292" lon="-2.3665">
        <ele>16.60000038147</ele>
        <time>2021-10-14T07:57:13.000Z</time>
      </trkpt>
      <trkpt lat="47.33296" lon="-2.36639">
        <ele>16.200000762939</ele>
        <time>2021-10-14T07:57:14.000Z</time>
      </trkpt>
      <trkpt lat="47.33299" lon="-2.36628">
        <ele>15.800000190735</ele>
        <time>2021-10-14T07:57:15.000Z</time>
      </trkpt>
      <trkpt lat="47.33302" lon="-2.36618">
        <ele>15.39999961853</ele>
        <time>2021-10-14T07:57:16.000Z</time>
      </trkpt>
      <trkpt lat="47.33305" lon="-2.36607">
        <ele>15</ele>
        <time>2021-10-14T07:57:17.000Z</time>
      </trkpt>
      <trkpt lat="47.33315" lon="-2.3657">
        <ele>15</ele>
        <time>2021-10-14T07:57:21.000Z</time>
      </trkpt>
      <trkpt lat="47.33328" lon="-2.36515">
        <ele>15</ele>
        <time>2021-10-14T07:57:28.000Z</time>
      </trkpt>
      <trkpt lat="47.33331" lon="-2.3649">
        <ele>15</ele>
        <time>2021-10-14T07:57:31.000Z</time>
      </trkpt>
      <trkpt lat="47.33332" lon="-2.36482">
        <ele>15.39999961853</ele>
        <time>2021-10-14T07:57:32.000Z</time>
      </trkpt>
      <trkpt lat="47.33332" lon="-2.36473">
        <ele>15.800000190735</ele>
        <time>2021-10-14T07:57:33.000Z</time>
      </trkpt>
      <trkpt lat="47.33332" lon="-2.36465">
        <ele>16.200000762939</ele>
        <time>2021-10-14T07:57:34.000Z</time>
      </trkpt>
      <trkpt lat="47.33332" lon="-2.36457">
        <ele>16.60000038147</ele>
        <time>2021-10-14T07:57:35.000Z</time>
      </trkpt>
      <trkpt lat="47.33331" lon="-2.36449">
        <ele>17</ele>
        <time>2021-10-14T07:57:36.000Z</time>
      </trkpt>
      <trkpt lat="47.33327" lon="-2.36426">
        <ele>17</ele>
        <time>2021-10-14T07:57:39.000Z</time>
      </trkpt>
      <trkpt lat="47.33318" lon="-2.36379">
        <ele>17</ele>
        <time>2021-10-14T07:57:46.000Z</time>
      </trkpt>
      <trkpt lat="47.33316" lon="-2.36362">
        <ele>17</ele>
        <time>2021-10-14T07:57:50.000Z</time>
      </trkpt>
      <trkpt lat="47.33312" lon="-2.36341">
        <ele>17</ele>
        <time>2021-10-14T07:57:57.000Z</time>
      </trkpt>
      <trkpt lat="47.3331" lon="-2.36325">
        <ele>17</ele>
        <time>2021-10-14T07:58:03.000Z</time>
      </trkpt>
      <trkpt lat="47.33309" lon="-2.36318">
        <ele>17.39999961853</ele>
        <time>2021-10-14T07:58:05.000Z</time>
      </trkpt>
      <trkpt lat="47.33309" lon="-2.36314">
        <ele>17.799999237061</ele>
        <time>2021-10-14T07:58:06.000Z</time>
      </trkpt>
      <trkpt lat="47.33309" lon="-2.36311">
        <ele>18.200000762939</ele>
        <time>2021-10-14T07:58:07.000Z</time>
      </trkpt>
      <trkpt lat="47.33309" lon="-2.36307">
        <ele>18.60000038147</ele>
        <time>2021-10-14T07:58:08.000Z</time>
      </trkpt>
      <trkpt lat="47.33308" lon="-2.36304">
        <ele>19</ele>
        <time>2021-10-14T07:58:09.000Z</time>
      </trkpt>
      <trkpt lat="47.33308" lon="-2.36297">
        <ele>19</ele>
        <time>2021-10-14T07:58:11.000Z</time>
      </trkpt>
      <trkpt lat="47.33308" lon="-2.36272">
        <ele>19</ele>
        <time>2021-10-14T07:58:18.000Z</time>
      </trkpt>
      <trkpt lat="47.33309" lon="-2.36248">
        <ele>19</ele>
        <time>2021-10-14T07:58:25.000Z</time>
      </trkpt>
      <trkpt lat="47.33307" lon="-2.36234">
        <ele>19</ele>
        <time>2021-10-14T07:58:31.000Z</time>
      </trkpt>
      <trkpt lat="47.33306" lon="-2.36233">
        <ele>19</ele>
        <time>2021-10-14T07:58:32.000Z</time>
      </trkpt>
      <trkpt lat="47.33303" lon="-2.3623">
        <ele>19</ele>
        <time>2021-10-14T07:58:34.000Z</time>
      </trkpt>
      <trkpt lat="47.33305" lon="-2.36225">
        <ele>19</ele>
        <time>2021-10-14T07:58:37.000Z</time>
      </trkpt>
      <trkpt lat="47.33306" lon="-2.36224">
        <ele>19</ele>
        <time>2021-10-14T07:58:39.000Z</time>
      </trkpt>
      <trkpt lat="47.33309" lon="-2.3622">
        <ele>19</ele>
        <time>2021-10-14T07:58:46.000Z</time>
      </trkpt>
      <trkpt lat="47.3331" lon="-2.36219">
        <ele>19</ele>
        <time>2021-10-14T07:58:47.000Z</time>
      </trkpt>
      <trkpt lat="47.33313" lon="-2.36217">
        <ele>19</ele>
        <time>2021-10-14T07:58:51.000Z</time>
      </trkpt>
      <trkpt lat="47.33313" lon="-2.36218">
        <ele>19</ele>
        <time>2021-10-14T07:58:53.000Z</time>
      </trkpt>
      <trkpt lat="47.33315" lon="-2.36218">
        <ele>19</ele>
        <time>2021-10-14T08:00:11.000Z</time>
      </trkpt>
      <trkpt lat="47.33316" lon="-2.36217">
        <ele>19</ele>
        <time>2021-10-14T08:00:12.000Z</time>
      </trkpt>
      <trkpt lat="47.33328" lon="-2.3621">
        <ele>19</ele>
        <time>2021-10-14T08:00:16.000Z</time>
      </trkpt>
      <trkpt lat="47.33352" lon="-2.36194">
        <ele>19.39999961853</ele>
        <time>2021-10-14T08:00:23.000Z</time>
      </trkpt>
      <trkpt lat="47.33355" lon="-2.36192">
        <ele>19.799999237061</ele>
        <time>2021-10-14T08:00:24.000Z</time>
      </trkpt>
      <trkpt lat="47.33359" lon="-2.3619">
        <ele>20.200000762939</ele>
        <time>2021-10-14T08:00:25.000Z</time>
      </trkpt>
      <trkpt lat="47.33362" lon="-2.36188">
        <ele>20.60000038147</ele>
        <time>2021-10-14T08:00:26.000Z</time>
      </trkpt>
      <trkpt lat="47.33365" lon="-2.36186">
        <ele>21</ele>
        <time>2021-10-14T08:00:27.000Z</time>
      </trkpt>
      <trkpt lat="47.33383" lon="-2.36174">
        <ele>21</ele>
        <time>2021-10-14T08:00:32.000Z</time>
      </trkpt>
      <trkpt lat="47.33406" lon="-2.36161">
        <ele>21</ele>
        <time>2021-10-14T08:00:39.000Z</time>
      </trkpt>
      <trkpt lat="47.33412" lon="-2.36173">
        <ele>21</ele>
        <time>2021-10-14T08:00:42.000Z</time>
      </trkpt>
      <trkpt lat="47.33415" lon="-2.36198">
        <ele>21</ele>
        <time>2021-10-14T08:00:46.000Z</time>
      </trkpt>
      <trkpt lat="47.33414" lon="-2.36211">
        <ele>21</ele>
        <time>2021-10-14T08:00:48.000Z</time>
      </trkpt>
      <trkpt lat="47.33411" lon="-2.36234">
        <ele>21</ele>
        <time>2021-10-14T08:00:51.000Z</time>
      </trkpt>
      <trkpt lat="47.3341" lon="-2.3625">
        <ele>21</ele>
        <time>2021-10-14T08:00:53.000Z</time>
      </trkpt>
      <trkpt lat="47.33411" lon="-2.36273">
        <ele>21</ele>
        <time>2021-10-14T08:00:56.000Z</time>
      </trkpt>
      <trkpt lat="47.33414" lon="-2.36295">
        <ele>21</ele>
        <time>2021-10-14T08:00:59.000Z</time>
      </trkpt>
      <trkpt lat="47.33423" lon="-2.36325">
        <ele>20.60000038147</ele>
        <time>2021-10-14T08:01:04.000Z</time>
      </trkpt>
      <trkpt lat="47.33425" lon="-2.3633">
        <ele>19.799999237061</ele>
        <time>2021-10-14T08:01:05.000Z</time>
      </trkpt>
      <trkpt lat="47.33426" lon="-2.36335">
        <ele>19.39999961853</ele>
        <time>2021-10-14T08:01:06.000Z</time>
      </trkpt>
      <trkpt lat="47.33428" lon="-2.3634">
        <ele>18.799999237061</ele>
        <time>2021-10-14T08:01:07.000Z</time>
      </trkpt>
      <trkpt lat="47.33434" lon="-2.36357">
        <ele>18.799999237061</ele>
        <time>2021-10-14T08:01:10.000Z</time>
      </trkpt>
      <trkpt lat="47.33441" lon="-2.3638">
        <ele>18.799999237061</ele>
        <time>2021-10-14T08:01:14.000Z</time>
      </trkpt>
      <trkpt lat="47.33444" lon="-2.36389">
        <ele>18.39999961853</ele>
        <time>2021-10-14T08:01:16.000Z</time>
      </trkpt>
      <trkpt lat="47.33445" lon="-2.36394">
        <ele>18</ele>
        <time>2021-10-14T08:01:17.000Z</time>
      </trkpt>
      <trkpt lat="47.33447" lon="-2.36398">
        <ele>17.60000038147</ele>
        <time>2021-10-14T08:01:18.000Z</time>
      </trkpt>
      <trkpt lat="47.33449" lon="-2.36402">
        <ele>17.200000762939</ele>
        <time>2021-10-14T08:01:19.000Z</time>
      </trkpt>
      <trkpt lat="47.33452" lon="-2.36406">
        <ele>16.60000038147</ele>
        <time>2021-10-14T08:01:20.000Z</time>
      </trkpt>
      <trkpt lat="47.3346" lon="-2.36411">
        <ele>16.60000038147</ele>
        <time>2021-10-14T08:01:22.000Z</time>
      </trkpt>
      <trkpt lat="47.33464" lon="-2.36411">
        <ele>16.60000038147</ele>
        <time>2021-10-14T08:01:23.000Z</time>
      </trkpt>
      <trkpt lat="47.33471" lon="-2.36414">
        <ele>16.60000038147</ele>
        <time>2021-10-14T08:01:25.000Z</time>
      </trkpt>
      <trkpt lat="47.33473" lon="-2.36419">
        <ele>16.60000038147</ele>
        <time>2021-10-14T08:01:26.000Z</time>
      </trkpt>
      <trkpt lat="47.33474" lon="-2.36435">
        <ele>16.60000038147</ele>
        <time>2021-10-14T08:01:29.000Z</time>
      </trkpt>
      <trkpt lat="47.33475" lon="-2.36486">
        <ele>16.60000038147</ele>
        <time>2021-10-14T08:01:37.000Z</time>
      </trkpt>
      <trkpt lat="47.33473" lon="-2.36508">
        <ele>16.200000762939</ele>
        <time>2021-10-14T08:01:40.000Z</time>
      </trkpt>
      <trkpt lat="47.33473" lon="-2.36515">
        <ele>15.800000190735</ele>
        <time>2021-10-14T08:01:41.000Z</time>
      </trkpt>
      <trkpt lat="47.33473" lon="-2.36522">
        <ele>15.39999961853</ele>
        <time>2021-10-14T08:01:42.000Z</time>
      </trkpt>
      <trkpt lat="47.33474" lon="-2.3653">
        <ele>15</ele>
        <time>2021-10-14T08:01:43.000Z</time>
      </trkpt>
      <trkpt lat="47.33474" lon="-2.36537">
        <ele>14.60000038147</ele>
        <time>2021-10-14T08:01:44.000Z</time>
      </trkpt>
      <trkpt lat="47.33474" lon="-2.36577">
        <ele>14.60000038147</ele>
        <time>2021-10-14T08:01:50.000Z</time>
      </trkpt>
      <trkpt lat="47.33479" lon="-2.36586">
        <ele>14.60000038147</ele>
        <time>2021-10-14T08:01:52.000Z</time>
      </trkpt>
      <trkpt lat="47.33492" lon="-2.3659">
        <ele>14.60000038147</ele>
        <time>2021-10-14T08:01:55.000Z</time>
      </trkpt>
      <trkpt lat="47.335" lon="-2.36593">
        <ele>14.60000038147</ele>
        <time>2021-10-14T08:01:57.000Z</time>
      </trkpt>
      <trkpt lat="47.33518" lon="-2.36609">
        <ele>14.60000038147</ele>
        <time>2021-10-14T08:02:02.000Z</time>
      </trkpt>
      <trkpt lat="47.33522" lon="-2.36611">
        <ele>14.199999809265</ele>
        <time>2021-10-14T08:02:03.000Z</time>
      </trkpt>
      <trkpt lat="47.33526" lon="-2.36614">
        <ele>13.800000190735</ele>
        <time>2021-10-14T08:02:04.000Z</time>
      </trkpt>
      <trkpt lat="47.33529" lon="-2.36617">
        <ele>13.199999809265</ele>
        <time>2021-10-14T08:02:05.000Z</time>
      </trkpt>
      <trkpt lat="47.33532" lon="-2.3662">
        <ele>12.800000190735</ele>
        <time>2021-10-14T08:02:06.000Z</time>
      </trkpt>
      <trkpt lat="47.33534" lon="-2.36624">
        <ele>12.39999961853</ele>
        <time>2021-10-14T08:02:07.000Z</time>
      </trkpt>
      <trkpt lat="47.33539" lon="-2.3663">
        <ele>11.800000190735</ele>
        <time>2021-10-14T08:02:09.000Z</time>
      </trkpt>
      <trkpt lat="47.33541" lon="-2.36634">
        <ele>11.39999961853</ele>
        <time>2021-10-14T08:02:10.000Z</time>
      </trkpt>
      <trkpt lat="47.33542" lon="-2.36638">
        <ele>10.800000190735</ele>
        <time>2021-10-14T08:02:11.000Z</time>
      </trkpt>
      <trkpt lat="47.33542" lon="-2.36644">
        <ele>10.199999809265</ele>
        <time>2021-10-14T08:02:12.000Z</time>
      </trkpt>
      <trkpt lat="47.33542" lon="-2.3665">
        <ele>9.3999996185303</ele>
        <time>2021-10-14T08:02:13.000Z</time>
      </trkpt>
      <trkpt lat="47.3354" lon="-2.36656">
        <ele>8.8000001907349</ele>
        <time>2021-10-14T08:02:14.000Z</time>
      </trkpt>
      <trkpt lat="47.33539" lon="-2.36661">
        <ele>8</ele>
        <time>2021-10-14T08:02:15.000Z</time>
      </trkpt>
      <trkpt lat="47.33536" lon="-2.36666">
        <ele>7.4000000953674</ele>
        <time>2021-10-14T08:02:16.000Z</time>
      </trkpt>
      <trkpt lat="47.3353" lon="-2.36673">
        <ele>7.4000000953674</ele>
        <time>2021-10-14T08:02:18.000Z</time>
      </trkpt>
      <trkpt lat="47.33509" lon="-2.36701">
        <ele>7.4000000953674</ele>
        <time>2021-10-14T08:02:24.000Z</time>
      </trkpt>
      <trkpt lat="47.33502" lon="-2.36712">
        <ele>7.4000000953674</ele>
        <time>2021-10-14T08:02:26.000Z</time>
      </trkpt>
      <trkpt lat="47.33494" lon="-2.36724">
        <ele>7.4000000953674</ele>
        <time>2021-10-14T08:02:29.000Z</time>
      </trkpt>
      <trkpt lat="47.33482" lon="-2.36755">
        <ele>7.4000000953674</ele>
        <time>2021-10-14T08:02:35.000Z</time>
      </trkpt>
      <trkpt lat="47.33475" lon="-2.36775">
        <ele>7.4000000953674</ele>
        <time>2021-10-14T08:02:38.000Z</time>
      </trkpt>
      <trkpt lat="47.33472" lon="-2.3679">
        <ele>7.4000000953674</ele>
        <time>2021-10-14T08:02:40.000Z</time>
      </trkpt>
      <trkpt lat="47.33471" lon="-2.36797">
        <ele>7.4000000953674</ele>
        <time>2021-10-14T08:02:41.000Z</time>
      </trkpt>
      <trkpt lat="47.33468" lon="-2.36819">
        <ele>7.4000000953674</ele>
        <time>2021-10-14T08:02:44.000Z</time>
      </trkpt>
      <trkpt lat="47.33463" lon="-2.36837">
        <ele>7.4000000953674</ele>
        <time>2021-10-14T08:02:47.000Z</time>
      </trkpt>
      <trkpt lat="47.33459" lon="-2.36846">
        <ele>7.4000000953674</ele>
        <time>2021-10-14T08:02:49.000Z</time>
      </trkpt>
      <trkpt lat="47.33453" lon="-2.36855">
        <ele>7.4000000953674</ele>
        <time>2021-10-14T08:02:51.000Z</time>
      </trkpt>
      <trkpt lat="47.33447" lon="-2.36869">
        <ele>7.4000000953674</ele>
        <time>2021-10-14T08:02:55.000Z</time>
      </trkpt>
      <trkpt lat="47.33446" lon="-2.36875">
        <ele>7.8000001907349</ele>
        <time>2021-10-14T08:02:57.000Z</time>
      </trkpt>
      <trkpt lat="47.33446" lon="-2.36878">
        <ele>8.1999998092651</ele>
        <time>2021-10-14T08:02:58.000Z</time>
      </trkpt>
      <trkpt lat="47.33446" lon="-2.36882">
        <ele>8.6000003814697</ele>
        <time>2021-10-14T08:02:59.000Z</time>
      </trkpt>
      <trkpt lat="47.33446" lon="-2.36885">
        <ele>9.1999998092651</ele>
        <time>2021-10-14T08:03:00.000Z</time>
      </trkpt>
      <trkpt lat="47.33446" lon="-2.36889">
        <ele>9.6000003814697</ele>
        <time>2021-10-14T08:03:01.000Z</time>
      </trkpt>
      <trkpt lat="47.33451" lon="-2.36912">
        <ele>9.6000003814697</ele>
        <time>2021-10-14T08:03:05.000Z</time>
      </trkpt>
      <trkpt lat="47.33452" lon="-2.36925">
        <ele>9.6000003814697</ele>
        <time>2021-10-14T08:03:07.000Z</time>
      </trkpt>
      <trkpt lat="47.3345" lon="-2.36946">
        <ele>9.6000003814697</ele>
        <time>2021-10-14T08:03:10.000Z</time>
      </trkpt>
      <trkpt lat="47.33454" lon="-2.36958">
        <ele>9.6000003814697</ele>
        <time>2021-10-14T08:03:12.000Z</time>
      </trkpt>
      <trkpt lat="47.33456" lon="-2.36964">
        <ele>9.6000003814697</ele>
        <time>2021-10-14T08:03:13.000Z</time>
      </trkpt>
      <trkpt lat="47.33461" lon="-2.36976">
        <ele>9.6000003814697</ele>
        <time>2021-10-14T08:03:15.000Z</time>
      </trkpt>
      <trkpt lat="47.33467" lon="-2.36985">
        <ele>9.6000003814697</ele>
        <time>2021-10-14T08:03:17.000Z</time>
      </trkpt>
      <trkpt lat="47.33473" lon="-2.37004">
        <ele>9.6000003814697</ele>
        <time>2021-10-14T08:03:21.000Z</time>
      </trkpt>
      <trkpt lat="47.33472" lon="-2.3702">
        <ele>9.6000003814697</ele>
        <time>2021-10-14T08:03:24.000Z</time>
      </trkpt>
      <trkpt lat="47.33471" lon="-2.37038">
        <ele>9.6000003814697</ele>
        <time>2021-10-14T08:03:27.000Z</time>
      </trkpt>
      <trkpt lat="47.33471" lon="-2.37072">
        <ele>9.6000003814697</ele>
        <time>2021-10-14T08:03:34.000Z</time>
      </trkpt>
      <trkpt lat="47.33474" lon="-2.37107">
        <ele>9.6000003814697</ele>
        <time>2021-10-14T08:03:42.000Z</time>
      </trkpt>
      <trkpt lat="47.33479" lon="-2.37141">
        <ele>9.6000003814697</ele>
        <time>2021-10-14T08:03:50.000Z</time>
      </trkpt>
      <trkpt lat="47.3348" lon="-2.37145">
        <ele>10</ele>
        <time>2021-10-14T08:03:51.000Z</time>
      </trkpt>
      <trkpt lat="47.3348" lon="-2.3715">
        <ele>10.39999961853</ele>
        <time>2021-10-14T08:03:52.000Z</time>
      </trkpt>
      <trkpt lat="47.33481" lon="-2.37154">
        <ele>10.800000190735</ele>
        <time>2021-10-14T08:03:53.000Z</time>
      </trkpt>
      <trkpt lat="47.33482" lon="-2.37159">
        <ele>11.199999809265</ele>
        <time>2021-10-14T08:03:54.000Z</time>
      </trkpt>
      <trkpt lat="47.33482" lon="-2.37163">
        <ele>11.60000038147</ele>
        <time>2021-10-14T08:03:55.000Z</time>
      </trkpt>
      <trkpt lat="47.33483" lon="-2.37168">
        <ele>11.60000038147</ele>
        <time>2021-10-14T08:03:56.000Z</time>
      </trkpt>
      <trkpt lat="47.3349" lon="-2.37209">
        <ele>11.60000038147</ele>
        <time>2021-10-14T08:04:04.000Z</time>
      </trkpt>
      <trkpt lat="47.33498" lon="-2.37227">
        <ele>12</ele>
        <time>2021-10-14T08:04:08.000Z</time>
      </trkpt>
      <trkpt lat="47.33501" lon="-2.3723">
        <ele>12.39999961853</ele>
        <time>2021-10-14T08:04:09.000Z</time>
      </trkpt>
      <trkpt lat="47.33504" lon="-2.37231">
        <ele>12.800000190735</ele>
        <time>2021-10-14T08:04:10.000Z</time>
      </trkpt>
      <trkpt lat="47.33508" lon="-2.37232">
        <ele>13.199999809265</ele>
        <time>2021-10-14T08:04:11.000Z</time>
      </trkpt>
      <trkpt lat="47.33512" lon="-2.37233">
        <ele>13.800000190735</ele>
        <time>2021-10-14T08:04:12.000Z</time>
      </trkpt>
      <trkpt lat="47.33515" lon="-2.37233">
        <ele>13.800000190735</ele>
        <time>2021-10-14T08:04:13.000Z</time>
      </trkpt>
      <trkpt lat="47.33534" lon="-2.37233">
        <ele>13.800000190735</ele>
        <time>2021-10-14T08:04:18.000Z</time>
      </trkpt>
      <trkpt lat="47.33537" lon="-2.37233">
        <ele>14.199999809265</ele>
        <time>2021-10-14T08:04:19.000Z</time>
      </trkpt>
      <trkpt lat="47.33541" lon="-2.37233">
        <ele>14.60000038147</ele>
        <time>2021-10-14T08:04:20.000Z</time>
      </trkpt>
      <trkpt lat="47.33545" lon="-2.37232">
        <ele>15</ele>
        <time>2021-10-14T08:04:21.000Z</time>
      </trkpt>
      <trkpt lat="47.33549" lon="-2.37232">
        <ele>15.39999961853</ele>
        <time>2021-10-14T08:04:22.000Z</time>
      </trkpt>
      <trkpt lat="47.33552" lon="-2.37232">
        <ele>15.800000190735</ele>
        <time>2021-10-14T08:04:23.000Z</time>
      </trkpt>
      <trkpt lat="47.33559" lon="-2.37232">
        <ele>15.800000190735</ele>
        <time>2021-10-14T08:04:25.000Z</time>
      </trkpt>
      <trkpt lat="47.33578" lon="-2.37233">
        <ele>15.800000190735</ele>
        <time>2021-10-14T08:04:31.000Z</time>
      </trkpt>
      <trkpt lat="47.33597" lon="-2.37228">
        <ele>15.800000190735</ele>
        <time>2021-10-14T08:04:37.000Z</time>
      </trkpt>
      <trkpt lat="47.33599" lon="-2.37224">
        <ele>15.800000190735</ele>
        <time>2021-10-14T08:04:38.000Z</time>
      </trkpt>
      <trkpt lat="47.33599" lon="-2.37214">
        <ele>15.800000190735</ele>
        <time>2021-10-14T08:04:40.000Z</time>
      </trkpt>
      <trkpt lat="47.33599" lon="-2.37182">
        <ele>15.800000190735</ele>
        <time>2021-10-14T08:04:46.000Z</time>
      </trkpt>
      <trkpt lat="47.33603" lon="-2.37144">
        <ele>15.800000190735</ele>
        <time>2021-10-14T08:04:53.000Z</time>
      </trkpt>
      <trkpt lat="47.33604" lon="-2.37114">
        <ele>15.800000190735</ele>
        <time>2021-10-14T08:04:59.000Z</time>
      </trkpt>
      <trkpt lat="47.33602" lon="-2.37074">
        <ele>15.800000190735</ele>
        <time>2021-10-14T08:05:06.000Z</time>
      </trkpt>
      <trkpt lat="47.33601" lon="-2.37023">
        <ele>15.800000190735</ele>
        <time>2021-10-14T08:05:14.000Z</time>
      </trkpt>
      <trkpt lat="47.33602" lon="-2.37002">
        <ele>15.800000190735</ele>
        <time>2021-10-14T08:05:17.000Z</time>
      </trkpt>
      <trkpt lat="47.33602" lon="-2.36983">
        <ele>15.800000190735</ele>
        <time>2021-10-14T08:05:20.000Z</time>
      </trkpt>
      <trkpt lat="47.33602" lon="-2.36969">
        <ele>15.800000190735</ele>
        <time>2021-10-14T08:05:22.000Z</time>
      </trkpt>
      <trkpt lat="47.33607" lon="-2.36949">
        <ele>15.800000190735</ele>
        <time>2021-10-14T08:05:25.000Z</time>
      </trkpt>
      <trkpt lat="47.33622" lon="-2.3692">
        <ele>15.800000190735</ele>
        <time>2021-10-14T08:05:30.000Z</time>
      </trkpt>
      <trkpt lat="47.33626" lon="-2.36915">
        <ele>15.800000190735</ele>
        <time>2021-10-14T08:05:31.000Z</time>
      </trkpt>
      <trkpt lat="47.33641" lon="-2.36896">
        <ele>15.800000190735</ele>
        <time>2021-10-14T08:05:35.000Z</time>
      </trkpt>
      <trkpt lat="47.33657" lon="-2.36877">
        <ele>15.800000190735</ele>
        <time>2021-10-14T08:05:39.000Z</time>
      </trkpt>
      <trkpt lat="47.33665" lon="-2.36868">
        <ele>15.800000190735</ele>
        <time>2021-10-14T08:05:41.000Z</time>
      </trkpt>
      <trkpt lat="47.33676" lon="-2.36855">
        <ele>16.200000762939</ele>
        <time>2021-10-14T08:05:44.000Z</time>
      </trkpt>
      <trkpt lat="47.3368" lon="-2.3685">
        <ele>16.60000038147</ele>
        <time>2021-10-14T08:05:45.000Z</time>
      </trkpt>
      <trkpt lat="47.33684" lon="-2.36846">
        <ele>17</ele>
        <time>2021-10-14T08:05:46.000Z</time>
      </trkpt>
      <trkpt lat="47.33687" lon="-2.36843">
        <ele>17.39999961853</ele>
        <time>2021-10-14T08:05:47.000Z</time>
      </trkpt>
      <trkpt lat="47.33691" lon="-2.36839">
        <ele>17.799999237061</ele>
        <time>2021-10-14T08:05:48.000Z</time>
      </trkpt>
      <trkpt lat="47.33707" lon="-2.36825">
        <ele>17.799999237061</ele>
        <time>2021-10-14T08:05:52.000Z</time>
      </trkpt>
      <trkpt lat="47.33715" lon="-2.36818">
        <ele>17.799999237061</ele>
        <time>2021-10-14T08:05:54.000Z</time>
      </trkpt>
      <trkpt lat="47.33719" lon="-2.36816">
        <ele>17.799999237061</ele>
        <time>2021-10-14T08:05:55.000Z</time>
      </trkpt>
      <trkpt lat="47.33735" lon="-2.3681">
        <ele>17.799999237061</ele>
        <time>2021-10-14T08:05:59.000Z</time>
      </trkpt>
      <trkpt lat="47.33764" lon="-2.368">
        <ele>17.799999237061</ele>
        <time>2021-10-14T08:06:05.000Z</time>
      </trkpt>
      <trkpt lat="47.33798" lon="-2.36788">
        <ele>17.799999237061</ele>
        <time>2021-10-14T08:06:11.000Z</time>
      </trkpt>
      <trkpt lat="47.33842" lon="-2.36774">
        <ele>17.799999237061</ele>
        <time>2021-10-14T08:06:19.000Z</time>
      </trkpt>
      <trkpt lat="47.3388" lon="-2.36762">
        <ele>17.799999237061</ele>
        <time>2021-10-14T08:06:27.000Z</time>
      </trkpt>
      <trkpt lat="47.33902" lon="-2.36757">
        <ele>17.799999237061</ele>
        <time>2021-10-14T08:06:33.000Z</time>
      </trkpt>
      <trkpt lat="47.33915" lon="-2.3675">
        <ele>17.799999237061</ele>
        <time>2021-10-14T08:06:39.000Z</time>
      </trkpt>
      <trkpt lat="47.33931" lon="-2.36755">
        <ele>17.799999237061</ele>
        <time>2021-10-14T08:06:44.000Z</time>
      </trkpt>
      <trkpt lat="47.33954" lon="-2.3675">
        <ele>17.799999237061</ele>
        <time>2021-10-14T08:06:50.000Z</time>
      </trkpt>
      <trkpt lat="47.33971" lon="-2.36745">
        <ele>17.39999961853</ele>
        <time>2021-10-14T08:06:54.000Z</time>
      </trkpt>
      <trkpt lat="47.33975" lon="-2.36743">
        <ele>17</ele>
        <time>2021-10-14T08:06:55.000Z</time>
      </trkpt>
      <trkpt lat="47.3398" lon="-2.36742">
        <ele>16.60000038147</ele>
        <time>2021-10-14T08:06:56.000Z</time>
      </trkpt>
      <trkpt lat="47.33984" lon="-2.36741">
        <ele>16.200000762939</ele>
        <time>2021-10-14T08:06:57.000Z</time>
      </trkpt>
      <trkpt lat="47.33989" lon="-2.36739">
        <ele>15.800000190735</ele>
        <time>2021-10-14T08:06:58.000Z</time>
      </trkpt>
      <trkpt lat="47.34021" lon="-2.36728">
        <ele>15.800000190735</ele>
        <time>2021-10-14T08:07:04.000Z</time>
      </trkpt>
      <trkpt lat="47.34036" lon="-2.3672">
        <ele>15.199999809265</ele>
        <time>2021-10-14T08:07:07.000Z</time>
      </trkpt>
      <trkpt lat="47.34042" lon="-2.36716">
        <ele>14.800000190735</ele>
        <time>2021-10-14T08:07:08.000Z</time>
      </trkpt>
      <trkpt lat="47.34047" lon="-2.36713">
        <ele>14.39999961853</ele>
        <time>2021-10-14T08:07:09.000Z</time>
      </trkpt>
      <trkpt lat="47.34052" lon="-2.3671">
        <ele>14</ele>
        <time>2021-10-14T08:07:10.000Z</time>
      </trkpt>
      <trkpt lat="47.34057" lon="-2.36707">
        <ele>13.60000038147</ele>
        <time>2021-10-14T08:07:11.000Z</time>
      </trkpt>
      <trkpt lat="47.34076" lon="-2.36698">
        <ele>13.60000038147</ele>
        <time>2021-10-14T08:07:15.000Z</time>
      </trkpt>
      <trkpt lat="47.34084" lon="-2.36702">
        <ele>13.60000038147</ele>
        <time>2021-10-14T08:07:17.000Z</time>
      </trkpt>
      <trkpt lat="47.34091" lon="-2.36729">
        <ele>13.60000038147</ele>
        <time>2021-10-14T08:07:21.000Z</time>
      </trkpt>
      <trkpt lat="47.34095" lon="-2.36754">
        <ele>13.199999809265</ele>
        <time>2021-10-14T08:07:24.000Z</time>
      </trkpt>
      <trkpt lat="47.34096" lon="-2.36761">
        <ele>12.800000190735</ele>
        <time>2021-10-14T08:07:25.000Z</time>
      </trkpt>
      <trkpt lat="47.34097" lon="-2.36769">
        <ele>12.39999961853</ele>
        <time>2021-10-14T08:07:26.000Z</time>
      </trkpt>
      <trkpt lat="47.34098" lon="-2.36777">
        <ele>12</ele>
        <time>2021-10-14T08:07:27.000Z</time>
      </trkpt>
      <trkpt lat="47.341" lon="-2.36786">
        <ele>11.60000038147</ele>
        <time>2021-10-14T08:07:28.000Z</time>
      </trkpt>
      <trkpt lat="47.34101" lon="-2.36794">
        <ele>11.60000038147</ele>
        <time>2021-10-14T08:07:29.000Z</time>
      </trkpt>
      <trkpt lat="47.34103" lon="-2.36803">
        <ele>11.60000038147</ele>
        <time>2021-10-14T08:07:30.000Z</time>
      </trkpt>
      <trkpt lat="47.34115" lon="-2.36864">
        <ele>11.60000038147</ele>
        <time>2021-10-14T08:07:37.000Z</time>
      </trkpt>
      <trkpt lat="47.34118" lon="-2.36871">
        <ele>11.60000038147</ele>
        <time>2021-10-14T08:07:38.000Z</time>
      </trkpt>
      <trkpt lat="47.34128" lon="-2.36891">
        <ele>11.60000038147</ele>
        <time>2021-10-14T08:07:41.000Z</time>
      </trkpt>
      <trkpt lat="47.34136" lon="-2.36903">
        <ele>11.60000038147</ele>
        <time>2021-10-14T08:07:43.000Z</time>
      </trkpt>
      <trkpt lat="47.34155" lon="-2.36941">
        <ele>11.60000038147</ele>
        <time>2021-10-14T08:07:49.000Z</time>
      </trkpt>
      <trkpt lat="47.34166" lon="-2.36958">
        <ele>11.60000038147</ele>
        <time>2021-10-14T08:07:52.000Z</time>
      </trkpt>
      <trkpt lat="47.34177" lon="-2.36972">
        <ele>11.60000038147</ele>
        <time>2021-10-14T08:07:55.000Z</time>
      </trkpt>
      <trkpt lat="47.34199" lon="-2.37003">
        <ele>12</ele>
        <time>2021-10-14T08:08:01.000Z</time>
      </trkpt>
      <trkpt lat="47.34203" lon="-2.37009">
        <ele>12.39999961853</ele>
        <time>2021-10-14T08:08:02.000Z</time>
      </trkpt>
      <trkpt lat="47.34206" lon="-2.37015">
        <ele>12.800000190735</ele>
        <time>2021-10-14T08:08:03.000Z</time>
      </trkpt>
      <trkpt lat="47.34209" lon="-2.3702">
        <ele>13.199999809265</ele>
        <time>2021-10-14T08:08:04.000Z</time>
      </trkpt>
      <trkpt lat="47.34212" lon="-2.37026">
        <ele>13.60000038147</ele>
        <time>2021-10-14T08:08:05.000Z</time>
      </trkpt>
      <trkpt lat="47.34218" lon="-2.37037">
        <ele>13.60000038147</ele>
        <time>2021-10-14T08:08:07.000Z</time>
      </trkpt>
      <trkpt lat="47.34221" lon="-2.37043">
        <ele>14</ele>
        <time>2021-10-14T08:08:08.000Z</time>
      </trkpt>
      <trkpt lat="47.34223" lon="-2.37049">
        <ele>14.39999961853</ele>
        <time>2021-10-14T08:08:09.000Z</time>
      </trkpt>
      <trkpt lat="47.34225" lon="-2.37054">
        <ele>14.800000190735</ele>
        <time>2021-10-14T08:08:10.000Z</time>
      </trkpt>
      <trkpt lat="47.34228" lon="-2.37059">
        <ele>15.199999809265</ele>
        <time>2021-10-14T08:08:11.000Z</time>
      </trkpt>
      <trkpt lat="47.34231" lon="-2.37063">
        <ele>15.800000190735</ele>
        <time>2021-10-14T08:08:12.000Z</time>
      </trkpt>
      <trkpt lat="47.34235" lon="-2.37066">
        <ele>15.800000190735</ele>
        <time>2021-10-14T08:08:13.000Z</time>
      </trkpt>
      <trkpt lat="47.34248" lon="-2.3706">
        <ele>15.800000190735</ele>
        <time>2021-10-14T08:08:16.000Z</time>
      </trkpt>
      <trkpt lat="47.34252" lon="-2.37055">
        <ele>15.800000190735</ele>
        <time>2021-10-14T08:08:17.000Z</time>
      </trkpt>
      <trkpt lat="47.3427" lon="-2.37039">
        <ele>15.800000190735</ele>
        <time>2021-10-14T08:08:21.000Z</time>
      </trkpt>
      <trkpt lat="47.343" lon="-2.37007">
        <ele>15.800000190735</ele>
        <time>2021-10-14T08:08:27.000Z</time>
      </trkpt>
      <trkpt lat="47.34338" lon="-2.36957">
        <ele>15.800000190735</ele>
        <time>2021-10-14T08:08:35.000Z</time>
      </trkpt>
      <trkpt lat="47.34342" lon="-2.3695">
        <ele>15.800000190735</ele>
        <time>2021-10-14T08:08:36.000Z</time>
      </trkpt>
      <trkpt lat="47.34358" lon="-2.36922">
        <ele>15.800000190735</ele>
        <time>2021-10-14T08:08:40.000Z</time>
      </trkpt>
      <trkpt lat="47.34386" lon="-2.36876">
        <ele>15.800000190735</ele>
        <time>2021-10-14T08:08:47.000Z</time>
      </trkpt>
      <trkpt lat="47.34417" lon="-2.36825">
        <ele>15.800000190735</ele>
        <time>2021-10-14T08:08:55.000Z</time>
      </trkpt>
      <trkpt lat="47.3445" lon="-2.36773">
        <ele>15.800000190735</ele>
        <time>2021-10-14T08:09:03.000Z</time>
      </trkpt>
      <trkpt lat="47.34474" lon="-2.36733">
        <ele>15.39999961853</ele>
        <time>2021-10-14T08:09:09.000Z</time>
      </trkpt>
      <trkpt lat="47.34478" lon="-2.36725">
        <ele>15</ele>
        <time>2021-10-14T08:09:10.000Z</time>
      </trkpt>
      <trkpt lat="47.34482" lon="-2.36718">
        <ele>14.39999961853</ele>
        <time>2021-10-14T08:09:11.000Z</time>
      </trkpt>
      <trkpt lat="47.34486" lon="-2.3671">
        <ele>14</ele>
        <time>2021-10-14T08:09:12.000Z</time>
      </trkpt>
      <trkpt lat="47.3449" lon="-2.36702">
        <ele>13.60000038147</ele>
        <time>2021-10-14T08:09:13.000Z</time>
      </trkpt>
      <trkpt lat="47.34506" lon="-2.36671">
        <ele>13.60000038147</ele>
        <time>2021-10-14T08:09:17.000Z</time>
      </trkpt>
      <trkpt lat="47.34513" lon="-2.36655">
        <ele>13.199999809265</ele>
        <time>2021-10-14T08:09:19.000Z</time>
      </trkpt>
      <trkpt lat="47.34516" lon="-2.36646">
        <ele>12.39999961853</ele>
        <time>2021-10-14T08:09:20.000Z</time>
      </trkpt>
      <trkpt lat="47.34519" lon="-2.36638">
        <ele>12</ele>
        <time>2021-10-14T08:09:21.000Z</time>
      </trkpt>
      <trkpt lat="47.34522" lon="-2.3663">
        <ele>11.60000038147</ele>
        <time>2021-10-14T08:09:22.000Z</time>
      </trkpt>
      <trkpt lat="47.34529" lon="-2.36613">
        <ele>11.60000038147</ele>
        <time>2021-10-14T08:09:24.000Z</time>
      </trkpt>
      <trkpt lat="47.34552" lon="-2.36556">
        <ele>11.199999809265</ele>
        <time>2021-10-14T08:09:31.000Z</time>
      </trkpt>
      <trkpt lat="47.34555" lon="-2.36547">
        <ele>10.800000190735</ele>
        <time>2021-10-14T08:09:32.000Z</time>
      </trkpt>
      <trkpt lat="47.34558" lon="-2.36539">
        <ele>10.199999809265</ele>
        <time>2021-10-14T08:09:33.000Z</time>
      </trkpt>
      <trkpt lat="47.34562" lon="-2.3653">
        <ele>9.8000001907349</ele>
        <time>2021-10-14T08:09:34.000Z</time>
      </trkpt>
      <trkpt lat="47.34565" lon="-2.36522">
        <ele>9.3999996185303</ele>
        <time>2021-10-14T08:09:35.000Z</time>
      </trkpt>
      <trkpt lat="47.34574" lon="-2.36497">
        <ele>9.3999996185303</ele>
        <time>2021-10-14T08:09:38.000Z</time>
      </trkpt>
      <trkpt lat="47.34592" lon="-2.36448">
        <ele>9.3999996185303</ele>
        <time>2021-10-14T08:09:44.000Z</time>
      </trkpt>
      <trkpt lat="47.34596" lon="-2.36442">
        <ele>9.3999996185303</ele>
        <time>2021-10-14T08:09:45.000Z</time>
      </trkpt>
      <trkpt lat="47.34613" lon="-2.36432">
        <ele>9.3999996185303</ele>
        <time>2021-10-14T08:09:48.000Z</time>
      </trkpt>
      <trkpt lat="47.34619" lon="-2.36429">
        <ele>9.3999996185303</ele>
        <time>2021-10-14T08:09:49.000Z</time>
      </trkpt>
      <trkpt lat="47.3467" lon="-2.36406">
        <ele>9.3999996185303</ele>
        <time>2021-10-14T08:09:58.000Z</time>
      </trkpt>
      <trkpt lat="47.34697" lon="-2.36395">
        <ele>9.3999996185303</ele>
        <time>2021-10-14T08:10:03.000Z</time>
      </trkpt>
      <trkpt lat="47.34703" lon="-2.36393">
        <ele>9.3999996185303</ele>
        <time>2021-10-14T08:10:04.000Z</time>
      </trkpt>
      <trkpt lat="47.34714" lon="-2.36388">
        <ele>9.8000001907349</ele>
        <time>2021-10-14T08:10:06.000Z</time>
      </trkpt>
      <trkpt lat="47.34719" lon="-2.36385">
        <ele>10.39999961853</ele>
        <time>2021-10-14T08:10:07.000Z</time>
      </trkpt>
      <trkpt lat="47.34725" lon="-2.36382">
        <ele>10.800000190735</ele>
        <time>2021-10-14T08:10:08.000Z</time>
      </trkpt>
      <trkpt lat="47.3473" lon="-2.36379">
        <ele>11.60000038147</ele>
        <time>2021-10-14T08:10:09.000Z</time>
      </trkpt>
      <trkpt lat="47.34736" lon="-2.36376">
        <ele>11.60000038147</ele>
        <time>2021-10-14T08:10:10.000Z</time>
      </trkpt>
      <trkpt lat="47.34782" lon="-2.36348">
        <ele>11.60000038147</ele>
        <time>2021-10-14T08:10:18.000Z</time>
      </trkpt>
      <trkpt lat="47.34819" lon="-2.36325">
        <ele>11.60000038147</ele>
        <time>2021-10-14T08:10:25.000Z</time>
      </trkpt>
      <trkpt lat="47.34863" lon="-2.36295">
        <ele>11.60000038147</ele>
        <time>2021-10-14T08:10:34.000Z</time>
      </trkpt>
      <trkpt lat="47.34899" lon="-2.36268">
        <ele>11.60000038147</ele>
        <time>2021-10-14T08:10:41.000Z</time>
      </trkpt>
      <trkpt lat="47.34936" lon="-2.36233">
        <ele>11.60000038147</ele>
        <time>2021-10-14T08:10:48.000Z</time>
      </trkpt>
      <trkpt lat="47.34956" lon="-2.36208">
        <ele>11</ele>
        <time>2021-10-14T08:10:52.000Z</time>
      </trkpt>
      <trkpt lat="47.3496" lon="-2.36201">
        <ele>10.60000038147</ele>
        <time>2021-10-14T08:10:53.000Z</time>
      </trkpt>
      <trkpt lat="47.34965" lon="-2.36196">
        <ele>10.199999809265</ele>
        <time>2021-10-14T08:10:54.000Z</time>
      </trkpt>
      <trkpt lat="47.3497" lon="-2.36189">
        <ele>9.8000001907349</ele>
        <time>2021-10-14T08:10:55.000Z</time>
      </trkpt>
      <trkpt lat="47.34975" lon="-2.36184">
        <ele>9.3999996185303</ele>
        <time>2021-10-14T08:10:56.000Z</time>
      </trkpt>
      <trkpt lat="47.34985" lon="-2.36174">
        <ele>9.3999996185303</ele>
        <time>2021-10-14T08:10:58.000Z</time>
      </trkpt>
      <trkpt lat="47.34996" lon="-2.36168">
        <ele>9</ele>
        <time>2021-10-14T08:11:00.000Z</time>
      </trkpt>
      <trkpt lat="47.35002" lon="-2.36166">
        <ele>8.6000003814697</ele>
        <time>2021-10-14T08:11:01.000Z</time>
      </trkpt>
      <trkpt lat="47.35008" lon="-2.36165">
        <ele>8.1999998092651</ele>
        <time>2021-10-14T08:11:02.000Z</time>
      </trkpt>
      <trkpt lat="47.35014" lon="-2.36165">
        <ele>7.8000001907349</ele>
        <time>2021-10-14T08:11:03.000Z</time>
      </trkpt>
      <trkpt lat="47.35019" lon="-2.36165">
        <ele>7.4000000953674</ele>
        <time>2021-10-14T08:11:04.000Z</time>
      </trkpt>
      <trkpt lat="47.35032" lon="-2.36168">
        <ele>7.4000000953674</ele>
        <time>2021-10-14T08:11:06.000Z</time>
      </trkpt>
      <trkpt lat="47.35051" lon="-2.36175">
        <ele>7.4000000953674</ele>
        <time>2021-10-14T08:11:09.000Z</time>
      </trkpt>
      <trkpt lat="47.3507" lon="-2.36178">
        <ele>7.4000000953674</ele>
        <time>2021-10-14T08:11:12.000Z</time>
      </trkpt>
      <trkpt lat="47.3508" lon="-2.36176">
        <ele>7</ele>
        <time>2021-10-14T08:11:14.000Z</time>
      </trkpt>
      <trkpt lat="47.35084" lon="-2.36174">
        <ele>6.5999999046326</ele>
        <time>2021-10-14T08:11:15.000Z</time>
      </trkpt>
      <trkpt lat="47.35087" lon="-2.36173">
        <ele>6.1999998092651</ele>
        <time>2021-10-14T08:11:16.000Z</time>
      </trkpt>
      <trkpt lat="47.3509" lon="-2.36171">
        <ele>5.8000001907349</ele>
        <time>2021-10-14T08:11:17.000Z</time>
      </trkpt>
      <trkpt lat="47.35093" lon="-2.36169">
        <ele>5.4000000953674</ele>
        <time>2021-10-14T08:11:18.000Z</time>
      </trkpt>
      <trkpt lat="47.3511" lon="-2.36166">
        <ele>5.4000000953674</ele>
        <time>2021-10-14T08:11:22.000Z</time>
      </trkpt>
      <trkpt lat="47.3512" lon="-2.36163">
        <ele>5.4000000953674</ele>
        <time>2021-10-14T08:11:24.000Z</time>
      </trkpt>
      <trkpt lat="47.35135" lon="-2.36155">
        <ele>5.4000000953674</ele>
        <time>2021-10-14T08:11:27.000Z</time>
      </trkpt>
      <trkpt lat="47.35175" lon="-2.36127">
        <ele>5.4000000953674</ele>
        <time>2021-10-14T08:11:35.000Z</time>
      </trkpt>
      <trkpt lat="47.35218" lon="-2.36088">
        <ele>5.4000000953674</ele>
        <time>2021-10-14T08:11:44.000Z</time>
      </trkpt>
      <trkpt lat="47.35251" lon="-2.36059">
        <ele>5.4000000953674</ele>
        <time>2021-10-14T08:11:51.000Z</time>
      </trkpt>
      <trkpt lat="47.35281" lon="-2.36035">
        <ele>5</ele>
        <time>2021-10-14T08:11:57.000Z</time>
      </trkpt>
      <trkpt lat="47.35286" lon="-2.36031">
        <ele>4.5999999046326</ele>
        <time>2021-10-14T08:11:58.000Z</time>
      </trkpt>
      <trkpt lat="47.35291" lon="-2.36026">
        <ele>4.1999998092651</ele>
        <time>2021-10-14T08:11:59.000Z</time>
      </trkpt>
      <trkpt lat="47.35297" lon="-2.36021">
        <ele>3.7999999523163</ele>
        <time>2021-10-14T08:12:00.000Z</time>
      </trkpt>
      <trkpt lat="47.35301" lon="-2.36015">
        <ele>3.2000000476837</ele>
        <time>2021-10-14T08:12:01.000Z</time>
      </trkpt>
      <trkpt lat="47.35309" lon="-2.36">
        <ele>3.2000000476837</ele>
        <time>2021-10-14T08:12:03.000Z</time>
      </trkpt>
      <trkpt lat="47.35334" lon="-2.35939">
        <ele>3.2000000476837</ele>
        <time>2021-10-14T08:12:11.000Z</time>
      </trkpt>
      <trkpt lat="47.35359" lon="-2.35901">
        <ele>3.2000000476837</ele>
        <time>2021-10-14T08:12:17.000Z</time>
      </trkpt>
      <trkpt lat="47.35374" lon="-2.35888">
        <ele>3.2000000476837</ele>
        <time>2021-10-14T08:12:20.000Z</time>
      </trkpt>
      <trkpt lat="47.35383" lon="-2.3588">
        <ele>3.2000000476837</ele>
        <time>2021-10-14T08:12:22.000Z</time>
      </trkpt>
      <trkpt lat="47.35387" lon="-2.35874">
        <ele>3.2000000476837</ele>
        <time>2021-10-14T08:12:23.000Z</time>
      </trkpt>
      <trkpt lat="47.35404" lon="-2.35852">
        <ele>3.7999999523163</ele>
        <time>2021-10-14T08:12:27.000Z</time>
      </trkpt>
      <trkpt lat="47.35409" lon="-2.35846">
        <ele>4.1999998092651</ele>
        <time>2021-10-14T08:12:28.000Z</time>
      </trkpt>
      <trkpt lat="47.35412" lon="-2.35841">
        <ele>4.5999999046326</ele>
        <time>2021-10-14T08:12:29.000Z</time>
      </trkpt>
      <trkpt lat="47.35416" lon="-2.35834">
        <ele>5</ele>
        <time>2021-10-14T08:12:30.000Z</time>
      </trkpt>
      <trkpt lat="47.3542" lon="-2.35828">
        <ele>5.4000000953674</ele>
        <time>2021-10-14T08:12:31.000Z</time>
      </trkpt>
      <trkpt lat="47.35432" lon="-2.35812">
        <ele>5.4000000953674</ele>
        <time>2021-10-14T08:12:34.000Z</time>
      </trkpt>
      <trkpt lat="47.35455" lon="-2.35781">
        <ele>5.4000000953674</ele>
        <time>2021-10-14T08:12:40.000Z</time>
      </trkpt>
      <trkpt lat="47.35485" lon="-2.35732">
        <ele>5.4000000953674</ele>
        <time>2021-10-14T08:12:48.000Z</time>
      </trkpt>
      <trkpt lat="47.35516" lon="-2.35691">
        <ele>5.4000000953674</ele>
        <time>2021-10-14T08:12:55.000Z</time>
      </trkpt>
      <trkpt lat="47.35553" lon="-2.35657">
        <ele>5.4000000953674</ele>
        <time>2021-10-14T08:13:02.000Z</time>
      </trkpt>
      <trkpt lat="47.35593" lon="-2.3562">
        <ele>5.4000000953674</ele>
        <time>2021-10-14T08:13:09.000Z</time>
      </trkpt>
      <trkpt lat="47.35603" lon="-2.35607">
        <ele>5</ele>
        <time>2021-10-14T08:13:11.000Z</time>
      </trkpt>
      <trkpt lat="47.35608" lon="-2.35601">
        <ele>4.5999999046326</ele>
        <time>2021-10-14T08:13:12.000Z</time>
      </trkpt>
      <trkpt lat="47.35614" lon="-2.35595">
        <ele>4.1999998092651</ele>
        <time>2021-10-14T08:13:13.000Z</time>
      </trkpt>
      <trkpt lat="47.35619" lon="-2.35589">
        <ele>3.7999999523163</ele>
        <time>2021-10-14T08:13:14.000Z</time>
      </trkpt>
      <trkpt lat="47.35625" lon="-2.35583">
        <ele>3.4000000953674</ele>
        <time>2021-10-14T08:13:15.000Z</time>
      </trkpt>
      <trkpt lat="47.35658" lon="-2.35553">
        <ele>3.4000000953674</ele>
        <time>2021-10-14T08:13:21.000Z</time>
      </trkpt>
      <trkpt lat="47.35698" lon="-2.35525">
        <ele>3.4000000953674</ele>
        <time>2021-10-14T08:13:28.000Z</time>
      </trkpt>
      <trkpt lat="47.35739" lon="-2.35507">
        <ele>3.4000000953674</ele>
        <time>2021-10-14T08:13:35.000Z</time>
      </trkpt>
      <trkpt lat="47.35745" lon="-2.35503">
        <ele>3</ele>
        <time>2021-10-14T08:13:36.000Z</time>
      </trkpt>
      <trkpt lat="47.35751" lon="-2.355">
        <ele>2.5999999046326</ele>
        <time>2021-10-14T08:13:37.000Z</time>
      </trkpt>
      <trkpt lat="47.35756" lon="-2.35497">
        <ele>2.2000000476837</ele>
        <time>2021-10-14T08:13:38.000Z</time>
      </trkpt>
      <trkpt lat="47.35762" lon="-2.35495">
        <ele>1.7999999523163</ele>
        <time>2021-10-14T08:13:39.000Z</time>
      </trkpt>
      <trkpt lat="47.35768" lon="-2.35493">
        <ele>1.3999999761581</ele>
        <time>2021-10-14T08:13:40.000Z</time>
      </trkpt>
      <trkpt lat="47.35773" lon="-2.35491">
        <ele>1.3999999761581</ele>
        <time>2021-10-14T08:13:41.000Z</time>
      </trkpt>
      <trkpt lat="47.35814" lon="-2.35474">
        <ele>1.3999999761581</ele>
        <time>2021-10-14T08:13:48.000Z</time>
      </trkpt>
      <trkpt lat="47.35848" lon="-2.35459">
        <ele>1.3999999761581</ele>
        <time>2021-10-14T08:13:54.000Z</time>
      </trkpt>
      <trkpt lat="47.35875" lon="-2.35442">
        <ele>1.3999999761581</ele>
        <time>2021-10-14T08:13:59.000Z</time>
      </trkpt>
      <trkpt lat="47.35906" lon="-2.3542">
        <ele>1.3999999761581</ele>
        <time>2021-10-14T08:14:05.000Z</time>
      </trkpt>
      <trkpt lat="47.35919" lon="-2.35409">
        <ele>1.3999999761581</ele>
        <time>2021-10-14T08:14:08.000Z</time>
      </trkpt>
      <trkpt lat="47.35933" lon="-2.35401">
        <ele>1.3999999761581</ele>
        <time>2021-10-14T08:14:11.000Z</time>
      </trkpt>
      <trkpt lat="47.35951" lon="-2.35377">
        <ele>1.3999999761581</ele>
        <time>2021-10-14T08:14:16.000Z</time>
      </trkpt>
      <trkpt lat="47.35975" lon="-2.35341">
        <ele>1.3999999761581</ele>
        <time>2021-10-14T08:14:22.000Z</time>
      </trkpt>
      <trkpt lat="47.35998" lon="-2.3531">
        <ele>1.3999999761581</ele>
        <time>2021-10-14T08:14:28.000Z</time>
      </trkpt>
      <trkpt lat="47.36021" lon="-2.3528">
        <ele>1.3999999761581</ele>
        <time>2021-10-14T08:14:35.000Z</time>
      </trkpt>
      <trkpt lat="47.36044" lon="-2.35248">
        <ele>1.3999999761581</ele>
        <time>2021-10-14T08:14:43.000Z</time>
      </trkpt>
      <trkpt lat="47.36067" lon="-2.35217">
        <ele>1.3999999761581</ele>
        <time>2021-10-14T08:14:51.000Z</time>
      </trkpt>
      <trkpt lat="47.36092" lon="-2.35183">
        <ele>1.3999999761581</ele>
        <time>2021-10-14T08:15:00.000Z</time>
      </trkpt>
      <trkpt lat="47.36112" lon="-2.35157">
        <ele>1.3999999761581</ele>
        <time>2021-10-14T08:15:07.000Z</time>
      </trkpt>
      <trkpt lat="47.36128" lon="-2.35134">
        <ele>1.3999999761581</ele>
        <time>2021-10-14T08:15:12.000Z</time>
      </trkpt>
      <trkpt lat="47.36135" lon="-2.35125">
        <ele>1.3999999761581</ele>
        <time>2021-10-14T08:15:14.000Z</time>
      </trkpt>
      <trkpt lat="47.36163" lon="-2.35094">
        <ele>1.3999999761581</ele>
        <time>2021-10-14T08:15:22.000Z</time>
      </trkpt>
      <trkpt lat="47.36193" lon="-2.35063">
        <ele>1.3999999761581</ele>
        <time>2021-10-14T08:15:30.000Z</time>
      </trkpt>
      <trkpt lat="47.36216" lon="-2.35038">
        <ele>1.3999999761581</ele>
        <time>2021-10-14T08:15:37.000Z</time>
      </trkpt>
      <trkpt lat="47.36237" lon="-2.34999">
        <ele>1.3999999761581</ele>
        <time>2021-10-14T08:15:45.000Z</time>
      </trkpt>
      <trkpt lat="47.36252" lon="-2.34963">
        <ele>1.3999999761581</ele>
        <time>2021-10-14T08:15:53.000Z</time>
      </trkpt>
      <trkpt lat="47.36268" lon="-2.3493">
        <ele>1.3999999761581</ele>
        <time>2021-10-14T08:16:02.000Z</time>
      </trkpt>
      <trkpt lat="47.36275" lon="-2.34922">
        <ele>1.3999999761581</ele>
        <time>2021-10-14T08:16:06.000Z</time>
      </trkpt>
      <trkpt lat="47.36279" lon="-2.34925">
        <ele>1.3999999761581</ele>
        <time>2021-10-14T08:16:08.000Z</time>
      </trkpt>
      <trkpt lat="47.36285" lon="-2.34946">
        <ele>1.3999999761581</ele>
        <time>2021-10-14T08:16:12.000Z</time>
      </trkpt>
      <trkpt lat="47.36292" lon="-2.34984">
        <ele>1.3999999761581</ele>
        <time>2021-10-14T08:16:19.000Z</time>
      </trkpt>
      <trkpt lat="47.36295" lon="-2.34998">
        <ele>1</ele>
        <time>2021-10-14T08:16:22.000Z</time>
      </trkpt>
      <trkpt lat="47.36296" lon="-2.35002">
        <ele>0.40000000596046</ele>
        <time>2021-10-14T08:16:23.000Z</time>
      </trkpt>
      <trkpt lat="47.36297" lon="-2.35005">
        <ele>10.9</ele>
        <time>2021-10-14T08:16:24.000Z</time>
      </trkpt>
      <trkpt lat="47.36298" lon="-2.35006">
        <ele>-0.40000000596046</ele>
        <time>2021-10-14T08:16:25.000Z</time>
      </trkpt>
      <trkpt lat="47.363" lon="-2.35007">
        <ele>-0.80000001192093</ele>
        <time>2021-10-14T08:16:26.000Z</time>
      </trkpt>
      <trkpt lat="47.36307" lon="-2.35007">
        <ele>-0.80000001192093</ele>
        <time>2021-10-14T08:16:29.000Z</time>
      </trkpt>
      <trkpt lat="47.36324" lon="-2.34996">
        <ele>-0.80000001192093</ele>
        <time>2021-10-14T08:16:34.000Z</time>
      </trkpt>
      <trkpt lat="47.3634" lon="-2.34979">
        <ele>-0.80000001192093</ele>
        <time>2021-10-14T08:16:40.000Z</time>
      </trkpt>
      <trkpt lat="47.36352" lon="-2.34967">
        <ele>-0.80000001192093</ele>
        <time>2021-10-14T08:16:46.000Z</time>
      </trkpt>
      <trkpt lat="47.36365" lon="-2.34956">
        <ele>-0.80000001192093</ele>
        <time>2021-10-14T08:16:51.000Z</time>
      </trkpt>
      <trkpt lat="47.36369" lon="-2.34968">
        <ele>-0.80000001192093</ele>
        <time>2021-10-14T08:16:54.000Z</time>
      </trkpt>
      <trkpt lat="47.36373" lon="-2.3499">
        <ele>-0.80000001192093</ele>
        <time>2021-10-14T08:16:59.000Z</time>
      </trkpt>
      <trkpt lat="47.36378" lon="-2.35018">
        <ele>-0.80000001192093</ele>
        <time>2021-10-14T08:17:05.000Z</time>
      </trkpt>
      <trkpt lat="47.36384" lon="-2.3505">
        <ele>-0.80000001192093</ele>
        <time>2021-10-14T08:17:11.000Z</time>
      </trkpt>
      <trkpt lat="47.36393" lon="-2.35077">
        <ele>-0.80000001192093</ele>
        <time>2021-10-14T08:17:18.000Z</time>
      </trkpt>
      <trkpt lat="47.36402" lon="-2.3508">
        <ele>-0.80000001192093</ele>
        <time>2021-10-14T08:17:22.000Z</time>
      </trkpt>
      <trkpt lat="47.36407" lon="-2.35075">
        <ele>-0.80000001192093</ele>
        <time>2021-10-14T08:17:26.000Z</time>
      </trkpt>
      <trkpt lat="47.36414" lon="-2.35072">
        <ele>-0.80000001192093</ele>
        <time>2021-10-14T08:17:33.000Z</time>
      </trkpt>
      <trkpt lat="47.36426" lon="-2.35067">
        <ele>-0.80000001192093</ele>
        <time>2021-10-14T08:17:54.000Z</time>
      </trkpt>
      <trkpt lat="47.36428" lon="-2.35068">
        <ele>-1.2000000476837</ele>
        <time>2021-10-14T08:17:55.000Z</time>
      </trkpt>
      <trkpt lat="47.36428" lon="-2.35068">
        <ele>-1.6000000238419</ele>
        <time>2021-10-14T08:17:56.000Z</time>
      </trkpt>
      <trkpt lat="47.36429" lon="-2.35069">
        <ele>-2</ele>
        <time>2021-10-14T08:17:57.000Z</time>
      </trkpt>
      <trkpt lat="47.36434" lon="-2.35071">
        <ele>-2.7999999523163</ele>
        <time>2021-10-14T08:18:01.000Z</time>
      </trkpt>
      <trkpt lat="47.36438" lon="-2.35072">
        <ele>-2.7999999523163</ele>
        <time>2021-10-14T08:18:03.000Z</time>
      </trkpt>
      <trkpt lat="47.36449" lon="-2.3508">
        <ele>-2.7999999523163</ele>
        <time>2021-10-14T08:18:08.000Z</time>
      </trkpt>
      <trkpt lat="47.36452" lon="-2.3508">
        <ele>-2.7999999523163</ele>
        <time>2021-10-14T08:18:09.000Z</time>
      </trkpt>
      <trkpt lat="47.36471" lon="-2.35091">
        <ele>-2.7999999523163</ele>
        <time>2021-10-14T08:18:14.000Z</time>
      </trkpt>
      <trkpt lat="47.36495" lon="-2.35105">
        <ele>-2.7999999523163</ele>
        <time>2021-10-14T08:18:20.000Z</time>
      </trkpt>
      <trkpt lat="47.36503" lon="-2.35106">
        <ele>-2.7999999523163</ele>
        <time>2021-10-14T08:18:22.000Z</time>
      </trkpt>
      <trkpt lat="47.36512" lon="-2.35105">
        <ele>-2.7999999523163</ele>
        <time>2021-10-14T08:18:24.000Z</time>
      </trkpt>
      <trkpt lat="47.36532" lon="-2.35102">
        <ele>-2.7999999523163</ele>
        <time>2021-10-14T08:18:28.000Z</time>
      </trkpt>
      <trkpt lat="47.36551" lon="-2.35095">
        <ele>-2.7999999523163</ele>
        <time>2021-10-14T08:18:34.000Z</time>
      </trkpt>
      <trkpt lat="47.36547" lon="-2.35088">
        <ele>-2.7999999523163</ele>
        <time>2021-10-14T08:18:37.000Z</time>
      </trkpt>
      <trkpt lat="47.36541" lon="-2.35078">
        <ele>-2.7999999523163</ele>
        <time>2021-10-14T08:18:40.000Z</time>
      </trkpt>
      <trkpt lat="47.36535" lon="-2.3507">
        <ele>-2.7999999523163</ele>
        <time>2021-10-14T08:18:42.000Z</time>
      </trkpt>
      <trkpt lat="47.36523" lon="-2.35054">
        <ele>-2.7999999523163</ele>
        <time>2021-10-14T08:18:46.000Z</time>
      </trkpt>
      <trkpt lat="47.36521" lon="-2.35049">
        <ele>-2.7999999523163</ele>
        <time>2021-10-14T08:18:47.000Z</time>
      </trkpt>
      <trkpt lat="47.36509" lon="-2.3503">
        <ele>-2.7999999523163</ele>
        <time>2021-10-14T08:18:51.000Z</time>
      </trkpt>
      <trkpt lat="47.36493" lon="-2.34997">
        <ele>-2.7999999523163</ele>
        <time>2021-10-14T08:18:58.000Z</time>
      </trkpt>
      <trkpt lat="47.36493" lon="-2.34993">
        <ele>-2.7999999523163</ele>
        <time>2021-10-14T08:19:00.000Z</time>
      </trkpt>
      <trkpt lat="47.36495" lon="-2.34992">
        <ele>-2.7999999523163</ele>
        <time>2021-10-14T08:19:01.000Z</time>
      </trkpt>
      <trkpt lat="47.36502" lon="-2.35">
        <ele>-2.7999999523163</ele>
        <time>2021-10-14T08:19:04.000Z</time>
      </trkpt>
      <trkpt lat="47.36509" lon="-2.3501">
        <ele>-2.7999999523163</ele>
        <time>2021-10-14T08:19:06.000Z</time>
      </trkpt>
      <trkpt lat="47.36519" lon="-2.35026">
        <ele>-2.7999999523163</ele>
        <time>2021-10-14T08:19:09.000Z</time>
      </trkpt>
      <trkpt lat="47.36538" lon="-2.35057">
        <ele>-2.7999999523163</ele>
        <time>2021-10-14T08:19:14.000Z</time>
      </trkpt>
      <trkpt lat="47.36558" lon="-2.3509">
        <ele>-2.7999999523163</ele>
        <time>2021-10-14T08:19:20.000Z</time>
      </trkpt>
      <trkpt lat="47.36582" lon="-2.3513">
        <ele>-2.7999999523163</ele>
        <time>2021-10-14T08:19:26.000Z</time>
      </trkpt>
      <trkpt lat="47.36609" lon="-2.35177">
        <ele>-2.7999999523163</ele>
        <time>2021-10-14T08:19:33.000Z</time>
      </trkpt>
      <trkpt lat="47.36628" lon="-2.35209">
        <ele>-2.7999999523163</ele>
        <time>2021-10-14T08:19:39.000Z</time>
      </trkpt>
      <trkpt lat="47.36634" lon="-2.35221">
        <ele>-2.7999999523163</ele>
        <time>2021-10-14T08:19:41.000Z</time>
      </trkpt>
      <trkpt lat="47.36637" lon="-2.35239">
        <ele>-2.7999999523163</ele>
        <time>2021-10-14T08:19:44.000Z</time>
      </trkpt>
      <trkpt lat="47.3663" lon="-2.35258">
        <ele>-2.7999999523163</ele>
        <time>2021-10-14T08:19:47.000Z</time>
      </trkpt>
      <trkpt lat="47.36622" lon="-2.35271">
        <ele>-2.7999999523163</ele>
        <time>2021-10-14T08:19:49.000Z</time>
      </trkpt>
      <trkpt lat="47.36608" lon="-2.35296">
        <ele>-2.7999999523163</ele>
        <time>2021-10-14T08:19:53.000Z</time>
      </trkpt>
      <trkpt lat="47.36573" lon="-2.35354">
        <ele>-2.7999999523163</ele>
        <time>2021-10-14T08:20:02.000Z</time>
      </trkpt>
      <trkpt lat="47.36545" lon="-2.35398">
        <ele>-2.7999999523163</ele>
        <time>2021-10-14T08:20:09.000Z</time>
      </trkpt>
      <trkpt lat="47.36519" lon="-2.35442">
        <ele>-2.7999999523163</ele>
        <time>2021-10-14T08:20:16.000Z</time>
      </trkpt>
      <trkpt lat="47.36497" lon="-2.35482">
        <ele>-2.7999999523163</ele>
        <time>2021-10-14T08:20:22.000Z</time>
      </trkpt>
      <trkpt lat="47.3648" lon="-2.35511">
        <ele>-2.7999999523163</ele>
        <time>2021-10-14T08:20:27.000Z</time>
      </trkpt>
      <trkpt lat="47.36479" lon="-2.35519">
        <ele>-2.7999999523163</ele>
        <time>2021-10-14T08:20:28.000Z</time>
      </trkpt>
      <trkpt lat="47.36484" lon="-2.3554">
        <ele>-2.7999999523163</ele>
        <time>2021-10-14T08:20:31.000Z</time>
      </trkpt>
      <trkpt lat="47.36486" lon="-2.35547">
        <ele>-2.7999999523163</ele>
        <time>2021-10-14T08:20:32.000Z</time>
      </trkpt>
      <trkpt lat="47.36505" lon="-2.35598">
        <ele>-2.7999999523163</ele>
        <time>2021-10-14T08:20:39.000Z</time>
      </trkpt>
      <trkpt lat="47.36526" lon="-2.3566">
        <ele>-2.7999999523163</ele>
        <time>2021-10-14T08:20:47.000Z</time>
      </trkpt>
      <trkpt lat="47.36543" lon="-2.35715">
        <ele>-2.7999999523163</ele>
        <time>2021-10-14T08:20:54.000Z</time>
      </trkpt>
      <trkpt lat="47.36559" lon="-2.3576">
        <ele>-2.7999999523163</ele>
        <time>2021-10-14T08:21:00.000Z</time>
      </trkpt>
      <trkpt lat="47.36561" lon="-2.35768">
        <ele>-2.7999999523163</ele>
        <time>2021-10-14T08:21:01.000Z</time>
      </trkpt>
      <trkpt lat="47.36571" lon="-2.35797">
        <ele>-2.7999999523163</ele>
        <time>2021-10-14T08:21:05.000Z</time>
      </trkpt>
      <trkpt lat="47.36575" lon="-2.35811">
        <ele>-2.7999999523163</ele>
        <time>2021-10-14T08:21:07.000Z</time>
      </trkpt>
      <trkpt lat="47.36576" lon="-2.35819">
        <ele>-2.7999999523163</ele>
        <time>2021-10-14T08:21:08.000Z</time>
      </trkpt>
      <trkpt lat="47.36586" lon="-2.35873">
        <ele>-2.7999999523163</ele>
        <time>2021-10-14T08:21:16.000Z</time>
      </trkpt>
      <trkpt lat="47.36585" lon="-2.35886">
        <ele>-2.7999999523163</ele>
        <time>2021-10-14T08:21:19.000Z</time>
      </trkpt>
      <trkpt lat="47.36583" lon="-2.35891">
        <ele>-2.7999999523163</ele>
        <time>2021-10-14T08:21:20.000Z</time>
      </trkpt>
      <trkpt lat="47.36577" lon="-2.35901">
        <ele>-2.7999999523163</ele>
        <time>2021-10-14T08:21:22.000Z</time>
      </trkpt>
      <trkpt lat="47.36572" lon="-2.35909">
        <ele>-2.7999999523163</ele>
        <time>2021-10-14T08:21:24.000Z</time>
      </trkpt>
      <trkpt lat="47.36566" lon="-2.35923">
        <ele>-2.7999999523163</ele>
        <time>2021-10-14T08:21:29.000Z</time>
      </trkpt>
      <trkpt lat="47.36561" lon="-2.35921">
        <ele>-2.7999999523163</ele>
        <time>2021-10-14T08:21:34.000Z</time>
      </trkpt>
      <trkpt lat="47.36565" lon="-2.35914">
        <ele>-2.7999999523163</ele>
        <time>2021-10-14T08:21:37.000Z</time>
      </trkpt>
      <trkpt lat="47.36566" lon="-2.35912">
        <ele>-2.7999999523163</ele>
        <time>2021-10-14T08:21:38.000Z</time>
      </trkpt>
      <trkpt lat="47.36579" lon="-2.35891">
        <ele>-2.7999999523163</ele>
        <time>2021-10-14T08:21:44.000Z</time>
      </trkpt>
      <trkpt lat="47.36588" lon="-2.3588">
        <ele>-2.7999999523163</ele>
        <time>2021-10-14T08:21:50.000Z</time>
      </trkpt>
      <trkpt lat="47.36592" lon="-2.35881">
        <ele>-2.7999999523163</ele>
        <time>2021-10-14T08:21:53.000Z</time>
      </trkpt>
      <trkpt lat="47.36593" lon="-2.35884">
        <ele>-2.7999999523163</ele>
        <time>2021-10-14T08:21:54.000Z</time>
      </trkpt>
      <trkpt lat="47.36588" lon="-2.35887">
        <ele>-2.7999999523163</ele>
        <time>2021-10-14T08:21:58.000Z</time>
      </trkpt>
      <trkpt lat="47.36586" lon="-2.35889">
        <ele>-2.7999999523163</ele>
        <time>2021-10-14T08:21:59.000Z</time>
      </trkpt>
      <trkpt lat="47.36579" lon="-2.35897">
        <ele>-2.7999999523163</ele>
        <time>2021-10-14T08:22:03.000Z</time>
      </trkpt>
      <trkpt lat="47.36567" lon="-2.35917">
        <ele>-2.7999999523163</ele>
        <time>2021-10-14T08:22:10.000Z</time>
      </trkpt>
      <trkpt lat="47.36553" lon="-2.35937">
        <ele>-2.7999999523163</ele>
        <time>2021-10-14T08:22:16.000Z</time>
      </trkpt>
      <trkpt lat="47.3654" lon="-2.35953">
        <ele>-2.4000000953674</ele>
        <time>2021-10-14T08:22:21.000Z</time>
      </trkpt>
      <trkpt lat="47.36538" lon="-2.35956">
        <ele>-2</ele>
        <time>2021-10-14T08:22:22.000Z</time>
      </trkpt>
      <trkpt lat="47.36537" lon="-2.35957">
        <ele>-1.6000000238419</ele>
        <time>2021-10-14T08:22:23.000Z</time>
      </trkpt>
      <trkpt lat="47.36536" lon="-2.35958">
        <ele>-1.2000000476837</ele>
        <time>2021-10-14T08:22:24.000Z</time>
      </trkpt>
      <trkpt lat="47.36535" lon="-2.35959">
        <ele>-0.60000002384186</ele>
        <time>2021-10-14T08:22:25.000Z</time>
      </trkpt>
      <trkpt lat="47.36535" lon="-2.35959">
        <ele>-0.60000002384186</ele>
        <time>2021-10-14T08:22:26.000Z</time>
      </trkpt>
      <trkpt lat="47.36531" lon="-2.35964">
        <ele>-0.60000002384186</ele>
        <time>2021-10-14T08:23:02.000Z</time>
      </trkpt>
      <trkpt lat="47.3652" lon="-2.35978">
        <ele>-0.60000002384186</ele>
        <time>2021-10-14T08:23:07.000Z</time>
      </trkpt>
      <trkpt lat="47.36503" lon="-2.35998">
        <ele>-0.60000002384186</ele>
        <time>2021-10-14T08:23:12.000Z</time>
      </trkpt>
      <trkpt lat="47.36486" lon="-2.36017">
        <ele>-0.20000000298023</ele>
        <time>2021-10-14T08:23:17.000Z</time>
      </trkpt>
      <trkpt lat="47.36483" lon="-2.36021">
        <ele>0.20000000298023</ele>
        <time>2021-10-14T08:23:18.000Z</time>
      </trkpt>
      <trkpt lat="47.3648" lon="-2.36026">
        <ele>1</ele>
        <time>2021-10-14T08:23:19.000Z</time>
      </trkpt>
      <trkpt lat="47.36477" lon="-2.3603">
        <ele>1.3999999761581</ele>
        <time>2021-10-14T08:23:20.000Z</time>
      </trkpt>
      <trkpt lat="47.36458" lon="-2.36062">
        <ele>1.7999999523163</ele>
        <time>2021-10-14T08:23:27.000Z</time>
      </trkpt>
      <trkpt lat="47.36456" lon="-2.36066">
        <ele>2.2000000476837</ele>
        <time>2021-10-14T08:23:28.000Z</time>
      </trkpt>
      <trkpt lat="47.36454" lon="-2.3607">
        <ele>2.5999999046326</ele>
        <time>2021-10-14T08:23:29.000Z</time>
      </trkpt>
      <trkpt lat="47.36452" lon="-2.36075">
        <ele>3</ele>
        <time>2021-10-14T08:23:30.000Z</time>
      </trkpt>
      <trkpt lat="47.3645" lon="-2.36078">
        <ele>3.4000000953674</ele>
        <time>2021-10-14T08:23:31.000Z</time>
      </trkpt>
      <trkpt lat="47.36445" lon="-2.3609">
        <ele>3.4000000953674</ele>
        <time>2021-10-14T08:23:34.000Z</time>
      </trkpt>
      <trkpt lat="47.36443" lon="-2.36112">
        <ele>3.4000000953674</ele>
        <time>2021-10-14T08:23:39.000Z</time>
      </trkpt>
      <trkpt lat="47.36447" lon="-2.36132">
        <ele>3.7999999523163</ele>
        <time>2021-10-14T08:23:43.000Z</time>
      </trkpt>
      <trkpt lat="47.36448" lon="-2.36136">
        <ele>4.5999999046326</ele>
        <time>2021-10-14T08:23:44.000Z</time>
      </trkpt>
      <trkpt lat="47.36449" lon="-2.3614">
        <ele>5</ele>
        <time>2021-10-14T08:23:45.000Z</time>
      </trkpt>
      <trkpt lat="47.36451" lon="-2.36145">
        <ele>5.4000000953674</ele>
        <time>2021-10-14T08:23:46.000Z</time>
      </trkpt>
      <trkpt lat="47.36463" lon="-2.36183">
        <ele>5.4000000953674</ele>
        <time>2021-10-14T08:23:54.000Z</time>
      </trkpt>
      <trkpt lat="47.36477" lon="-2.36233">
        <ele>5.4000000953674</ele>
        <time>2021-10-14T08:24:02.000Z</time>
      </trkpt>
      <trkpt lat="47.36493" lon="-2.36285">
        <ele>5.4000000953674</ele>
        <time>2021-10-14T08:24:09.000Z</time>
      </trkpt>
      <trkpt lat="47.36498" lon="-2.363">
        <ele>5</ele>
        <time>2021-10-14T08:24:11.000Z</time>
      </trkpt>
      <trkpt lat="47.365" lon="-2.36307">
        <ele>4.5999999046326</ele>
        <time>2021-10-14T08:24:12.000Z</time>
      </trkpt>
      <trkpt lat="47.36503" lon="-2.36314">
        <ele>4</ele>
        <time>2021-10-14T08:24:13.000Z</time>
      </trkpt>
      <trkpt lat="47.36505" lon="-2.36322">
        <ele>3.5999999046326</ele>
        <time>2021-10-14T08:24:14.000Z</time>
      </trkpt>
      <trkpt lat="47.36508" lon="-2.3633">
        <ele>3.2000000476837</ele>
        <time>2021-10-14T08:24:15.000Z</time>
      </trkpt>
      <trkpt lat="47.36518" lon="-2.36359">
        <ele>3.2000000476837</ele>
        <time>2021-10-14T08:24:19.000Z</time>
      </trkpt>
      <trkpt lat="47.36522" lon="-2.36374">
        <ele>3.2000000476837</ele>
        <time>2021-10-14T08:24:21.000Z</time>
      </trkpt>
      <trkpt lat="47.36535" lon="-2.36419">
        <ele>3.2000000476837</ele>
        <time>2021-10-14T08:24:27.000Z</time>
      </trkpt>
      <trkpt lat="47.36547" lon="-2.3645">
        <ele>3.2000000476837</ele>
        <time>2021-10-14T08:24:32.000Z</time>
      </trkpt>
      <trkpt lat="47.36552" lon="-2.36462">
        <ele>3.2000000476837</ele>
        <time>2021-10-14T08:24:34.000Z</time>
      </trkpt>
      <trkpt lat="47.3657" lon="-2.36508">
        <ele>3.2000000476837</ele>
        <time>2021-10-14T08:24:42.000Z</time>
      </trkpt>
      <trkpt lat="47.3658" lon="-2.36516">
        <ele>3.2000000476837</ele>
        <time>2021-10-14T08:24:45.000Z</time>
      </trkpt>
      <trkpt lat="47.36586" lon="-2.36514">
        <ele>3.2000000476837</ele>
        <time>2021-10-14T08:24:46.000Z</time>
      </trkpt>
      <trkpt lat="47.36599" lon="-2.36505">
        <ele>3.2000000476837</ele>
        <time>2021-10-14T08:24:49.000Z</time>
      </trkpt>
      <trkpt lat="47.36604" lon="-2.36502">
        <ele>3.2000000476837</ele>
        <time>2021-10-14T08:24:50.000Z</time>
      </trkpt>
      <trkpt lat="47.36641" lon="-2.36479">
        <ele>3.2000000476837</ele>
        <time>2021-10-14T08:24:57.000Z</time>
      </trkpt>
      <trkpt lat="47.36647" lon="-2.36475">
        <ele>2.7999999523163</ele>
        <time>2021-10-14T08:24:58.000Z</time>
      </trkpt>
      <trkpt lat="47.36652" lon="-2.36471">
        <ele>2.4000000953674</ele>
        <time>2021-10-14T08:24:59.000Z</time>
      </trkpt>
      <trkpt lat="47.36658" lon="-2.36468">
        <ele>1.7999999523163</ele>
        <time>2021-10-14T08:25:00.000Z</time>
      </trkpt>
      <trkpt lat="47.36664" lon="-2.36464">
        <ele>1.3999999761581</ele>
        <time>2021-10-14T08:25:01.000Z</time>
      </trkpt>
      <trkpt lat="47.3667" lon="-2.3646">
        <ele>1</ele>
        <time>2021-10-14T08:25:02.000Z</time>
      </trkpt>
      <trkpt lat="47.36687" lon="-2.36448">
        <ele>1</ele>
        <time>2021-10-14T08:25:05.000Z</time>
      </trkpt>
      <trkpt lat="47.36713" lon="-2.36423">
        <ele>0.60000002384186</ele>
        <time>2021-10-14T08:25:10.000Z</time>
      </trkpt>
      <trkpt lat="47.36718" lon="-2.36418">
        <ele>0.20000000298023</ele>
        <time>2021-10-14T08:25:11.000Z</time>
      </trkpt>
      <trkpt lat="47.36722" lon="-2.36412">
        <ele>-0.20000000298023</ele>
        <time>2021-10-14T08:25:12.000Z</time>
      </trkpt>
      <trkpt lat="47.36727" lon="-2.36406">
        <ele>-0.80000001192093</ele>
        <time>2021-10-14T08:25:13.000Z</time>
      </trkpt>
      <trkpt lat="47.36731" lon="-2.364">
        <ele>-1.2000000476837</ele>
        <time>2021-10-14T08:25:14.000Z</time>
      </trkpt>
      <trkpt lat="47.36748" lon="-2.36379">
        <ele>-1.2000000476837</ele>
        <time>2021-10-14T08:25:18.000Z</time>
      </trkpt>
      <trkpt lat="47.36772" lon="-2.36372">
        <ele>-1.2000000476837</ele>
        <time>2021-10-14T08:25:22.000Z</time>
      </trkpt>
      <trkpt lat="47.36778" lon="-2.36372">
        <ele>-1.2000000476837</ele>
        <time>2021-10-14T08:25:23.000Z</time>
      </trkpt>
      <trkpt lat="47.36817" lon="-2.36371">
        <ele>-1.2000000476837</ele>
        <time>2021-10-14T08:25:29.000Z</time>
      </trkpt>
      <trkpt lat="47.36862" lon="-2.3637">
        <ele>-1.2000000476837</ele>
        <time>2021-10-14T08:25:36.000Z</time>
      </trkpt>
      <trkpt lat="47.36868" lon="-2.36371">
        <ele>-1.2000000476837</ele>
        <time>2021-10-14T08:25:37.000Z</time>
      </trkpt>
      <trkpt lat="47.36892" lon="-2.3637">
        <ele>-1.6000000238419</ele>
        <time>2021-10-14T08:25:41.000Z</time>
      </trkpt>
      <trkpt lat="47.36898" lon="-2.3637">
        <ele>-2</ele>
        <time>2021-10-14T08:25:42.000Z</time>
      </trkpt>
      <trkpt lat="47.36904" lon="-2.36371">
        <ele>-2.4000000953674</ele>
        <time>2021-10-14T08:25:43.000Z</time>
      </trkpt>
      <trkpt lat="47.3691" lon="-2.3637">
        <ele>-2.7999999523163</ele>
        <time>2021-10-14T08:25:44.000Z</time>
      </trkpt>
      <trkpt lat="47.36916" lon="-2.36369">
        <ele>-3.2000000476837</ele>
        <time>2021-10-14T08:25:45.000Z</time>
      </trkpt>
      <trkpt lat="47.36922" lon="-2.36369">
        <ele>-3.2000000476837</ele>
        <time>2021-10-14T08:25:46.000Z</time>
      </trkpt>
      <trkpt lat="47.36964" lon="-2.36369">
        <ele>-3.2000000476837</ele>
        <time>2021-10-14T08:25:53.000Z</time>
      </trkpt>
      <trkpt lat="47.37007" lon="-2.36367">
        <ele>-3.2000000476837</ele>
        <time>2021-10-14T08:26:00.000Z</time>
      </trkpt>
      <trkpt lat="47.37042" lon="-2.36367">
        <ele>-3.2000000476837</ele>
        <time>2021-10-14T08:26:06.000Z</time>
      </trkpt>
      <trkpt lat="47.37065" lon="-2.36365">
        <ele>-3.2000000476837</ele>
        <time>2021-10-14T08:26:10.000Z</time>
      </trkpt>
      <trkpt lat="47.37075" lon="-2.36359">
        <ele>-3.2000000476837</ele>
        <time>2021-10-14T08:26:12.000Z</time>
      </trkpt>
      <trkpt lat="47.3709" lon="-2.36333">
        <ele>-3.2000000476837</ele>
        <time>2021-10-14T08:26:16.000Z</time>
      </trkpt>
      <trkpt lat="47.37093" lon="-2.36326">
        <ele>-3.2000000476837</ele>
        <time>2021-10-14T08:26:17.000Z</time>
      </trkpt>
      <trkpt lat="47.37112" lon="-2.36283">
        <ele>-3.2000000476837</ele>
        <time>2021-10-14T08:26:23.000Z</time>
      </trkpt>
      <trkpt lat="47.37141" lon="-2.36222">
        <ele>-3.2000000476837</ele>
        <time>2021-10-14T08:26:31.000Z</time>
      </trkpt>
      <trkpt lat="47.37152" lon="-2.362">
        <ele>-4</ele>
        <time>2021-10-14T08:26:34.000Z</time>
      </trkpt>
      <trkpt lat="47.37155" lon="-2.36193">
        <ele>-4.4000000953674</ele>
        <time>2021-10-14T08:26:35.000Z</time>
      </trkpt>
      <trkpt lat="47.37158" lon="-2.36185">
        <ele>-4.8000001907349</ele>
        <time>2021-10-14T08:26:36.000Z</time>
      </trkpt>
      <trkpt lat="47.37162" lon="-2.36179">
        <ele>-5.1999998092651</ele>
        <time>2021-10-14T08:26:37.000Z</time>
      </trkpt>
      <trkpt lat="47.37165" lon="-2.36171">
        <ele>-5.1999998092651</ele>
        <time>2021-10-14T08:26:38.000Z</time>
      </trkpt>
      <trkpt lat="47.37192" lon="-2.36113">
        <ele>-5.1999998092651</ele>
        <time>2021-10-14T08:26:46.000Z</time>
      </trkpt>
      <trkpt lat="47.37202" lon="-2.36092">
        <ele>-5.1999998092651</ele>
        <time>2021-10-14T08:26:50.000Z</time>
      </trkpt>
      <trkpt lat="47.37206" lon="-2.36086">
        <ele>-5.1999998092651</ele>
        <time>2021-10-14T08:26:52.000Z</time>
      </trkpt>
      <trkpt lat="47.37209" lon="-2.36085">
        <ele>-5.1999998092651</ele>
        <time>2021-10-14T08:26:53.000Z</time>
      </trkpt>
      <trkpt lat="47.37213" lon="-2.36087">
        <ele>-5.5999999046326</ele>
        <time>2021-10-14T08:26:55.000Z</time>
      </trkpt>
      <trkpt lat="47.37215" lon="-2.36089">
        <ele>-6</ele>
        <time>2021-10-14T08:26:56.000Z</time>
      </trkpt>
      <trkpt lat="47.37217" lon="-2.36091">
        <ele>-6.4000000953674</ele>
        <time>2021-10-14T08:26:57.000Z</time>
      </trkpt>
      <trkpt lat="47.3722" lon="-2.36092">
        <ele>-6.8000001907349</ele>
        <time>2021-10-14T08:26:58.000Z</time>
      </trkpt>
      <trkpt lat="47.37223" lon="-2.36093">
        <ele>-7.1999998092651</ele>
        <time>2021-10-14T08:26:59.000Z</time>
      </trkpt>
      <trkpt lat="47.37225" lon="-2.36093">
        <ele>-7.1999998092651</ele>
        <time>2021-10-14T08:27:00.000Z</time>
      </trkpt>
      <trkpt lat="47.37233" lon="-2.36095">
        <ele>-7.1999998092651</ele>
        <time>2021-10-14T08:27:03.000Z</time>
      </trkpt>
      <trkpt lat="47.37238" lon="-2.36098">
        <ele>-7.5999999046326</ele>
        <time>2021-10-14T08:27:06.000Z</time>
      </trkpt>
      <trkpt lat="47.3724" lon="-2.36099">
        <ele>-8</ele>
        <time>2021-10-14T08:27:07.000Z</time>
      </trkpt>
      <trkpt lat="47.37241" lon="-2.361">
        <ele>-8.3999996185303</ele>
        <time>2021-10-14T08:27:08.000Z</time>
      </trkpt>
      <trkpt lat="47.37242" lon="-2.36101">
        <ele>-8.8000001907349</ele>
        <time>2021-10-14T08:27:09.000Z</time>
      </trkpt>
      <trkpt lat="47.37242" lon="-2.36101">
        <ele>-9.1999998092651</ele>
        <time>2021-10-14T08:27:10.000Z</time>
      </trkpt>
      <trkpt lat="47.37266" lon="-2.36121">
        <ele>-9.1999998092651</ele>
        <time>2021-10-14T08:29:25.000Z</time>
      </trkpt>
      <trkpt lat="47.37278" lon="-2.36131">
        <ele>-9.1999998092651</ele>
        <time>2021-10-14T08:29:31.000Z</time>
      </trkpt>
      <trkpt lat="47.37281" lon="-2.36132">
        <ele>-9.1999998092651</ele>
        <time>2021-10-14T08:29:32.000Z</time>
      </trkpt>
      <trkpt lat="47.37289" lon="-2.36128">
        <ele>-9.1999998092651</ele>
        <time>2021-10-14T08:29:35.000Z</time>
      </trkpt>
      <trkpt lat="47.37292" lon="-2.36126">
        <ele>-9.1999998092651</ele>
        <time>2021-10-14T08:29:36.000Z</time>
      </trkpt>
      <trkpt lat="47.37302" lon="-2.36121">
        <ele>-9.1999998092651</ele>
        <time>2021-10-14T08:29:39.000Z</time>
      </trkpt>
      <trkpt lat="47.37332" lon="-2.36121">
        <ele>-9.1999998092651</ele>
        <time>2021-10-14T08:29:46.000Z</time>
      </trkpt>
      <trkpt lat="47.37349" lon="-2.36127">
        <ele>-9.1999998092651</ele>
        <time>2021-10-14T08:29:50.000Z</time>
      </trkpt>
      <trkpt lat="47.37354" lon="-2.36126">
        <ele>-9.1999998092651</ele>
        <time>2021-10-14T08:29:51.000Z</time>
      </trkpt>
      <trkpt lat="47.37371" lon="-2.36113">
        <ele>-9.1999998092651</ele>
        <time>2021-10-14T08:29:55.000Z</time>
      </trkpt>
      <trkpt lat="47.37376" lon="-2.36111">
        <ele>-9.1999998092651</ele>
        <time>2021-10-14T08:29:56.000Z</time>
      </trkpt>
      <trkpt lat="47.37386" lon="-2.3611">
        <ele>-9.1999998092651</ele>
        <time>2021-10-14T08:29:58.000Z</time>
      </trkpt>
      <trkpt lat="47.37396" lon="-2.36121">
        <ele>-9.1999998092651</ele>
        <time>2021-10-14T08:30:01.000Z</time>
      </trkpt>
      <trkpt lat="47.37399" lon="-2.36125">
        <ele>-9.1999998092651</ele>
        <time>2021-10-14T08:30:02.000Z</time>
      </trkpt>
      <trkpt lat="47.37409" lon="-2.36139">
        <ele>-9.1999998092651</ele>
        <time>2021-10-14T08:30:05.000Z</time>
      </trkpt>
      <trkpt lat="47.37417" lon="-2.3614">
        <ele>-9.1999998092651</ele>
        <time>2021-10-14T08:30:07.000Z</time>
      </trkpt>
      <trkpt lat="47.37425" lon="-2.36134">
        <ele>-9.1999998092651</ele>
        <time>2021-10-14T08:30:09.000Z</time>
      </trkpt>
      <trkpt lat="47.37432" lon="-2.36127">
        <ele>-9.1999998092651</ele>
        <time>2021-10-14T08:30:11.000Z</time>
      </trkpt>
      <trkpt lat="47.37436" lon="-2.36124">
        <ele>-9.1999998092651</ele>
        <time>2021-10-14T08:30:12.000Z</time>
      </trkpt>
      <trkpt lat="47.3744" lon="-2.36121">
        <ele>-8.8000001907349</ele>
        <time>2021-10-14T08:30:13.000Z</time>
      </trkpt>
      <trkpt lat="47.37444" lon="-2.36119">
        <ele>-8.3999996185303</ele>
        <time>2021-10-14T08:30:14.000Z</time>
      </trkpt>
      <trkpt lat="47.37449" lon="-2.36116">
        <ele>-8</ele>
        <time>2021-10-14T08:30:15.000Z</time>
      </trkpt>
      <trkpt lat="47.37453" lon="-2.36113">
        <ele>-7.1999998092651</ele>
        <time>2021-10-14T08:30:16.000Z</time>
      </trkpt>
      <trkpt lat="47.37461" lon="-2.36107">
        <ele>-7.1999998092651</ele>
        <time>2021-10-14T08:30:18.000Z</time>
      </trkpt>
      <trkpt lat="47.37469" lon="-2.36102">
        <ele>-6.8000001907349</ele>
        <time>2021-10-14T08:30:20.000Z</time>
      </trkpt>
      <trkpt lat="47.37473" lon="-2.361">
        <ele>-6.4000000953674</ele>
        <time>2021-10-14T08:30:21.000Z</time>
      </trkpt>
      <trkpt lat="47.37477" lon="-2.36098">
        <ele>-5.8000001907349</ele>
        <time>2021-10-14T08:30:22.000Z</time>
      </trkpt>
      <trkpt lat="47.3748" lon="-2.36096">
        <ele>-5.4000000953674</ele>
        <time>2021-10-14T08:30:23.000Z</time>
      </trkpt>
      <trkpt lat="47.37484" lon="-2.36094">
        <ele>-5</ele>
        <time>2021-10-14T08:30:24.000Z</time>
      </trkpt>
      <trkpt lat="47.37491" lon="-2.36089">
        <ele>-5</ele>
        <time>2021-10-14T08:30:26.000Z</time>
      </trkpt>
      <trkpt lat="47.37495" lon="-2.36087">
        <ele>-5</ele>
        <time>2021-10-14T08:30:27.000Z</time>
      </trkpt>
      <trkpt lat="47.37504" lon="-2.36083">
        <ele>-4.5999999046326</ele>
        <time>2021-10-14T08:30:29.000Z</time>
      </trkpt>
      <trkpt lat="47.37508" lon="-2.3608">
        <ele>-4.1999998092651</ele>
        <time>2021-10-14T08:30:30.000Z</time>
      </trkpt>
      <trkpt lat="47.37513" lon="-2.36078">
        <ele>-3.7999999523163</ele>
        <time>2021-10-14T08:30:31.000Z</time>
      </trkpt>
      <trkpt lat="47.37518" lon="-2.36077">
        <ele>-3.4000000953674</ele>
        <time>2021-10-14T08:30:32.000Z</time>
      </trkpt>
      <trkpt lat="47.37523" lon="-2.36075">
        <ele>-3</ele>
        <time>2021-10-14T08:30:33.000Z</time>
      </trkpt>
      <trkpt lat="47.37532" lon="-2.36072">
        <ele>-3</ele>
        <time>2021-10-14T08:30:35.000Z</time>
      </trkpt>
      <trkpt lat="47.37547" lon="-2.36067">
        <ele>-3</ele>
        <time>2021-10-14T08:30:38.000Z</time>
      </trkpt>
      <trkpt lat="47.37578" lon="-2.36055">
        <ele>-3</ele>
        <time>2021-10-14T08:30:44.000Z</time>
      </trkpt>
      <trkpt lat="47.37583" lon="-2.36052">
        <ele>-3</ele>
        <time>2021-10-14T08:30:45.000Z</time>
      </trkpt>
      <trkpt lat="47.37588" lon="-2.3605">
        <ele>-3</ele>
        <time>2021-10-14T08:30:46.000Z</time>
      </trkpt>
      <trkpt lat="47.37606" lon="-2.36047">
        <ele>-3</ele>
        <time>2021-10-14T08:30:50.000Z</time>
      </trkpt>
      <trkpt lat="47.37627" lon="-2.36048">
        <ele>-3</ele>
        <time>2021-10-14T08:30:54.000Z</time>
      </trkpt>
      <trkpt lat="47.37636" lon="-2.36045">
        <ele>-3</ele>
        <time>2021-10-14T08:30:56.000Z</time>
      </trkpt>
      <trkpt lat="47.37642" lon="-2.36029">
        <ele>-3</ele>
        <time>2021-10-14T08:30:59.000Z</time>
      </trkpt>
      <trkpt lat="47.37645" lon="-2.36011">
        <ele>-3</ele>
        <time>2021-10-14T08:31:02.000Z</time>
      </trkpt>
      <trkpt lat="47.37648" lon="-2.36008">
        <ele>-3</ele>
        <time>2021-10-14T08:31:03.000Z</time>
      </trkpt>
      <trkpt lat="47.3766" lon="-2.36012">
        <ele>-3</ele>
        <time>2021-10-14T08:31:06.000Z</time>
      </trkpt>
      <trkpt lat="47.3767" lon="-2.36016">
        <ele>-3</ele>
        <time>2021-10-14T08:31:08.000Z</time>
      </trkpt>
      <trkpt lat="47.37689" lon="-2.36022">
        <ele>-3</ele>
        <time>2021-10-14T08:31:12.000Z</time>
      </trkpt>
      <trkpt lat="47.37698" lon="-2.36025">
        <ele>-3</ele>
        <time>2021-10-14T08:31:14.000Z</time>
      </trkpt>
      <trkpt lat="47.37713" lon="-2.36033">
        <ele>-3</ele>
        <time>2021-10-14T08:31:17.000Z</time>
      </trkpt>
      <trkpt lat="47.37743" lon="-2.3605">
        <ele>-3</ele>
        <time>2021-10-14T08:31:23.000Z</time>
      </trkpt>
      <trkpt lat="47.37773" lon="-2.36069">
        <ele>-3</ele>
        <time>2021-10-14T08:31:29.000Z</time>
      </trkpt>
      <trkpt lat="47.37797" lon="-2.36082">
        <ele>-3</ele>
        <time>2021-10-14T08:31:34.000Z</time>
      </trkpt>
      <trkpt lat="47.37807" lon="-2.36086">
        <ele>-3</ele>
        <time>2021-10-14T08:31:36.000Z</time>
      </trkpt>
      <trkpt lat="47.37822" lon="-2.36093">
        <ele>-2.5999999046326</ele>
        <time>2021-10-14T08:31:39.000Z</time>
      </trkpt>
      <trkpt lat="47.37827" lon="-2.36096">
        <ele>-2.2000000476837</ele>
        <time>2021-10-14T08:31:40.000Z</time>
      </trkpt>
      <trkpt lat="47.37832" lon="-2.36098">
        <ele>-1.6000000238419</ele>
        <time>2021-10-14T08:31:41.000Z</time>
      </trkpt>
      <trkpt lat="47.37837" lon="-2.36101">
        <ele>-1.2000000476837</ele>
        <time>2021-10-14T08:31:42.000Z</time>
      </trkpt>
      <trkpt lat="47.37843" lon="-2.36104">
        <ele>-0.80000001192093</ele>
        <time>2021-10-14T08:31:43.000Z</time>
      </trkpt>
      <trkpt lat="47.37878" lon="-2.36126">
        <ele>-0.80000001192093</ele>
        <time>2021-10-14T08:31:50.000Z</time>
      </trkpt>
      <trkpt lat="47.379" lon="-2.36127">
        <ele>-0.80000001192093</ele>
        <time>2021-10-14T08:31:54.000Z</time>
      </trkpt>
      <trkpt lat="47.37912" lon="-2.36123">
        <ele>-0.80000001192093</ele>
        <time>2021-10-14T08:31:56.000Z</time>
      </trkpt>
      <trkpt lat="47.3793" lon="-2.36114">
        <ele>-0.80000001192093</ele>
        <time>2021-10-14T08:31:59.000Z</time>
      </trkpt>
      <trkpt lat="47.37975" lon="-2.36089">
        <ele>-0.80000001192093</ele>
        <time>2021-10-14T08:32:06.000Z</time>
      </trkpt>
      <trkpt lat="47.37995" lon="-2.3608">
        <ele>-1.2000000476837</ele>
        <time>2021-10-14T08:32:09.000Z</time>
      </trkpt>
      <trkpt lat="47.38003" lon="-2.36077">
        <ele>-1.6000000238419</ele>
        <time>2021-10-14T08:32:10.000Z</time>
      </trkpt>
      <trkpt lat="47.3801" lon="-2.36074">
        <ele>-2</ele>
        <time>2021-10-14T08:32:11.000Z</time>
      </trkpt>
      <trkpt lat="47.38017" lon="-2.36072">
        <ele>-2.4000000953674</ele>
        <time>2021-10-14T08:32:12.000Z</time>
      </trkpt>
      <trkpt lat="47.38024" lon="-2.36069">
        <ele>-2.7999999523163</ele>
        <time>2021-10-14T08:32:13.000Z</time>
      </trkpt>
      <trkpt lat="47.38064" lon="-2.36056">
        <ele>-2.7999999523163</ele>
        <time>2021-10-14T08:32:19.000Z</time>
      </trkpt>
      <trkpt lat="47.38115" lon="-2.36039">
        <ele>-2.7999999523163</ele>
        <time>2021-10-14T08:32:27.000Z</time>
      </trkpt>
      <trkpt lat="47.38152" lon="-2.36019">
        <ele>-2.7999999523163</ele>
        <time>2021-10-14T08:32:33.000Z</time>
      </trkpt>
      <trkpt lat="47.38192" lon="-2.3599">
        <ele>-2.7999999523163</ele>
        <time>2021-10-14T08:32:40.000Z</time>
      </trkpt>
      <trkpt lat="47.38231" lon="-2.35963">
        <ele>-2.7999999523163</ele>
        <time>2021-10-14T08:32:47.000Z</time>
      </trkpt>
      <trkpt lat="47.38236" lon="-2.3596">
        <ele>-3.4000000953674</ele>
        <time>2021-10-14T08:32:48.000Z</time>
      </trkpt>
      <trkpt lat="47.38242" lon="-2.35956">
        <ele>-3.7999999523163</ele>
        <time>2021-10-14T08:32:49.000Z</time>
      </trkpt>
      <trkpt lat="47.38248" lon="-2.35952">
        <ele>-4.1999998092651</ele>
        <time>2021-10-14T08:32:50.000Z</time>
      </trkpt>
      <trkpt lat="47.38254" lon="-2.35948">
        <ele>-4.5999999046326</ele>
        <time>2021-10-14T08:32:51.000Z</time>
      </trkpt>
      <trkpt lat="47.3826" lon="-2.35944">
        <ele>-5</ele>
        <time>2021-10-14T08:32:52.000Z</time>
      </trkpt>
      <trkpt lat="47.38271" lon="-2.35935">
        <ele>-5</ele>
        <time>2021-10-14T08:32:54.000Z</time>
      </trkpt>
      <trkpt lat="47.38281" lon="-2.35929">
        <ele>-5</ele>
        <time>2021-10-14T08:32:56.000Z</time>
      </trkpt>
      <trkpt lat="47.3829" lon="-2.3593">
        <ele>-5</ele>
        <time>2021-10-14T08:32:58.000Z</time>
      </trkpt>
      <trkpt lat="47.38293" lon="-2.35934">
        <ele>-5.4000000953674</ele>
        <time>2021-10-14T08:32:59.000Z</time>
      </trkpt>
      <trkpt lat="47.38295" lon="-2.35939">
        <ele>-6</ele>
        <time>2021-10-14T08:33:00.000Z</time>
      </trkpt>
      <trkpt lat="47.38297" lon="-2.35946">
        <ele>-6.4000000953674</ele>
        <time>2021-10-14T08:33:01.000Z</time>
      </trkpt>
      <trkpt lat="47.38299" lon="-2.35952">
        <ele>-6.8000001907349</ele>
        <time>2021-10-14T08:33:02.000Z</time>
      </trkpt>
      <trkpt lat="47.383" lon="-2.35959">
        <ele>-7.4000000953674</ele>
        <time>2021-10-14T08:33:03.000Z</time>
      </trkpt>
      <trkpt lat="47.38302" lon="-2.35966">
        <ele>-7.4000000953674</ele>
        <time>2021-10-14T08:33:04.000Z</time>
      </trkpt>
      <trkpt lat="47.38306" lon="-2.3598">
        <ele>-7.4000000953674</ele>
        <time>2021-10-14T08:33:06.000Z</time>
      </trkpt>
      <trkpt lat="47.38313" lon="-2.36016">
        <ele>-7.4000000953674</ele>
        <time>2021-10-14T08:33:11.000Z</time>
      </trkpt>
      <trkpt lat="47.38314" lon="-2.36023">
        <ele>-7.4000000953674</ele>
        <time>2021-10-14T08:33:12.000Z</time>
      </trkpt>
      <trkpt lat="47.38324" lon="-2.36058">
        <ele>-7.4000000953674</ele>
        <time>2021-10-14T08:33:17.000Z</time>
      </trkpt>
      <trkpt lat="47.38329" lon="-2.36071">
        <ele>-7.4000000953674</ele>
        <time>2021-10-14T08:33:19.000Z</time>
      </trkpt>
      <trkpt lat="47.38337" lon="-2.36092">
        <ele>-7.4000000953674</ele>
        <time>2021-10-14T08:33:22.000Z</time>
      </trkpt>
      <trkpt lat="47.38355" lon="-2.36135">
        <ele>-7.4000000953674</ele>
        <time>2021-10-14T08:33:29.000Z</time>
      </trkpt>
      <trkpt lat="47.38357" lon="-2.36142">
        <ele>-7.4000000953674</ele>
        <time>2021-10-14T08:33:30.000Z</time>
      </trkpt>
      <trkpt lat="47.38363" lon="-2.36163">
        <ele>-7.4000000953674</ele>
        <time>2021-10-14T08:33:33.000Z</time>
      </trkpt>
      <trkpt lat="47.38366" lon="-2.36169">
        <ele>-7.4000000953674</ele>
        <time>2021-10-14T08:33:34.000Z</time>
      </trkpt>
      <trkpt lat="47.38377" lon="-2.36183">
        <ele>-7.4000000953674</ele>
        <time>2021-10-14T08:33:37.000Z</time>
      </trkpt>
      <trkpt lat="47.38381" lon="-2.36186">
        <ele>-7.4000000953674</ele>
        <time>2021-10-14T08:33:38.000Z</time>
      </trkpt>
      <trkpt lat="47.38389" lon="-2.36188">
        <ele>-7.4000000953674</ele>
        <time>2021-10-14T08:33:40.000Z</time>
      </trkpt>
      <trkpt lat="47.38407" lon="-2.36194">
        <ele>-7.4000000953674</ele>
        <time>2021-10-14T08:33:45.000Z</time>
      </trkpt>
      <trkpt lat="47.38424" lon="-2.36199">
        <ele>-7.4000000953674</ele>
        <time>2021-10-14T08:33:50.000Z</time>
      </trkpt>
      <trkpt lat="47.38426" lon="-2.36201">
        <ele>-7.4000000953674</ele>
        <time>2021-10-14T08:33:51.000Z</time>
      </trkpt>
      <trkpt lat="47.38429" lon="-2.36207">
        <ele>-7.4000000953674</ele>
        <time>2021-10-14T08:33:53.000Z</time>
      </trkpt>
      <trkpt lat="47.38443" lon="-2.36229">
        <ele>-7.4000000953674</ele>
        <time>2021-10-14T08:34:00.000Z</time>
      </trkpt>
      <trkpt lat="47.38454" lon="-2.36248">
        <ele>-7.4000000953674</ele>
        <time>2021-10-14T08:34:05.000Z</time>
      </trkpt>
      <trkpt lat="47.38464" lon="-2.36257">
        <ele>-7.4000000953674</ele>
        <time>2021-10-14T08:34:10.000Z</time>
      </trkpt>
      <trkpt lat="47.38473" lon="-2.36248">
        <ele>-7.4000000953674</ele>
        <time>2021-10-14T08:34:14.000Z</time>
      </trkpt>
      <trkpt lat="47.38487" lon="-2.36246">
        <ele>-7.4000000953674</ele>
        <time>2021-10-14T08:34:18.000Z</time>
      </trkpt>
      <trkpt lat="47.38492" lon="-2.36247">
        <ele>-7.4000000953674</ele>
        <time>2021-10-14T08:34:19.000Z</time>
      </trkpt>
      <trkpt lat="47.38517" lon="-2.36252">
        <ele>-7.4000000953674</ele>
        <time>2021-10-14T08:34:24.000Z</time>
      </trkpt>
      <trkpt lat="47.38522" lon="-2.36252">
        <ele>-7.4000000953674</ele>
        <time>2021-10-14T08:34:25.000Z</time>
      </trkpt>
      <trkpt lat="47.38548" lon="-2.36254">
        <ele>-7.4000000953674</ele>
        <time>2021-10-14T08:34:30.000Z</time>
      </trkpt>
      <trkpt lat="47.38554" lon="-2.36254">
        <ele>-7.4000000953674</ele>
        <time>2021-10-14T08:34:31.000Z</time>
      </trkpt>
      <trkpt lat="47.38572" lon="-2.36255">
        <ele>-7.4000000953674</ele>
        <time>2021-10-14T08:34:34.000Z</time>
      </trkpt>
      <trkpt lat="47.38583" lon="-2.36258">
        <ele>-7.4000000953674</ele>
        <time>2021-10-14T08:34:36.000Z</time>
      </trkpt>
      <trkpt lat="47.38595" lon="-2.36262">
        <ele>-7.4000000953674</ele>
        <time>2021-10-14T08:34:38.000Z</time>
      </trkpt>
      <trkpt lat="47.38607" lon="-2.36275">
        <ele>-7.4000000953674</ele>
        <time>2021-10-14T08:34:40.000Z</time>
      </trkpt>
      <trkpt lat="47.38614" lon="-2.36292">
        <ele>-7.4000000953674</ele>
        <time>2021-10-14T08:34:42.000Z</time>
      </trkpt>
      <trkpt lat="47.38617" lon="-2.36301">
        <ele>-7.4000000953674</ele>
        <time>2021-10-14T08:34:43.000Z</time>
      </trkpt>
      <trkpt lat="47.38618" lon="-2.3631">
        <ele>-7.4000000953674</ele>
        <time>2021-10-14T08:34:44.000Z</time>
      </trkpt>
      <trkpt lat="47.38615" lon="-2.36338">
        <ele>-7.4000000953674</ele>
        <time>2021-10-14T08:34:47.000Z</time>
      </trkpt>
      <trkpt lat="47.38613" lon="-2.36346">
        <ele>-7.4000000953674</ele>
        <time>2021-10-14T08:34:48.000Z</time>
      </trkpt>
      <trkpt lat="47.38595" lon="-2.36392">
        <ele>-7.4000000953674</ele>
        <time>2021-10-14T08:34:54.000Z</time>
      </trkpt>
      <trkpt lat="47.38573" lon="-2.36435">
        <ele>-7.4000000953674</ele>
        <time>2021-10-14T08:35:00.000Z</time>
      </trkpt>
      <trkpt lat="47.38551" lon="-2.36482">
        <ele>-7.4000000953674</ele>
        <time>2021-10-14T08:35:06.000Z</time>
      </trkpt>
      <trkpt lat="47.3853" lon="-2.36516">
        <ele>-7.4000000953674</ele>
        <time>2021-10-14T08:35:11.000Z</time>
      </trkpt>
      <trkpt lat="47.38491" lon="-2.36556">
        <ele>-7.4000000953674</ele>
        <time>2021-10-14T08:35:18.000Z</time>
      </trkpt>
      <trkpt lat="47.38457" lon="-2.36574">
        <ele>-7.4000000953674</ele>
        <time>2021-10-14T08:35:24.000Z</time>
      </trkpt>
      <trkpt lat="47.38429" lon="-2.3659">
        <ele>-7.4000000953674</ele>
        <time>2021-10-14T08:35:29.000Z</time>
      </trkpt>
      <trkpt lat="47.38424" lon="-2.36594">
        <ele>-7.4000000953674</ele>
        <time>2021-10-14T08:35:30.000Z</time>
      </trkpt>
      <trkpt lat="47.38412" lon="-2.36612">
        <ele>-7.4000000953674</ele>
        <time>2021-10-14T08:35:33.000Z</time>
      </trkpt>
      <trkpt lat="47.38409" lon="-2.36619">
        <ele>-7.4000000953674</ele>
        <time>2021-10-14T08:35:34.000Z</time>
      </trkpt>
      <trkpt lat="47.38392" lon="-2.36664">
        <ele>-7.4000000953674</ele>
        <time>2021-10-14T08:35:40.000Z</time>
      </trkpt>
      <trkpt lat="47.38383" lon="-2.36694">
        <ele>-7.4000000953674</ele>
        <time>2021-10-14T08:35:44.000Z</time>
      </trkpt>
      <trkpt lat="47.38381" lon="-2.36701">
        <ele>-7.4000000953674</ele>
        <time>2021-10-14T08:35:45.000Z</time>
      </trkpt>
      <trkpt lat="47.38371" lon="-2.36734">
        <ele>-7.4000000953674</ele>
        <time>2021-10-14T08:35:50.000Z</time>
      </trkpt>
      <trkpt lat="47.38355" lon="-2.36766">
        <ele>-7.4000000953674</ele>
        <time>2021-10-14T08:35:55.000Z</time>
      </trkpt>
      <trkpt lat="47.38351" lon="-2.36772">
        <ele>-7.4000000953674</ele>
        <time>2021-10-14T08:35:56.000Z</time>
      </trkpt>
      <trkpt lat="47.38338" lon="-2.36782">
        <ele>-7.4000000953674</ele>
        <time>2021-10-14T08:35:59.000Z</time>
      </trkpt>
      <trkpt lat="47.38333" lon="-2.36785">
        <ele>-7.4000000953674</ele>
        <time>2021-10-14T08:36:00.000Z</time>
      </trkpt>
      <trkpt lat="47.38313" lon="-2.36795">
        <ele>-7.4000000953674</ele>
        <time>2021-10-14T08:36:04.000Z</time>
      </trkpt>
      <trkpt lat="47.38301" lon="-2.36795">
        <ele>-7.4000000953674</ele>
        <time>2021-10-14T08:36:06.000Z</time>
      </trkpt>
      <trkpt lat="47.38295" lon="-2.36796">
        <ele>-7.4000000953674</ele>
        <time>2021-10-14T08:36:07.000Z</time>
      </trkpt>
      <trkpt lat="47.38276" lon="-2.36804">
        <ele>-7.4000000953674</ele>
        <time>2021-10-14T08:36:10.000Z</time>
      </trkpt>
      <trkpt lat="47.38244" lon="-2.3682">
        <ele>-7.4000000953674</ele>
        <time>2021-10-14T08:36:16.000Z</time>
      </trkpt>
      <trkpt lat="47.3821" lon="-2.3684">
        <ele>-7.4000000953674</ele>
        <time>2021-10-14T08:36:23.000Z</time>
      </trkpt>
      <trkpt lat="47.38191" lon="-2.36852">
        <ele>-6.8000001907349</ele>
        <time>2021-10-14T08:36:27.000Z</time>
      </trkpt>
      <trkpt lat="47.38186" lon="-2.36855">
        <ele>-6.4000000953674</ele>
        <time>2021-10-14T08:36:28.000Z</time>
      </trkpt>
      <trkpt lat="47.38182" lon="-2.36858">
        <ele>-6</ele>
        <time>2021-10-14T08:36:29.000Z</time>
      </trkpt>
      <trkpt lat="47.38177" lon="-2.3686">
        <ele>-5.5999999046326</ele>
        <time>2021-10-14T08:36:30.000Z</time>
      </trkpt>
      <trkpt lat="47.38173" lon="-2.36863">
        <ele>-5.1999998092651</ele>
        <time>2021-10-14T08:36:31.000Z</time>
      </trkpt>
      <trkpt lat="47.38157" lon="-2.36872">
        <ele>-5.1999998092651</ele>
        <time>2021-10-14T08:36:35.000Z</time>
      </trkpt>
      <trkpt lat="47.38141" lon="-2.36883">
        <ele>-4.8000001907349</ele>
        <time>2021-10-14T08:36:39.000Z</time>
      </trkpt>
      <trkpt lat="47.38137" lon="-2.36886">
        <ele>-4.4000000953674</ele>
        <time>2021-10-14T08:36:40.000Z</time>
      </trkpt>
      <trkpt lat="47.38133" lon="-2.36888">
        <ele>-4</ele>
        <time>2021-10-14T08:36:41.000Z</time>
      </trkpt>
      <trkpt lat="47.3813" lon="-2.3689">
        <ele>-3.5999999046326</ele>
        <time>2021-10-14T08:36:42.000Z</time>
      </trkpt>
      <trkpt lat="47.38126" lon="-2.36892">
        <ele>-3</ele>
        <time>2021-10-14T08:36:43.000Z</time>
      </trkpt>
      <trkpt lat="47.38118" lon="-2.36896">
        <ele>-3</ele>
        <time>2021-10-14T08:36:46.000Z</time>
      </trkpt>
      <trkpt lat="47.38111" lon="-2.369">
        <ele>-3</ele>
        <time>2021-10-14T08:36:50.000Z</time>
      </trkpt>
      <trkpt lat="47.3811" lon="-2.369">
        <ele>-3</ele>
        <time>2021-10-14T08:36:51.000Z</time>
      </trkpt>
      <trkpt lat="47.3811" lon="-2.36908">
        <ele>-3</ele>
        <time>2021-10-14T08:38:34.000Z</time>
      </trkpt>
      <trkpt lat="47.3811" lon="-2.36915">
        <ele>-3</ele>
        <time>2021-10-14T08:38:36.000Z</time>
      </trkpt>
      <trkpt lat="47.38116" lon="-2.36938">
        <ele>-3</ele>
        <time>2021-10-14T08:38:42.000Z</time>
      </trkpt>
      <trkpt lat="47.38125" lon="-2.36964">
        <ele>-3</ele>
        <time>2021-10-14T08:38:47.000Z</time>
      </trkpt>
      <trkpt lat="47.38135" lon="-2.36994">
        <ele>-3</ele>
        <time>2021-10-14T08:38:53.000Z</time>
      </trkpt>
      <trkpt lat="47.38151" lon="-2.37025">
        <ele>-3</ele>
        <time>2021-10-14T08:38:59.000Z</time>
      </trkpt>
      <trkpt lat="47.3816" lon="-2.37043">
        <ele>-3</ele>
        <time>2021-10-14T08:39:02.000Z</time>
      </trkpt>
      <trkpt lat="47.38175" lon="-2.37069">
        <ele>-3</ele>
        <time>2021-10-14T08:39:06.000Z</time>
      </trkpt>
      <trkpt lat="47.38197" lon="-2.3711">
        <ele>-3</ele>
        <time>2021-10-14T08:39:12.000Z</time>
      </trkpt>
      <trkpt lat="47.38208" lon="-2.37131">
        <ele>-3.4000000953674</ele>
        <time>2021-10-14T08:39:15.000Z</time>
      </trkpt>
      <trkpt lat="47.38212" lon="-2.37138">
        <ele>-4</ele>
        <time>2021-10-14T08:39:16.000Z</time>
      </trkpt>
      <trkpt lat="47.38216" lon="-2.37146">
        <ele>-4.4000000953674</ele>
        <time>2021-10-14T08:39:17.000Z</time>
      </trkpt>
      <trkpt lat="47.3822" lon="-2.37154">
        <ele>-5.1999998092651</ele>
        <time>2021-10-14T08:39:18.000Z</time>
      </trkpt>
      <trkpt lat="47.38232" lon="-2.37177">
        <ele>-5.1999998092651</ele>
        <time>2021-10-14T08:39:21.000Z</time>
      </trkpt>
      <trkpt lat="47.38236" lon="-2.37184">
        <ele>-5.5999999046326</ele>
        <time>2021-10-14T08:39:22.000Z</time>
      </trkpt>
      <trkpt lat="47.3824" lon="-2.37192">
        <ele>-6</ele>
        <time>2021-10-14T08:39:23.000Z</time>
      </trkpt>
      <trkpt lat="47.38242" lon="-2.37201">
        <ele>-6.4000000953674</ele>
        <time>2021-10-14T08:39:24.000Z</time>
      </trkpt>
      <trkpt lat="47.38244" lon="-2.37208">
        <ele>-6.8000001907349</ele>
        <time>2021-10-14T08:39:25.000Z</time>
      </trkpt>
      <trkpt lat="47.38245" lon="-2.37213">
        <ele>-7.1999998092651</ele>
        <time>2021-10-14T08:39:26.000Z</time>
      </trkpt>
      <trkpt lat="47.38247" lon="-2.37218">
        <ele>-7.1999998092651</ele>
        <time>2021-10-14T08:39:27.000Z</time>
      </trkpt>
      <trkpt lat="47.38252" lon="-2.37222">
        <ele>-7.1999998092651</ele>
        <time>2021-10-14T08:39:30.000Z</time>
      </trkpt>
      <trkpt lat="47.38255" lon="-2.37222">
        <ele>-7.1999998092651</ele>
        <time>2021-10-14T08:39:31.000Z</time>
      </trkpt>
      <trkpt lat="47.38263" lon="-2.37223">
        <ele>-7.1999998092651</ele>
        <time>2021-10-14T08:39:34.000Z</time>
      </trkpt>
      <trkpt lat="47.38266" lon="-2.37222">
        <ele>-7.1999998092651</ele>
        <time>2021-10-14T08:39:35.000Z</time>
      </trkpt>
      <trkpt lat="47.38274" lon="-2.37215">
        <ele>-7.1999998092651</ele>
        <time>2021-10-14T08:39:39.000Z</time>
      </trkpt>
      <trkpt lat="47.3828" lon="-2.37219">
        <ele>-7.1999998092651</ele>
        <time>2021-10-14T08:39:43.000Z</time>
      </trkpt>
      <trkpt lat="47.38286" lon="-2.37225">
        <ele>-7.1999998092651</ele>
        <time>2021-10-14T08:39:50.000Z</time>
      </trkpt>
      <trkpt lat="47.38286" lon="-2.37226">
        <ele>-7.1999998092651</ele>
        <time>2021-10-14T08:39:51.000Z</time>
      </trkpt>
      <trkpt lat="47.38292" lon="-2.3723">
        <ele>-7.1999998092651</ele>
        <time>2021-10-14T08:39:57.000Z</time>
      </trkpt>
      <trkpt lat="47.38296" lon="-2.37233">
        <ele>-7.1999998092651</ele>
        <time>2021-10-14T08:39:59.000Z</time>
      </trkpt>
      <trkpt lat="47.38299" lon="-2.37239">
        <ele>-7.1999998092651</ele>
        <time>2021-10-14T08:40:02.000Z</time>
      </trkpt>
      <trkpt lat="47.383" lon="-2.37246">
        <ele>-7.1999998092651</ele>
        <time>2021-10-14T08:40:04.000Z</time>
      </trkpt>
      <trkpt lat="47.3831" lon="-2.37265">
        <ele>-7.1999998092651</ele>
        <time>2021-10-14T08:40:10.000Z</time>
      </trkpt>
      <trkpt lat="47.38312" lon="-2.3727">
        <ele>-7.1999998092651</ele>
        <time>2021-10-14T08:40:11.000Z</time>
      </trkpt>
      <trkpt lat="47.38313" lon="-2.37281">
        <ele>-7.1999998092651</ele>
        <time>2021-10-14T08:40:14.000Z</time>
      </trkpt>
      <trkpt lat="47.38315" lon="-2.37286">
        <ele>-7.1999998092651</ele>
        <time>2021-10-14T08:40:16.000Z</time>
      </trkpt>
      <trkpt lat="47.3832" lon="-2.37289">
        <ele>-7.1999998092651</ele>
        <time>2021-10-14T08:40:19.000Z</time>
      </trkpt>
      <trkpt lat="47.38327" lon="-2.37302">
        <ele>-7.1999998092651</ele>
        <time>2021-10-14T08:40:24.000Z</time>
      </trkpt>
      <trkpt lat="47.38329" lon="-2.37305">
        <ele>-7.1999998092651</ele>
        <time>2021-10-14T08:40:25.000Z</time>
      </trkpt>
      <trkpt lat="47.38335" lon="-2.37326">
        <ele>-7.1999998092651</ele>
        <time>2021-10-14T08:40:30.000Z</time>
      </trkpt>
      <trkpt lat="47.38336" lon="-2.3734">
        <ele>-7.1999998092651</ele>
        <time>2021-10-14T08:40:35.000Z</time>
      </trkpt>
      <trkpt lat="47.38336" lon="-2.37363">
        <ele>-7.1999998092651</ele>
        <time>2021-10-14T08:40:42.000Z</time>
      </trkpt>
      <trkpt lat="47.38341" lon="-2.37382">
        <ele>-7.1999998092651</ele>
        <time>2021-10-14T08:40:48.000Z</time>
      </trkpt>
      <trkpt lat="47.38342" lon="-2.37386">
        <ele>-7.1999998092651</ele>
        <time>2021-10-14T08:40:50.000Z</time>
      </trkpt>
      <trkpt lat="47.38343" lon="-2.3739">
        <ele>-7.1999998092651</ele>
        <time>2021-10-14T08:41:05.000Z</time>
      </trkpt>
      <trkpt lat="47.38344" lon="-2.37397">
        <ele>-7.1999998092651</ele>
        <time>2021-10-14T08:41:07.000Z</time>
      </trkpt>
      <trkpt lat="47.38352" lon="-2.3742">
        <ele>-7.1999998092651</ele>
        <time>2021-10-14T08:41:12.000Z</time>
      </trkpt>
      <trkpt lat="47.38357" lon="-2.37453">
        <ele>-7.1999998092651</ele>
        <time>2021-10-14T08:41:18.000Z</time>
      </trkpt>
      <trkpt lat="47.38362" lon="-2.37489">
        <ele>-7.1999998092651</ele>
        <time>2021-10-14T08:41:24.000Z</time>
      </trkpt>
      <trkpt lat="47.38363" lon="-2.37508">
        <ele>-7.1999998092651</ele>
        <time>2021-10-14T08:41:27.000Z</time>
      </trkpt>
      <trkpt lat="47.38361" lon="-2.37521">
        <ele>-7.1999998092651</ele>
        <time>2021-10-14T08:41:29.000Z</time>
      </trkpt>
      <trkpt lat="47.3836" lon="-2.37549">
        <ele>-7.1999998092651</ele>
        <time>2021-10-14T08:41:33.000Z</time>
      </trkpt>
      <trkpt lat="47.3836" lon="-2.37563">
        <ele>-7.1999998092651</ele>
        <time>2021-10-14T08:41:35.000Z</time>
      </trkpt>
      <trkpt lat="47.38358" lon="-2.37578">
        <ele>-6.8000001907349</ele>
        <time>2021-10-14T08:41:39.000Z</time>
      </trkpt>
      <trkpt lat="47.38356" lon="-2.37579">
        <ele>-6.4000000953674</ele>
        <time>2021-10-14T08:41:40.000Z</time>
      </trkpt>
      <trkpt lat="47.38354" lon="-2.3758">
        <ele>-6</ele>
        <time>2021-10-14T08:41:41.000Z</time>
      </trkpt>
      <trkpt lat="47.38351" lon="-2.37581">
        <ele>-5.5999999046326</ele>
        <time>2021-10-14T08:41:42.000Z</time>
      </trkpt>
      <trkpt lat="47.38349" lon="-2.37583">
        <ele>-5.1999998092651</ele>
        <time>2021-10-14T08:41:43.000Z</time>
      </trkpt>
      <trkpt lat="47.38346" lon="-2.37585">
        <ele>-5.1999998092651</ele>
        <time>2021-10-14T08:41:44.000Z</time>
      </trkpt>
      <trkpt lat="47.3833" lon="-2.37594">
        <ele>-5.1999998092651</ele>
        <time>2021-10-14T08:41:50.000Z</time>
      </trkpt>
      <trkpt lat="47.3831" lon="-2.37605">
        <ele>-5.1999998092651</ele>
        <time>2021-10-14T08:41:55.000Z</time>
      </trkpt>
      <trkpt lat="47.38305" lon="-2.37607">
        <ele>-5.1999998092651</ele>
        <time>2021-10-14T08:41:56.000Z</time>
      </trkpt>
      <trkpt lat="47.38281" lon="-2.37616">
        <ele>-5.1999998092651</ele>
        <time>2021-10-14T08:42:02.000Z</time>
      </trkpt>
      <trkpt lat="47.38271" lon="-2.37616">
        <ele>-5.1999998092651</ele>
        <time>2021-10-14T08:42:06.000Z</time>
      </trkpt>
      <trkpt lat="47.38265" lon="-2.37623">
        <ele>-4.8000001907349</ele>
        <time>2021-10-14T08:42:09.000Z</time>
      </trkpt>
      <trkpt lat="47.38261" lon="-2.37624">
        <ele>-4.4000000953674</ele>
        <time>2021-10-14T08:42:10.000Z</time>
      </trkpt>
      <trkpt lat="47.38258" lon="-2.37626">
        <ele>-4</ele>
        <time>2021-10-14T08:42:11.000Z</time>
      </trkpt>
      <trkpt lat="47.38255" lon="-2.37628">
        <ele>-3.2000000476837</ele>
        <time>2021-10-14T08:42:12.000Z</time>
      </trkpt>
      <trkpt lat="47.38247" lon="-2.37629">
        <ele>-3.2000000476837</ele>
        <time>2021-10-14T08:42:15.000Z</time>
      </trkpt>
      <trkpt lat="47.38237" lon="-2.37635">
        <ele>-3.2000000476837</ele>
        <time>2021-10-14T08:42:20.000Z</time>
      </trkpt>
      <trkpt lat="47.38226" lon="-2.37643">
        <ele>-3.2000000476837</ele>
        <time>2021-10-14T08:42:26.000Z</time>
      </trkpt>
      <trkpt lat="47.38206" lon="-2.37661">
        <ele>-3.2000000476837</ele>
        <time>2021-10-14T08:42:33.000Z</time>
      </trkpt>
      <trkpt lat="47.38198" lon="-2.37667">
        <ele>-2.7999999523163</ele>
        <time>2021-10-14T08:42:38.000Z</time>
      </trkpt>
      <trkpt lat="47.38196" lon="-2.37669">
        <ele>-2.2000000476837</ele>
        <time>2021-10-14T08:42:39.000Z</time>
      </trkpt>
      <trkpt lat="47.38194" lon="-2.37671">
        <ele>-1.7999999523163</ele>
        <time>2021-10-14T08:42:40.000Z</time>
      </trkpt>
      <trkpt lat="47.38192" lon="-2.37673">
        <ele>-1.3999999761581</ele>
        <time>2021-10-14T08:42:41.000Z</time>
      </trkpt>
      <trkpt lat="47.38189" lon="-2.37675">
        <ele>-1</ele>
        <time>2021-10-14T08:42:42.000Z</time>
      </trkpt>
      <trkpt lat="47.38178" lon="-2.37686">
        <ele>-1</ele>
        <time>2021-10-14T08:42:46.000Z</time>
      </trkpt>
      <trkpt lat="47.38156" lon="-2.37702">
        <ele>-1</ele>
        <time>2021-10-14T08:42:52.000Z</time>
      </trkpt>
      <trkpt lat="47.38127" lon="-2.37728">
        <ele>-1</ele>
        <time>2021-10-14T08:42:59.000Z</time>
      </trkpt>
      <trkpt lat="47.38119" lon="-2.37736">
        <ele>-0.60000002384186</ele>
        <time>2021-10-14T08:43:01.000Z</time>
      </trkpt>
      <trkpt lat="47.38115" lon="-2.37739">
        <ele>-0.20000000298023</ele>
        <time>2021-10-14T08:43:02.000Z</time>
      </trkpt>
      <trkpt lat="47.38111" lon="-2.37742">
        <ele>0.20000000298023</ele>
        <time>2021-10-14T08:43:03.000Z</time>
      </trkpt>
      <trkpt lat="47.38107" lon="-2.37746">
        <ele>0.80000001192093</ele>
        <time>2021-10-14T08:43:04.000Z</time>
      </trkpt>
      <trkpt lat="47.38103" lon="-2.3775">
        <ele>1.2000000476837</ele>
        <time>2021-10-14T08:43:05.000Z</time>
      </trkpt>
      <trkpt lat="47.38099" lon="-2.37754">
        <ele>1.2000000476837</ele>
        <time>2021-10-14T08:43:06.000Z</time>
      </trkpt>
      <trkpt lat="47.38071" lon="-2.37779">
        <ele>1.2000000476837</ele>
        <time>2021-10-14T08:43:13.000Z</time>
      </trkpt>
      <trkpt lat="47.38059" lon="-2.37788">
        <ele>1.6000000238419</ele>
        <time>2021-10-14T08:43:16.000Z</time>
      </trkpt>
      <trkpt lat="47.38055" lon="-2.37792">
        <ele>2</ele>
        <time>2021-10-14T08:43:17.000Z</time>
      </trkpt>
      <trkpt lat="47.38051" lon="-2.37795">
        <ele>2.4000000953674</ele>
        <time>2021-10-14T08:43:18.000Z</time>
      </trkpt>
      <trkpt lat="47.38047" lon="-2.37798">
        <ele>2.7999999523163</ele>
        <time>2021-10-14T08:43:19.000Z</time>
      </trkpt>
      <trkpt lat="47.38043" lon="-2.37801">
        <ele>3.2000000476837</ele>
        <time>2021-10-14T08:43:20.000Z</time>
      </trkpt>
      <trkpt lat="47.38034" lon="-2.37808">
        <ele>3.2000000476837</ele>
        <time>2021-10-14T08:43:22.000Z</time>
      </trkpt>
      <trkpt lat="47.3802" lon="-2.37817">
        <ele>3.2000000476837</ele>
        <time>2021-10-14T08:43:25.000Z</time>
      </trkpt>
      <trkpt lat="47.38007" lon="-2.37826">
        <ele>3.2000000476837</ele>
        <time>2021-10-14T08:43:28.000Z</time>
      </trkpt>
      <trkpt lat="47.37998" lon="-2.37831">
        <ele>3.2000000476837</ele>
        <time>2021-10-14T08:43:30.000Z</time>
      </trkpt>
      <trkpt lat="47.3799" lon="-2.37838">
        <ele>3.5999999046326</ele>
        <time>2021-10-14T08:43:32.000Z</time>
      </trkpt>
      <trkpt lat="47.37986" lon="-2.37841">
        <ele>4.1999998092651</ele>
        <time>2021-10-14T08:43:33.000Z</time>
      </trkpt>
      <trkpt lat="47.37982" lon="-2.37845">
        <ele>4.5999999046326</ele>
        <time>2021-10-14T08:43:34.000Z</time>
      </trkpt>
      <trkpt lat="47.37977" lon="-2.37848">
        <ele>5</ele>
        <time>2021-10-14T08:43:35.000Z</time>
      </trkpt>
      <trkpt lat="47.37973" lon="-2.37852">
        <ele>5.4000000953674</ele>
        <time>2021-10-14T08:43:36.000Z</time>
      </trkpt>
      <trkpt lat="47.37969" lon="-2.37855">
        <ele>5.4000000953674</ele>
        <time>2021-10-14T08:43:37.000Z</time>
      </trkpt>
      <trkpt lat="47.37965" lon="-2.37859">
        <ele>5.4000000953674</ele>
        <time>2021-10-14T08:43:38.000Z</time>
      </trkpt>
      <trkpt lat="47.3794" lon="-2.37877">
        <ele>5.4000000953674</ele>
        <time>2021-10-14T08:43:43.000Z</time>
      </trkpt>
      <trkpt lat="47.37922" lon="-2.3789">
        <ele>5.4000000953674</ele>
        <time>2021-10-14T08:43:47.000Z</time>
      </trkpt>
      <trkpt lat="47.37912" lon="-2.37899">
        <ele>5.4000000953674</ele>
        <time>2021-10-14T08:43:49.000Z</time>
      </trkpt>
      <trkpt lat="47.37878" lon="-2.37924">
        <ele>5.4000000953674</ele>
        <time>2021-10-14T08:43:56.000Z</time>
      </trkpt>
      <trkpt lat="47.37841" lon="-2.37951">
        <ele>5.4000000953674</ele>
        <time>2021-10-14T08:44:03.000Z</time>
      </trkpt>
      <trkpt lat="47.37796" lon="-2.37983">
        <ele>5.4000000953674</ele>
        <time>2021-10-14T08:44:11.000Z</time>
      </trkpt>
      <trkpt lat="47.37755" lon="-2.38009">
        <ele>5.4000000953674</ele>
        <time>2021-10-14T08:44:18.000Z</time>
      </trkpt>
      <trkpt lat="47.3775" lon="-2.38013">
        <ele>5.4000000953674</ele>
        <time>2021-10-14T08:44:19.000Z</time>
      </trkpt>
      <trkpt lat="47.37717" lon="-2.38035">
        <ele>5.4000000953674</ele>
        <time>2021-10-14T08:44:25.000Z</time>
      </trkpt>
      <trkpt lat="47.37713" lon="-2.38038">
        <ele>5.4000000953674</ele>
        <time>2021-10-14T08:44:26.000Z</time>
      </trkpt>
      <trkpt lat="47.37709" lon="-2.38048">
        <ele>5.4000000953674</ele>
        <time>2021-10-14T08:44:28.000Z</time>
      </trkpt>
      <trkpt lat="47.37713" lon="-2.38061">
        <ele>5.4000000953674</ele>
        <time>2021-10-14T08:44:31.000Z</time>
      </trkpt>
      <trkpt lat="47.37715" lon="-2.38065">
        <ele>5.4000000953674</ele>
        <time>2021-10-14T08:44:32.000Z</time>
      </trkpt>
      <trkpt lat="47.37727" lon="-2.38091">
        <ele>5.4000000953674</ele>
        <time>2021-10-14T08:44:38.000Z</time>
      </trkpt>
      <trkpt lat="47.37746" lon="-2.38131">
        <ele>5.4000000953674</ele>
        <time>2021-10-14T08:44:46.000Z</time>
      </trkpt>
      <trkpt lat="47.37763" lon="-2.38172">
        <ele>5.4000000953674</ele>
        <time>2021-10-14T08:44:53.000Z</time>
      </trkpt>
      <trkpt lat="47.37779" lon="-2.38214">
        <ele>5.4000000953674</ele>
        <time>2021-10-14T08:45:00.000Z</time>
      </trkpt>
      <trkpt lat="47.37782" lon="-2.3822">
        <ele>5.4000000953674</ele>
        <time>2021-10-14T08:45:01.000Z</time>
      </trkpt>
      <trkpt lat="47.37791" lon="-2.38243">
        <ele>5.4000000953674</ele>
        <time>2021-10-14T08:45:05.000Z</time>
      </trkpt>
      <trkpt lat="47.37796" lon="-2.38254">
        <ele>5.4000000953674</ele>
        <time>2021-10-14T08:45:07.000Z</time>
      </trkpt>
      <trkpt lat="47.37807" lon="-2.38282">
        <ele>5.4000000953674</ele>
        <time>2021-10-14T08:45:12.000Z</time>
      </trkpt>
      <trkpt lat="47.3781" lon="-2.38288">
        <ele>5.4000000953674</ele>
        <time>2021-10-14T08:45:13.000Z</time>
      </trkpt>
      <trkpt lat="47.37826" lon="-2.38334">
        <ele>5.4000000953674</ele>
        <time>2021-10-14T08:45:19.000Z</time>
      </trkpt>
      <trkpt lat="47.37849" lon="-2.38395">
        <ele>5.4000000953674</ele>
        <time>2021-10-14T08:45:27.000Z</time>
      </trkpt>
      <trkpt lat="47.37869" lon="-2.38448">
        <ele>5.4000000953674</ele>
        <time>2021-10-14T08:45:35.000Z</time>
      </trkpt>
      <trkpt lat="47.37886" lon="-2.38491">
        <ele>5.4000000953674</ele>
        <time>2021-10-14T08:45:41.000Z</time>
      </trkpt>
      <trkpt lat="47.37907" lon="-2.38543">
        <ele>5.4000000953674</ele>
        <time>2021-10-14T08:45:48.000Z</time>
      </trkpt>
      <trkpt lat="47.37929" lon="-2.38601">
        <ele>5.4000000953674</ele>
        <time>2021-10-14T08:45:56.000Z</time>
      </trkpt>
      <trkpt lat="47.37946" lon="-2.38652">
        <ele>5.4000000953674</ele>
        <time>2021-10-14T08:46:03.000Z</time>
      </trkpt>
      <trkpt lat="47.37967" lon="-2.38707">
        <ele>5.4000000953674</ele>
        <time>2021-10-14T08:46:11.000Z</time>
      </trkpt>
      <trkpt lat="47.37986" lon="-2.38758">
        <ele>5.4000000953674</ele>
        <time>2021-10-14T08:46:19.000Z</time>
      </trkpt>
      <trkpt lat="47.37999" lon="-2.38788">
        <ele>5.4000000953674</ele>
        <time>2021-10-14T08:46:25.000Z</time>
      </trkpt>
      <trkpt lat="47.38005" lon="-2.38794">
        <ele>5.4000000953674</ele>
        <time>2021-10-14T08:46:30.000Z</time>
      </trkpt>
      <trkpt lat="47.38007" lon="-2.38795">
        <ele>5.4000000953674</ele>
        <time>2021-10-14T08:47:12.000Z</time>
      </trkpt>
      <trkpt lat="47.38011" lon="-2.38801">
        <ele>5.4000000953674</ele>
        <time>2021-10-14T08:47:15.000Z</time>
      </trkpt>
      <trkpt lat="47.38008" lon="-2.38819">
        <ele>5.4000000953674</ele>
        <time>2021-10-14T08:47:19.000Z</time>
      </trkpt>
      <trkpt lat="47.37994" lon="-2.38845">
        <ele>5.4000000953674</ele>
        <time>2021-10-14T08:47:24.000Z</time>
      </trkpt>
      <trkpt lat="47.37968" lon="-2.38897">
        <ele>5.4000000953674</ele>
        <time>2021-10-14T08:47:32.000Z</time>
      </trkpt>
      <trkpt lat="47.37941" lon="-2.38951">
        <ele>5.4000000953674</ele>
        <time>2021-10-14T08:47:40.000Z</time>
      </trkpt>
      <trkpt lat="47.37923" lon="-2.38983">
        <ele>5.8000001907349</ele>
        <time>2021-10-14T08:47:44.000Z</time>
      </trkpt>
      <trkpt lat="47.37919" lon="-2.3899">
        <ele>6.1999998092651</ele>
        <time>2021-10-14T08:47:45.000Z</time>
      </trkpt>
      <trkpt lat="47.37915" lon="-2.38997">
        <ele>6.5999999046326</ele>
        <time>2021-10-14T08:47:46.000Z</time>
      </trkpt>
      <trkpt lat="47.37912" lon="-2.39004">
        <ele>7</ele>
        <time>2021-10-14T08:47:47.000Z</time>
      </trkpt>
      <trkpt lat="47.37908" lon="-2.39012">
        <ele>7.4000000953674</ele>
        <time>2021-10-14T08:47:48.000Z</time>
      </trkpt>
      <trkpt lat="47.37904" lon="-2.39019">
        <ele>7.4000000953674</ele>
        <time>2021-10-14T08:47:49.000Z</time>
      </trkpt>
      <trkpt lat="47.37885" lon="-2.39055">
        <ele>7.4000000953674</ele>
        <time>2021-10-14T08:47:54.000Z</time>
      </trkpt>
      <trkpt lat="47.37867" lon="-2.39093">
        <ele>7.4000000953674</ele>
        <time>2021-10-14T08:48:00.000Z</time>
      </trkpt>
      <trkpt lat="47.37847" lon="-2.39136">
        <ele>7.4000000953674</ele>
        <time>2021-10-14T08:48:07.000Z</time>
      </trkpt>
      <trkpt lat="47.3783" lon="-2.39173">
        <ele>7.4000000953674</ele>
        <time>2021-10-14T08:48:14.000Z</time>
      </trkpt>
      <trkpt lat="47.37807" lon="-2.39221">
        <ele>7.4000000953674</ele>
        <time>2021-10-14T08:48:21.000Z</time>
      </trkpt>
      <trkpt lat="47.37782" lon="-2.39276">
        <ele>7.4000000953674</ele>
        <time>2021-10-14T08:48:28.000Z</time>
      </trkpt>
      <trkpt lat="47.3775" lon="-2.39343">
        <ele>7.4000000953674</ele>
        <time>2021-10-14T08:48:36.000Z</time>
      </trkpt>
      <trkpt lat="47.37716" lon="-2.39415">
        <ele>7.4000000953674</ele>
        <time>2021-10-14T08:48:45.000Z</time>
      </trkpt>
      <trkpt lat="47.37686" lon="-2.39479">
        <ele>7.4000000953674</ele>
        <time>2021-10-14T08:48:53.000Z</time>
      </trkpt>
      <trkpt lat="47.37653" lon="-2.39549">
        <ele>7.4000000953674</ele>
        <time>2021-10-14T08:49:02.000Z</time>
      </trkpt>
      <trkpt lat="47.37628" lon="-2.39604">
        <ele>7.4000000953674</ele>
        <time>2021-10-14T08:49:09.000Z</time>
      </trkpt>
      <trkpt lat="47.37599" lon="-2.39666">
        <ele>7.4000000953674</ele>
        <time>2021-10-14T08:49:17.000Z</time>
      </trkpt>
      <trkpt lat="47.3757" lon="-2.39725">
        <ele>7.4000000953674</ele>
        <time>2021-10-14T08:49:25.000Z</time>
      </trkpt>
      <trkpt lat="47.3754" lon="-2.39789">
        <ele>7.4000000953674</ele>
        <time>2021-10-14T08:49:33.000Z</time>
      </trkpt>
      <trkpt lat="47.37518" lon="-2.39836">
        <ele>7.4000000953674</ele>
        <time>2021-10-14T08:49:39.000Z</time>
      </trkpt>
      <trkpt lat="47.37494" lon="-2.39891">
        <ele>7.4000000953674</ele>
        <time>2021-10-14T08:49:46.000Z</time>
      </trkpt>
      <trkpt lat="47.37471" lon="-2.39943">
        <ele>7.4000000953674</ele>
        <time>2021-10-14T08:49:53.000Z</time>
      </trkpt>
      <trkpt lat="47.37439" lon="-2.40012">
        <ele>7.4000000953674</ele>
        <time>2021-10-14T08:50:02.000Z</time>
      </trkpt>
      <trkpt lat="47.37416" lon="-2.40064">
        <ele>7.4000000953674</ele>
        <time>2021-10-14T08:50:09.000Z</time>
      </trkpt>
      <trkpt lat="47.37415" lon="-2.40072">
        <ele>7.4000000953674</ele>
        <time>2021-10-14T08:50:10.000Z</time>
      </trkpt>
      <trkpt lat="47.37422" lon="-2.40095">
        <ele>7.4000000953674</ele>
        <time>2021-10-14T08:50:13.000Z</time>
      </trkpt>
      <trkpt lat="47.37424" lon="-2.40103">
        <ele>7.4000000953674</ele>
        <time>2021-10-14T08:50:14.000Z</time>
      </trkpt>
      <trkpt lat="47.37425" lon="-2.40131">
        <ele>7.4000000953674</ele>
        <time>2021-10-14T08:50:17.000Z</time>
      </trkpt>
      <trkpt lat="47.37419" lon="-2.40165">
        <ele>7.4000000953674</ele>
        <time>2021-10-14T08:50:21.000Z</time>
      </trkpt>
      <trkpt lat="47.37417" lon="-2.40174">
        <ele>7.4000000953674</ele>
        <time>2021-10-14T08:50:22.000Z</time>
      </trkpt>
      <trkpt lat="47.37415" lon="-2.40191">
        <ele>7.4000000953674</ele>
        <time>2021-10-14T08:50:24.000Z</time>
      </trkpt>
      <trkpt lat="47.37413" lon="-2.40225">
        <ele>7.4000000953674</ele>
        <time>2021-10-14T08:50:28.000Z</time>
      </trkpt>
      <trkpt lat="47.37419" lon="-2.40273">
        <ele>7.4000000953674</ele>
        <time>2021-10-14T08:50:34.000Z</time>
      </trkpt>
      <trkpt lat="47.3743" lon="-2.40351">
        <ele>7.4000000953674</ele>
        <time>2021-10-14T08:50:43.000Z</time>
      </trkpt>
      <trkpt lat="47.37439" lon="-2.40414">
        <ele>7.4000000953674</ele>
        <time>2021-10-14T08:50:50.000Z</time>
      </trkpt>
      <trkpt lat="47.3745" lon="-2.40492">
        <ele>7.4000000953674</ele>
        <time>2021-10-14T08:50:59.000Z</time>
      </trkpt>
      <trkpt lat="47.37461" lon="-2.40564">
        <ele>7.4000000953674</ele>
        <time>2021-10-14T08:51:07.000Z</time>
      </trkpt>
      <trkpt lat="47.37472" lon="-2.40641">
        <ele>7.4000000953674</ele>
        <time>2021-10-14T08:51:15.000Z</time>
      </trkpt>
      <trkpt lat="47.37485" lon="-2.40725">
        <ele>7.4000000953674</ele>
        <time>2021-10-14T08:51:24.000Z</time>
      </trkpt>
      <trkpt lat="47.37494" lon="-2.40794">
        <ele>7.4000000953674</ele>
        <time>2021-10-14T08:51:32.000Z</time>
      </trkpt>
      <trkpt lat="47.375" lon="-2.4083">
        <ele>7.4000000953674</ele>
        <time>2021-10-14T08:51:37.000Z</time>
      </trkpt>
      <trkpt lat="47.37504" lon="-2.40848">
        <ele>7.4000000953674</ele>
        <time>2021-10-14T08:51:40.000Z</time>
      </trkpt>
      <trkpt lat="47.37505" lon="-2.40854">
        <ele>7.4000000953674</ele>
        <time>2021-10-14T08:51:41.000Z</time>
      </trkpt>
      <trkpt lat="47.37507" lon="-2.40866">
        <ele>7.4000000953674</ele>
        <time>2021-10-14T08:51:43.000Z</time>
      </trkpt>
      <trkpt lat="47.37509" lon="-2.4088">
        <ele>7.4000000953674</ele>
        <time>2021-10-14T08:51:45.000Z</time>
      </trkpt>
      <trkpt lat="47.37517" lon="-2.40932">
        <ele>7.4000000953674</ele>
        <time>2021-10-14T08:51:51.000Z</time>
      </trkpt>
      <trkpt lat="47.37524" lon="-2.41001">
        <ele>7.4000000953674</ele>
        <time>2021-10-14T08:51:58.000Z</time>
      </trkpt>
      <trkpt lat="47.37531" lon="-2.41064">
        <ele>7.4000000953674</ele>
        <time>2021-10-14T08:52:05.000Z</time>
      </trkpt>
      <trkpt lat="47.37539" lon="-2.41135">
        <ele>7.4000000953674</ele>
        <time>2021-10-14T08:52:12.000Z</time>
      </trkpt>
      <trkpt lat="47.37546" lon="-2.41217">
        <ele>7.4000000953674</ele>
        <time>2021-10-14T08:52:20.000Z</time>
      </trkpt>
      <trkpt lat="47.3755" lon="-2.4125">
        <ele>7</ele>
        <time>2021-10-14T08:52:24.000Z</time>
      </trkpt>
      <trkpt lat="47.37551" lon="-2.41258">
        <ele>6.5999999046326</ele>
        <time>2021-10-14T08:52:25.000Z</time>
      </trkpt>
      <trkpt lat="47.37552" lon="-2.41266">
        <ele>6.1999998092651</ele>
        <time>2021-10-14T08:52:26.000Z</time>
      </trkpt>
      <trkpt lat="47.37551" lon="-2.41274">
        <ele>5.8000001907349</ele>
        <time>2021-10-14T08:52:27.000Z</time>
      </trkpt>
      <trkpt lat="47.37551" lon="-2.41281">
        <ele>5.4000000953674</ele>
        <time>2021-10-14T08:52:28.000Z</time>
      </trkpt>
      <trkpt lat="47.37552" lon="-2.41295">
        <ele>5.4000000953674</ele>
        <time>2021-10-14T08:52:30.000Z</time>
      </trkpt>
      <trkpt lat="47.37552" lon="-2.41309">
        <ele>5.4000000953674</ele>
        <time>2021-10-14T08:52:32.000Z</time>
      </trkpt>
      <trkpt lat="47.37548" lon="-2.41323">
        <ele>5.4000000953674</ele>
        <time>2021-10-14T08:52:35.000Z</time>
      </trkpt>
      <trkpt lat="47.3753" lon="-2.41346">
        <ele>5.4000000953674</ele>
        <time>2021-10-14T08:52:39.000Z</time>
      </trkpt>
      <trkpt lat="47.37501" lon="-2.41384">
        <ele>4.8000001907349</ele>
        <time>2021-10-14T08:52:45.000Z</time>
      </trkpt>
      <trkpt lat="47.37495" lon="-2.41391">
        <ele>4.4000000953674</ele>
        <time>2021-10-14T08:52:46.000Z</time>
      </trkpt>
      <trkpt lat="47.37489" lon="-2.41397">
        <ele>4</ele>
        <time>2021-10-14T08:52:47.000Z</time>
      </trkpt>
      <trkpt lat="47.37483" lon="-2.41403">
        <ele>3.5999999046326</ele>
        <time>2021-10-14T08:52:48.000Z</time>
      </trkpt>
      <trkpt lat="47.37477" lon="-2.4141">
        <ele>3.2000000476837</ele>
        <time>2021-10-14T08:52:49.000Z</time>
      </trkpt>
      <trkpt lat="47.37455" lon="-2.41436">
        <ele>3.2000000476837</ele>
        <time>2021-10-14T08:52:53.000Z</time>
      </trkpt>
      <trkpt lat="47.37444" lon="-2.41449">
        <ele>2.7999999523163</ele>
        <time>2021-10-14T08:52:55.000Z</time>
      </trkpt>
      <trkpt lat="47.37437" lon="-2.41456">
        <ele>2</ele>
        <time>2021-10-14T08:52:56.000Z</time>
      </trkpt>
      <trkpt lat="47.37431" lon="-2.41463">
        <ele>1.6000000238419</ele>
        <time>2021-10-14T08:52:57.000Z</time>
      </trkpt>
      <trkpt lat="47.37425" lon="-2.4147">
        <ele>1</ele>
        <time>2021-10-14T08:52:58.000Z</time>
      </trkpt>
      <trkpt lat="47.37419" lon="-2.41478">
        <ele>1</ele>
        <time>2021-10-14T08:52:59.000Z</time>
      </trkpt>
      <trkpt lat="47.37413" lon="-2.41487">
        <ele>0.60000002384186</ele>
        <time>2021-10-14T08:53:00.000Z</time>
      </trkpt>
      <trkpt lat="47.37407" lon="-2.41497">
        <ele>0.20000000298023</ele>
        <time>2021-10-14T08:53:01.000Z</time>
      </trkpt>
      <trkpt lat="47.37401" lon="-2.41507">
        <ele>-0.20000000298023</ele>
        <time>2021-10-14T08:53:02.000Z</time>
      </trkpt>
      <trkpt lat="47.37395" lon="-2.41517">
        <ele>-0.60000002384186</ele>
        <time>2021-10-14T08:53:03.000Z</time>
      </trkpt>
      <trkpt lat="47.3739" lon="-2.41527">
        <ele>-1</ele>
        <time>2021-10-14T08:53:04.000Z</time>
      </trkpt>
      <trkpt lat="47.37357" lon="-2.41592">
        <ele>-1</ele>
        <time>2021-10-14T08:53:11.000Z</time>
      </trkpt>
      <trkpt lat="47.37346" lon="-2.41614">
        <ele>-1.3999999761581</ele>
        <time>2021-10-14T08:53:14.000Z</time>
      </trkpt>
      <trkpt lat="47.37343" lon="-2.41622">
        <ele>-2</ele>
        <time>2021-10-14T08:53:15.000Z</time>
      </trkpt>
      <trkpt lat="47.3734" lon="-2.41629">
        <ele>-2.4000000953674</ele>
        <time>2021-10-14T08:53:16.000Z</time>
      </trkpt>
      <trkpt lat="47.37337" lon="-2.41638">
        <ele>-2.7999999523163</ele>
        <time>2021-10-14T08:53:17.000Z</time>
      </trkpt>
      <trkpt lat="47.37334" lon="-2.41646">
        <ele>-3.2000000476837</ele>
        <time>2021-10-14T08:53:18.000Z</time>
      </trkpt>
      <trkpt lat="47.37323" lon="-2.41698">
        <ele>-3.2000000476837</ele>
        <time>2021-10-14T08:53:24.000Z</time>
      </trkpt>
      <trkpt lat="47.37311" lon="-2.4176">
        <ele>-3.2000000476837</ele>
        <time>2021-10-14T08:53:32.000Z</time>
      </trkpt>
      <trkpt lat="47.37291" lon="-2.41802">
        <ele>-3.2000000476837</ele>
        <time>2021-10-14T08:53:38.000Z</time>
      </trkpt>
      <trkpt lat="47.37284" lon="-2.41818">
        <ele>-2.7999999523163</ele>
        <time>2021-10-14T08:53:40.000Z</time>
      </trkpt>
      <trkpt lat="47.3728" lon="-2.41826">
        <ele>-2.4000000953674</ele>
        <time>2021-10-14T08:53:41.000Z</time>
      </trkpt>
      <trkpt lat="47.37277" lon="-2.41834">
        <ele>-2</ele>
        <time>2021-10-14T08:53:42.000Z</time>
      </trkpt>
      <trkpt lat="47.37274" lon="-2.41842">
        <ele>-1.6000000238419</ele>
        <time>2021-10-14T08:53:43.000Z</time>
      </trkpt>
      <trkpt lat="47.37272" lon="-2.41849">
        <ele>-1.2000000476837</ele>
        <time>2021-10-14T08:53:44.000Z</time>
      </trkpt>
      <trkpt lat="47.37262" lon="-2.41903">
        <ele>-1.2000000476837</ele>
        <time>2021-10-14T08:53:51.000Z</time>
      </trkpt>
      <trkpt lat="47.37261" lon="-2.4191">
        <ele>-0.80000001192093</ele>
        <time>2021-10-14T08:53:52.000Z</time>
      </trkpt>
      <trkpt lat="47.37259" lon="-2.41918">
        <ele>-0.40000000596046</ele>
        <time>2021-10-14T08:53:53.000Z</time>
      </trkpt>
      <trkpt lat="47.37258" lon="-2.41925">
        <ele>0.20000000298023</ele>
        <time>2021-10-14T08:53:54.000Z</time>
      </trkpt>
      <trkpt lat="47.37257" lon="-2.41933">
        <ele>0.60000002384186</ele>
        <time>2021-10-14T08:53:55.000Z</time>
      </trkpt>
      <trkpt lat="47.37256" lon="-2.41941">
        <ele>1</ele>
        <time>2021-10-14T08:53:56.000Z</time>
      </trkpt>
      <trkpt lat="47.37255" lon="-2.41955">
        <ele>1</ele>
        <time>2021-10-14T08:53:58.000Z</time>
      </trkpt>
      <trkpt lat="47.37246" lon="-2.42022">
        <ele>1</ele>
        <time>2021-10-14T08:54:07.000Z</time>
      </trkpt>
      <trkpt lat="47.37243" lon="-2.42039">
        <ele>1</ele>
        <time>2021-10-14T08:54:09.000Z</time>
      </trkpt>
      <trkpt lat="47.37232" lon="-2.42067">
        <ele>1</ele>
        <time>2021-10-14T08:54:12.000Z</time>
      </trkpt>
      <trkpt lat="47.37218" lon="-2.42089">
        <ele>1</ele>
        <time>2021-10-14T08:54:15.000Z</time>
      </trkpt>
      <trkpt lat="47.37212" lon="-2.42097">
        <ele>1</ele>
        <time>2021-10-14T08:54:16.000Z</time>
      </trkpt>
      <trkpt lat="47.37191" lon="-2.42139">
        <ele>1</ele>
        <time>2021-10-14T08:54:21.000Z</time>
      </trkpt>
      <trkpt lat="47.37179" lon="-2.42185">
        <ele>1</ele>
        <time>2021-10-14T08:54:26.000Z</time>
      </trkpt>
      <trkpt lat="47.37172" lon="-2.42227">
        <ele>1</ele>
        <time>2021-10-14T08:54:31.000Z</time>
      </trkpt>
      <trkpt lat="47.37161" lon="-2.42278">
        <ele>1</ele>
        <time>2021-10-14T08:54:37.000Z</time>
      </trkpt>
      <trkpt lat="47.37146" lon="-2.42326">
        <ele>1</ele>
        <time>2021-10-14T08:54:42.000Z</time>
      </trkpt>
      <trkpt lat="47.37123" lon="-2.42379">
        <ele>1</ele>
        <time>2021-10-14T08:54:48.000Z</time>
      </trkpt>
      <trkpt lat="47.37105" lon="-2.42444">
        <ele>1</ele>
        <time>2021-10-14T08:54:54.000Z</time>
      </trkpt>
      <trkpt lat="47.37103" lon="-2.42489">
        <ele>1</ele>
        <time>2021-10-14T08:54:58.000Z</time>
      </trkpt>
      <trkpt lat="47.37106" lon="-2.42551">
        <ele>1</ele>
        <time>2021-10-14T08:55:04.000Z</time>
      </trkpt>
      <trkpt lat="47.37114" lon="-2.42616">
        <ele>1</ele>
        <time>2021-10-14T08:55:10.000Z</time>
      </trkpt>
      <trkpt lat="47.37127" lon="-2.42687">
        <ele>1</ele>
        <time>2021-10-14T08:55:16.000Z</time>
      </trkpt>
      <trkpt lat="47.37127" lon="-2.42698">
        <ele>0.60000002384186</ele>
        <time>2021-10-14T08:55:17.000Z</time>
      </trkpt>
      <trkpt lat="47.37126" lon="-2.42708">
        <ele>0.20000000298023</ele>
        <time>2021-10-14T08:55:18.000Z</time>
      </trkpt>
      <trkpt lat="47.37123" lon="-2.42718">
        <ele>-0.40000000596046</ele>
        <time>2021-10-14T08:55:19.000Z</time>
      </trkpt>
      <trkpt lat="47.37119" lon="-2.42727">
        <ele>-0.80000001192093</ele>
        <time>2021-10-14T08:55:20.000Z</time>
      </trkpt>
      <trkpt lat="47.37114" lon="-2.42736">
        <ele>-1.2000000476837</ele>
        <time>2021-10-14T08:55:21.000Z</time>
      </trkpt>
      <trkpt lat="47.37109" lon="-2.42744">
        <ele>-1.2000000476837</ele>
        <time>2021-10-14T08:55:22.000Z</time>
      </trkpt>
      <trkpt lat="47.37103" lon="-2.42753">
        <ele>-1.2000000476837</ele>
        <time>2021-10-14T08:55:23.000Z</time>
      </trkpt>
      <trkpt lat="47.37089" lon="-2.4278">
        <ele>-1.2000000476837</ele>
        <time>2021-10-14T08:55:27.000Z</time>
      </trkpt>
      <trkpt lat="47.37083" lon="-2.42808">
        <ele>-1.2000000476837</ele>
        <time>2021-10-14T08:55:32.000Z</time>
      </trkpt>
      <trkpt lat="47.37083" lon="-2.42846">
        <ele>-1.2000000476837</ele>
        <time>2021-10-14T08:55:38.000Z</time>
      </trkpt>
      <trkpt lat="47.37084" lon="-2.42858">
        <ele>-0.80000001192093</ele>
        <time>2021-10-14T08:55:40.000Z</time>
      </trkpt>
      <trkpt lat="47.37085" lon="-2.42864">
        <ele>-0.40000000596046</ele>
        <time>2021-10-14T08:55:41.000Z</time>
      </trkpt>
      <trkpt lat="47.37085" lon="-2.4287">
        <ele>12.1</ele>
        <time>2021-10-14T08:55:42.000Z</time>
      </trkpt>
      <trkpt lat="47.37086" lon="-2.42876">
        <ele>0.40000000596046</ele>
        <time>2021-10-14T08:55:43.000Z</time>
      </trkpt>
      <trkpt lat="47.37087" lon="-2.42882">
        <ele>0.80000001192093</ele>
        <time>2021-10-14T08:55:44.000Z</time>
      </trkpt>
      <trkpt lat="47.37091" lon="-2.42901">
        <ele>0.80000001192093</ele>
        <time>2021-10-14T08:55:47.000Z</time>
      </trkpt>
      <trkpt lat="47.37096" lon="-2.42936">
        <ele>0.80000001192093</ele>
        <time>2021-10-14T08:55:52.000Z</time>
      </trkpt>
      <trkpt lat="47.37098" lon="-2.42943">
        <ele>1.2000000476837</ele>
        <time>2021-10-14T08:55:53.000Z</time>
      </trkpt>
      <trkpt lat="47.37099" lon="-2.42949">
        <ele>1.7999999523163</ele>
        <time>2021-10-14T08:55:54.000Z</time>
      </trkpt>
      <trkpt lat="47.37099" lon="-2.42956">
        <ele>2.2000000476837</ele>
        <time>2021-10-14T08:55:55.000Z</time>
      </trkpt>
      <trkpt lat="47.37101" lon="-2.42962">
        <ele>2.5999999046326</ele>
        <time>2021-10-14T08:55:56.000Z</time>
      </trkpt>
      <trkpt lat="47.37102" lon="-2.42968">
        <ele>3</ele>
        <time>2021-10-14T08:55:57.000Z</time>
      </trkpt>
      <trkpt lat="47.37104" lon="-2.42973">
        <ele>3</ele>
        <time>2021-10-14T08:55:58.000Z</time>
      </trkpt>
      <trkpt lat="47.37111" lon="-2.42995">
        <ele>3</ele>
        <time>2021-10-14T08:56:02.000Z</time>
      </trkpt>
      <trkpt lat="47.37119" lon="-2.4301">
        <ele>3</ele>
        <time>2021-10-14T08:56:05.000Z</time>
      </trkpt>
      <trkpt lat="47.37125" lon="-2.43019">
        <ele>3.4000000953674</ele>
        <time>2021-10-14T08:56:07.000Z</time>
      </trkpt>
      <trkpt lat="47.37128" lon="-2.43024">
        <ele>3.7999999523163</ele>
        <time>2021-10-14T08:56:08.000Z</time>
      </trkpt>
      <trkpt lat="47.37131" lon="-2.43028">
        <ele>4.1999998092651</ele>
        <time>2021-10-14T08:56:09.000Z</time>
      </trkpt>
      <trkpt lat="47.37135" lon="-2.43032">
        <ele>4.5999999046326</ele>
        <time>2021-10-14T08:56:10.000Z</time>
      </trkpt>
      <trkpt lat="47.37139" lon="-2.43037">
        <ele>5.1999998092651</ele>
        <time>2021-10-14T08:56:11.000Z</time>
      </trkpt>
      <trkpt lat="47.37142" lon="-2.43042">
        <ele>5.1999998092651</ele>
        <time>2021-10-14T08:56:12.000Z</time>
      </trkpt>
      <trkpt lat="47.37155" lon="-2.43058">
        <ele>5.5999999046326</ele>
        <time>2021-10-14T08:56:16.000Z</time>
      </trkpt>
      <trkpt lat="47.37159" lon="-2.43062">
        <ele>6</ele>
        <time>2021-10-14T08:56:17.000Z</time>
      </trkpt>
      <trkpt lat="47.37162" lon="-2.43066">
        <ele>6.4000000953674</ele>
        <time>2021-10-14T08:56:18.000Z</time>
      </trkpt>
      <trkpt lat="47.37166" lon="-2.4307">
        <ele>6.8000001907349</ele>
        <time>2021-10-14T08:56:19.000Z</time>
      </trkpt>
      <trkpt lat="47.37169" lon="-2.43075">
        <ele>7.1999998092651</ele>
        <time>2021-10-14T08:56:20.000Z</time>
      </trkpt>
      <trkpt lat="47.37172" lon="-2.43079">
        <ele>7.1999998092651</ele>
        <time>2021-10-14T08:56:21.000Z</time>
      </trkpt>
      <trkpt lat="47.37197" lon="-2.43107">
        <ele>7.5999999046326</ele>
        <time>2021-10-14T08:56:28.000Z</time>
      </trkpt>
      <trkpt lat="47.372" lon="-2.43112">
        <ele>8</ele>
        <time>2021-10-14T08:56:29.000Z</time>
      </trkpt>
      <trkpt lat="47.37204" lon="-2.43116">
        <ele>8.3999996185303</ele>
        <time>2021-10-14T08:56:30.000Z</time>
      </trkpt>
      <trkpt lat="47.37207" lon="-2.4312">
        <ele>8.8000001907349</ele>
        <time>2021-10-14T08:56:31.000Z</time>
      </trkpt>
      <trkpt lat="47.3721" lon="-2.43124">
        <ele>9.1999998092651</ele>
        <time>2021-10-14T08:56:32.000Z</time>
      </trkpt>
      <trkpt lat="47.37222" lon="-2.43138">
        <ele>9.1999998092651</ele>
        <time>2021-10-14T08:56:36.000Z</time>
      </trkpt>
      <trkpt lat="47.37245" lon="-2.43169">
        <ele>9.1999998092651</ele>
        <time>2021-10-14T08:56:43.000Z</time>
      </trkpt>
      <trkpt lat="47.37266" lon="-2.43198">
        <ele>9.1999998092651</ele>
        <time>2021-10-14T08:56:49.000Z</time>
      </trkpt>
      <trkpt lat="47.37286" lon="-2.43231">
        <ele>9.1999998092651</ele>
        <time>2021-10-14T08:56:55.000Z</time>
      </trkpt>
      <trkpt lat="47.37304" lon="-2.43263">
        <ele>9.1999998092651</ele>
        <time>2021-10-14T08:57:02.000Z</time>
      </trkpt>
      <trkpt lat="47.37319" lon="-2.43285">
        <ele>9.1999998092651</ele>
        <time>2021-10-14T08:57:09.000Z</time>
      </trkpt>
      <trkpt lat="47.37321" lon="-2.4329">
        <ele>9.1999998092651</ele>
        <time>2021-10-14T08:57:13.000Z</time>
      </trkpt>
      <trkpt lat="47.37325" lon="-2.43294">
        <ele>11.199999809265</ele>
        <time>2021-10-14T08:57:58.000Z</time>
      </trkpt>
      <trkpt lat="47.37326" lon="-2.43295">
        <ele>11.199999809265</ele>
        <time>2021-10-14T08:57:59.000Z</time>
      </trkpt>
      <trkpt lat="47.37328" lon="-2.43295">
        <ele>11.199999809265</ele>
        <time>2021-10-14T08:58:00.000Z</time>
      </trkpt>
      <trkpt lat="47.3734" lon="-2.43294">
        <ele>11.199999809265</ele>
        <time>2021-10-14T08:58:04.000Z</time>
      </trkpt>
      <trkpt lat="47.37359" lon="-2.433">
        <ele>11.199999809265</ele>
        <time>2021-10-14T08:58:09.000Z</time>
      </trkpt>
      <trkpt lat="47.37362" lon="-2.43305">
        <ele>11.199999809265</ele>
        <time>2021-10-14T08:58:10.000Z</time>
      </trkpt>
      <trkpt lat="47.37365" lon="-2.43316">
        <ele>11.199999809265</ele>
        <time>2021-10-14T08:58:12.000Z</time>
      </trkpt>
      <trkpt lat="47.37368" lon="-2.43336">
        <ele>11.199999809265</ele>
        <time>2021-10-14T08:58:16.000Z</time>
      </trkpt>
      <trkpt lat="47.37369" lon="-2.43347">
        <ele>11.199999809265</ele>
        <time>2021-10-14T08:58:18.000Z</time>
      </trkpt>
      <trkpt lat="47.37371" lon="-2.43385">
        <ele>11.199999809265</ele>
        <time>2021-10-14T08:58:25.000Z</time>
      </trkpt>
      <trkpt lat="47.37374" lon="-2.43424">
        <ele>11.199999809265</ele>
        <time>2021-10-14T08:58:31.000Z</time>
      </trkpt>
      <trkpt lat="47.37377" lon="-2.43453">
        <ele>11.199999809265</ele>
        <time>2021-10-14T08:58:35.000Z</time>
      </trkpt>
      <trkpt lat="47.37375" lon="-2.43465">
        <ele>11.199999809265</ele>
        <time>2021-10-14T08:58:37.000Z</time>
      </trkpt>
      <trkpt lat="47.37371" lon="-2.43469">
        <ele>11.199999809265</ele>
        <time>2021-10-14T08:58:38.000Z</time>
      </trkpt>
      <trkpt lat="47.37362" lon="-2.43474">
        <ele>11.199999809265</ele>
        <time>2021-10-14T08:58:40.000Z</time>
      </trkpt>
      <trkpt lat="47.37323" lon="-2.43495">
        <ele>11.199999809265</ele>
        <time>2021-10-14T08:58:48.000Z</time>
      </trkpt>
      <trkpt lat="47.37298" lon="-2.43511">
        <ele>11.60000038147</ele>
        <time>2021-10-14T08:58:53.000Z</time>
      </trkpt>
      <trkpt lat="47.37293" lon="-2.43514">
        <ele>12</ele>
        <time>2021-10-14T08:58:54.000Z</time>
      </trkpt>
      <trkpt lat="47.37288" lon="-2.43516">
        <ele>12.39999961853</ele>
        <time>2021-10-14T08:58:55.000Z</time>
      </trkpt>
      <trkpt lat="47.37283" lon="-2.43519">
        <ele>12.800000190735</ele>
        <time>2021-10-14T08:58:56.000Z</time>
      </trkpt>
      <trkpt lat="47.37278" lon="-2.43522">
        <ele>13.199999809265</ele>
        <time>2021-10-14T08:58:57.000Z</time>
      </trkpt>
      <trkpt lat="47.37245" lon="-2.43543">
        <ele>13.199999809265</ele>
        <time>2021-10-14T08:59:04.000Z</time>
      </trkpt>
      <trkpt lat="47.37236" lon="-2.43569">
        <ele>13.199999809265</ele>
        <time>2021-10-14T08:59:08.000Z</time>
      </trkpt>
      <trkpt lat="47.37239" lon="-2.43593">
        <ele>13.199999809265</ele>
        <time>2021-10-14T08:59:11.000Z</time>
      </trkpt>
      <trkpt lat="47.37241" lon="-2.43601">
        <ele>13.199999809265</ele>
        <time>2021-10-14T08:59:12.000Z</time>
      </trkpt>
      <trkpt lat="47.37256" lon="-2.43655">
        <ele>13.199999809265</ele>
        <time>2021-10-14T08:59:19.000Z</time>
      </trkpt>
      <trkpt lat="47.37272" lon="-2.43712">
        <ele>13.199999809265</ele>
        <time>2021-10-14T08:59:26.000Z</time>
      </trkpt>
      <trkpt lat="47.37293" lon="-2.43787">
        <ele>13.199999809265</ele>
        <time>2021-10-14T08:59:36.000Z</time>
      </trkpt>
      <trkpt lat="47.37295" lon="-2.43794">
        <ele>12.800000190735</ele>
        <time>2021-10-14T08:59:37.000Z</time>
      </trkpt>
      <trkpt lat="47.37297" lon="-2.43802">
        <ele>12.39999961853</ele>
        <time>2021-10-14T08:59:38.000Z</time>
      </trkpt>
      <trkpt lat="47.373" lon="-2.4381">
        <ele>12</ele>
        <time>2021-10-14T08:59:39.000Z</time>
      </trkpt>
      <trkpt lat="47.37302" lon="-2.43817">
        <ele>11.60000038147</ele>
        <time>2021-10-14T08:59:40.000Z</time>
      </trkpt>
      <trkpt lat="47.37304" lon="-2.43825">
        <ele>11.199999809265</ele>
        <time>2021-10-14T08:59:41.000Z</time>
      </trkpt>
      <trkpt lat="47.37313" lon="-2.43858">
        <ele>11.199999809265</ele>
        <time>2021-10-14T08:59:45.000Z</time>
      </trkpt>
      <trkpt lat="47.37321" lon="-2.43889">
        <ele>10.60000038147</ele>
        <time>2021-10-14T08:59:48.000Z</time>
      </trkpt>
      <trkpt lat="47.37324" lon="-2.439">
        <ele>10.199999809265</ele>
        <time>2021-10-14T08:59:49.000Z</time>
      </trkpt>
      <trkpt lat="47.37327" lon="-2.43912">
        <ele>9.8000001907349</ele>
        <time>2021-10-14T08:59:50.000Z</time>
      </trkpt>
      <trkpt lat="47.3733" lon="-2.43924">
        <ele>9.3999996185303</ele>
        <time>2021-10-14T08:59:51.000Z</time>
      </trkpt>
      <trkpt lat="47.37334" lon="-2.43936">
        <ele>9</ele>
        <time>2021-10-14T08:59:52.000Z</time>
      </trkpt>
      <trkpt lat="47.37337" lon="-2.43949">
        <ele>8.3999996185303</ele>
        <time>2021-10-14T08:59:53.000Z</time>
      </trkpt>
      <trkpt lat="47.3734" lon="-2.43963">
        <ele>8</ele>
        <time>2021-10-14T08:59:54.000Z</time>
      </trkpt>
      <trkpt lat="47.37344" lon="-2.43976">
        <ele>7.4000000953674</ele>
        <time>2021-10-14T08:59:55.000Z</time>
      </trkpt>
      <trkpt lat="47.37347" lon="-2.43988">
        <ele>6.1999998092651</ele>
        <time>2021-10-14T08:59:56.000Z</time>
      </trkpt>
      <trkpt lat="47.37351" lon="-2.43999">
        <ele>5.4000000953674</ele>
        <time>2021-10-14T08:59:57.000Z</time>
      </trkpt>
      <trkpt lat="47.37354" lon="-2.44009">
        <ele>4.8000001907349</ele>
        <time>2021-10-14T08:59:58.000Z</time>
      </trkpt>
      <trkpt lat="47.37356" lon="-2.44017">
        <ele>4.1999998092651</ele>
        <time>2021-10-14T08:59:59.000Z</time>
      </trkpt>
      <trkpt lat="47.37357" lon="-2.44022">
        <ele>3.5999999046326</ele>
        <time>2021-10-14T09:00:00.000Z</time>
      </trkpt>
      <trkpt lat="47.37358" lon="-2.44025">
        <ele>3.2000000476837</ele>
        <time>2021-10-14T09:00:01.000Z</time>
      </trkpt>
      <trkpt lat="47.37358" lon="-2.44026">
        <ele>2.5999999046326</ele>
        <time>2021-10-14T09:00:02.000Z</time>
      </trkpt>
      <trkpt lat="47.37358" lon="-2.44028">
        <ele>2.2000000476837</ele>
        <time>2021-10-14T09:00:03.000Z</time>
      </trkpt>
      <trkpt lat="47.37358" lon="-2.44029">
        <ele>1.7999999523163</ele>
        <time>2021-10-14T09:00:04.000Z</time>
      </trkpt>
      <trkpt lat="47.37354" lon="-2.44031">
        <ele>1.7999999523163</ele>
        <time>2021-10-14T09:00:06.000Z</time>
      </trkpt>
      <trkpt lat="47.37345" lon="-2.44024">
        <ele>1.7999999523163</ele>
        <time>2021-10-14T09:00:10.000Z</time>
      </trkpt>
      <trkpt lat="47.37341" lon="-2.44021">
        <ele>1.7999999523163</ele>
        <time>2021-10-14T09:00:11.000Z</time>
      </trkpt>
      <trkpt lat="47.37324" lon="-2.44009">
        <ele>1.7999999523163</ele>
        <time>2021-10-14T09:00:15.000Z</time>
      </trkpt>
      <trkpt lat="47.37289" lon="-2.43987">
        <ele>1.7999999523163</ele>
        <time>2021-10-14T09:00:22.000Z</time>
      </trkpt>
      <trkpt lat="47.37284" lon="-2.43984">
        <ele>1.7999999523163</ele>
        <time>2021-10-14T09:00:23.000Z</time>
      </trkpt>
      <trkpt lat="47.37264" lon="-2.43971">
        <ele>1.7999999523163</ele>
        <time>2021-10-14T09:00:27.000Z</time>
      </trkpt>
      <trkpt lat="47.3724" lon="-2.43957">
        <ele>2.2000000476837</ele>
        <time>2021-10-14T09:00:32.000Z</time>
      </trkpt>
      <trkpt lat="47.37235" lon="-2.43955">
        <ele>2.5999999046326</ele>
        <time>2021-10-14T09:00:33.000Z</time>
      </trkpt>
      <trkpt lat="47.3723" lon="-2.43952">
        <ele>3</ele>
        <time>2021-10-14T09:00:34.000Z</time>
      </trkpt>
      <trkpt lat="47.37225" lon="-2.43949">
        <ele>3.4000000953674</ele>
        <time>2021-10-14T09:00:35.000Z</time>
      </trkpt>
      <trkpt lat="47.3722" lon="-2.43947">
        <ele>3.7999999523163</ele>
        <time>2021-10-14T09:00:36.000Z</time>
      </trkpt>
      <trkpt lat="47.37201" lon="-2.43937">
        <ele>4.1999998092651</ele>
        <time>2021-10-14T09:00:40.000Z</time>
      </trkpt>
      <trkpt lat="47.37196" lon="-2.43934">
        <ele>4.5999999046326</ele>
        <time>2021-10-14T09:00:41.000Z</time>
      </trkpt>
      <trkpt lat="47.37192" lon="-2.43931">
        <ele>5</ele>
        <time>2021-10-14T09:00:42.000Z</time>
      </trkpt>
      <trkpt lat="47.37187" lon="-2.43928">
        <ele>5.4000000953674</ele>
        <time>2021-10-14T09:00:43.000Z</time>
      </trkpt>
      <trkpt lat="47.37182" lon="-2.43926">
        <ele>5.8000001907349</ele>
        <time>2021-10-14T09:00:44.000Z</time>
      </trkpt>
      <trkpt lat="47.37158" lon="-2.43912">
        <ele>5.8000001907349</ele>
        <time>2021-10-14T09:00:49.000Z</time>
      </trkpt>
      <trkpt lat="47.37154" lon="-2.43909">
        <ele>6.1999998092651</ele>
        <time>2021-10-14T09:00:50.000Z</time>
      </trkpt>
      <trkpt lat="47.37149" lon="-2.43907">
        <ele>6.5999999046326</ele>
        <time>2021-10-14T09:00:51.000Z</time>
      </trkpt>
      <trkpt lat="47.37145" lon="-2.43905">
        <ele>7</ele>
        <time>2021-10-14T09:00:52.000Z</time>
      </trkpt>
      <trkpt lat="47.3714" lon="-2.43902">
        <ele>7.5999999046326</ele>
        <time>2021-10-14T09:00:53.000Z</time>
      </trkpt>
      <trkpt lat="47.37136" lon="-2.439">
        <ele>8</ele>
        <time>2021-10-14T09:00:54.000Z</time>
      </trkpt>
      <trkpt lat="47.37126" lon="-2.43895">
        <ele>8</ele>
        <time>2021-10-14T09:00:56.000Z</time>
      </trkpt>
      <trkpt lat="47.37104" lon="-2.4389">
        <ele>8.3999996185303</ele>
        <time>2021-10-14T09:01:01.000Z</time>
      </trkpt>
      <trkpt lat="47.37099" lon="-2.4389">
        <ele>8.8000001907349</ele>
        <time>2021-10-14T09:01:02.000Z</time>
      </trkpt>
      <trkpt lat="47.37095" lon="-2.4389">
        <ele>9.1999998092651</ele>
        <time>2021-10-14T09:01:03.000Z</time>
      </trkpt>
      <trkpt lat="47.3709" lon="-2.43891">
        <ele>9.6000003814697</ele>
        <time>2021-10-14T09:01:04.000Z</time>
      </trkpt>
      <trkpt lat="47.37086" lon="-2.43892">
        <ele>10</ele>
        <time>2021-10-14T09:01:05.000Z</time>
      </trkpt>
      <trkpt lat="47.37068" lon="-2.43897">
        <ele>10</ele>
        <time>2021-10-14T09:01:09.000Z</time>
      </trkpt>
      <trkpt lat="47.37054" lon="-2.43905">
        <ele>10.39999961853</ele>
        <time>2021-10-14T09:01:12.000Z</time>
      </trkpt>
      <trkpt lat="47.37049" lon="-2.43909">
        <ele>10.800000190735</ele>
        <time>2021-10-14T09:01:13.000Z</time>
      </trkpt>
      <trkpt lat="47.37045" lon="-2.43913">
        <ele>11.199999809265</ele>
        <time>2021-10-14T09:01:14.000Z</time>
      </trkpt>
      <trkpt lat="47.3704" lon="-2.43916">
        <ele>11.60000038147</ele>
        <time>2021-10-14T09:01:15.000Z</time>
      </trkpt>
      <trkpt lat="47.37036" lon="-2.4392">
        <ele>12</ele>
        <time>2021-10-14T09:01:16.000Z</time>
      </trkpt>
      <trkpt lat="47.37009" lon="-2.4394">
        <ele>12</ele>
        <time>2021-10-14T09:01:21.000Z</time>
      </trkpt>
      <trkpt lat="47.36986" lon="-2.43954">
        <ele>12.39999961853</ele>
        <time>2021-10-14T09:01:25.000Z</time>
      </trkpt>
      <trkpt lat="47.3698" lon="-2.43957">
        <ele>12.800000190735</ele>
        <time>2021-10-14T09:01:26.000Z</time>
      </trkpt>
      <trkpt lat="47.36974" lon="-2.4396">
        <ele>13.199999809265</ele>
        <time>2021-10-14T09:01:27.000Z</time>
      </trkpt>
      <trkpt lat="47.36969" lon="-2.43963">
        <ele>13.60000038147</ele>
        <time>2021-10-14T09:01:28.000Z</time>
      </trkpt>
      <trkpt lat="47.36964" lon="-2.43966">
        <ele>14.199999809265</ele>
        <time>2021-10-14T09:01:29.000Z</time>
      </trkpt>
      <trkpt lat="47.36934" lon="-2.43983">
        <ele>14.199999809265</ele>
        <time>2021-10-14T09:01:34.000Z</time>
      </trkpt>
      <trkpt lat="47.36883" lon="-2.44009">
        <ele>14.199999809265</ele>
        <time>2021-10-14T09:01:42.000Z</time>
      </trkpt>
      <trkpt lat="47.36833" lon="-2.44037">
        <ele>13.800000190735</ele>
        <time>2021-10-14T09:01:50.000Z</time>
      </trkpt>
      <trkpt lat="47.36827" lon="-2.4404">
        <ele>13.39999961853</ele>
        <time>2021-10-14T09:01:51.000Z</time>
      </trkpt>
      <trkpt lat="47.3682" lon="-2.44042">
        <ele>13</ele>
        <time>2021-10-14T09:01:52.000Z</time>
      </trkpt>
      <trkpt lat="47.36815" lon="-2.44045">
        <ele>12.60000038147</ele>
        <time>2021-10-14T09:01:53.000Z</time>
      </trkpt>
      <trkpt lat="47.36809" lon="-2.44048">
        <ele>12</ele>
        <time>2021-10-14T09:01:54.000Z</time>
      </trkpt>
      <trkpt lat="47.36792" lon="-2.44055">
        <ele>12</ele>
        <time>2021-10-14T09:01:57.000Z</time>
      </trkpt>
      <trkpt lat="47.36785" lon="-2.44056">
        <ele>12</ele>
        <time>2021-10-14T09:01:58.000Z</time>
      </trkpt>
      <trkpt lat="47.36772" lon="-2.44056">
        <ele>12</ele>
        <time>2021-10-14T09:02:00.000Z</time>
      </trkpt>
      <trkpt lat="47.36765" lon="-2.44053">
        <ele>12</ele>
        <time>2021-10-14T09:02:01.000Z</time>
      </trkpt>
      <trkpt lat="47.36735" lon="-2.44037">
        <ele>12</ele>
        <time>2021-10-14T09:02:06.000Z</time>
      </trkpt>
      <trkpt lat="47.36729" lon="-2.44038">
        <ele>11.60000038147</ele>
        <time>2021-10-14T09:02:07.000Z</time>
      </trkpt>
      <trkpt lat="47.36724" lon="-2.44042">
        <ele>11.199999809265</ele>
        <time>2021-10-14T09:02:08.000Z</time>
      </trkpt>
      <trkpt lat="47.36722" lon="-2.44048">
        <ele>10.800000190735</ele>
        <time>2021-10-14T09:02:09.000Z</time>
      </trkpt>
      <trkpt lat="47.36722" lon="-2.44057">
        <ele>10.39999961853</ele>
        <time>2021-10-14T09:02:10.000Z</time>
      </trkpt>
      <trkpt lat="47.36721" lon="-2.44065">
        <ele>10</ele>
        <time>2021-10-14T09:02:11.000Z</time>
      </trkpt>
      <trkpt lat="47.36721" lon="-2.44073">
        <ele>10</ele>
        <time>2021-10-14T09:02:12.000Z</time>
      </trkpt>
      <trkpt lat="47.36716" lon="-2.44134">
        <ele>10</ele>
        <time>2021-10-14T09:02:19.000Z</time>
      </trkpt>
      <trkpt lat="47.367" lon="-2.44201">
        <ele>10</ele>
        <time>2021-10-14T09:02:27.000Z</time>
      </trkpt>
      <trkpt lat="47.36679" lon="-2.44257">
        <ele>10.60000038147</ele>
        <time>2021-10-14T09:02:34.000Z</time>
      </trkpt>
      <trkpt lat="47.36676" lon="-2.44265">
        <ele>11</ele>
        <time>2021-10-14T09:02:35.000Z</time>
      </trkpt>
      <trkpt lat="47.36673" lon="-2.44272">
        <ele>11.39999961853</ele>
        <time>2021-10-14T09:02:36.000Z</time>
      </trkpt>
      <trkpt lat="47.3667" lon="-2.44279">
        <ele>11.800000190735</ele>
        <time>2021-10-14T09:02:37.000Z</time>
      </trkpt>
      <trkpt lat="47.36666" lon="-2.44286">
        <ele>12.199999809265</ele>
        <time>2021-10-14T09:02:38.000Z</time>
      </trkpt>
      <trkpt lat="47.36654" lon="-2.44317">
        <ele>12.199999809265</ele>
        <time>2021-10-14T09:02:42.000Z</time>
      </trkpt>
      <trkpt lat="47.36629" lon="-2.44363">
        <ele>12.60000038147</ele>
        <time>2021-10-14T09:02:49.000Z</time>
      </trkpt>
      <trkpt lat="47.36625" lon="-2.44369">
        <ele>13</ele>
        <time>2021-10-14T09:02:50.000Z</time>
      </trkpt>
      <trkpt lat="47.36621" lon="-2.44375">
        <ele>13.39999961853</ele>
        <time>2021-10-14T09:02:51.000Z</time>
      </trkpt>
      <trkpt lat="47.36616" lon="-2.44381">
        <ele>13.800000190735</ele>
        <time>2021-10-14T09:02:52.000Z</time>
      </trkpt>
      <trkpt lat="47.36611" lon="-2.44387">
        <ele>14.199999809265</ele>
        <time>2021-10-14T09:02:53.000Z</time>
      </trkpt>
      <trkpt lat="47.36602" lon="-2.444">
        <ele>14.199999809265</ele>
        <time>2021-10-14T09:02:55.000Z</time>
      </trkpt>
      <trkpt lat="47.36597" lon="-2.44405">
        <ele>14.199999809265</ele>
        <time>2021-10-14T09:02:56.000Z</time>
      </trkpt>
      <trkpt lat="47.36575" lon="-2.44427">
        <ele>14.199999809265</ele>
        <time>2021-10-14T09:03:00.000Z</time>
      </trkpt>
      <trkpt lat="47.36527" lon="-2.44479">
        <ele>14.199999809265</ele>
        <time>2021-10-14T09:03:09.000Z</time>
      </trkpt>
      <trkpt lat="47.36511" lon="-2.4451">
        <ele>15</ele>
        <time>2021-10-14T09:03:13.000Z</time>
      </trkpt>
      <trkpt lat="47.36507" lon="-2.44518">
        <ele>15.39999961853</ele>
        <time>2021-10-14T09:03:14.000Z</time>
      </trkpt>
      <trkpt lat="47.36504" lon="-2.44526">
        <ele>15.800000190735</ele>
        <time>2021-10-14T09:03:15.000Z</time>
      </trkpt>
      <trkpt lat="47.365" lon="-2.44533">
        <ele>16.39999961853</ele>
        <time>2021-10-14T09:03:16.000Z</time>
      </trkpt>
      <trkpt lat="47.36475" lon="-2.44575">
        <ele>16.39999961853</ele>
        <time>2021-10-14T09:03:22.000Z</time>
      </trkpt>
      <trkpt lat="47.3645" lon="-2.44601">
        <ele>16.39999961853</ele>
        <time>2021-10-14T09:03:27.000Z</time>
      </trkpt>
      <trkpt lat="47.3641" lon="-2.44642">
        <ele>16.39999961853</ele>
        <time>2021-10-14T09:03:35.000Z</time>
      </trkpt>
      <trkpt lat="47.36393" lon="-2.44664">
        <ele>16.39999961853</ele>
        <time>2021-10-14T09:03:39.000Z</time>
      </trkpt>
      <trkpt lat="47.36385" lon="-2.44678">
        <ele>16.39999961853</ele>
        <time>2021-10-14T09:03:41.000Z</time>
      </trkpt>
      <trkpt lat="47.3635" lon="-2.44727">
        <ele>16.799999237061</ele>
        <time>2021-10-14T09:03:49.000Z</time>
      </trkpt>
      <trkpt lat="47.36344" lon="-2.44732">
        <ele>17.200000762939</ele>
        <time>2021-10-14T09:03:50.000Z</time>
      </trkpt>
      <trkpt lat="47.36339" lon="-2.44736">
        <ele>17.60000038147</ele>
        <time>2021-10-14T09:03:51.000Z</time>
      </trkpt>
      <trkpt lat="47.36333" lon="-2.44741">
        <ele>18</ele>
        <time>2021-10-14T09:03:52.000Z</time>
      </trkpt>
      <trkpt lat="47.36328" lon="-2.44745">
        <ele>18.39999961853</ele>
        <time>2021-10-14T09:03:53.000Z</time>
      </trkpt>
      <trkpt lat="47.36322" lon="-2.44748">
        <ele>18.39999961853</ele>
        <time>2021-10-14T09:03:54.000Z</time>
      </trkpt>
      <trkpt lat="47.36278" lon="-2.4478">
        <ele>18.39999961853</ele>
        <time>2021-10-14T09:04:02.000Z</time>
      </trkpt>
      <trkpt lat="47.36235" lon="-2.44815">
        <ele>18.39999961853</ele>
        <time>2021-10-14T09:04:10.000Z</time>
      </trkpt>
      <trkpt lat="47.36197" lon="-2.44837">
        <ele>18.39999961853</ele>
        <time>2021-10-14T09:04:17.000Z</time>
      </trkpt>
      <trkpt lat="47.3615" lon="-2.44856">
        <ele>18.39999961853</ele>
        <time>2021-10-14T09:04:25.000Z</time>
      </trkpt>
      <trkpt lat="47.36109" lon="-2.44873">
        <ele>18.39999961853</ele>
        <time>2021-10-14T09:04:32.000Z</time>
      </trkpt>
      <trkpt lat="47.36084" lon="-2.44883">
        <ele>18.799999237061</ele>
        <time>2021-10-14T09:04:36.000Z</time>
      </trkpt>
      <trkpt lat="47.36079" lon="-2.44886">
        <ele>19.200000762939</ele>
        <time>2021-10-14T09:04:37.000Z</time>
      </trkpt>
      <trkpt lat="47.36073" lon="-2.4489">
        <ele>19.60000038147</ele>
        <time>2021-10-14T09:04:38.000Z</time>
      </trkpt>
      <trkpt lat="47.36067" lon="-2.44892">
        <ele>20</ele>
        <time>2021-10-14T09:04:39.000Z</time>
      </trkpt>
      <trkpt lat="47.36061" lon="-2.44893">
        <ele>20.60000038147</ele>
        <time>2021-10-14T09:04:40.000Z</time>
      </trkpt>
      <trkpt lat="47.36043" lon="-2.44898">
        <ele>20.60000038147</ele>
        <time>2021-10-14T09:04:43.000Z</time>
      </trkpt>
      <trkpt lat="47.36031" lon="-2.44901">
        <ele>20.60000038147</ele>
        <time>2021-10-14T09:04:45.000Z</time>
      </trkpt>
      <trkpt lat="47.35977" lon="-2.44909">
        <ele>20.60000038147</ele>
        <time>2021-10-14T09:04:54.000Z</time>
      </trkpt>
      <trkpt lat="47.35936" lon="-2.44923">
        <ele>20.60000038147</ele>
        <time>2021-10-14T09:05:01.000Z</time>
      </trkpt>
      <trkpt lat="47.35896" lon="-2.44928">
        <ele>21</ele>
        <time>2021-10-14T09:05:08.000Z</time>
      </trkpt>
      <trkpt lat="47.35891" lon="-2.44929">
        <ele>21.39999961853</ele>
        <time>2021-10-14T09:05:09.000Z</time>
      </trkpt>
      <trkpt lat="47.35885" lon="-2.44929">
        <ele>21.799999237061</ele>
        <time>2021-10-14T09:05:10.000Z</time>
      </trkpt>
      <trkpt lat="47.35879" lon="-2.44929">
        <ele>22.200000762939</ele>
        <time>2021-10-14T09:05:11.000Z</time>
      </trkpt>
      <trkpt lat="47.35874" lon="-2.44929">
        <ele>22.60000038147</ele>
        <time>2021-10-14T09:05:12.000Z</time>
      </trkpt>
      <trkpt lat="47.3585" lon="-2.44927">
        <ele>22.60000038147</ele>
        <time>2021-10-14T09:05:16.000Z</time>
      </trkpt>
      <trkpt lat="47.35833" lon="-2.44927">
        <ele>22.60000038147</ele>
        <time>2021-10-14T09:05:19.000Z</time>
      </trkpt>
      <trkpt lat="47.35823" lon="-2.44931">
        <ele>22.60000038147</ele>
        <time>2021-10-14T09:05:21.000Z</time>
      </trkpt>
      <trkpt lat="47.35818" lon="-2.44933">
        <ele>22.60000038147</ele>
        <time>2021-10-14T09:05:22.000Z</time>
      </trkpt>
      <trkpt lat="47.35808" lon="-2.44942">
        <ele>22.60000038147</ele>
        <time>2021-10-14T09:05:26.000Z</time>
      </trkpt>
      <trkpt lat="47.35806" lon="-2.44946">
        <ele>22.60000038147</ele>
        <time>2021-10-14T09:05:28.000Z</time>
      </trkpt>
      <trkpt lat="47.35807" lon="-2.44945">
        <ele>22.60000038147</ele>
        <time>2021-10-14T09:05:29.000Z</time>
      </trkpt>
      <trkpt lat="47.35807" lon="-2.44945">
        <ele>22.60000038147</ele>
        <time>2021-10-14T09:05:35.000Z</time>
      </trkpt>
      <trkpt lat="47.35808" lon="-2.44952">
        <ele>22.60000038147</ele>
        <time>2021-10-14T09:05:38.000Z</time>
      </trkpt>
      <trkpt lat="47.35813" lon="-2.44957">
        <ele>22.60000038147</ele>
        <time>2021-10-14T09:05:40.000Z</time>
      </trkpt>
      <trkpt lat="47.35832" lon="-2.44974">
        <ele>22.60000038147</ele>
        <time>2021-10-14T09:05:46.000Z</time>
      </trkpt>
      <trkpt lat="47.35863" lon="-2.45001">
        <ele>22.60000038147</ele>
        <time>2021-10-14T09:05:53.000Z</time>
      </trkpt>
      <trkpt lat="47.35868" lon="-2.45005">
        <ele>23</ele>
        <time>2021-10-14T09:05:54.000Z</time>
      </trkpt>
      <trkpt lat="47.35874" lon="-2.45009">
        <ele>23.39999961853</ele>
        <time>2021-10-14T09:05:55.000Z</time>
      </trkpt>
      <trkpt lat="47.35879" lon="-2.45013">
        <ele>23.799999237061</ele>
        <time>2021-10-14T09:05:56.000Z</time>
      </trkpt>
      <trkpt lat="47.35884" lon="-2.45017">
        <ele>24.200000762939</ele>
        <time>2021-10-14T09:05:57.000Z</time>
      </trkpt>
      <trkpt lat="47.3589" lon="-2.45021">
        <ele>24.60000038147</ele>
        <time>2021-10-14T09:05:58.000Z</time>
      </trkpt>
      <trkpt lat="47.35905" lon="-2.4503">
        <ele>24.60000038147</ele>
        <time>2021-10-14T09:06:01.000Z</time>
      </trkpt>
      <trkpt lat="47.35936" lon="-2.45047">
        <ele>24.60000038147</ele>
        <time>2021-10-14T09:06:08.000Z</time>
      </trkpt>
      <trkpt lat="47.35952" lon="-2.45059">
        <ele>24.60000038147</ele>
        <time>2021-10-14T09:06:12.000Z</time>
      </trkpt>
      <trkpt lat="47.35957" lon="-2.45068">
        <ele>24.60000038147</ele>
        <time>2021-10-14T09:06:14.000Z</time>
      </trkpt>
      <trkpt lat="47.35954" lon="-2.45088">
        <ele>24.60000038147</ele>
        <time>2021-10-14T09:06:17.000Z</time>
      </trkpt>
      <trkpt lat="47.35949" lon="-2.451">
        <ele>24.60000038147</ele>
        <time>2021-10-14T09:06:19.000Z</time>
      </trkpt>
      <trkpt lat="47.35939" lon="-2.45125">
        <ele>24.60000038147</ele>
        <time>2021-10-14T09:06:24.000Z</time>
      </trkpt>
      <trkpt lat="47.35933" lon="-2.45146">
        <ele>24.60000038147</ele>
        <time>2021-10-14T09:06:28.000Z</time>
      </trkpt>
      <trkpt lat="47.35933" lon="-2.45158">
        <ele>24.60000038147</ele>
        <time>2021-10-14T09:06:30.000Z</time>
      </trkpt>
      <trkpt lat="47.35941" lon="-2.45174">
        <ele>24.60000038147</ele>
        <time>2021-10-14T09:06:33.000Z</time>
      </trkpt>
      <trkpt lat="47.35949" lon="-2.4518">
        <ele>24.60000038147</ele>
        <time>2021-10-14T09:06:35.000Z</time>
      </trkpt>
      <trkpt lat="47.35962" lon="-2.45188">
        <ele>24.60000038147</ele>
        <time>2021-10-14T09:06:38.000Z</time>
      </trkpt>
      <trkpt lat="47.35983" lon="-2.45199">
        <ele>24.60000038147</ele>
        <time>2021-10-14T09:06:43.000Z</time>
      </trkpt>
      <trkpt lat="47.35991" lon="-2.45201">
        <ele>24.60000038147</ele>
        <time>2021-10-14T09:06:45.000Z</time>
      </trkpt>
      <trkpt lat="47.36015" lon="-2.45206">
        <ele>24.60000038147</ele>
        <time>2021-10-14T09:06:51.000Z</time>
      </trkpt>
      <trkpt lat="47.36048" lon="-2.45217">
        <ele>24.60000038147</ele>
        <time>2021-10-14T09:06:58.000Z</time>
      </trkpt>
      <trkpt lat="47.36052" lon="-2.4522">
        <ele>24.60000038147</ele>
        <time>2021-10-14T09:06:59.000Z</time>
      </trkpt>
      <trkpt lat="47.36068" lon="-2.45241">
        <ele>24.60000038147</ele>
        <time>2021-10-14T09:07:03.000Z</time>
      </trkpt>
      <trkpt lat="47.36071" lon="-2.45248">
        <ele>24.60000038147</ele>
        <time>2021-10-14T09:07:04.000Z</time>
      </trkpt>
      <trkpt lat="47.36082" lon="-2.45279">
        <ele>24.60000038147</ele>
        <time>2021-10-14T09:07:08.000Z</time>
      </trkpt>
      <trkpt lat="47.36107" lon="-2.45352">
        <ele>24.60000038147</ele>
        <time>2021-10-14T09:07:17.000Z</time>
      </trkpt>
      <trkpt lat="47.36127" lon="-2.454">
        <ele>24.200000762939</ele>
        <time>2021-10-14T09:07:23.000Z</time>
      </trkpt>
      <trkpt lat="47.36131" lon="-2.45407">
        <ele>23.799999237061</ele>
        <time>2021-10-14T09:07:24.000Z</time>
      </trkpt>
      <trkpt lat="47.36135" lon="-2.45414">
        <ele>23.39999961853</ele>
        <time>2021-10-14T09:07:25.000Z</time>
      </trkpt>
      <trkpt lat="47.36139" lon="-2.4542">
        <ele>23</ele>
        <time>2021-10-14T09:07:26.000Z</time>
      </trkpt>
      <trkpt lat="47.36143" lon="-2.45426">
        <ele>22.60000038147</ele>
        <time>2021-10-14T09:07:27.000Z</time>
      </trkpt>
      <trkpt lat="47.36156" lon="-2.45443">
        <ele>22.60000038147</ele>
        <time>2021-10-14T09:07:30.000Z</time>
      </trkpt>
      <trkpt lat="47.36187" lon="-2.45494">
        <ele>22.60000038147</ele>
        <time>2021-10-14T09:07:38.000Z</time>
      </trkpt>
      <trkpt lat="47.36213" lon="-2.4554">
        <ele>22.60000038147</ele>
        <time>2021-10-14T09:07:44.000Z</time>
      </trkpt>
      <trkpt lat="47.36218" lon="-2.45549">
        <ele>22.200000762939</ele>
        <time>2021-10-14T09:07:45.000Z</time>
      </trkpt>
      <trkpt lat="47.36223" lon="-2.45559">
        <ele>21.799999237061</ele>
        <time>2021-10-14T09:07:46.000Z</time>
      </trkpt>
      <trkpt lat="47.36228" lon="-2.45569">
        <ele>21.200000762939</ele>
        <time>2021-10-14T09:07:47.000Z</time>
      </trkpt>
      <trkpt lat="47.36233" lon="-2.45579">
        <ele>20.799999237061</ele>
        <time>2021-10-14T09:07:48.000Z</time>
      </trkpt>
      <trkpt lat="47.36238" lon="-2.45589">
        <ele>20.39999961853</ele>
        <time>2021-10-14T09:07:49.000Z</time>
      </trkpt>
      <trkpt lat="47.36243" lon="-2.456">
        <ele>20.39999961853</ele>
        <time>2021-10-14T09:07:50.000Z</time>
      </trkpt>
      <trkpt lat="47.36248" lon="-2.45611">
        <ele>19.799999237061</ele>
        <time>2021-10-14T09:07:51.000Z</time>
      </trkpt>
      <trkpt lat="47.36253" lon="-2.45623">
        <ele>19.39999961853</ele>
        <time>2021-10-14T09:07:52.000Z</time>
      </trkpt>
      <trkpt lat="47.36256" lon="-2.45635">
        <ele>18.799999237061</ele>
        <time>2021-10-14T09:07:53.000Z</time>
      </trkpt>
      <trkpt lat="47.36258" lon="-2.45647">
        <ele>18.39999961853</ele>
        <time>2021-10-14T09:07:54.000Z</time>
      </trkpt>
      <trkpt lat="47.36259" lon="-2.4566">
        <ele>18</ele>
        <time>2021-10-14T09:07:55.000Z</time>
      </trkpt>
      <trkpt lat="47.36257" lon="-2.45682">
        <ele>17.60000038147</ele>
        <time>2021-10-14T09:07:57.000Z</time>
      </trkpt>
      <trkpt lat="47.36254" lon="-2.45692">
        <ele>17.200000762939</ele>
        <time>2021-10-14T09:07:58.000Z</time>
      </trkpt>
      <trkpt lat="47.36252" lon="-2.45701">
        <ele>16.799999237061</ele>
        <time>2021-10-14T09:07:59.000Z</time>
      </trkpt>
      <trkpt lat="47.36249" lon="-2.45709">
        <ele>16.39999961853</ele>
        <time>2021-10-14T09:08:00.000Z</time>
      </trkpt>
      <trkpt lat="47.36244" lon="-2.45716">
        <ele>16</ele>
        <time>2021-10-14T09:08:01.000Z</time>
      </trkpt>
      <trkpt lat="47.36234" lon="-2.45718">
        <ele>16</ele>
        <time>2021-10-14T09:08:03.000Z</time>
      </trkpt>
      <trkpt lat="47.36217" lon="-2.45709">
        <ele>16</ele>
        <time>2021-10-14T09:08:07.000Z</time>
      </trkpt>
      <trkpt lat="47.36203" lon="-2.4571">
        <ele>16</ele>
        <time>2021-10-14T09:08:10.000Z</time>
      </trkpt>
      <trkpt lat="47.36198" lon="-2.45711">
        <ele>16</ele>
        <time>2021-10-14T09:08:11.000Z</time>
      </trkpt>
      <trkpt lat="47.36193" lon="-2.45714">
        <ele>16</ele>
        <time>2021-10-14T09:08:12.000Z</time>
      </trkpt>
      <trkpt lat="47.36184" lon="-2.45719">
        <ele>16.39999961853</ele>
        <time>2021-10-14T09:08:14.000Z</time>
      </trkpt>
      <trkpt lat="47.3618" lon="-2.45722">
        <ele>16.799999237061</ele>
        <time>2021-10-14T09:08:15.000Z</time>
      </trkpt>
      <trkpt lat="47.36174" lon="-2.45724">
        <ele>17.200000762939</ele>
        <time>2021-10-14T09:08:16.000Z</time>
      </trkpt>
      <trkpt lat="47.3617" lon="-2.45726">
        <ele>17.60000038147</ele>
        <time>2021-10-14T09:08:17.000Z</time>
      </trkpt>
      <trkpt lat="47.36164" lon="-2.45727">
        <ele>18</ele>
        <time>2021-10-14T09:08:18.000Z</time>
      </trkpt>
      <trkpt lat="47.36133" lon="-2.45736">
        <ele>18</ele>
        <time>2021-10-14T09:08:24.000Z</time>
      </trkpt>
      <trkpt lat="47.36123" lon="-2.45741">
        <ele>18.39999961853</ele>
        <time>2021-10-14T09:08:26.000Z</time>
      </trkpt>
      <trkpt lat="47.36118" lon="-2.45743">
        <ele>18.799999237061</ele>
        <time>2021-10-14T09:08:27.000Z</time>
      </trkpt>
      <trkpt lat="47.36113" lon="-2.45746">
        <ele>19.200000762939</ele>
        <time>2021-10-14T09:08:28.000Z</time>
      </trkpt>
      <trkpt lat="47.36108" lon="-2.45749">
        <ele>19.60000038147</ele>
        <time>2021-10-14T09:08:29.000Z</time>
      </trkpt>
      <trkpt lat="47.36103" lon="-2.45752">
        <ele>20</ele>
        <time>2021-10-14T09:08:30.000Z</time>
      </trkpt>
      <trkpt lat="47.36098" lon="-2.45754">
        <ele>20</ele>
        <time>2021-10-14T09:08:31.000Z</time>
      </trkpt>
      <trkpt lat="47.36083" lon="-2.45754">
        <ele>20</ele>
        <time>2021-10-14T09:08:34.000Z</time>
      </trkpt>
      <trkpt lat="47.36064" lon="-2.4576">
        <ele>20</ele>
        <time>2021-10-14T09:08:38.000Z</time>
      </trkpt>
      <trkpt lat="47.36059" lon="-2.45763">
        <ele>20</ele>
        <time>2021-10-14T09:08:39.000Z</time>
      </trkpt>
      <trkpt lat="47.36023" lon="-2.45786">
        <ele>20</ele>
        <time>2021-10-14T09:08:46.000Z</time>
      </trkpt>
      <trkpt lat="47.3599" lon="-2.45802">
        <ele>20</ele>
        <time>2021-10-14T09:08:52.000Z</time>
      </trkpt>
      <trkpt lat="47.35949" lon="-2.45815">
        <ele>20</ele>
        <time>2021-10-14T09:08:59.000Z</time>
      </trkpt>
      <trkpt lat="47.35943" lon="-2.45816">
        <ele>20.799999237061</ele>
        <time>2021-10-14T09:09:00.000Z</time>
      </trkpt>
      <trkpt lat="47.35938" lon="-2.45818">
        <ele>21.200000762939</ele>
        <time>2021-10-14T09:09:01.000Z</time>
      </trkpt>
      <trkpt lat="47.35932" lon="-2.45819">
        <ele>21.799999237061</ele>
        <time>2021-10-14T09:09:02.000Z</time>
      </trkpt>
      <trkpt lat="47.35926" lon="-2.45821">
        <ele>22.200000762939</ele>
        <time>2021-10-14T09:09:03.000Z</time>
      </trkpt>
      <trkpt lat="47.35915" lon="-2.45822">
        <ele>22.200000762939</ele>
        <time>2021-10-14T09:09:05.000Z</time>
      </trkpt>
      <trkpt lat="47.35872" lon="-2.45831">
        <ele>22.200000762939</ele>
        <time>2021-10-14T09:09:13.000Z</time>
      </trkpt>
      <trkpt lat="47.35835" lon="-2.45841">
        <ele>22.200000762939</ele>
        <time>2021-10-14T09:09:20.000Z</time>
      </trkpt>
      <trkpt lat="47.3583" lon="-2.45842">
        <ele>22.60000038147</ele>
        <time>2021-10-14T09:09:21.000Z</time>
      </trkpt>
      <trkpt lat="47.35826" lon="-2.45843">
        <ele>23</ele>
        <time>2021-10-14T09:09:22.000Z</time>
      </trkpt>
      <trkpt lat="47.35821" lon="-2.45844">
        <ele>23.39999961853</ele>
        <time>2021-10-14T09:09:23.000Z</time>
      </trkpt>
      <trkpt lat="47.35816" lon="-2.45845">
        <ele>23.799999237061</ele>
        <time>2021-10-14T09:09:24.000Z</time>
      </trkpt>
      <trkpt lat="47.35811" lon="-2.45845">
        <ele>24.200000762939</ele>
        <time>2021-10-14T09:09:25.000Z</time>
      </trkpt>
      <trkpt lat="47.35802" lon="-2.45847">
        <ele>24.200000762939</ele>
        <time>2021-10-14T09:09:27.000Z</time>
      </trkpt>
      <trkpt lat="47.35783" lon="-2.45851">
        <ele>24.60000038147</ele>
        <time>2021-10-14T09:09:31.000Z</time>
      </trkpt>
      <trkpt lat="47.35779" lon="-2.45853">
        <ele>25</ele>
        <time>2021-10-14T09:09:32.000Z</time>
      </trkpt>
      <trkpt lat="47.35774" lon="-2.45853">
        <ele>25.39999961853</ele>
        <time>2021-10-14T09:09:33.000Z</time>
      </trkpt>
      <trkpt lat="47.3577" lon="-2.45854">
        <ele>25.799999237061</ele>
        <time>2021-10-14T09:09:34.000Z</time>
      </trkpt>
      <trkpt lat="47.35765" lon="-2.45855">
        <ele>26.200000762939</ele>
        <time>2021-10-14T09:09:35.000Z</time>
      </trkpt>
      <trkpt lat="47.35728" lon="-2.45858">
        <ele>26.200000762939</ele>
        <time>2021-10-14T09:09:43.000Z</time>
      </trkpt>
      <trkpt lat="47.35723" lon="-2.45857">
        <ele>26.60000038147</ele>
        <time>2021-10-14T09:09:44.000Z</time>
      </trkpt>
      <trkpt lat="47.35719" lon="-2.45857">
        <ele>27</ele>
        <time>2021-10-14T09:09:45.000Z</time>
      </trkpt>
      <trkpt lat="47.35714" lon="-2.45857">
        <ele>27.39999961853</ele>
        <time>2021-10-14T09:09:46.000Z</time>
      </trkpt>
      <trkpt lat="47.35709" lon="-2.45857">
        <ele>27.799999237061</ele>
        <time>2021-10-14T09:09:47.000Z</time>
      </trkpt>
      <trkpt lat="47.35705" lon="-2.45857">
        <ele>28.200000762939</ele>
        <time>2021-10-14T09:09:48.000Z</time>
      </trkpt>
      <trkpt lat="47.35686" lon="-2.45857">
        <ele>28.200000762939</ele>
        <time>2021-10-14T09:09:52.000Z</time>
      </trkpt>
      <trkpt lat="47.35652" lon="-2.45858">
        <ele>28.200000762939</ele>
        <time>2021-10-14T09:09:59.000Z</time>
      </trkpt>
      <trkpt lat="47.3562" lon="-2.45859">
        <ele>28.200000762939</ele>
        <time>2021-10-14T09:10:06.000Z</time>
      </trkpt>
      <trkpt lat="47.35615" lon="-2.4586">
        <ele>28.200000762939</ele>
        <time>2021-10-14T09:10:07.000Z</time>
      </trkpt>
      <trkpt lat="47.35601" lon="-2.45869">
        <ele>28.200000762939</ele>
        <time>2021-10-14T09:10:10.000Z</time>
      </trkpt>
      <trkpt lat="47.35593" lon="-2.45876">
        <ele>28.200000762939</ele>
        <time>2021-10-14T09:10:12.000Z</time>
      </trkpt>
      <trkpt lat="47.35572" lon="-2.45895">
        <ele>28.60000038147</ele>
        <time>2021-10-14T09:10:17.000Z</time>
      </trkpt>
      <trkpt lat="47.35568" lon="-2.45898">
        <ele>29</ele>
        <time>2021-10-14T09:10:18.000Z</time>
      </trkpt>
      <trkpt lat="47.35565" lon="-2.45901">
        <ele>29.60000038147</ele>
        <time>2021-10-14T09:10:19.000Z</time>
      </trkpt>
      <trkpt lat="47.35561" lon="-2.45905">
        <ele>30</ele>
        <time>2021-10-14T09:10:20.000Z</time>
      </trkpt>
      <trkpt lat="47.35557" lon="-2.45907">
        <ele>30.39999961853</ele>
        <time>2021-10-14T09:10:21.000Z</time>
      </trkpt>
      <trkpt lat="47.35541" lon="-2.45919">
        <ele>30.39999961853</ele>
        <time>2021-10-14T09:10:25.000Z</time>
      </trkpt>
      <trkpt lat="47.35533" lon="-2.45925">
        <ele>30.39999961853</ele>
        <time>2021-10-14T09:10:27.000Z</time>
      </trkpt>
      <trkpt lat="47.35528" lon="-2.45935">
        <ele>30.39999961853</ele>
        <time>2021-10-14T09:10:29.000Z</time>
      </trkpt>
      <trkpt lat="47.35526" lon="-2.45948">
        <ele>30.39999961853</ele>
        <time>2021-10-14T09:10:31.000Z</time>
      </trkpt>
      <trkpt lat="47.35519" lon="-2.45982">
        <ele>30.39999961853</ele>
        <time>2021-10-14T09:10:36.000Z</time>
      </trkpt>
      <trkpt lat="47.35517" lon="-2.45988">
        <ele>30.39999961853</ele>
        <time>2021-10-14T09:10:37.000Z</time>
      </trkpt>
      <trkpt lat="47.35514" lon="-2.45994">
        <ele>30.799999237061</ele>
        <time>2021-10-14T09:10:38.000Z</time>
      </trkpt>
      <trkpt lat="47.35511" lon="-2.45999">
        <ele>31.60000038147</ele>
        <time>2021-10-14T09:10:39.000Z</time>
      </trkpt>
      <trkpt lat="47.35508" lon="-2.46004">
        <ele>32</ele>
        <time>2021-10-14T09:10:40.000Z</time>
      </trkpt>
      <trkpt lat="47.35504" lon="-2.46009">
        <ele>32.400001525879</ele>
        <time>2021-10-14T09:10:41.000Z</time>
      </trkpt>
      <trkpt lat="47.35495" lon="-2.46017">
        <ele>32.400001525879</ele>
        <time>2021-10-14T09:10:43.000Z</time>
      </trkpt>
      <trkpt lat="47.35477" lon="-2.4603">
        <ele>32.400001525879</ele>
        <time>2021-10-14T09:10:47.000Z</time>
      </trkpt>
      <trkpt lat="47.35441" lon="-2.46058">
        <ele>32.400001525879</ele>
        <time>2021-10-14T09:10:55.000Z</time>
      </trkpt>
      <trkpt lat="47.35405" lon="-2.46091">
        <ele>32.400001525879</ele>
        <time>2021-10-14T09:11:03.000Z</time>
      </trkpt>
      <trkpt lat="47.354" lon="-2.46095">
        <ele>32.400001525879</ele>
        <time>2021-10-14T09:11:04.000Z</time>
      </trkpt>
      <trkpt lat="47.35378" lon="-2.46116">
        <ele>32.400001525879</ele>
        <time>2021-10-14T09:11:09.000Z</time>
      </trkpt>
      <trkpt lat="47.35335" lon="-2.46143">
        <ele>32.400001525879</ele>
        <time>2021-10-14T09:11:17.000Z</time>
      </trkpt>
      <trkpt lat="47.35297" lon="-2.4617">
        <ele>32.400001525879</ele>
        <time>2021-10-14T09:11:24.000Z</time>
      </trkpt>
      <trkpt lat="47.35262" lon="-2.46203">
        <ele>32.400001525879</ele>
        <time>2021-10-14T09:11:31.000Z</time>
      </trkpt>
      <trkpt lat="47.35224" lon="-2.46238">
        <ele>32.400001525879</ele>
        <time>2021-10-14T09:11:39.000Z</time>
      </trkpt>
      <trkpt lat="47.35192" lon="-2.46273">
        <ele>32.400001525879</ele>
        <time>2021-10-14T09:11:46.000Z</time>
      </trkpt>
      <trkpt lat="47.35155" lon="-2.4631">
        <ele>32.400001525879</ele>
        <time>2021-10-14T09:11:54.000Z</time>
      </trkpt>
      <trkpt lat="47.35137" lon="-2.46327">
        <ele>32.400001525879</ele>
        <time>2021-10-14T09:11:58.000Z</time>
      </trkpt>
      <trkpt lat="47.35128" lon="-2.46338">
        <ele>32.400001525879</ele>
        <time>2021-10-14T09:12:00.000Z</time>
      </trkpt>
      <trkpt lat="47.35124" lon="-2.46345">
        <ele>32</ele>
        <time>2021-10-14T09:12:01.000Z</time>
      </trkpt>
      <trkpt lat="47.3512" lon="-2.46351">
        <ele>31.60000038147</ele>
        <time>2021-10-14T09:12:02.000Z</time>
      </trkpt>
      <trkpt lat="47.35116" lon="-2.46357">
        <ele>31.200000762939</ele>
        <time>2021-10-14T09:12:03.000Z</time>
      </trkpt>
      <trkpt lat="47.35112" lon="-2.46363">
        <ele>30.799999237061</ele>
        <time>2021-10-14T09:12:04.000Z</time>
      </trkpt>
      <trkpt lat="47.35107" lon="-2.46367">
        <ele>30.39999961853</ele>
        <time>2021-10-14T09:12:05.000Z</time>
      </trkpt>
      <trkpt lat="47.35073" lon="-2.46388">
        <ele>30.39999961853</ele>
        <time>2021-10-14T09:12:11.000Z</time>
      </trkpt>
      <trkpt lat="47.3505" lon="-2.46401">
        <ele>30.39999961853</ele>
        <time>2021-10-14T09:12:15.000Z</time>
      </trkpt>
      <trkpt lat="47.35038" lon="-2.46407">
        <ele>30.39999961853</ele>
        <time>2021-10-14T09:12:17.000Z</time>
      </trkpt>
      <trkpt lat="47.35004" lon="-2.46423">
        <ele>30.39999961853</ele>
        <time>2021-10-14T09:12:23.000Z</time>
      </trkpt>
      <trkpt lat="47.3497" lon="-2.4644">
        <ele>30.39999961853</ele>
        <time>2021-10-14T09:12:29.000Z</time>
      </trkpt>
      <trkpt lat="47.34936" lon="-2.46454">
        <ele>30.39999961853</ele>
        <time>2021-10-14T09:12:35.000Z</time>
      </trkpt>
      <trkpt lat="47.34896" lon="-2.46469">
        <ele>30.39999961853</ele>
        <time>2021-10-14T09:12:42.000Z</time>
      </trkpt>
      <trkpt lat="47.3488" lon="-2.46474">
        <ele>30.39999961853</ele>
        <time>2021-10-14T09:12:45.000Z</time>
      </trkpt>
      <trkpt lat="47.34871" lon="-2.46479">
        <ele>30.39999961853</ele>
        <time>2021-10-14T09:12:47.000Z</time>
      </trkpt>
      <trkpt lat="47.34861" lon="-2.4649">
        <ele>30.39999961853</ele>
        <time>2021-10-14T09:12:50.000Z</time>
      </trkpt>
      <trkpt lat="47.34859" lon="-2.46493">
        <ele>30.39999961853</ele>
        <time>2021-10-14T09:12:51.000Z</time>
      </trkpt>
      <trkpt lat="47.34858" lon="-2.46496">
        <ele>30.39999961853</ele>
        <time>2021-10-14T09:12:53.000Z</time>
      </trkpt>
      <trkpt lat="47.34853" lon="-2.46499">
        <ele>30.39999961853</ele>
        <time>2021-10-14T09:27:54.000Z</time>
      </trkpt>
      <trkpt lat="47.3485" lon="-2.46504">
        <ele>30.39999961853</ele>
        <time>2021-10-14T09:27:57.000Z</time>
      </trkpt>
      <trkpt lat="47.3485" lon="-2.46509">
        <ele>30.39999961853</ele>
        <time>2021-10-14T09:28:00.000Z</time>
      </trkpt>
      <trkpt lat="47.34848" lon="-2.46519">
        <ele>30.39999961853</ele>
        <time>2021-10-14T09:28:04.000Z</time>
      </trkpt>
      <trkpt lat="47.34844" lon="-2.46529">
        <ele>30.39999961853</ele>
        <time>2021-10-14T09:28:07.000Z</time>
      </trkpt>
      <trkpt lat="47.34841" lon="-2.46539">
        <ele>30.39999961853</ele>
        <time>2021-10-14T09:28:09.000Z</time>
      </trkpt>
      <trkpt lat="47.34835" lon="-2.46555">
        <ele>30.39999961853</ele>
        <time>2021-10-14T09:28:12.000Z</time>
      </trkpt>
      <trkpt lat="47.34829" lon="-2.46566">
        <ele>30.39999961853</ele>
        <time>2021-10-14T09:28:14.000Z</time>
      </trkpt>
      <trkpt lat="47.34811" lon="-2.46593">
        <ele>30.39999961853</ele>
        <time>2021-10-14T09:28:19.000Z</time>
      </trkpt>
      <trkpt lat="47.34808" lon="-2.46599">
        <ele>30.39999961853</ele>
        <time>2021-10-14T09:28:20.000Z</time>
      </trkpt>
      <trkpt lat="47.34798" lon="-2.46617">
        <ele>30.39999961853</ele>
        <time>2021-10-14T09:28:23.000Z</time>
      </trkpt>
      <trkpt lat="47.34793" lon="-2.46629">
        <ele>30.39999961853</ele>
        <time>2021-10-14T09:28:25.000Z</time>
      </trkpt>
      <trkpt lat="47.34772" lon="-2.46661">
        <ele>30.39999961853</ele>
        <time>2021-10-14T09:28:31.000Z</time>
      </trkpt>
      <trkpt lat="47.34765" lon="-2.46673">
        <ele>30.799999237061</ele>
        <time>2021-10-14T09:28:33.000Z</time>
      </trkpt>
      <trkpt lat="47.34762" lon="-2.46678">
        <ele>31.200000762939</ele>
        <time>2021-10-14T09:28:34.000Z</time>
      </trkpt>
      <trkpt lat="47.34758" lon="-2.46683">
        <ele>31.60000038147</ele>
        <time>2021-10-14T09:28:35.000Z</time>
      </trkpt>
      <trkpt lat="47.34755" lon="-2.46688">
        <ele>32</ele>
        <time>2021-10-14T09:28:36.000Z</time>
      </trkpt>
      <trkpt lat="47.34751" lon="-2.46694">
        <ele>32.400001525879</ele>
        <time>2021-10-14T09:28:37.000Z</time>
      </trkpt>
      <trkpt lat="47.34748" lon="-2.467">
        <ele>32.400001525879</ele>
        <time>2021-10-14T09:28:38.000Z</time>
      </trkpt>
      <trkpt lat="47.34727" lon="-2.4673">
        <ele>32.400001525879</ele>
        <time>2021-10-14T09:28:44.000Z</time>
      </trkpt>
      <trkpt lat="47.34724" lon="-2.46735">
        <ele>32.400001525879</ele>
        <time>2021-10-14T09:28:45.000Z</time>
      </trkpt>
      <trkpt lat="47.34713" lon="-2.46752">
        <ele>32.799999237061</ele>
        <time>2021-10-14T09:28:48.000Z</time>
      </trkpt>
      <trkpt lat="47.3471" lon="-2.46757">
        <ele>33.200000762939</ele>
        <time>2021-10-14T09:28:49.000Z</time>
      </trkpt>
      <trkpt lat="47.34707" lon="-2.46762">
        <ele>33.799999237061</ele>
        <time>2021-10-14T09:28:50.000Z</time>
      </trkpt>
      <trkpt lat="47.34703" lon="-2.46768">
        <ele>34.200000762939</ele>
        <time>2021-10-14T09:28:51.000Z</time>
      </trkpt>
      <trkpt lat="47.347" lon="-2.46773">
        <ele>34.599998474121</ele>
        <time>2021-10-14T09:28:52.000Z</time>
      </trkpt>
      <trkpt lat="47.34684" lon="-2.46802">
        <ele>34.599998474121</ele>
        <time>2021-10-14T09:28:57.000Z</time>
      </trkpt>
      <trkpt lat="47.34675" lon="-2.46821">
        <ele>34.599998474121</ele>
        <time>2021-10-14T09:29:00.000Z</time>
      </trkpt>
      <trkpt lat="47.34665" lon="-2.46837">
        <ele>34.599998474121</ele>
        <time>2021-10-14T09:29:03.000Z</time>
      </trkpt>
      <trkpt lat="47.34643" lon="-2.4687">
        <ele>34.599998474121</ele>
        <time>2021-10-14T09:29:09.000Z</time>
      </trkpt>
      <trkpt lat="47.34627" lon="-2.46893">
        <ele>34.599998474121</ele>
        <time>2021-10-14T09:29:13.000Z</time>
      </trkpt>
      <trkpt lat="47.34621" lon="-2.46907">
        <ele>34.599998474121</ele>
        <time>2021-10-14T09:29:15.000Z</time>
      </trkpt>
      <trkpt lat="47.34618" lon="-2.46912">
        <ele>34.599998474121</ele>
        <time>2021-10-14T09:29:16.000Z</time>
      </trkpt>
      <trkpt lat="47.34605" lon="-2.46926">
        <ele>34.599998474121</ele>
        <time>2021-10-14T09:29:19.000Z</time>
      </trkpt>
      <trkpt lat="47.34595" lon="-2.46934">
        <ele>34.599998474121</ele>
        <time>2021-10-14T09:29:21.000Z</time>
      </trkpt>
      <trkpt lat="47.34575" lon="-2.46951">
        <ele>34.599998474121</ele>
        <time>2021-10-14T09:29:25.000Z</time>
      </trkpt>
      <trkpt lat="47.34565" lon="-2.4696">
        <ele>34.599998474121</ele>
        <time>2021-10-14T09:29:27.000Z</time>
      </trkpt>
      <trkpt lat="47.34547" lon="-2.46971">
        <ele>34.599998474121</ele>
        <time>2021-10-14T09:29:30.000Z</time>
      </trkpt>
      <trkpt lat="47.34529" lon="-2.46978">
        <ele>34.599998474121</ele>
        <time>2021-10-14T09:29:33.000Z</time>
      </trkpt>
      <trkpt lat="47.34523" lon="-2.46982">
        <ele>34.599998474121</ele>
        <time>2021-10-14T09:29:34.000Z</time>
      </trkpt>
      <trkpt lat="47.34489" lon="-2.47002">
        <ele>34.599998474121</ele>
        <time>2021-10-14T09:29:40.000Z</time>
      </trkpt>
      <trkpt lat="47.34444" lon="-2.47029">
        <ele>34.599998474121</ele>
        <time>2021-10-14T09:29:48.000Z</time>
      </trkpt>
      <trkpt lat="47.34405" lon="-2.47051">
        <ele>34.599998474121</ele>
        <time>2021-10-14T09:29:55.000Z</time>
      </trkpt>
      <trkpt lat="47.34373" lon="-2.47068">
        <ele>34.599998474121</ele>
        <time>2021-10-14T09:30:01.000Z</time>
      </trkpt>
      <trkpt lat="47.34335" lon="-2.47094">
        <ele>34.599998474121</ele>
        <time>2021-10-14T09:30:08.000Z</time>
      </trkpt>
      <trkpt lat="47.34297" lon="-2.4712">
        <ele>34.599998474121</ele>
        <time>2021-10-14T09:30:15.000Z</time>
      </trkpt>
      <trkpt lat="47.34263" lon="-2.47147">
        <ele>34.599998474121</ele>
        <time>2021-10-14T09:30:21.000Z</time>
      </trkpt>
      <trkpt lat="47.34234" lon="-2.47184">
        <ele>34.599998474121</ele>
        <time>2021-10-14T09:30:27.000Z</time>
      </trkpt>
      <trkpt lat="47.34193" lon="-2.4723">
        <ele>34.599998474121</ele>
        <time>2021-10-14T09:30:35.000Z</time>
      </trkpt>
      <trkpt lat="47.34166" lon="-2.47259">
        <ele>34.200000762939</ele>
        <time>2021-10-14T09:30:40.000Z</time>
      </trkpt>
      <trkpt lat="47.34161" lon="-2.47266">
        <ele>33.799999237061</ele>
        <time>2021-10-14T09:30:41.000Z</time>
      </trkpt>
      <trkpt lat="47.34155" lon="-2.47271">
        <ele>33.200000762939</ele>
        <time>2021-10-14T09:30:42.000Z</time>
      </trkpt>
      <trkpt lat="47.34149" lon="-2.47277">
        <ele>32.799999237061</ele>
        <time>2021-10-14T09:30:43.000Z</time>
      </trkpt>
      <trkpt lat="47.34144" lon="-2.47284">
        <ele>32.400001525879</ele>
        <time>2021-10-14T09:30:44.000Z</time>
      </trkpt>
      <trkpt lat="47.34139" lon="-2.47292">
        <ele>32.400001525879</ele>
        <time>2021-10-14T09:30:45.000Z</time>
      </trkpt>
      <trkpt lat="47.3413" lon="-2.47309">
        <ele>32.400001525879</ele>
        <time>2021-10-14T09:30:47.000Z</time>
      </trkpt>
      <trkpt lat="47.34126" lon="-2.47319">
        <ele>32</ele>
        <time>2021-10-14T09:30:48.000Z</time>
      </trkpt>
      <trkpt lat="47.34123" lon="-2.47328">
        <ele>31.60000038147</ele>
        <time>2021-10-14T09:30:49.000Z</time>
      </trkpt>
      <trkpt lat="47.34119" lon="-2.47338">
        <ele>30.799999237061</ele>
        <time>2021-10-14T09:30:50.000Z</time>
      </trkpt>
      <trkpt lat="47.34116" lon="-2.47348">
        <ele>30.39999961853</ele>
        <time>2021-10-14T09:30:51.000Z</time>
      </trkpt>
      <trkpt lat="47.34112" lon="-2.47358">
        <ele>30.39999961853</ele>
        <time>2021-10-14T09:30:52.000Z</time>
      </trkpt>
      <trkpt lat="47.34108" lon="-2.47368">
        <ele>29.799999237061</ele>
        <time>2021-10-14T09:30:53.000Z</time>
      </trkpt>
      <trkpt lat="47.34104" lon="-2.47378">
        <ele>29.39999961853</ele>
        <time>2021-10-14T09:30:54.000Z</time>
      </trkpt>
      <trkpt lat="47.341" lon="-2.47386">
        <ele>29</ele>
        <time>2021-10-14T09:30:55.000Z</time>
      </trkpt>
      <trkpt lat="47.34098" lon="-2.47392">
        <ele>28.60000038147</ele>
        <time>2021-10-14T09:30:56.000Z</time>
      </trkpt>
      <trkpt lat="47.34095" lon="-2.47398">
        <ele>28</ele>
        <time>2021-10-14T09:30:57.000Z</time>
      </trkpt>
      <trkpt lat="47.3409" lon="-2.47404">
        <ele>27.60000038147</ele>
        <time>2021-10-14T09:31:00.000Z</time>
      </trkpt>
      <trkpt lat="47.34089" lon="-2.47406">
        <ele>27.200000762939</ele>
        <time>2021-10-14T09:31:01.000Z</time>
      </trkpt>
      <trkpt lat="47.34089" lon="-2.47405">
        <ele>26.799999237061</ele>
        <time>2021-10-14T09:31:02.000Z</time>
      </trkpt>
      <trkpt lat="47.34089" lon="-2.47406">
        <ele>26.39999961853</ele>
        <time>2021-10-14T09:31:03.000Z</time>
      </trkpt>
      <trkpt lat="47.34086" lon="-2.47413">
        <ele>26</ele>
        <time>2021-10-14T09:31:07.000Z</time>
      </trkpt>
      <trkpt lat="47.34085" lon="-2.47413">
        <ele>26</ele>
        <time>2021-10-14T09:31:08.000Z</time>
      </trkpt>
      <trkpt lat="47.34083" lon="-2.47413">
        <ele>26</ele>
        <time>2021-10-14T09:31:09.000Z</time>
      </trkpt>
      <trkpt lat="47.34083" lon="-2.47416">
        <ele>26</ele>
        <time>2021-10-14T09:31:12.000Z</time>
      </trkpt>
      <trkpt lat="47.34083" lon="-2.47417">
        <ele>26</ele>
        <time>2021-10-14T09:31:14.000Z</time>
      </trkpt>
      <trkpt lat="47.34078" lon="-2.47422">
        <ele>26</ele>
        <time>2021-10-14T09:31:25.000Z</time>
      </trkpt>
      <trkpt lat="47.34074" lon="-2.47425">
        <ele>26</ele>
        <time>2021-10-14T09:31:27.000Z</time>
      </trkpt>
      <trkpt lat="47.34062" lon="-2.47439">
        <ele>26</ele>
        <time>2021-10-14T09:31:31.000Z</time>
      </trkpt>
      <trkpt lat="47.34038" lon="-2.47466">
        <ele>26</ele>
        <time>2021-10-14T09:31:37.000Z</time>
      </trkpt>
      <trkpt lat="47.34027" lon="-2.47475">
        <ele>25.60000038147</ele>
        <time>2021-10-14T09:31:39.000Z</time>
      </trkpt>
      <trkpt lat="47.34021" lon="-2.47479">
        <ele>25.200000762939</ele>
        <time>2021-10-14T09:31:40.000Z</time>
      </trkpt>
      <trkpt lat="47.34017" lon="-2.47485">
        <ele>24.799999237061</ele>
        <time>2021-10-14T09:31:41.000Z</time>
      </trkpt>
      <trkpt lat="47.34012" lon="-2.47491">
        <ele>24.39999961853</ele>
        <time>2021-10-14T09:31:42.000Z</time>
      </trkpt>
      <trkpt lat="47.34006" lon="-2.47496">
        <ele>24</ele>
        <time>2021-10-14T09:31:43.000Z</time>
      </trkpt>
      <trkpt lat="47.33984" lon="-2.47518">
        <ele>23.60000038147</ele>
        <time>2021-10-14T09:31:47.000Z</time>
      </trkpt>
      <trkpt lat="47.33978" lon="-2.47524">
        <ele>23.200000762939</ele>
        <time>2021-10-14T09:31:48.000Z</time>
      </trkpt>
      <trkpt lat="47.33973" lon="-2.4753">
        <ele>22.60000038147</ele>
        <time>2021-10-14T09:31:49.000Z</time>
      </trkpt>
      <trkpt lat="47.33967" lon="-2.47537">
        <ele>22.200000762939</ele>
        <time>2021-10-14T09:31:50.000Z</time>
      </trkpt>
      <trkpt lat="47.33962" lon="-2.47545">
        <ele>21.799999237061</ele>
        <time>2021-10-14T09:31:51.000Z</time>
      </trkpt>
      <trkpt lat="47.33957" lon="-2.47553">
        <ele>21.799999237061</ele>
        <time>2021-10-14T09:31:52.000Z</time>
      </trkpt>
      <trkpt lat="47.33953" lon="-2.47563">
        <ele>21.39999961853</ele>
        <time>2021-10-14T09:31:53.000Z</time>
      </trkpt>
      <trkpt lat="47.33948" lon="-2.47573">
        <ele>21</ele>
        <time>2021-10-14T09:31:54.000Z</time>
      </trkpt>
      <trkpt lat="47.33945" lon="-2.47584">
        <ele>20.60000038147</ele>
        <time>2021-10-14T09:31:55.000Z</time>
      </trkpt>
      <trkpt lat="47.33942" lon="-2.47595">
        <ele>20</ele>
        <time>2021-10-14T09:31:56.000Z</time>
      </trkpt>
      <trkpt lat="47.33939" lon="-2.47606">
        <ele>19.60000038147</ele>
        <time>2021-10-14T09:31:57.000Z</time>
      </trkpt>
      <trkpt lat="47.33932" lon="-2.47627">
        <ele>19.200000762939</ele>
        <time>2021-10-14T09:31:59.000Z</time>
      </trkpt>
      <trkpt lat="47.33929" lon="-2.47638">
        <ele>18.799999237061</ele>
        <time>2021-10-14T09:32:00.000Z</time>
      </trkpt>
      <trkpt lat="47.33926" lon="-2.47647">
        <ele>18.39999961853</ele>
        <time>2021-10-14T09:32:01.000Z</time>
      </trkpt>
      <trkpt lat="47.33923" lon="-2.47657">
        <ele>18</ele>
        <time>2021-10-14T09:32:02.000Z</time>
      </trkpt>
      <trkpt lat="47.33919" lon="-2.47666">
        <ele>17.60000038147</ele>
        <time>2021-10-14T09:32:03.000Z</time>
      </trkpt>
      <trkpt lat="47.33915" lon="-2.47675">
        <ele>17.60000038147</ele>
        <time>2021-10-14T09:32:04.000Z</time>
      </trkpt>
      <trkpt lat="47.3391" lon="-2.47683">
        <ele>17.200000762939</ele>
        <time>2021-10-14T09:32:05.000Z</time>
      </trkpt>
      <trkpt lat="47.33905" lon="-2.47692">
        <ele>16.799999237061</ele>
        <time>2021-10-14T09:32:06.000Z</time>
      </trkpt>
      <trkpt lat="47.339" lon="-2.47701">
        <ele>16.200000762939</ele>
        <time>2021-10-14T09:32:07.000Z</time>
      </trkpt>
      <trkpt lat="47.33895" lon="-2.47711">
        <ele>15.800000190735</ele>
        <time>2021-10-14T09:32:08.000Z</time>
      </trkpt>
      <trkpt lat="47.3389" lon="-2.47721">
        <ele>15.39999961853</ele>
        <time>2021-10-14T09:32:09.000Z</time>
      </trkpt>
      <trkpt lat="47.33885" lon="-2.4773">
        <ele>15</ele>
        <time>2021-10-14T09:32:10.000Z</time>
      </trkpt>
      <trkpt lat="47.33881" lon="-2.47739">
        <ele>14.60000038147</ele>
        <time>2021-10-14T09:32:11.000Z</time>
      </trkpt>
      <trkpt lat="47.33876" lon="-2.47747">
        <ele>14</ele>
        <time>2021-10-14T09:32:12.000Z</time>
      </trkpt>
      <trkpt lat="47.3387" lon="-2.47755">
        <ele>13.60000038147</ele>
        <time>2021-10-14T09:32:13.000Z</time>
      </trkpt>
      <trkpt lat="47.33865" lon="-2.47763">
        <ele>13.199999809265</ele>
        <time>2021-10-14T09:32:14.000Z</time>
      </trkpt>
      <trkpt lat="47.33853" lon="-2.47774">
        <ele>13.199999809265</ele>
        <time>2021-10-14T09:32:17.000Z</time>
      </trkpt>
      <trkpt lat="47.33845" lon="-2.47767">
        <ele>13.199999809265</ele>
        <time>2021-10-14T09:32:20.000Z</time>
      </trkpt>
      <trkpt lat="47.33842" lon="-2.4776">
        <ele>13.199999809265</ele>
        <time>2021-10-14T09:32:22.000Z</time>
      </trkpt>
      <trkpt lat="47.33832" lon="-2.47747">
        <ele>13.199999809265</ele>
        <time>2021-10-14T09:32:25.000Z</time>
      </trkpt>
      <trkpt lat="47.33818" lon="-2.47733">
        <ele>13.199999809265</ele>
        <time>2021-10-14T09:32:29.000Z</time>
      </trkpt>
      <trkpt lat="47.33812" lon="-2.47725">
        <ele>13.199999809265</ele>
        <time>2021-10-14T09:32:31.000Z</time>
      </trkpt>
      <trkpt lat="47.33799" lon="-2.47707">
        <ele>13.199999809265</ele>
        <time>2021-10-14T09:32:35.000Z</time>
      </trkpt>
      <trkpt lat="47.33796" lon="-2.47703">
        <ele>13.199999809265</ele>
        <time>2021-10-14T09:32:36.000Z</time>
      </trkpt>
      <trkpt lat="47.33785" lon="-2.47687">
        <ele>13.199999809265</ele>
        <time>2021-10-14T09:32:41.000Z</time>
      </trkpt>
      <trkpt lat="47.33774" lon="-2.47676">
        <ele>13.199999809265</ele>
        <time>2021-10-14T09:32:47.000Z</time>
      </trkpt>
      <trkpt lat="47.33774" lon="-2.47675">
        <ele>13.199999809265</ele>
        <time>2021-10-14T09:32:51.000Z</time>
      </trkpt>
      <trkpt lat="47.33772" lon="-2.47671">
        <ele>13.199999809265</ele>
        <time>2021-10-14T09:32:55.000Z</time>
      </trkpt>
      <trkpt lat="47.3377" lon="-2.47669">
        <ele>13.199999809265</ele>
        <time>2021-10-14T09:32:57.000Z</time>
      </trkpt>
      <trkpt lat="47.33762" lon="-2.47655">
        <ele>13.199999809265</ele>
        <time>2021-10-14T09:33:02.000Z</time>
      </trkpt>
      <trkpt lat="47.33759" lon="-2.47646">
        <ele>13.199999809265</ele>
        <time>2021-10-14T09:33:04.000Z</time>
      </trkpt>
      <trkpt lat="47.33757" lon="-2.47642">
        <ele>13.60000038147</ele>
        <time>2021-10-14T09:33:05.000Z</time>
      </trkpt>
      <trkpt lat="47.33754" lon="-2.47637">
        <ele>14</ele>
        <time>2021-10-14T09:33:06.000Z</time>
      </trkpt>
      <trkpt lat="47.33751" lon="-2.47634">
        <ele>14.39999961853</ele>
        <time>2021-10-14T09:33:07.000Z</time>
      </trkpt>
      <trkpt lat="47.33748" lon="-2.4763">
        <ele>14.800000190735</ele>
        <time>2021-10-14T09:33:08.000Z</time>
      </trkpt>
      <trkpt lat="47.33744" lon="-2.47626">
        <ele>15.39999961853</ele>
        <time>2021-10-14T09:33:09.000Z</time>
      </trkpt>
      <trkpt lat="47.33736" lon="-2.47617">
        <ele>15.39999961853</ele>
        <time>2021-10-14T09:33:12.000Z</time>
      </trkpt>
      <trkpt lat="47.33733" lon="-2.47616">
        <ele>15.39999961853</ele>
        <time>2021-10-14T09:33:15.000Z</time>
      </trkpt>
      <trkpt lat="47.33734" lon="-2.47616">
        <ele>15.39999961853</ele>
        <time>2021-10-14T09:33:16.000Z</time>
      </trkpt>
      <trkpt lat="47.33731" lon="-2.47617">
        <ele>15.39999961853</ele>
        <time>2021-10-14T09:33:32.000Z</time>
      </trkpt>
      <trkpt lat="47.33727" lon="-2.47618">
        <ele>15.39999961853</ele>
        <time>2021-10-14T09:33:34.000Z</time>
      </trkpt>
      <trkpt lat="47.33712" lon="-2.47619">
        <ele>15.39999961853</ele>
        <time>2021-10-14T09:33:38.000Z</time>
      </trkpt>
      <trkpt lat="47.33694" lon="-2.4762">
        <ele>15.39999961853</ele>
        <time>2021-10-14T09:33:42.000Z</time>
      </trkpt>
      <trkpt lat="47.33685" lon="-2.47624">
        <ele>15.39999961853</ele>
        <time>2021-10-14T09:33:44.000Z</time>
      </trkpt>
      <trkpt lat="47.33676" lon="-2.4763">
        <ele>15.39999961853</ele>
        <time>2021-10-14T09:33:46.000Z</time>
      </trkpt>
      <trkpt lat="47.33655" lon="-2.47644">
        <ele>15.39999961853</ele>
        <time>2021-10-14T09:33:50.000Z</time>
      </trkpt>
      <trkpt lat="47.33624" lon="-2.47666">
        <ele>15.39999961853</ele>
        <time>2021-10-14T09:33:56.000Z</time>
      </trkpt>
      <trkpt lat="47.33614" lon="-2.47675">
        <ele>15.39999961853</ele>
        <time>2021-10-14T09:33:58.000Z</time>
      </trkpt>
      <trkpt lat="47.336" lon="-2.47688">
        <ele>15.39999961853</ele>
        <time>2021-10-14T09:34:01.000Z</time>
      </trkpt>
      <trkpt lat="47.33585" lon="-2.477">
        <ele>15.39999961853</ele>
        <time>2021-10-14T09:34:04.000Z</time>
      </trkpt>
      <trkpt lat="47.33575" lon="-2.47701">
        <ele>15.39999961853</ele>
        <time>2021-10-14T09:34:06.000Z</time>
      </trkpt>
      <trkpt lat="47.33561" lon="-2.47694">
        <ele>15.39999961853</ele>
        <time>2021-10-14T09:34:09.000Z</time>
      </trkpt>
      <trkpt lat="47.33557" lon="-2.47691">
        <ele>15.39999961853</ele>
        <time>2021-10-14T09:34:10.000Z</time>
      </trkpt>
      <trkpt lat="47.33529" lon="-2.4767">
        <ele>15.39999961853</ele>
        <time>2021-10-14T09:34:16.000Z</time>
      </trkpt>
      <trkpt lat="47.33524" lon="-2.47665">
        <ele>15.39999961853</ele>
        <time>2021-10-14T09:34:17.000Z</time>
      </trkpt>
      <trkpt lat="47.33513" lon="-2.47642">
        <ele>15.39999961853</ele>
        <time>2021-10-14T09:34:20.000Z</time>
      </trkpt>
      <trkpt lat="47.33509" lon="-2.47634">
        <ele>15.39999961853</ele>
        <time>2021-10-14T09:34:21.000Z</time>
      </trkpt>
      <trkpt lat="47.33502" lon="-2.47619">
        <ele>15</ele>
        <time>2021-10-14T09:34:23.000Z</time>
      </trkpt>
      <trkpt lat="47.33498" lon="-2.47612">
        <ele>14.39999961853</ele>
        <time>2021-10-14T09:34:24.000Z</time>
      </trkpt>
      <trkpt lat="47.33494" lon="-2.47607">
        <ele>14</ele>
        <time>2021-10-14T09:34:25.000Z</time>
      </trkpt>
      <trkpt lat="47.33488" lon="-2.47601">
        <ele>13.60000038147</ele>
        <time>2021-10-14T09:34:26.000Z</time>
      </trkpt>
      <trkpt lat="47.33483" lon="-2.47597">
        <ele>13.199999809265</ele>
        <time>2021-10-14T09:34:27.000Z</time>
      </trkpt>
      <trkpt lat="47.33478" lon="-2.47591">
        <ele>13.199999809265</ele>
        <time>2021-10-14T09:34:28.000Z</time>
      </trkpt>
      <trkpt lat="47.33471" lon="-2.4758">
        <ele>13.199999809265</ele>
        <time>2021-10-14T09:34:30.000Z</time>
      </trkpt>
      <trkpt lat="47.33467" lon="-2.47574">
        <ele>13.199999809265</ele>
        <time>2021-10-14T09:34:31.000Z</time>
      </trkpt>
      <trkpt lat="47.33451" lon="-2.47541">
        <ele>13.199999809265</ele>
        <time>2021-10-14T09:34:37.000Z</time>
      </trkpt>
      <trkpt lat="47.33431" lon="-2.47494">
        <ele>13.199999809265</ele>
        <time>2021-10-14T09:34:45.000Z</time>
      </trkpt>
      <trkpt lat="47.33425" lon="-2.47475">
        <ele>13.199999809265</ele>
        <time>2021-10-14T09:34:48.000Z</time>
      </trkpt>
      <trkpt lat="47.33419" lon="-2.47456">
        <ele>13.199999809265</ele>
        <time>2021-10-14T09:34:51.000Z</time>
      </trkpt>
      <trkpt lat="47.33407" lon="-2.47402">
        <ele>13.199999809265</ele>
        <time>2021-10-14T09:34:58.000Z</time>
      </trkpt>
      <trkpt lat="47.33403" lon="-2.47388">
        <ele>13.199999809265</ele>
        <time>2021-10-14T09:35:00.000Z</time>
      </trkpt>
      <trkpt lat="47.33395" lon="-2.47362">
        <ele>13.199999809265</ele>
        <time>2021-10-14T09:35:04.000Z</time>
      </trkpt>
      <trkpt lat="47.3339" lon="-2.47341">
        <ele>13.199999809265</ele>
        <time>2021-10-14T09:35:07.000Z</time>
      </trkpt>
      <trkpt lat="47.33387" lon="-2.47319">
        <ele>13.199999809265</ele>
        <time>2021-10-14T09:35:10.000Z</time>
      </trkpt>
      <trkpt lat="47.33381" lon="-2.47265">
        <ele>13.199999809265</ele>
        <time>2021-10-14T09:35:16.000Z</time>
      </trkpt>
      <trkpt lat="47.33375" lon="-2.47213">
        <ele>13.199999809265</ele>
        <time>2021-10-14T09:35:22.000Z</time>
      </trkpt>
      <trkpt lat="47.33365" lon="-2.47156">
        <ele>13.199999809265</ele>
        <time>2021-10-14T09:35:29.000Z</time>
      </trkpt>
      <trkpt lat="47.33356" lon="-2.47108">
        <ele>12.800000190735</ele>
        <time>2021-10-14T09:35:34.000Z</time>
      </trkpt>
      <trkpt lat="47.33353" lon="-2.47099">
        <ele>12.39999961853</ele>
        <time>2021-10-14T09:35:35.000Z</time>
      </trkpt>
      <trkpt lat="47.33351" lon="-2.4709">
        <ele>12</ele>
        <time>2021-10-14T09:35:36.000Z</time>
      </trkpt>
      <trkpt lat="47.33349" lon="-2.47081">
        <ele>11.60000038147</ele>
        <time>2021-10-14T09:35:37.000Z</time>
      </trkpt>
      <trkpt lat="47.33348" lon="-2.47071">
        <ele>11.199999809265</ele>
        <time>2021-10-14T09:35:38.000Z</time>
      </trkpt>
      <trkpt lat="47.33345" lon="-2.47052">
        <ele>11.199999809265</ele>
        <time>2021-10-14T09:35:40.000Z</time>
      </trkpt>
      <trkpt lat="47.33338" lon="-2.46996">
        <ele>11.199999809265</ele>
        <time>2021-10-14T09:35:46.000Z</time>
      </trkpt>
      <trkpt lat="47.33336" lon="-2.46989">
        <ele>11.199999809265</ele>
        <time>2021-10-14T09:35:47.000Z</time>
      </trkpt>
      <trkpt lat="47.3333" lon="-2.46959">
        <ele>11.199999809265</ele>
        <time>2021-10-14T09:35:51.000Z</time>
      </trkpt>
      <trkpt lat="47.33316" lon="-2.46905">
        <ele>11.199999809265</ele>
        <time>2021-10-14T09:35:59.000Z</time>
      </trkpt>
      <trkpt lat="47.33312" lon="-2.46892">
        <ele>11.60000038147</ele>
        <time>2021-10-14T09:36:01.000Z</time>
      </trkpt>
      <trkpt lat="47.3331" lon="-2.46886">
        <ele>12</ele>
        <time>2021-10-14T09:36:02.000Z</time>
      </trkpt>
      <trkpt lat="47.33308" lon="-2.4688">
        <ele>12.60000038147</ele>
        <time>2021-10-14T09:36:03.000Z</time>
      </trkpt>
      <trkpt lat="47.33306" lon="-2.46874">
        <ele>13</ele>
        <time>2021-10-14T09:36:04.000Z</time>
      </trkpt>
      <trkpt lat="47.33305" lon="-2.46868">
        <ele>13.39999961853</ele>
        <time>2021-10-14T09:36:05.000Z</time>
      </trkpt>
      <trkpt lat="47.33303" lon="-2.46862">
        <ele>13.39999961853</ele>
        <time>2021-10-14T09:36:06.000Z</time>
      </trkpt>
      <trkpt lat="47.33296" lon="-2.46838">
        <ele>13.800000190735</ele>
        <time>2021-10-14T09:36:10.000Z</time>
      </trkpt>
      <trkpt lat="47.33294" lon="-2.46833">
        <ele>14.199999809265</ele>
        <time>2021-10-14T09:36:11.000Z</time>
      </trkpt>
      <trkpt lat="47.33292" lon="-2.46827">
        <ele>14.60000038147</ele>
        <time>2021-10-14T09:36:12.000Z</time>
      </trkpt>
      <trkpt lat="47.33289" lon="-2.46821">
        <ele>15</ele>
        <time>2021-10-14T09:36:13.000Z</time>
      </trkpt>
      <trkpt lat="47.33287" lon="-2.46815">
        <ele>15.60000038147</ele>
        <time>2021-10-14T09:36:14.000Z</time>
      </trkpt>
      <trkpt lat="47.33274" lon="-2.46788">
        <ele>15.60000038147</ele>
        <time>2021-10-14T09:36:19.000Z</time>
      </trkpt>
      <trkpt lat="47.33266" lon="-2.46779">
        <ele>15.60000038147</ele>
        <time>2021-10-14T09:36:21.000Z</time>
      </trkpt>
      <trkpt lat="47.33251" lon="-2.46781">
        <ele>15.60000038147</ele>
        <time>2021-10-14T09:36:24.000Z</time>
      </trkpt>
      <trkpt lat="47.33239" lon="-2.46785">
        <ele>15.60000038147</ele>
        <time>2021-10-14T09:36:26.000Z</time>
      </trkpt>
      <trkpt lat="47.33217" lon="-2.46791">
        <ele>15.60000038147</ele>
        <time>2021-10-14T09:36:30.000Z</time>
      </trkpt>
      <trkpt lat="47.33202" lon="-2.46779">
        <ele>15.60000038147</ele>
        <time>2021-10-14T09:36:33.000Z</time>
      </trkpt>
      <trkpt lat="47.33193" lon="-2.46767">
        <ele>15.60000038147</ele>
        <time>2021-10-14T09:36:35.000Z</time>
      </trkpt>
      <trkpt lat="47.33175" lon="-2.46745">
        <ele>15</ele>
        <time>2021-10-14T09:36:39.000Z</time>
      </trkpt>
      <trkpt lat="47.33171" lon="-2.4674">
        <ele>14.60000038147</ele>
        <time>2021-10-14T09:36:40.000Z</time>
      </trkpt>
      <trkpt lat="47.33167" lon="-2.46734">
        <ele>14.199999809265</ele>
        <time>2021-10-14T09:36:41.000Z</time>
      </trkpt>
      <trkpt lat="47.33163" lon="-2.46728">
        <ele>13.800000190735</ele>
        <time>2021-10-14T09:36:42.000Z</time>
      </trkpt>
      <trkpt lat="47.33158" lon="-2.46723">
        <ele>13.39999961853</ele>
        <time>2021-10-14T09:36:43.000Z</time>
      </trkpt>
      <trkpt lat="47.33147" lon="-2.46707">
        <ele>13.39999961853</ele>
        <time>2021-10-14T09:36:46.000Z</time>
      </trkpt>
      <trkpt lat="47.33127" lon="-2.46671">
        <ele>13.39999961853</ele>
        <time>2021-10-14T09:36:52.000Z</time>
      </trkpt>
      <trkpt lat="47.33124" lon="-2.46666">
        <ele>13.39999961853</ele>
        <time>2021-10-14T09:36:53.000Z</time>
      </trkpt>
      <trkpt lat="47.33112" lon="-2.46647">
        <ele>13.39999961853</ele>
        <time>2021-10-14T09:36:57.000Z</time>
      </trkpt>
      <trkpt lat="47.33106" lon="-2.46635">
        <ele>13</ele>
        <time>2021-10-14T09:36:59.000Z</time>
      </trkpt>
      <trkpt lat="47.33103" lon="-2.46629">
        <ele>12.199999809265</ele>
        <time>2021-10-14T09:37:00.000Z</time>
      </trkpt>
      <trkpt lat="47.33101" lon="-2.46622">
        <ele>11.800000190735</ele>
        <time>2021-10-14T09:37:01.000Z</time>
      </trkpt>
      <trkpt lat="47.33098" lon="-2.46616">
        <ele>11.39999961853</ele>
        <time>2021-10-14T09:37:02.000Z</time>
      </trkpt>
      <trkpt lat="47.33096" lon="-2.46609">
        <ele>11.39999961853</ele>
        <time>2021-10-14T09:37:03.000Z</time>
      </trkpt>
      <trkpt lat="47.33082" lon="-2.46563">
        <ele>11.39999961853</ele>
        <time>2021-10-14T09:37:10.000Z</time>
      </trkpt>
      <trkpt lat="47.33076" lon="-2.46533">
        <ele>11.39999961853</ele>
        <time>2021-10-14T09:37:16.000Z</time>
      </trkpt>
      <trkpt lat="47.33069" lon="-2.46524">
        <ele>11</ele>
        <time>2021-10-14T09:37:19.000Z</time>
      </trkpt>
      <trkpt lat="47.33065" lon="-2.46526">
        <ele>10.39999961853</ele>
        <time>2021-10-14T09:37:20.000Z</time>
      </trkpt>
      <trkpt lat="47.33061" lon="-2.46529">
        <ele>10</ele>
        <time>2021-10-14T09:37:21.000Z</time>
      </trkpt>
      <trkpt lat="47.33057" lon="-2.46531">
        <ele>9.6000003814697</ele>
        <time>2021-10-14T09:37:22.000Z</time>
      </trkpt>
      <trkpt lat="47.33052" lon="-2.46534">
        <ele>9.1999998092651</ele>
        <time>2021-10-14T09:37:23.000Z</time>
      </trkpt>
      <trkpt lat="47.33047" lon="-2.46536">
        <ele>9.1999998092651</ele>
        <time>2021-10-14T09:37:24.000Z</time>
      </trkpt>
      <trkpt lat="47.33038" lon="-2.46539">
        <ele>8.8000001907349</ele>
        <time>2021-10-14T09:37:26.000Z</time>
      </trkpt>
      <trkpt lat="47.33034" lon="-2.46539">
        <ele>8.3999996185303</ele>
        <time>2021-10-14T09:37:27.000Z</time>
      </trkpt>
      <trkpt lat="47.3303" lon="-2.46538">
        <ele>8</ele>
        <time>2021-10-14T09:37:28.000Z</time>
      </trkpt>
      <trkpt lat="47.33027" lon="-2.46537">
        <ele>7.5999999046326</ele>
        <time>2021-10-14T09:37:29.000Z</time>
      </trkpt>
      <trkpt lat="47.33023" lon="-2.46536">
        <ele>7.1999998092651</ele>
        <time>2021-10-14T09:37:30.000Z</time>
      </trkpt>
      <trkpt lat="47.3301" lon="-2.46543">
        <ele>7.1999998092651</ele>
        <time>2021-10-14T09:37:34.000Z</time>
      </trkpt>
      <trkpt lat="47.32992" lon="-2.46553">
        <ele>6.8000001907349</ele>
        <time>2021-10-14T09:37:38.000Z</time>
      </trkpt>
      <trkpt lat="47.32987" lon="-2.46555">
        <ele>6.1999998092651</ele>
        <time>2021-10-14T09:37:39.000Z</time>
      </trkpt>
      <trkpt lat="47.32982" lon="-2.46557">
        <ele>5.8000001907349</ele>
        <time>2021-10-14T09:37:40.000Z</time>
      </trkpt>
      <trkpt lat="47.32978" lon="-2.4656">
        <ele>5.4000000953674</ele>
        <time>2021-10-14T09:37:41.000Z</time>
      </trkpt>
      <trkpt lat="47.32973" lon="-2.46561">
        <ele>5</ele>
        <time>2021-10-14T09:37:42.000Z</time>
      </trkpt>
      <trkpt lat="47.32966" lon="-2.46564">
        <ele>4.4000000953674</ele>
        <time>2021-10-14T09:37:44.000Z</time>
      </trkpt>
      <trkpt lat="47.32963" lon="-2.46565">
        <ele>4</ele>
        <time>2021-10-14T09:37:45.000Z</time>
      </trkpt>
      <trkpt lat="47.3296" lon="-2.46564">
        <ele>3.4000000953674</ele>
        <time>2021-10-14T09:37:46.000Z</time>
      </trkpt>
      <trkpt lat="47.32959" lon="-2.46562">
        <ele>3</ele>
        <time>2021-10-14T09:37:47.000Z</time>
      </trkpt>
      <trkpt lat="47.32957" lon="-2.46559">
        <ele>2.4000000953674</ele>
        <time>2021-10-14T09:37:48.000Z</time>
      </trkpt>
      <trkpt lat="47.32957" lon="-2.46542">
        <ele>2.4000000953674</ele>
        <time>2021-10-14T09:37:51.000Z</time>
      </trkpt>
      <trkpt lat="47.32957" lon="-2.46536">
        <ele>2</ele>
        <time>2021-10-14T09:37:52.000Z</time>
      </trkpt>
      <trkpt lat="47.32957" lon="-2.46529">
        <ele>1.6000000238419</ele>
        <time>2021-10-14T09:37:53.000Z</time>
      </trkpt>
      <trkpt lat="47.32958" lon="-2.46523">
        <ele>1.2000000476837</ele>
        <time>2021-10-14T09:37:54.000Z</time>
      </trkpt>
      <trkpt lat="47.32958" lon="-2.46516">
        <ele>0.80000001192093</ele>
        <time>2021-10-14T09:37:55.000Z</time>
      </trkpt>
      <trkpt lat="47.32958" lon="-2.46509">
        <ele>0.40000000596046</ele>
        <time>2021-10-14T09:37:56.000Z</time>
      </trkpt>
      <trkpt lat="47.32958" lon="-2.46496">
        <ele>0.40000000596046</ele>
        <time>2021-10-14T09:37:58.000Z</time>
      </trkpt>
      <trkpt lat="47.32959" lon="-2.46471">
        <ele>1</ele>
        <time>2021-10-14T09:38:02.000Z</time>
      </trkpt>
      <trkpt lat="47.3296" lon="-2.46465">
        <ele>1.3999999761581</ele>
        <time>2021-10-14T09:38:03.000Z</time>
      </trkpt>
      <trkpt lat="47.3296" lon="-2.46458">
        <ele>1.7999999523163</ele>
        <time>2021-10-14T09:38:04.000Z</time>
      </trkpt>
      <trkpt lat="47.3296" lon="-2.46452">
        <ele>2.4000000953674</ele>
        <time>2021-10-14T09:38:05.000Z</time>
      </trkpt>
      <trkpt lat="47.32961" lon="-2.46446">
        <ele>2.7999999523163</ele>
        <time>2021-10-14T09:38:06.000Z</time>
      </trkpt>
      <trkpt lat="47.32961" lon="-2.4643">
        <ele>3.2000000476837</ele>
        <time>2021-10-14T09:38:09.000Z</time>
      </trkpt>
      <trkpt lat="47.32961" lon="-2.46423">
        <ele>3.7999999523163</ele>
        <time>2021-10-14T09:38:10.000Z</time>
      </trkpt>
      <trkpt lat="47.32961" lon="-2.46418">
        <ele>4.1999998092651</ele>
        <time>2021-10-14T09:38:11.000Z</time>
      </trkpt>
      <trkpt lat="47.32962" lon="-2.46412">
        <ele>4.5999999046326</ele>
        <time>2021-10-14T09:38:12.000Z</time>
      </trkpt>
      <trkpt lat="47.32962" lon="-2.46405">
        <ele>5.1999998092651</ele>
        <time>2021-10-14T09:38:13.000Z</time>
      </trkpt>
      <trkpt lat="47.32962" lon="-2.46394">
        <ele>5.5999999046326</ele>
        <time>2021-10-14T09:38:15.000Z</time>
      </trkpt>
      <trkpt lat="47.32962" lon="-2.46389">
        <ele>6</ele>
        <time>2021-10-14T09:38:16.000Z</time>
      </trkpt>
      <trkpt lat="47.32962" lon="-2.46383">
        <ele>6.5999999046326</ele>
        <time>2021-10-14T09:38:17.000Z</time>
      </trkpt>
      <trkpt lat="47.32962" lon="-2.46378">
        <ele>7</ele>
        <time>2021-10-14T09:38:18.000Z</time>
      </trkpt>
      <trkpt lat="47.32962" lon="-2.46372">
        <ele>7.4000000953674</ele>
        <time>2021-10-14T09:38:19.000Z</time>
      </trkpt>
      <trkpt lat="47.32961" lon="-2.46366">
        <ele>7.8000001907349</ele>
        <time>2021-10-14T09:38:20.000Z</time>
      </trkpt>
      <trkpt lat="47.3296" lon="-2.46361">
        <ele>8.3999996185303</ele>
        <time>2021-10-14T09:38:21.000Z</time>
      </trkpt>
      <trkpt lat="47.32959" lon="-2.46355">
        <ele>8.8000001907349</ele>
        <time>2021-10-14T09:38:22.000Z</time>
      </trkpt>
      <trkpt lat="47.32958" lon="-2.46349">
        <ele>9.1999998092651</ele>
        <time>2021-10-14T09:38:23.000Z</time>
      </trkpt>
      <trkpt lat="47.32956" lon="-2.46343">
        <ele>9.6000003814697</ele>
        <time>2021-10-14T09:38:24.000Z</time>
      </trkpt>
      <trkpt lat="47.32955" lon="-2.46338">
        <ele>10</ele>
        <time>2021-10-14T09:38:25.000Z</time>
      </trkpt>
      <trkpt lat="47.32953" lon="-2.46333">
        <ele>10.39999961853</ele>
        <time>2021-10-14T09:38:26.000Z</time>
      </trkpt>
      <trkpt lat="47.32951" lon="-2.46328">
        <ele>10.800000190735</ele>
        <time>2021-10-14T09:38:27.000Z</time>
      </trkpt>
      <trkpt lat="47.3295" lon="-2.46322">
        <ele>11.199999809265</ele>
        <time>2021-10-14T09:38:28.000Z</time>
      </trkpt>
      <trkpt lat="47.32948" lon="-2.46317">
        <ele>11.60000038147</ele>
        <time>2021-10-14T09:38:29.000Z</time>
      </trkpt>
      <trkpt lat="47.32944" lon="-2.46301">
        <ele>12</ele>
        <time>2021-10-14T09:38:32.000Z</time>
      </trkpt>
      <trkpt lat="47.32942" lon="-2.46296">
        <ele>12.60000038147</ele>
        <time>2021-10-14T09:38:33.000Z</time>
      </trkpt>
      <trkpt lat="47.3294" lon="-2.4629">
        <ele>13</ele>
        <time>2021-10-14T09:38:34.000Z</time>
      </trkpt>
      <trkpt lat="47.32939" lon="-2.46284">
        <ele>13.39999961853</ele>
        <time>2021-10-14T09:38:35.000Z</time>
      </trkpt>
      <trkpt lat="47.32937" lon="-2.46277">
        <ele>13.800000190735</ele>
        <time>2021-10-14T09:38:36.000Z</time>
      </trkpt>
      <trkpt lat="47.3293" lon="-2.46252">
        <ele>13.800000190735</ele>
        <time>2021-10-14T09:38:40.000Z</time>
      </trkpt>
      <trkpt lat="47.32915" lon="-2.46199">
        <ele>13.800000190735</ele>
        <time>2021-10-14T09:38:48.000Z</time>
      </trkpt>
      <trkpt lat="47.32913" lon="-2.46187">
        <ele>14.199999809265</ele>
        <time>2021-10-14T09:38:50.000Z</time>
      </trkpt>
      <trkpt lat="47.32912" lon="-2.46181">
        <ele>14.60000038147</ele>
        <time>2021-10-14T09:38:51.000Z</time>
      </trkpt>
      <trkpt lat="47.32911" lon="-2.46176">
        <ele>15</ele>
        <time>2021-10-14T09:38:52.000Z</time>
      </trkpt>
      <trkpt lat="47.3291" lon="-2.4617">
        <ele>15.39999961853</ele>
        <time>2021-10-14T09:38:53.000Z</time>
      </trkpt>
      <trkpt lat="47.32909" lon="-2.46165">
        <ele>15.800000190735</ele>
        <time>2021-10-14T09:38:54.000Z</time>
      </trkpt>
      <trkpt lat="47.32907" lon="-2.46159">
        <ele>15.800000190735</ele>
        <time>2021-10-14T09:38:55.000Z</time>
      </trkpt>
      <trkpt lat="47.32897" lon="-2.4615">
        <ele>15.800000190735</ele>
        <time>2021-10-14T09:38:58.000Z</time>
      </trkpt>
      <trkpt lat="47.32894" lon="-2.4615">
        <ele>15.800000190735</ele>
        <time>2021-10-14T09:38:59.000Z</time>
      </trkpt>
      <trkpt lat="47.32889" lon="-2.46152">
        <ele>15.800000190735</ele>
        <time>2021-10-14T09:39:00.000Z</time>
      </trkpt>
      <trkpt lat="47.32875" lon="-2.46162">
        <ele>15.800000190735</ele>
        <time>2021-10-14T09:39:03.000Z</time>
      </trkpt>
      <trkpt lat="47.3287" lon="-2.46166">
        <ele>15.800000190735</ele>
        <time>2021-10-14T09:39:04.000Z</time>
      </trkpt>
      <trkpt lat="47.32865" lon="-2.4617">
        <ele>15.39999961853</ele>
        <time>2021-10-14T09:39:05.000Z</time>
      </trkpt>
      <trkpt lat="47.32859" lon="-2.46173">
        <ele>15</ele>
        <time>2021-10-14T09:39:06.000Z</time>
      </trkpt>
      <trkpt lat="47.32854" lon="-2.46176">
        <ele>14.60000038147</ele>
        <time>2021-10-14T09:39:07.000Z</time>
      </trkpt>
      <trkpt lat="47.32849" lon="-2.46178">
        <ele>14.199999809265</ele>
        <time>2021-10-14T09:39:08.000Z</time>
      </trkpt>
      <trkpt lat="47.32843" lon="-2.46182">
        <ele>13.800000190735</ele>
        <time>2021-10-14T09:39:09.000Z</time>
      </trkpt>
      <trkpt lat="47.32838" lon="-2.46186">
        <ele>13.39999961853</ele>
        <time>2021-10-14T09:39:10.000Z</time>
      </trkpt>
      <trkpt lat="47.32832" lon="-2.46189">
        <ele>13</ele>
        <time>2021-10-14T09:39:11.000Z</time>
      </trkpt>
      <trkpt lat="47.32826" lon="-2.46191">
        <ele>12.60000038147</ele>
        <time>2021-10-14T09:39:12.000Z</time>
      </trkpt>
      <trkpt lat="47.32821" lon="-2.46192">
        <ele>12.199999809265</ele>
        <time>2021-10-14T09:39:13.000Z</time>
      </trkpt>
      <trkpt lat="47.32814" lon="-2.46193">
        <ele>11.60000038147</ele>
        <time>2021-10-14T09:39:14.000Z</time>
      </trkpt>
      <trkpt lat="47.32808" lon="-2.4619">
        <ele>11.60000038147</ele>
        <time>2021-10-14T09:39:15.000Z</time>
      </trkpt>
      <trkpt lat="47.32803" lon="-2.46187">
        <ele>11.199999809265</ele>
        <time>2021-10-14T09:39:16.000Z</time>
      </trkpt>
      <trkpt lat="47.32797" lon="-2.46184">
        <ele>10.800000190735</ele>
        <time>2021-10-14T09:39:17.000Z</time>
      </trkpt>
      <trkpt lat="47.32792" lon="-2.4618">
        <ele>10.39999961853</ele>
        <time>2021-10-14T09:39:18.000Z</time>
      </trkpt>
      <trkpt lat="47.32787" lon="-2.46176">
        <ele>10</ele>
        <time>2021-10-14T09:39:19.000Z</time>
      </trkpt>
      <trkpt lat="47.32783" lon="-2.46171">
        <ele>9.6000003814697</ele>
        <time>2021-10-14T09:39:20.000Z</time>
      </trkpt>
      <trkpt lat="47.32775" lon="-2.46161">
        <ele>9.6000003814697</ele>
        <time>2021-10-14T09:39:22.000Z</time>
      </trkpt>
      <trkpt lat="47.32766" lon="-2.46149">
        <ele>9.1999998092651</ele>
        <time>2021-10-14T09:39:25.000Z</time>
      </trkpt>
      <trkpt lat="47.32765" lon="-2.46146">
        <ele>8.8000001907349</ele>
        <time>2021-10-14T09:39:26.000Z</time>
      </trkpt>
      <trkpt lat="47.32765" lon="-2.46143">
        <ele>8.3999996185303</ele>
        <time>2021-10-14T09:39:27.000Z</time>
      </trkpt>
      <trkpt lat="47.32764" lon="-2.46139">
        <ele>7.5999999046326</ele>
        <time>2021-10-14T09:39:28.000Z</time>
      </trkpt>
      <trkpt lat="47.32764" lon="-2.46124">
        <ele>7.5999999046326</ele>
        <time>2021-10-14T09:39:32.000Z</time>
      </trkpt>
      <trkpt lat="47.32757" lon="-2.46107">
        <ele>7.5999999046326</ele>
        <time>2021-10-14T09:39:35.000Z</time>
      </trkpt>
      <trkpt lat="47.32755" lon="-2.46104">
        <ele>7</ele>
        <time>2021-10-14T09:39:36.000Z</time>
      </trkpt>
      <trkpt lat="47.32753" lon="-2.461">
        <ele>6.5999999046326</ele>
        <time>2021-10-14T09:39:37.000Z</time>
      </trkpt>
      <trkpt lat="47.32751" lon="-2.46095">
        <ele>6.1999998092651</ele>
        <time>2021-10-14T09:39:38.000Z</time>
      </trkpt>
      <trkpt lat="47.32748" lon="-2.46091">
        <ele>5.8000001907349</ele>
        <time>2021-10-14T09:39:39.000Z</time>
      </trkpt>
      <trkpt lat="47.32746" lon="-2.46088">
        <ele>5.1999998092651</ele>
        <time>2021-10-14T09:39:40.000Z</time>
      </trkpt>
      <trkpt lat="47.3273" lon="-2.46071">
        <ele>5.1999998092651</ele>
        <time>2021-10-14T09:39:45.000Z</time>
      </trkpt>
      <trkpt lat="47.32715" lon="-2.46052">
        <ele>5.1999998092651</ele>
        <time>2021-10-14T09:39:51.000Z</time>
      </trkpt>
      <trkpt lat="47.32712" lon="-2.46048">
        <ele>4.8000001907349</ele>
        <time>2021-10-14T09:39:52.000Z</time>
      </trkpt>
      <trkpt lat="47.32709" lon="-2.46044">
        <ele>4.4000000953674</ele>
        <time>2021-10-14T09:39:53.000Z</time>
      </trkpt>
      <trkpt lat="47.32706" lon="-2.4604">
        <ele>4</ele>
        <time>2021-10-14T09:39:54.000Z</time>
      </trkpt>
      <trkpt lat="47.32702" lon="-2.46035">
        <ele>3.5999999046326</ele>
        <time>2021-10-14T09:39:55.000Z</time>
      </trkpt>
      <trkpt lat="47.32699" lon="-2.46031">
        <ele>3.2000000476837</ele>
        <time>2021-10-14T09:39:56.000Z</time>
      </trkpt>
      <trkpt lat="47.32688" lon="-2.46014">
        <ele>3.2000000476837</ele>
        <time>2021-10-14T09:39:59.000Z</time>
      </trkpt>
      <trkpt lat="47.32681" lon="-2.46002">
        <ele>3.2000000476837</ele>
        <time>2021-10-14T09:40:01.000Z</time>
      </trkpt>
      <trkpt lat="47.3267" lon="-2.45989">
        <ele>3.2000000476837</ele>
        <time>2021-10-14T09:40:04.000Z</time>
      </trkpt>
      <trkpt lat="47.32655" lon="-2.45975">
        <ele>3.2000000476837</ele>
        <time>2021-10-14T09:40:07.000Z</time>
      </trkpt>
      <trkpt lat="47.3264" lon="-2.45962">
        <ele>3.2000000476837</ele>
        <time>2021-10-14T09:40:10.000Z</time>
      </trkpt>
      <trkpt lat="47.32633" lon="-2.45952">
        <ele>3.2000000476837</ele>
        <time>2021-10-14T09:40:12.000Z</time>
      </trkpt>
      <trkpt lat="47.32629" lon="-2.45946">
        <ele>3.2000000476837</ele>
        <time>2021-10-14T09:40:13.000Z</time>
      </trkpt>
      <trkpt lat="47.32616" lon="-2.45925">
        <ele>3.2000000476837</ele>
        <time>2021-10-14T09:40:16.000Z</time>
      </trkpt>
      <trkpt lat="47.32602" lon="-2.45904">
        <ele>3.2000000476837</ele>
        <time>2021-10-14T09:40:19.000Z</time>
      </trkpt>
      <trkpt lat="47.32587" lon="-2.45885">
        <ele>3.2000000476837</ele>
        <time>2021-10-14T09:40:22.000Z</time>
      </trkpt>
      <trkpt lat="47.3256" lon="-2.45839">
        <ele>3.2000000476837</ele>
        <time>2021-10-14T09:40:28.000Z</time>
      </trkpt>
      <trkpt lat="47.32555" lon="-2.45831">
        <ele>3.2000000476837</ele>
        <time>2021-10-14T09:40:29.000Z</time>
      </trkpt>
      <trkpt lat="47.32541" lon="-2.45811">
        <ele>3.2000000476837</ele>
        <time>2021-10-14T09:40:32.000Z</time>
      </trkpt>
      <trkpt lat="47.3253" lon="-2.45796">
        <ele>3.2000000476837</ele>
        <time>2021-10-14T09:40:34.000Z</time>
      </trkpt>
      <trkpt lat="47.32516" lon="-2.45772">
        <ele>3.2000000476837</ele>
        <time>2021-10-14T09:40:37.000Z</time>
      </trkpt>
      <trkpt lat="47.32489" lon="-2.45723">
        <ele>3.2000000476837</ele>
        <time>2021-10-14T09:40:43.000Z</time>
      </trkpt>
      <trkpt lat="47.32465" lon="-2.45681">
        <ele>2</ele>
        <time>2021-10-14T09:40:46.000Z</time>
      </trkpt>
      <trkpt lat="47.32462" lon="-2.45674">
        <ele>1.6000000238419</ele>
        <time>2021-10-14T09:40:50.000Z</time>
      </trkpt>
      <trkpt lat="47.32458" lon="-2.45668">
        <ele>1.2000000476837</ele>
        <time>2021-10-14T09:40:51.000Z</time>
      </trkpt>
      <trkpt lat="47.32431" lon="-2.45629">
        <ele>1.2000000476837</ele>
        <time>2021-10-14T09:40:58.000Z</time>
      </trkpt>
      <trkpt lat="47.32418" lon="-2.45604">
        <ele>1.2000000476837</ele>
        <time>2021-10-14T09:41:03.000Z</time>
      </trkpt>
      <trkpt lat="47.32408" lon="-2.4558">
        <ele>1.2000000476837</ele>
        <time>2021-10-14T09:41:08.000Z</time>
      </trkpt>
      <trkpt lat="47.32403" lon="-2.45569">
        <ele>1.2000000476837</ele>
        <time>2021-10-14T09:41:10.000Z</time>
      </trkpt>
      <trkpt lat="47.32386" lon="-2.45537">
        <ele>1.2000000476837</ele>
        <time>2021-10-14T09:41:17.000Z</time>
      </trkpt>
      <trkpt lat="47.32369" lon="-2.45505">
        <ele>1.2000000476837</ele>
        <time>2021-10-14T09:41:23.000Z</time>
      </trkpt>
      <trkpt lat="47.32342" lon="-2.45462">
        <ele>1.2000000476837</ele>
        <time>2021-10-14T09:41:31.000Z</time>
      </trkpt>
      <trkpt lat="47.32318" lon="-2.45425">
        <ele>1.2000000476837</ele>
        <time>2021-10-14T09:41:38.000Z</time>
      </trkpt>
      <trkpt lat="47.32313" lon="-2.4541">
        <ele>1.2000000476837</ele>
        <time>2021-10-14T09:41:41.000Z</time>
      </trkpt>
      <trkpt lat="47.32314" lon="-2.45405">
        <ele>1.2000000476837</ele>
        <time>2021-10-14T09:41:42.000Z</time>
      </trkpt>
      <trkpt lat="47.32319" lon="-2.45376">
        <ele>1.2000000476837</ele>
        <time>2021-10-14T09:41:47.000Z</time>
      </trkpt>
      <trkpt lat="47.32318" lon="-2.45365">
        <ele>1.2000000476837</ele>
        <time>2021-10-14T09:41:49.000Z</time>
      </trkpt>
      <trkpt lat="47.32316" lon="-2.45349">
        <ele>1.2000000476837</ele>
        <time>2021-10-14T09:41:52.000Z</time>
      </trkpt>
      <trkpt lat="47.32315" lon="-2.45344">
        <ele>1.6000000238419</ele>
        <time>2021-10-14T09:41:53.000Z</time>
      </trkpt>
      <trkpt lat="47.32315" lon="-2.45339">
        <ele>2.4000000953674</ele>
        <time>2021-10-14T09:41:54.000Z</time>
      </trkpt>
      <trkpt lat="47.32315" lon="-2.45334">
        <ele>3</ele>
        <time>2021-10-14T09:41:55.000Z</time>
      </trkpt>
      <trkpt lat="47.32315" lon="-2.45329">
        <ele>3.4000000953674</ele>
        <time>2021-10-14T09:41:56.000Z</time>
      </trkpt>
      <trkpt lat="47.32315" lon="-2.45314">
        <ele>3.4000000953674</ele>
        <time>2021-10-14T09:41:59.000Z</time>
      </trkpt>
      <trkpt lat="47.32314" lon="-2.45309">
        <ele>3.4000000953674</ele>
        <time>2021-10-14T09:42:00.000Z</time>
      </trkpt>
      <trkpt lat="47.32309" lon="-2.45285">
        <ele>3.4000000953674</ele>
        <time>2021-10-14T09:42:04.000Z</time>
      </trkpt>
      <trkpt lat="47.32294" lon="-2.45235">
        <ele>3.4000000953674</ele>
        <time>2021-10-14T09:42:12.000Z</time>
      </trkpt>
      <trkpt lat="47.32271" lon="-2.45183">
        <ele>3.4000000953674</ele>
        <time>2021-10-14T09:42:19.000Z</time>
      </trkpt>
      <trkpt lat="47.32269" lon="-2.45177">
        <ele>3.4000000953674</ele>
        <time>2021-10-14T09:42:20.000Z</time>
      </trkpt>
      <trkpt lat="47.32264" lon="-2.45156">
        <ele>3.4000000953674</ele>
        <time>2021-10-14T09:42:23.000Z</time>
      </trkpt>
      <trkpt lat="47.32256" lon="-2.45129">
        <ele>3.7999999523163</ele>
        <time>2021-10-14T09:42:27.000Z</time>
      </trkpt>
      <trkpt lat="47.32254" lon="-2.45123">
        <ele>4.1999998092651</ele>
        <time>2021-10-14T09:42:28.000Z</time>
      </trkpt>
      <trkpt lat="47.32252" lon="-2.45116">
        <ele>4.5999999046326</ele>
        <time>2021-10-14T09:42:29.000Z</time>
      </trkpt>
      <trkpt lat="47.32249" lon="-2.45109">
        <ele>5</ele>
        <time>2021-10-14T09:42:30.000Z</time>
      </trkpt>
      <trkpt lat="47.32246" lon="-2.45103">
        <ele>5.4000000953674</ele>
        <time>2021-10-14T09:42:31.000Z</time>
      </trkpt>
      <trkpt lat="47.32235" lon="-2.45077">
        <ele>5.8000001907349</ele>
        <time>2021-10-14T09:42:35.000Z</time>
      </trkpt>
      <trkpt lat="47.32233" lon="-2.45071">
        <ele>6.4000000953674</ele>
        <time>2021-10-14T09:42:36.000Z</time>
      </trkpt>
      <trkpt lat="47.3223" lon="-2.45065">
        <ele>6.8000001907349</ele>
        <time>2021-10-14T09:42:37.000Z</time>
      </trkpt>
      <trkpt lat="47.32227" lon="-2.45059">
        <ele>7.1999998092651</ele>
        <time>2021-10-14T09:42:38.000Z</time>
      </trkpt>
      <trkpt lat="47.32224" lon="-2.45052">
        <ele>7.5999999046326</ele>
        <time>2021-10-14T09:42:39.000Z</time>
      </trkpt>
      <trkpt lat="47.32218" lon="-2.45039">
        <ele>7.5999999046326</ele>
        <time>2021-10-14T09:42:41.000Z</time>
      </trkpt>
      <trkpt lat="47.32212" lon="-2.45026">
        <ele>7.5999999046326</ele>
        <time>2021-10-14T09:42:43.000Z</time>
      </trkpt>
      <trkpt lat="47.32206" lon="-2.45013">
        <ele>7.5999999046326</ele>
        <time>2021-10-14T09:42:45.000Z</time>
      </trkpt>
      <trkpt lat="47.32193" lon="-2.44989">
        <ele>7.5999999046326</ele>
        <time>2021-10-14T09:42:49.000Z</time>
      </trkpt>
      <trkpt lat="47.32189" lon="-2.44982">
        <ele>7.5999999046326</ele>
        <time>2021-10-14T09:42:50.000Z</time>
      </trkpt>
      <trkpt lat="47.32174" lon="-2.44965">
        <ele>7.5999999046326</ele>
        <time>2021-10-14T09:42:53.000Z</time>
      </trkpt>
      <trkpt lat="47.32168" lon="-2.4496">
        <ele>7.5999999046326</ele>
        <time>2021-10-14T09:42:54.000Z</time>
      </trkpt>
      <trkpt lat="47.32145" lon="-2.44942">
        <ele>7</ele>
        <time>2021-10-14T09:42:58.000Z</time>
      </trkpt>
      <trkpt lat="47.3214" lon="-2.44936">
        <ele>6.5999999046326</ele>
        <time>2021-10-14T09:42:59.000Z</time>
      </trkpt>
      <trkpt lat="47.32134" lon="-2.4493">
        <ele>6.1999998092651</ele>
        <time>2021-10-14T09:43:00.000Z</time>
      </trkpt>
      <trkpt lat="47.3213" lon="-2.44923">
        <ele>5.8000001907349</ele>
        <time>2021-10-14T09:43:01.000Z</time>
      </trkpt>
      <trkpt lat="47.32125" lon="-2.44915">
        <ele>5.4000000953674</ele>
        <time>2021-10-14T09:43:02.000Z</time>
      </trkpt>
      <trkpt lat="47.32118" lon="-2.449">
        <ele>5.4000000953674</ele>
        <time>2021-10-14T09:43:04.000Z</time>
      </trkpt>
      <trkpt lat="47.32101" lon="-2.44861">
        <ele>5</ele>
        <time>2021-10-14T09:43:09.000Z</time>
      </trkpt>
      <trkpt lat="47.32098" lon="-2.44853">
        <ele>4.5999999046326</ele>
        <time>2021-10-14T09:43:10.000Z</time>
      </trkpt>
      <trkpt lat="47.32095" lon="-2.44846">
        <ele>4.1999998092651</ele>
        <time>2021-10-14T09:43:11.000Z</time>
      </trkpt>
      <trkpt lat="47.32091" lon="-2.44838">
        <ele>3.7999999523163</ele>
        <time>2021-10-14T09:43:12.000Z</time>
      </trkpt>
      <trkpt lat="47.32088" lon="-2.44831">
        <ele>3.4000000953674</ele>
        <time>2021-10-14T09:43:13.000Z</time>
      </trkpt>
      <trkpt lat="47.32065" lon="-2.44777">
        <ele>3.4000000953674</ele>
        <time>2021-10-14T09:43:20.000Z</time>
      </trkpt>
      <trkpt lat="47.32037" lon="-2.4473">
        <ele>3.4000000953674</ele>
        <time>2021-10-14T09:43:27.000Z</time>
      </trkpt>
      <trkpt lat="47.32006" lon="-2.44686">
        <ele>3.4000000953674</ele>
        <time>2021-10-14T09:43:34.000Z</time>
      </trkpt>
      <trkpt lat="47.32002" lon="-2.4468">
        <ele>2.7999999523163</ele>
        <time>2021-10-14T09:43:35.000Z</time>
      </trkpt>
      <trkpt lat="47.31997" lon="-2.44673">
        <ele>2.4000000953674</ele>
        <time>2021-10-14T09:43:36.000Z</time>
      </trkpt>
      <trkpt lat="47.31993" lon="-2.44667">
        <ele>2</ele>
        <time>2021-10-14T09:43:37.000Z</time>
      </trkpt>
      <trkpt lat="47.31988" lon="-2.44662">
        <ele>1.6000000238419</ele>
        <time>2021-10-14T09:43:38.000Z</time>
      </trkpt>
      <trkpt lat="47.31984" lon="-2.44656">
        <ele>1.2000000476837</ele>
        <time>2021-10-14T09:43:39.000Z</time>
      </trkpt>
      <trkpt lat="47.31979" lon="-2.4465">
        <ele>1.2000000476837</ele>
        <time>2021-10-14T09:43:40.000Z</time>
      </trkpt>
      <trkpt lat="47.31954" lon="-2.44624">
        <ele>1.2000000476837</ele>
        <time>2021-10-14T09:43:45.000Z</time>
      </trkpt>
      <trkpt lat="47.3195" lon="-2.44618">
        <ele>1.2000000476837</ele>
        <time>2021-10-14T09:43:46.000Z</time>
      </trkpt>
      <trkpt lat="47.31918" lon="-2.4458">
        <ele>1.2000000476837</ele>
        <time>2021-10-14T09:43:53.000Z</time>
      </trkpt>
      <trkpt lat="47.31909" lon="-2.44571">
        <ele>1.2000000476837</ele>
        <time>2021-10-14T09:43:55.000Z</time>
      </trkpt>
      <trkpt lat="47.31901" lon="-2.44569">
        <ele>1.2000000476837</ele>
        <time>2021-10-14T09:43:57.000Z</time>
      </trkpt>
      <trkpt lat="47.31894" lon="-2.44578">
        <ele>0.80000001192093</ele>
        <time>2021-10-14T09:43:59.000Z</time>
      </trkpt>
      <trkpt lat="47.31892" lon="-2.44584">
        <ele>0.40000000596046</ele>
        <time>2021-10-14T09:44:00.000Z</time>
      </trkpt>
      <trkpt lat="47.31889" lon="-2.4459">
        <ele>7</ele>
        <time>2021-10-14T09:44:01.000Z</time>
      </trkpt>
      <trkpt lat="47.31887" lon="-2.44597">
        <ele>-0.40000000596046</ele>
        <time>2021-10-14T09:44:02.000Z</time>
      </trkpt>
      <trkpt lat="47.31884" lon="-2.44604">
        <ele>-0.80000001192093</ele>
        <time>2021-10-14T09:44:03.000Z</time>
      </trkpt>
      <trkpt lat="47.31873" lon="-2.44632">
        <ele>-0.80000001192093</ele>
        <time>2021-10-14T09:44:07.000Z</time>
      </trkpt>
      <trkpt lat="47.31848" lon="-2.44687">
        <ele>-0.80000001192093</ele>
        <time>2021-10-14T09:44:15.000Z</time>
      </trkpt>
      <trkpt lat="47.31833" lon="-2.44712">
        <ele>-0.80000001192093</ele>
        <time>2021-10-14T09:44:19.000Z</time>
      </trkpt>
      <trkpt lat="47.31824" lon="-2.44721">
        <ele>-0.80000001192093</ele>
        <time>2021-10-14T09:44:21.000Z</time>
      </trkpt>
      <trkpt lat="47.31815" lon="-2.44728">
        <ele>-0.80000001192093</ele>
        <time>2021-10-14T09:44:23.000Z</time>
      </trkpt>
      <trkpt lat="47.31806" lon="-2.44733">
        <ele>-0.80000001192093</ele>
        <time>2021-10-14T09:44:25.000Z</time>
      </trkpt>
      <trkpt lat="47.31796" lon="-2.44737">
        <ele>-0.80000001192093</ele>
        <time>2021-10-14T09:44:27.000Z</time>
      </trkpt>
      <trkpt lat="47.31767" lon="-2.44756">
        <ele>-0.80000001192093</ele>
        <time>2021-10-14T09:44:33.000Z</time>
      </trkpt>
      <trkpt lat="47.31741" lon="-2.44782">
        <ele>-0.80000001192093</ele>
        <time>2021-10-14T09:44:40.000Z</time>
      </trkpt>
      <trkpt lat="47.31729" lon="-2.44783">
        <ele>-0.80000001192093</ele>
        <time>2021-10-14T09:44:43.000Z</time>
      </trkpt>
      <trkpt lat="47.31725" lon="-2.44781">
        <ele>-0.80000001192093</ele>
        <time>2021-10-14T09:44:44.000Z</time>
      </trkpt>
      <trkpt lat="47.31715" lon="-2.44764">
        <ele>-0.80000001192093</ele>
        <time>2021-10-14T09:44:47.000Z</time>
      </trkpt>
      <trkpt lat="47.31696" lon="-2.44721">
        <ele>-0.80000001192093</ele>
        <time>2021-10-14T09:44:52.000Z</time>
      </trkpt>
      <trkpt lat="47.31669" lon="-2.44655">
        <ele>-0.80000001192093</ele>
        <time>2021-10-14T09:45:00.000Z</time>
      </trkpt>
      <trkpt lat="47.31653" lon="-2.44617">
        <ele>-1.2000000476837</ele>
        <time>2021-10-14T09:45:05.000Z</time>
      </trkpt>
      <trkpt lat="47.3165" lon="-2.4461">
        <ele>-1.7999999523163</ele>
        <time>2021-10-14T09:45:06.000Z</time>
      </trkpt>
      <trkpt lat="47.31646" lon="-2.44603">
        <ele>-2.2000000476837</ele>
        <time>2021-10-14T09:45:07.000Z</time>
      </trkpt>
      <trkpt lat="47.31643" lon="-2.44596">
        <ele>-2.5999999046326</ele>
        <time>2021-10-14T09:45:08.000Z</time>
      </trkpt>
      <trkpt lat="47.31639" lon="-2.44589">
        <ele>-3</ele>
        <time>2021-10-14T09:45:09.000Z</time>
      </trkpt>
      <trkpt lat="47.31614" lon="-2.44546">
        <ele>-3</ele>
        <time>2021-10-14T09:45:15.000Z</time>
      </trkpt>
      <trkpt lat="47.31588" lon="-2.44493">
        <ele>-3</ele>
        <time>2021-10-14T09:45:22.000Z</time>
      </trkpt>
      <trkpt lat="47.31578" lon="-2.44443">
        <ele>-3</ele>
        <time>2021-10-14T09:45:27.000Z</time>
      </trkpt>
      <trkpt lat="47.31569" lon="-2.44381">
        <ele>-3</ele>
        <time>2021-10-14T09:45:33.000Z</time>
      </trkpt>
      <trkpt lat="47.31561" lon="-2.44322">
        <ele>-3</ele>
        <time>2021-10-14T09:45:39.000Z</time>
      </trkpt>
      <trkpt lat="47.3155" lon="-2.44257">
        <ele>-3</ele>
        <time>2021-10-14T09:45:46.000Z</time>
      </trkpt>
      <trkpt lat="47.31537" lon="-2.44195">
        <ele>-3</ele>
        <time>2021-10-14T09:45:53.000Z</time>
      </trkpt>
      <trkpt lat="47.31516" lon="-2.44151">
        <ele>-3</ele>
        <time>2021-10-14T09:45:59.000Z</time>
      </trkpt>
      <trkpt lat="47.31483" lon="-2.44103">
        <ele>-3</ele>
        <time>2021-10-14T09:46:06.000Z</time>
      </trkpt>
      <trkpt lat="47.31438" lon="-2.44043">
        <ele>-3</ele>
        <time>2021-10-14T09:46:15.000Z</time>
      </trkpt>
      <trkpt lat="47.31433" lon="-2.44037">
        <ele>-3</ele>
        <time>2021-10-14T09:46:16.000Z</time>
      </trkpt>
      <trkpt lat="47.31392" lon="-2.43985">
        <ele>-3</ele>
        <time>2021-10-14T09:46:24.000Z</time>
      </trkpt>
      <trkpt lat="47.31382" lon="-2.43972">
        <ele>-3</ele>
        <time>2021-10-14T09:46:26.000Z</time>
      </trkpt>
      <trkpt lat="47.31368" lon="-2.43951">
        <ele>-3</ele>
        <time>2021-10-14T09:46:29.000Z</time>
      </trkpt>
      <trkpt lat="47.31358" lon="-2.43926">
        <ele>-3</ele>
        <time>2021-10-14T09:46:32.000Z</time>
      </trkpt>
      <trkpt lat="47.3133" lon="-2.43856">
        <ele>-3</ele>
        <time>2021-10-14T09:46:40.000Z</time>
      </trkpt>
      <trkpt lat="47.31319" lon="-2.43832">
        <ele>-3</ele>
        <time>2021-10-14T09:46:43.000Z</time>
      </trkpt>
      <trkpt lat="47.31309" lon="-2.43819">
        <ele>-3</ele>
        <time>2021-10-14T09:46:45.000Z</time>
      </trkpt>
      <trkpt lat="47.31295" lon="-2.43799">
        <ele>-3</ele>
        <time>2021-10-14T09:46:48.000Z</time>
      </trkpt>
      <trkpt lat="47.31288" lon="-2.43783">
        <ele>-3</ele>
        <time>2021-10-14T09:46:50.000Z</time>
      </trkpt>
      <trkpt lat="47.31262" lon="-2.43718">
        <ele>-3</ele>
        <time>2021-10-14T09:46:58.000Z</time>
      </trkpt>
      <trkpt lat="47.31249" lon="-2.43684">
        <ele>-3</ele>
        <time>2021-10-14T09:47:02.000Z</time>
      </trkpt>
      <trkpt lat="47.31247" lon="-2.43675">
        <ele>-3</ele>
        <time>2021-10-14T09:47:03.000Z</time>
      </trkpt>
      <trkpt lat="47.31235" lon="-2.43609">
        <ele>-3</ele>
        <time>2021-10-14T09:47:10.000Z</time>
      </trkpt>
      <trkpt lat="47.31226" lon="-2.43551">
        <ele>-3</ele>
        <time>2021-10-14T09:47:17.000Z</time>
      </trkpt>
      <trkpt lat="47.31214" lon="-2.43473">
        <ele>-3</ele>
        <time>2021-10-14T09:47:26.000Z</time>
      </trkpt>
      <trkpt lat="47.31202" lon="-2.43393">
        <ele>-3</ele>
        <time>2021-10-14T09:47:35.000Z</time>
      </trkpt>
      <trkpt lat="47.31194" lon="-2.4334">
        <ele>-3</ele>
        <time>2021-10-14T09:47:41.000Z</time>
      </trkpt>
      <trkpt lat="47.31192" lon="-2.43332">
        <ele>-3</ele>
        <time>2021-10-14T09:47:42.000Z</time>
      </trkpt>
      <trkpt lat="47.31177" lon="-2.43294">
        <ele>-2.5999999046326</ele>
        <time>2021-10-14T09:47:47.000Z</time>
      </trkpt>
      <trkpt lat="47.31173" lon="-2.43287">
        <ele>-2.2000000476837</ele>
        <time>2021-10-14T09:47:48.000Z</time>
      </trkpt>
      <trkpt lat="47.31168" lon="-2.4328">
        <ele>-1.7999999523163</ele>
        <time>2021-10-14T09:47:49.000Z</time>
      </trkpt>
      <trkpt lat="47.31164" lon="-2.43273">
        <ele>-1.3999999761581</ele>
        <time>2021-10-14T09:47:50.000Z</time>
      </trkpt>
      <trkpt lat="47.3116" lon="-2.43266">
        <ele>-1</ele>
        <time>2021-10-14T09:47:51.000Z</time>
      </trkpt>
      <trkpt lat="47.31137" lon="-2.43231">
        <ele>-1</ele>
        <time>2021-10-14T09:47:56.000Z</time>
      </trkpt>
      <trkpt lat="47.31113" lon="-2.43194">
        <ele>-1</ele>
        <time>2021-10-14T09:48:02.000Z</time>
      </trkpt>
      <trkpt lat="47.31097" lon="-2.43196">
        <ele>-1</ele>
        <time>2021-10-14T09:48:05.000Z</time>
      </trkpt>
      <trkpt lat="47.31087" lon="-2.43204">
        <ele>-1</ele>
        <time>2021-10-14T09:48:07.000Z</time>
      </trkpt>
      <trkpt lat="47.31082" lon="-2.43209">
        <ele>-1.3999999761581</ele>
        <time>2021-10-14T09:48:08.000Z</time>
      </trkpt>
      <trkpt lat="47.31076" lon="-2.43214">
        <ele>-1.7999999523163</ele>
        <time>2021-10-14T09:48:09.000Z</time>
      </trkpt>
      <trkpt lat="47.31071" lon="-2.43219">
        <ele>-2.2000000476837</ele>
        <time>2021-10-14T09:48:10.000Z</time>
      </trkpt>
      <trkpt lat="47.31065" lon="-2.43225">
        <ele>-2.5999999046326</ele>
        <time>2021-10-14T09:48:11.000Z</time>
      </trkpt>
      <trkpt lat="47.3106" lon="-2.4323">
        <ele>-3</ele>
        <time>2021-10-14T09:48:12.000Z</time>
      </trkpt>
      <trkpt lat="47.31039" lon="-2.43255">
        <ele>-3</ele>
        <time>2021-10-14T09:48:16.000Z</time>
      </trkpt>
      <trkpt lat="47.31002" lon="-2.43301">
        <ele>-3</ele>
        <time>2021-10-14T09:48:23.000Z</time>
      </trkpt>
      <trkpt lat="47.30975" lon="-2.43317">
        <ele>-3</ele>
        <time>2021-10-14T09:48:27.000Z</time>
      </trkpt>
      <trkpt lat="47.30926" lon="-2.43338">
        <ele>-3</ele>
        <time>2021-10-14T09:48:34.000Z</time>
      </trkpt>
      <trkpt lat="47.30884" lon="-2.43357">
        <ele>-3</ele>
        <time>2021-10-14T09:48:40.000Z</time>
      </trkpt>
      <trkpt lat="47.30834" lon="-2.43379">
        <ele>-3</ele>
        <time>2021-10-14T09:48:48.000Z</time>
      </trkpt>
      <trkpt lat="47.30804" lon="-2.43389">
        <ele>-3</ele>
        <time>2021-10-14T09:48:53.000Z</time>
      </trkpt>
      <trkpt lat="47.30793" lon="-2.43392">
        <ele>-3</ele>
        <time>2021-10-14T09:48:55.000Z</time>
      </trkpt>
      <trkpt lat="47.30766" lon="-2.43392">
        <ele>-3.4000000953674</ele>
        <time>2021-10-14T09:49:00.000Z</time>
      </trkpt>
      <trkpt lat="47.3076" lon="-2.43392">
        <ele>-3.7999999523163</ele>
        <time>2021-10-14T09:49:01.000Z</time>
      </trkpt>
      <trkpt lat="47.30755" lon="-2.43392">
        <ele>-4.1999998092651</ele>
        <time>2021-10-14T09:49:02.000Z</time>
      </trkpt>
      <trkpt lat="47.30749" lon="-2.43391">
        <ele>-4.5999999046326</ele>
        <time>2021-10-14T09:49:03.000Z</time>
      </trkpt>
      <trkpt lat="47.30743" lon="-2.43391">
        <ele>-5</ele>
        <time>2021-10-14T09:49:04.000Z</time>
      </trkpt>
      <trkpt lat="47.30726" lon="-2.43392">
        <ele>-5</ele>
        <time>2021-10-14T09:49:07.000Z</time>
      </trkpt>
      <trkpt lat="47.3072" lon="-2.43392">
        <ele>-5</ele>
        <time>2021-10-14T09:49:08.000Z</time>
      </trkpt>
      <trkpt lat="47.30695" lon="-2.43393">
        <ele>-5</ele>
        <time>2021-10-14T09:49:12.000Z</time>
      </trkpt>
      <trkpt lat="47.30647" lon="-2.43402">
        <ele>-5</ele>
        <time>2021-10-14T09:49:20.000Z</time>
      </trkpt>
      <trkpt lat="47.30605" lon="-2.43412">
        <ele>-5</ele>
        <time>2021-10-14T09:49:27.000Z</time>
      </trkpt>
      <trkpt lat="47.30565" lon="-2.43419">
        <ele>-5</ele>
        <time>2021-10-14T09:49:34.000Z</time>
      </trkpt>
      <trkpt lat="47.30555" lon="-2.43421">
        <ele>-5</ele>
        <time>2021-10-14T09:49:36.000Z</time>
      </trkpt>
      <trkpt lat="47.30542" lon="-2.43419">
        <ele>-5</ele>
        <time>2021-10-14T09:49:39.000Z</time>
      </trkpt>
      <trkpt lat="47.30513" lon="-2.43415">
        <ele>-5</ele>
        <time>2021-10-14T09:49:45.000Z</time>
      </trkpt>
      <trkpt lat="47.30475" lon="-2.43412">
        <ele>-5</ele>
        <time>2021-10-14T09:49:52.000Z</time>
      </trkpt>
      <trkpt lat="47.3047" lon="-2.43412">
        <ele>-5</ele>
        <time>2021-10-14T09:49:53.000Z</time>
      </trkpt>
      <trkpt lat="47.30449" lon="-2.43419">
        <ele>-5</ele>
        <time>2021-10-14T09:49:57.000Z</time>
      </trkpt>
      <trkpt lat="47.30444" lon="-2.4342">
        <ele>-5</ele>
        <time>2021-10-14T09:49:58.000Z</time>
      </trkpt>
      <trkpt lat="47.3043" lon="-2.43408">
        <ele>-5</ele>
        <time>2021-10-14T09:50:01.000Z</time>
      </trkpt>
      <trkpt lat="47.30423" lon="-2.43385">
        <ele>-5</ele>
        <time>2021-10-14T09:50:04.000Z</time>
      </trkpt>
      <trkpt lat="47.30422" lon="-2.43376">
        <ele>-5</ele>
        <time>2021-10-14T09:50:05.000Z</time>
      </trkpt>
      <trkpt lat="47.30408" lon="-2.4331">
        <ele>-5</ele>
        <time>2021-10-14T09:50:13.000Z</time>
      </trkpt>
      <trkpt lat="47.30391" lon="-2.43249">
        <ele>-5</ele>
        <time>2021-10-14T09:50:21.000Z</time>
      </trkpt>
      <trkpt lat="47.30378" lon="-2.43236">
        <ele>-5</ele>
        <time>2021-10-14T09:50:24.000Z</time>
      </trkpt>
      <trkpt lat="47.30361" lon="-2.43238">
        <ele>-5</ele>
        <time>2021-10-14T09:50:27.000Z</time>
      </trkpt>
      <trkpt lat="47.30355" lon="-2.4324">
        <ele>-5</ele>
        <time>2021-10-14T09:50:28.000Z</time>
      </trkpt>
      <trkpt lat="47.30318" lon="-2.43251">
        <ele>-5</ele>
        <time>2021-10-14T09:50:34.000Z</time>
      </trkpt>
      <trkpt lat="47.30271" lon="-2.43263">
        <ele>-5</ele>
        <time>2021-10-14T09:50:41.000Z</time>
      </trkpt>
      <trkpt lat="47.30227" lon="-2.43279">
        <ele>-5</ele>
        <time>2021-10-14T09:50:48.000Z</time>
      </trkpt>
      <trkpt lat="47.30189" lon="-2.43298">
        <ele>-5</ele>
        <time>2021-10-14T09:50:54.000Z</time>
      </trkpt>
      <trkpt lat="47.30142" lon="-2.43316">
        <ele>-5</ele>
        <time>2021-10-14T09:51:01.000Z</time>
      </trkpt>
      <trkpt lat="47.30095" lon="-2.43327">
        <ele>-5</ele>
        <time>2021-10-14T09:51:08.000Z</time>
      </trkpt>
      <trkpt lat="47.30051" lon="-2.43337">
        <ele>-5</ele>
        <time>2021-10-14T09:51:15.000Z</time>
      </trkpt>
      <trkpt lat="47.30032" lon="-2.43337">
        <ele>-5</ele>
        <time>2021-10-14T09:51:18.000Z</time>
      </trkpt>
      <trkpt lat="47.3002" lon="-2.43334">
        <ele>-5</ele>
        <time>2021-10-14T09:51:20.000Z</time>
      </trkpt>
      <trkpt lat="47.29997" lon="-2.43319">
        <ele>-5</ele>
        <time>2021-10-14T09:51:24.000Z</time>
      </trkpt>
      <trkpt lat="47.29992" lon="-2.43314">
        <ele>-5</ele>
        <time>2021-10-14T09:51:25.000Z</time>
      </trkpt>
      <trkpt lat="47.29982" lon="-2.43305">
        <ele>-5</ele>
        <time>2021-10-14T09:51:27.000Z</time>
      </trkpt>
      <trkpt lat="47.2997" lon="-2.43298">
        <ele>-5</ele>
        <time>2021-10-14T09:51:29.000Z</time>
      </trkpt>
      <trkpt lat="47.29964" lon="-2.43297">
        <ele>-5</ele>
        <time>2021-10-14T09:51:30.000Z</time>
      </trkpt>
      <trkpt lat="47.29941" lon="-2.43302">
        <ele>-5</ele>
        <time>2021-10-14T09:51:34.000Z</time>
      </trkpt>
      <trkpt lat="47.29936" lon="-2.43304">
        <ele>-5</ele>
        <time>2021-10-14T09:51:35.000Z</time>
      </trkpt>
      <trkpt lat="47.29915" lon="-2.4331">
        <ele>-5</ele>
        <time>2021-10-14T09:51:39.000Z</time>
      </trkpt>
      <trkpt lat="47.29895" lon="-2.43313">
        <ele>-5</ele>
        <time>2021-10-14T09:51:44.000Z</time>
      </trkpt>
      <trkpt lat="47.29883" lon="-2.43323">
        <ele>-5</ele>
        <time>2021-10-14T09:51:48.000Z</time>
      </trkpt>
      <trkpt lat="47.29879" lon="-2.43326">
        <ele>-5</ele>
        <time>2021-10-14T09:51:49.000Z</time>
      </trkpt>
      <trkpt lat="47.29857" lon="-2.43348">
        <ele>-5</ele>
        <time>2021-10-14T09:51:54.000Z</time>
      </trkpt>
      <trkpt lat="47.29819" lon="-2.4339">
        <ele>-5</ele>
        <time>2021-10-14T09:52:02.000Z</time>
      </trkpt>
      <trkpt lat="47.29773" lon="-2.43441">
        <ele>-5</ele>
        <time>2021-10-14T09:52:11.000Z</time>
      </trkpt>
      <trkpt lat="47.29763" lon="-2.43452">
        <ele>-5</ele>
        <time>2021-10-14T09:52:13.000Z</time>
      </trkpt>
      <trkpt lat="47.29716" lon="-2.43494">
        <ele>-5</ele>
        <time>2021-10-14T09:52:21.000Z</time>
      </trkpt>
      <trkpt lat="47.29711" lon="-2.43498">
        <ele>-5</ele>
        <time>2021-10-14T09:52:22.000Z</time>
      </trkpt>
      <trkpt lat="47.29664" lon="-2.4353">
        <ele>-5</ele>
        <time>2021-10-14T09:52:30.000Z</time>
      </trkpt>
      <trkpt lat="47.29648" lon="-2.43541">
        <ele>-5</ele>
        <time>2021-10-14T09:52:34.000Z</time>
      </trkpt>
      <trkpt lat="47.29641" lon="-2.43549">
        <ele>-5</ele>
        <time>2021-10-14T09:52:39.000Z</time>
      </trkpt>
      <trkpt lat="47.29634" lon="-2.43555">
        <ele>-5</ele>
        <time>2021-10-14T09:52:41.000Z</time>
      </trkpt>
      <trkpt lat="47.29629" lon="-2.43554">
        <ele>-5</ele>
        <time>2021-10-14T09:52:42.000Z</time>
      </trkpt>
      <trkpt lat="47.29623" lon="-2.43545">
        <ele>-5</ele>
        <time>2021-10-14T09:52:44.000Z</time>
      </trkpt>
      <trkpt lat="47.29626" lon="-2.43523">
        <ele>-5</ele>
        <time>2021-10-14T09:52:47.000Z</time>
      </trkpt>
      <trkpt lat="47.29627" lon="-2.43515">
        <ele>-5</ele>
        <time>2021-10-14T09:52:48.000Z</time>
      </trkpt>
      <trkpt lat="47.29624" lon="-2.435">
        <ele>-5</ele>
        <time>2021-10-14T09:52:50.000Z</time>
      </trkpt>
      <trkpt lat="47.2961" lon="-2.43492">
        <ele>-5</ele>
        <time>2021-10-14T09:52:53.000Z</time>
      </trkpt>
      <trkpt lat="47.29599" lon="-2.43494">
        <ele>-5</ele>
        <time>2021-10-14T09:52:55.000Z</time>
      </trkpt>
      <trkpt lat="47.29575" lon="-2.43494">
        <ele>-5</ele>
        <time>2021-10-14T09:52:59.000Z</time>
      </trkpt>
      <trkpt lat="47.2955" lon="-2.43493">
        <ele>-5</ele>
        <time>2021-10-14T09:53:03.000Z</time>
      </trkpt>
      <trkpt lat="47.29538" lon="-2.43492">
        <ele>-5</ele>
        <time>2021-10-14T09:53:05.000Z</time>
      </trkpt>
      <trkpt lat="47.29496" lon="-2.4348">
        <ele>-5</ele>
        <time>2021-10-14T09:53:12.000Z</time>
      </trkpt>
      <trkpt lat="47.29484" lon="-2.43474">
        <ele>-5</ele>
        <time>2021-10-14T09:53:14.000Z</time>
      </trkpt>
      <trkpt lat="47.29479" lon="-2.4347">
        <ele>-4.5999999046326</ele>
        <time>2021-10-14T09:53:15.000Z</time>
      </trkpt>
      <trkpt lat="47.29474" lon="-2.43466">
        <ele>-4.1999998092651</ele>
        <time>2021-10-14T09:53:16.000Z</time>
      </trkpt>
      <trkpt lat="47.29469" lon="-2.43463">
        <ele>-3.7999999523163</ele>
        <time>2021-10-14T09:53:17.000Z</time>
      </trkpt>
      <trkpt lat="47.29463" lon="-2.43463">
        <ele>-3.4000000953674</ele>
        <time>2021-10-14T09:53:18.000Z</time>
      </trkpt>
      <trkpt lat="47.29459" lon="-2.43464">
        <ele>-3</ele>
        <time>2021-10-14T09:53:19.000Z</time>
      </trkpt>
      <trkpt lat="47.29454" lon="-2.43464">
        <ele>-3</ele>
        <time>2021-10-14T09:53:20.000Z</time>
      </trkpt>
      <trkpt lat="47.29446" lon="-2.43452">
        <ele>-3</ele>
        <time>2021-10-14T09:53:23.000Z</time>
      </trkpt>
      <trkpt lat="47.29444" lon="-2.43446">
        <ele>-3</ele>
        <time>2021-10-14T09:53:24.000Z</time>
      </trkpt>
      <trkpt lat="47.29441" lon="-2.43442">
        <ele>-3</ele>
        <time>2021-10-14T09:53:25.000Z</time>
      </trkpt>
      <trkpt lat="47.29438" lon="-2.43435">
        <ele>-3</ele>
        <time>2021-10-14T09:53:27.000Z</time>
      </trkpt>
      <trkpt lat="47.29437" lon="-2.43425">
        <ele>-3</ele>
        <time>2021-10-14T09:53:29.000Z</time>
      </trkpt>
      <trkpt lat="47.29435" lon="-2.43412">
        <ele>-3</ele>
        <time>2021-10-14T09:53:31.000Z</time>
      </trkpt>
      <trkpt lat="47.29435" lon="-2.43406">
        <ele>-3</ele>
        <time>2021-10-14T09:53:32.000Z</time>
      </trkpt>
      <trkpt lat="47.29426" lon="-2.43389">
        <ele>-3</ele>
        <time>2021-10-14T09:53:36.000Z</time>
      </trkpt>
      <trkpt lat="47.29417" lon="-2.43387">
        <ele>-3</ele>
        <time>2021-10-14T09:53:38.000Z</time>
      </trkpt>
      <trkpt lat="47.29413" lon="-2.43385">
        <ele>-3</ele>
        <time>2021-10-14T09:53:39.000Z</time>
      </trkpt>
      <trkpt lat="47.29412" lon="-2.4338">
        <ele>-3</ele>
        <time>2021-10-14T09:53:40.000Z</time>
      </trkpt>
      <trkpt lat="47.29408" lon="-2.43359">
        <ele>-3</ele>
        <time>2021-10-14T09:53:44.000Z</time>
      </trkpt>
      <trkpt lat="47.29395" lon="-2.43337">
        <ele>-3</ele>
        <time>2021-10-14T09:53:48.000Z</time>
      </trkpt>
      <trkpt lat="47.29392" lon="-2.43332">
        <ele>-3</ele>
        <time>2021-10-14T09:53:49.000Z</time>
      </trkpt>
      <trkpt lat="47.29377" lon="-2.4331">
        <ele>-3</ele>
        <time>2021-10-14T09:53:53.000Z</time>
      </trkpt>
      <trkpt lat="47.29369" lon="-2.43299">
        <ele>-3</ele>
        <time>2021-10-14T09:53:55.000Z</time>
      </trkpt>
      <trkpt lat="47.29365" lon="-2.43286">
        <ele>-3</ele>
        <time>2021-10-14T09:53:57.000Z</time>
      </trkpt>
      <trkpt lat="47.29364" lon="-2.4327">
        <ele>-3</ele>
        <time>2021-10-14T09:53:59.000Z</time>
      </trkpt>
      <trkpt lat="47.29362" lon="-2.43247">
        <ele>-3</ele>
        <time>2021-10-14T09:54:02.000Z</time>
      </trkpt>
      <trkpt lat="47.29363" lon="-2.43239">
        <ele>-3</ele>
        <time>2021-10-14T09:54:03.000Z</time>
      </trkpt>
      <trkpt lat="47.29367" lon="-2.43226">
        <ele>-3</ele>
        <time>2021-10-14T09:54:05.000Z</time>
      </trkpt>
      <trkpt lat="47.29376" lon="-2.43197">
        <ele>-3</ele>
        <time>2021-10-14T09:54:09.000Z</time>
      </trkpt>
      <trkpt lat="47.29375" lon="-2.43181">
        <ele>-3</ele>
        <time>2021-10-14T09:54:11.000Z</time>
      </trkpt>
      <trkpt lat="47.29374" lon="-2.43172">
        <ele>-3</ele>
        <time>2021-10-14T09:54:12.000Z</time>
      </trkpt>
      <trkpt lat="47.29371" lon="-2.43157">
        <ele>-3</ele>
        <time>2021-10-14T09:54:14.000Z</time>
      </trkpt>
      <trkpt lat="47.29361" lon="-2.43127">
        <ele>-3</ele>
        <time>2021-10-14T09:54:18.000Z</time>
      </trkpt>
      <trkpt lat="47.29352" lon="-2.43107">
        <ele>-3</ele>
        <time>2021-10-14T09:54:21.000Z</time>
      </trkpt>
      <trkpt lat="47.29345" lon="-2.43093">
        <ele>-3</ele>
        <time>2021-10-14T09:54:23.000Z</time>
      </trkpt>
      <trkpt lat="47.29331" lon="-2.4308">
        <ele>-3</ele>
        <time>2021-10-14T09:54:26.000Z</time>
      </trkpt>
      <trkpt lat="47.2932" lon="-2.43074">
        <ele>-3</ele>
        <time>2021-10-14T09:54:28.000Z</time>
      </trkpt>
      <trkpt lat="47.2931" lon="-2.43066">
        <ele>-3</ele>
        <time>2021-10-14T09:54:30.000Z</time>
      </trkpt>
      <trkpt lat="47.29306" lon="-2.43059">
        <ele>-3</ele>
        <time>2021-10-14T09:54:31.000Z</time>
      </trkpt>
      <trkpt lat="47.29305" lon="-2.43034">
        <ele>-3</ele>
        <time>2021-10-14T09:54:34.000Z</time>
      </trkpt>
      <trkpt lat="47.29307" lon="-2.43018">
        <ele>-3</ele>
        <time>2021-10-14T09:54:36.000Z</time>
      </trkpt>
      <trkpt lat="47.29312" lon="-2.42978">
        <ele>-3</ele>
        <time>2021-10-14T09:54:41.000Z</time>
      </trkpt>
      <trkpt lat="47.29312" lon="-2.42952">
        <ele>-3</ele>
        <time>2021-10-14T09:54:44.000Z</time>
      </trkpt>
      <trkpt lat="47.29311" lon="-2.42935">
        <ele>-3</ele>
        <time>2021-10-14T09:54:46.000Z</time>
      </trkpt>
      <trkpt lat="47.29316" lon="-2.42911">
        <ele>-3</ele>
        <time>2021-10-14T09:54:49.000Z</time>
      </trkpt>
      <trkpt lat="47.29317" lon="-2.42903">
        <ele>-3</ele>
        <time>2021-10-14T09:54:50.000Z</time>
      </trkpt>
      <trkpt lat="47.29333" lon="-2.42852">
        <ele>-3</ele>
        <time>2021-10-14T09:54:57.000Z</time>
      </trkpt>
      <trkpt lat="47.29343" lon="-2.42833">
        <ele>-3</ele>
        <time>2021-10-14T09:55:00.000Z</time>
      </trkpt>
      <trkpt lat="47.2935" lon="-2.42821">
        <ele>-3</ele>
        <time>2021-10-14T09:55:02.000Z</time>
      </trkpt>
      <trkpt lat="47.29359" lon="-2.42812">
        <ele>-3</ele>
        <time>2021-10-14T09:55:04.000Z</time>
      </trkpt>
      <trkpt lat="47.2937" lon="-2.42799">
        <ele>-3</ele>
        <time>2021-10-14T09:55:07.000Z</time>
      </trkpt>
      <trkpt lat="47.29378" lon="-2.4278">
        <ele>-3</ele>
        <time>2021-10-14T09:55:10.000Z</time>
      </trkpt>
      <trkpt lat="47.29382" lon="-2.42765">
        <ele>-3</ele>
        <time>2021-10-14T09:55:12.000Z</time>
      </trkpt>
      <trkpt lat="47.29395" lon="-2.42723">
        <ele>-3</ele>
        <time>2021-10-14T09:55:18.000Z</time>
      </trkpt>
      <trkpt lat="47.29398" lon="-2.42716">
        <ele>-3</ele>
        <time>2021-10-14T09:55:19.000Z</time>
      </trkpt>
      <trkpt lat="47.29411" lon="-2.42684">
        <ele>-3</ele>
        <time>2021-10-14T09:55:24.000Z</time>
      </trkpt>
      <trkpt lat="47.29416" lon="-2.42671">
        <ele>-3</ele>
        <time>2021-10-14T09:55:26.000Z</time>
      </trkpt>
      <trkpt lat="47.29418" lon="-2.42648">
        <ele>-3</ele>
        <time>2021-10-14T09:55:29.000Z</time>
      </trkpt>
      <trkpt lat="47.29421" lon="-2.42609">
        <ele>-3</ele>
        <time>2021-10-14T09:55:34.000Z</time>
      </trkpt>
      <trkpt lat="47.29421" lon="-2.426">
        <ele>-3</ele>
        <time>2021-10-14T09:55:35.000Z</time>
      </trkpt>
      <trkpt lat="47.29422" lon="-2.42593">
        <ele>-3</ele>
        <time>2021-10-14T09:55:36.000Z</time>
      </trkpt>
      <trkpt lat="47.29431" lon="-2.42574">
        <ele>-3</ele>
        <time>2021-10-14T09:55:39.000Z</time>
      </trkpt>
      <trkpt lat="47.29443" lon="-2.4256">
        <ele>-3</ele>
        <time>2021-10-14T09:55:42.000Z</time>
      </trkpt>
      <trkpt lat="47.29451" lon="-2.42551">
        <ele>-3</ele>
        <time>2021-10-14T09:55:44.000Z</time>
      </trkpt>
      <trkpt lat="47.29458" lon="-2.42544">
        <ele>-3</ele>
        <time>2021-10-14T09:55:46.000Z</time>
      </trkpt>
      <trkpt lat="47.29474" lon="-2.42528">
        <ele>-3</ele>
        <time>2021-10-14T09:55:50.000Z</time>
      </trkpt>
      <trkpt lat="47.29489" lon="-2.42511">
        <ele>-3</ele>
        <time>2021-10-14T09:55:54.000Z</time>
      </trkpt>
      <trkpt lat="47.29497" lon="-2.42503">
        <ele>-3</ele>
        <time>2021-10-14T09:55:56.000Z</time>
      </trkpt>
      <trkpt lat="47.29514" lon="-2.42484">
        <ele>-3</ele>
        <time>2021-10-14T09:56:00.000Z</time>
      </trkpt>
      <trkpt lat="47.29523" lon="-2.42478">
        <ele>-3</ele>
        <time>2021-10-14T09:56:02.000Z</time>
      </trkpt>
      <trkpt lat="47.29544" lon="-2.42453">
        <ele>-3</ele>
        <time>2021-10-14T09:56:07.000Z</time>
      </trkpt>
      <trkpt lat="47.29548" lon="-2.42446">
        <ele>-3</ele>
        <time>2021-10-14T09:56:08.000Z</time>
      </trkpt>
      <trkpt lat="47.29554" lon="-2.42435">
        <ele>-3</ele>
        <time>2021-10-14T09:56:10.000Z</time>
      </trkpt>
      <trkpt lat="47.29563" lon="-2.42428">
        <ele>-3</ele>
        <time>2021-10-14T09:56:12.000Z</time>
      </trkpt>
      <trkpt lat="47.29582" lon="-2.42425">
        <ele>-3</ele>
        <time>2021-10-14T09:56:16.000Z</time>
      </trkpt>
      <trkpt lat="47.29587" lon="-2.42425">
        <ele>-3</ele>
        <time>2021-10-14T09:56:17.000Z</time>
      </trkpt>
      <trkpt lat="47.29592" lon="-2.42426">
        <ele>-3</ele>
        <time>2021-10-14T09:56:18.000Z</time>
      </trkpt>
      <trkpt lat="47.29611" lon="-2.42433">
        <ele>-3</ele>
        <time>2021-10-14T09:56:22.000Z</time>
      </trkpt>
      <trkpt lat="47.29615" lon="-2.42435">
        <ele>-3.4000000953674</ele>
        <time>2021-10-14T09:56:23.000Z</time>
      </trkpt>
      <trkpt lat="47.29619" lon="-2.42436">
        <ele>-3.7999999523163</ele>
        <time>2021-10-14T09:56:24.000Z</time>
      </trkpt>
      <trkpt lat="47.29622" lon="-2.42436">
        <ele>-4.1999998092651</ele>
        <time>2021-10-14T09:56:25.000Z</time>
      </trkpt>
      <trkpt lat="47.29625" lon="-2.42432">
        <ele>-4.5999999046326</ele>
        <time>2021-10-14T09:56:26.000Z</time>
      </trkpt>
      <trkpt lat="47.29626" lon="-2.42427">
        <ele>-5</ele>
        <time>2021-10-14T09:56:27.000Z</time>
      </trkpt>
      <trkpt lat="47.29628" lon="-2.42415">
        <ele>-5</ele>
        <time>2021-10-14T09:56:29.000Z</time>
      </trkpt>
      <trkpt lat="47.29638" lon="-2.42366">
        <ele>-5</ele>
        <time>2021-10-14T09:56:36.000Z</time>
      </trkpt>
      <trkpt lat="47.29647" lon="-2.42324">
        <ele>-5</ele>
        <time>2021-10-14T09:56:42.000Z</time>
      </trkpt>
      <trkpt lat="47.29659" lon="-2.4227">
        <ele>-5</ele>
        <time>2021-10-14T09:56:50.000Z</time>
      </trkpt>
      <trkpt lat="47.29674" lon="-2.42219">
        <ele>-5</ele>
        <time>2021-10-14T09:56:59.000Z</time>
      </trkpt>
      <trkpt lat="47.29677" lon="-2.42213">
        <ele>-5</ele>
        <time>2021-10-14T09:57:00.000Z</time>
      </trkpt>
      <trkpt lat="47.29693" lon="-2.42185">
        <ele>-5</ele>
        <time>2021-10-14T09:57:05.000Z</time>
      </trkpt>
      <trkpt lat="47.29718" lon="-2.42141">
        <ele>-5</ele>
        <time>2021-10-14T09:57:12.000Z</time>
      </trkpt>
      <trkpt lat="47.29749" lon="-2.42087">
        <ele>-5</ele>
        <time>2021-10-14T09:57:21.000Z</time>
      </trkpt>
      <trkpt lat="47.29777" lon="-2.42034">
        <ele>-5</ele>
        <time>2021-10-14T09:57:29.000Z</time>
      </trkpt>
      <trkpt lat="47.29783" lon="-2.4202">
        <ele>-5</ele>
        <time>2021-10-14T09:57:31.000Z</time>
      </trkpt>
      <trkpt lat="47.29786" lon="-2.42003">
        <ele>-5</ele>
        <time>2021-10-14T09:57:33.000Z</time>
      </trkpt>
      <trkpt lat="47.29782" lon="-2.41968">
        <ele>-5</ele>
        <time>2021-10-14T09:57:37.000Z</time>
      </trkpt>
      <trkpt lat="47.29769" lon="-2.41901">
        <ele>-4.5999999046326</ele>
        <time>2021-10-14T09:57:45.000Z</time>
      </trkpt>
      <trkpt lat="47.29768" lon="-2.41893">
        <ele>-4.1999998092651</ele>
        <time>2021-10-14T09:57:46.000Z</time>
      </trkpt>
      <trkpt lat="47.29767" lon="-2.41885">
        <ele>-3.7999999523163</ele>
        <time>2021-10-14T09:57:47.000Z</time>
      </trkpt>
      <trkpt lat="47.29767" lon="-2.41877">
        <ele>-3.4000000953674</ele>
        <time>2021-10-14T09:57:48.000Z</time>
      </trkpt>
      <trkpt lat="47.29766" lon="-2.41868">
        <ele>-3</ele>
        <time>2021-10-14T09:57:49.000Z</time>
      </trkpt>
      <trkpt lat="47.29767" lon="-2.41852">
        <ele>-3</ele>
        <time>2021-10-14T09:57:51.000Z</time>
      </trkpt>
      <trkpt lat="47.2977" lon="-2.41787">
        <ele>-3</ele>
        <time>2021-10-14T09:57:59.000Z</time>
      </trkpt>
      <trkpt lat="47.29766" lon="-2.41752">
        <ele>-3</ele>
        <time>2021-10-14T09:58:04.000Z</time>
      </trkpt>
      <trkpt lat="47.29761" lon="-2.41747">
        <ele>-3</ele>
        <time>2021-10-14T09:58:05.000Z</time>
      </trkpt>
      <trkpt lat="47.29747" lon="-2.41749">
        <ele>-3</ele>
        <time>2021-10-14T09:58:08.000Z</time>
      </trkpt>
      <trkpt lat="47.29738" lon="-2.41758">
        <ele>-3</ele>
        <time>2021-10-14T09:58:10.000Z</time>
      </trkpt>
      <trkpt lat="47.29725" lon="-2.41772">
        <ele>-3</ele>
        <time>2021-10-14T09:58:13.000Z</time>
      </trkpt>
      <trkpt lat="47.29705" lon="-2.41804">
        <ele>-3</ele>
        <time>2021-10-14T09:58:18.000Z</time>
      </trkpt>
      <trkpt lat="47.29696" lon="-2.41816">
        <ele>-3</ele>
        <time>2021-10-14T09:58:20.000Z</time>
      </trkpt>
      <trkpt lat="47.29685" lon="-2.41819">
        <ele>-3</ele>
        <time>2021-10-14T09:58:22.000Z</time>
      </trkpt>
      <trkpt lat="47.29667" lon="-2.41822">
        <ele>-3</ele>
        <time>2021-10-14T09:58:25.000Z</time>
      </trkpt>
      <trkpt lat="47.29651" lon="-2.41827">
        <ele>-3</ele>
        <time>2021-10-14T09:58:28.000Z</time>
      </trkpt>
      <trkpt lat="47.29638" lon="-2.41814">
        <ele>-3</ele>
        <time>2021-10-14T09:58:31.000Z</time>
      </trkpt>
      <trkpt lat="47.29635" lon="-2.41792">
        <ele>-3</ele>
        <time>2021-10-14T09:58:34.000Z</time>
      </trkpt>
      <trkpt lat="47.29635" lon="-2.41784">
        <ele>-3</ele>
        <time>2021-10-14T09:58:35.000Z</time>
      </trkpt>
      <trkpt lat="47.29633" lon="-2.41776">
        <ele>-3</ele>
        <time>2021-10-14T09:58:36.000Z</time>
      </trkpt>
      <trkpt lat="47.29626" lon="-2.41762">
        <ele>-3</ele>
        <time>2021-10-14T09:58:38.000Z</time>
      </trkpt>
      <trkpt lat="47.29613" lon="-2.41745">
        <ele>-3</ele>
        <time>2021-10-14T09:58:41.000Z</time>
      </trkpt>
      <trkpt lat="47.29604" lon="-2.41735">
        <ele>-3</ele>
        <time>2021-10-14T09:58:43.000Z</time>
      </trkpt>
      <trkpt lat="47.29574" lon="-2.41712">
        <ele>-3</ele>
        <time>2021-10-14T09:58:49.000Z</time>
      </trkpt>
      <trkpt lat="47.29558" lon="-2.41707">
        <ele>-3</ele>
        <time>2021-10-14T09:58:52.000Z</time>
      </trkpt>
      <trkpt lat="47.29554" lon="-2.41702">
        <ele>-3</ele>
        <time>2021-10-14T09:58:53.000Z</time>
      </trkpt>
      <trkpt lat="47.29541" lon="-2.41678">
        <ele>-3</ele>
        <time>2021-10-14T09:58:57.000Z</time>
      </trkpt>
      <trkpt lat="47.29539" lon="-2.41672">
        <ele>-3</ele>
        <time>2021-10-14T09:58:58.000Z</time>
      </trkpt>
      <trkpt lat="47.29534" lon="-2.41658">
        <ele>-3</ele>
        <time>2021-10-14T09:59:00.000Z</time>
      </trkpt>
      <trkpt lat="47.29528" lon="-2.41635">
        <ele>-3</ele>
        <time>2021-10-14T09:59:03.000Z</time>
      </trkpt>
      <trkpt lat="47.29525" lon="-2.4161">
        <ele>-3</ele>
        <time>2021-10-14T09:59:06.000Z</time>
      </trkpt>
      <trkpt lat="47.29527" lon="-2.41585">
        <ele>-3</ele>
        <time>2021-10-14T09:59:09.000Z</time>
      </trkpt>
      <trkpt lat="47.29533" lon="-2.41563">
        <ele>-3</ele>
        <time>2021-10-14T09:59:12.000Z</time>
      </trkpt>
      <trkpt lat="47.29536" lon="-2.41555">
        <ele>-3</ele>
        <time>2021-10-14T09:59:13.000Z</time>
      </trkpt>
      <trkpt lat="47.2954" lon="-2.4154">
        <ele>-3</ele>
        <time>2021-10-14T09:59:15.000Z</time>
      </trkpt>
      <trkpt lat="47.2954" lon="-2.41524">
        <ele>-3</ele>
        <time>2021-10-14T09:59:17.000Z</time>
      </trkpt>
      <trkpt lat="47.29529" lon="-2.41497">
        <ele>-3</ele>
        <time>2021-10-14T09:59:21.000Z</time>
      </trkpt>
      <trkpt lat="47.29526" lon="-2.4149">
        <ele>-3</ele>
        <time>2021-10-14T09:59:22.000Z</time>
      </trkpt>
      <trkpt lat="47.29522" lon="-2.41484">
        <ele>-3</ele>
        <time>2021-10-14T09:59:23.000Z</time>
      </trkpt>
      <trkpt lat="47.29507" lon="-2.41476">
        <ele>-3</ele>
        <time>2021-10-14T09:59:26.000Z</time>
      </trkpt>
      <trkpt lat="47.29491" lon="-2.41484">
        <ele>-3</ele>
        <time>2021-10-14T09:59:29.000Z</time>
      </trkpt>
      <trkpt lat="47.29471" lon="-2.41484">
        <ele>-3</ele>
        <time>2021-10-14T09:59:33.000Z</time>
      </trkpt>
      <trkpt lat="47.29456" lon="-2.41484">
        <ele>-3</ele>
        <time>2021-10-14T09:59:36.000Z</time>
      </trkpt>
      <trkpt lat="47.29451" lon="-2.41485">
        <ele>-3</ele>
        <time>2021-10-14T09:59:37.000Z</time>
      </trkpt>
      <trkpt lat="47.2944" lon="-2.41486">
        <ele>-3</ele>
        <time>2021-10-14T09:59:39.000Z</time>
      </trkpt>
      <trkpt lat="47.29426" lon="-2.41478">
        <ele>-3</ele>
        <time>2021-10-14T09:59:42.000Z</time>
      </trkpt>
      <trkpt lat="47.29417" lon="-2.41468">
        <ele>-3</ele>
        <time>2021-10-14T09:59:44.000Z</time>
      </trkpt>
      <trkpt lat="47.29405" lon="-2.41451">
        <ele>-3</ele>
        <time>2021-10-14T09:59:47.000Z</time>
      </trkpt>
      <trkpt lat="47.29395" lon="-2.41433">
        <ele>-3</ele>
        <time>2021-10-14T09:59:50.000Z</time>
      </trkpt>
      <trkpt lat="47.29387" lon="-2.41412">
        <ele>-3</ele>
        <time>2021-10-14T09:59:53.000Z</time>
      </trkpt>
      <trkpt lat="47.29365" lon="-2.41371">
        <ele>-3</ele>
        <time>2021-10-14T10:00:00.000Z</time>
      </trkpt>
      <trkpt lat="47.29361" lon="-2.41367">
        <ele>-3</ele>
        <time>2021-10-14T10:00:01.000Z</time>
      </trkpt>
      <trkpt lat="47.29353" lon="-2.41357">
        <ele>-3</ele>
        <time>2021-10-14T10:00:03.000Z</time>
      </trkpt>
      <trkpt lat="47.29349" lon="-2.41343">
        <ele>-3</ele>
        <time>2021-10-14T10:00:05.000Z</time>
      </trkpt>
      <trkpt lat="47.29351" lon="-2.41322">
        <ele>-3</ele>
        <time>2021-10-14T10:00:08.000Z</time>
      </trkpt>
      <trkpt lat="47.2936" lon="-2.41289">
        <ele>-3</ele>
        <time>2021-10-14T10:00:13.000Z</time>
      </trkpt>
      <trkpt lat="47.29357" lon="-2.41276">
        <ele>-3</ele>
        <time>2021-10-14T10:00:15.000Z</time>
      </trkpt>
      <trkpt lat="47.29357" lon="-2.41268">
        <ele>-3</ele>
        <time>2021-10-14T10:00:16.000Z</time>
      </trkpt>
      <trkpt lat="47.29355" lon="-2.41253">
        <ele>-3</ele>
        <time>2021-10-14T10:00:18.000Z</time>
      </trkpt>
      <trkpt lat="47.29346" lon="-2.41235">
        <ele>-3</ele>
        <time>2021-10-14T10:00:21.000Z</time>
      </trkpt>
      <trkpt lat="47.29337" lon="-2.41224">
        <ele>-3</ele>
        <time>2021-10-14T10:00:23.000Z</time>
      </trkpt>
      <trkpt lat="47.29323" lon="-2.41208">
        <ele>-3</ele>
        <time>2021-10-14T10:00:26.000Z</time>
      </trkpt>
      <trkpt lat="47.29306" lon="-2.41189">
        <ele>-3</ele>
        <time>2021-10-14T10:00:30.000Z</time>
      </trkpt>
      <trkpt lat="47.29299" lon="-2.41177">
        <ele>-3</ele>
        <time>2021-10-14T10:00:32.000Z</time>
      </trkpt>
      <trkpt lat="47.29295" lon="-2.41164">
        <ele>-3</ele>
        <time>2021-10-14T10:00:34.000Z</time>
      </trkpt>
      <trkpt lat="47.29287" lon="-2.41144">
        <ele>-3</ele>
        <time>2021-10-14T10:00:37.000Z</time>
      </trkpt>
      <trkpt lat="47.29267" lon="-2.41116">
        <ele>-3</ele>
        <time>2021-10-14T10:00:42.000Z</time>
      </trkpt>
      <trkpt lat="47.29251" lon="-2.41096">
        <ele>-3</ele>
        <time>2021-10-14T10:00:46.000Z</time>
      </trkpt>
      <trkpt lat="47.29245" lon="-2.41084">
        <ele>-3</ele>
        <time>2021-10-14T10:00:48.000Z</time>
      </trkpt>
      <trkpt lat="47.29249" lon="-2.41064">
        <ele>-3</ele>
        <time>2021-10-14T10:00:51.000Z</time>
      </trkpt>
      <trkpt lat="47.29255" lon="-2.41044">
        <ele>-3</ele>
        <time>2021-10-14T10:00:54.000Z</time>
      </trkpt>
      <trkpt lat="47.29249" lon="-2.41031">
        <ele>-3</ele>
        <time>2021-10-14T10:00:56.000Z</time>
      </trkpt>
      <trkpt lat="47.2924" lon="-2.41021">
        <ele>-3</ele>
        <time>2021-10-14T10:00:58.000Z</time>
      </trkpt>
      <trkpt lat="47.29233" lon="-2.4101">
        <ele>-3</ele>
        <time>2021-10-14T10:01:00.000Z</time>
      </trkpt>
      <trkpt lat="47.29229" lon="-2.41003">
        <ele>-3</ele>
        <time>2021-10-14T10:01:01.000Z</time>
      </trkpt>
      <trkpt lat="47.2921" lon="-2.40957">
        <ele>-3</ele>
        <time>2021-10-14T10:01:08.000Z</time>
      </trkpt>
      <trkpt lat="47.29195" lon="-2.40947">
        <ele>-3</ele>
        <time>2021-10-14T10:01:11.000Z</time>
      </trkpt>
      <trkpt lat="47.29184" lon="-2.40945">
        <ele>-3</ele>
        <time>2021-10-14T10:01:13.000Z</time>
      </trkpt>
      <trkpt lat="47.29168" lon="-2.40939">
        <ele>-3</ele>
        <time>2021-10-14T10:01:16.000Z</time>
      </trkpt>
      <trkpt lat="47.29161" lon="-2.40918">
        <ele>-3</ele>
        <time>2021-10-14T10:01:19.000Z</time>
      </trkpt>
      <trkpt lat="47.29165" lon="-2.40888">
        <ele>-3</ele>
        <time>2021-10-14T10:01:23.000Z</time>
      </trkpt>
      <trkpt lat="47.29167" lon="-2.40881">
        <ele>-3</ele>
        <time>2021-10-14T10:01:24.000Z</time>
      </trkpt>
      <trkpt lat="47.29172" lon="-2.40866">
        <ele>-3</ele>
        <time>2021-10-14T10:01:26.000Z</time>
      </trkpt>
      <trkpt lat="47.29172" lon="-2.40843">
        <ele>-3</ele>
        <time>2021-10-14T10:01:29.000Z</time>
      </trkpt>
      <trkpt lat="47.29172" lon="-2.40835">
        <ele>-3</ele>
        <time>2021-10-14T10:01:30.000Z</time>
      </trkpt>
      <trkpt lat="47.29172" lon="-2.40812">
        <ele>-3</ele>
        <time>2021-10-14T10:01:33.000Z</time>
      </trkpt>
      <trkpt lat="47.29175" lon="-2.40797">
        <ele>-3</ele>
        <time>2021-10-14T10:01:35.000Z</time>
      </trkpt>
      <trkpt lat="47.2918" lon="-2.40785">
        <ele>-3</ele>
        <time>2021-10-14T10:01:37.000Z</time>
      </trkpt>
      <trkpt lat="47.29188" lon="-2.40764">
        <ele>-3</ele>
        <time>2021-10-14T10:01:40.000Z</time>
      </trkpt>
      <trkpt lat="47.29193" lon="-2.4075">
        <ele>-3</ele>
        <time>2021-10-14T10:01:42.000Z</time>
      </trkpt>
      <trkpt lat="47.29201" lon="-2.40739">
        <ele>-3</ele>
        <time>2021-10-14T10:01:44.000Z</time>
      </trkpt>
      <trkpt lat="47.29205" lon="-2.40733">
        <ele>-3</ele>
        <time>2021-10-14T10:01:45.000Z</time>
      </trkpt>
      <trkpt lat="47.29219" lon="-2.4071">
        <ele>-3</ele>
        <time>2021-10-14T10:01:49.000Z</time>
      </trkpt>
      <trkpt lat="47.29231" lon="-2.40684">
        <ele>-3</ele>
        <time>2021-10-14T10:01:53.000Z</time>
      </trkpt>
      <trkpt lat="47.29232" lon="-2.40667">
        <ele>-3</ele>
        <time>2021-10-14T10:01:55.000Z</time>
      </trkpt>
      <trkpt lat="47.29226" lon="-2.40642">
        <ele>-3</ele>
        <time>2021-10-14T10:01:58.000Z</time>
      </trkpt>
      <trkpt lat="47.29218" lon="-2.40627">
        <ele>-3</ele>
        <time>2021-10-14T10:02:00.000Z</time>
      </trkpt>
      <trkpt lat="47.29214" lon="-2.40621">
        <ele>-3</ele>
        <time>2021-10-14T10:02:01.000Z</time>
      </trkpt>
      <trkpt lat="47.2921" lon="-2.40616">
        <ele>-3</ele>
        <time>2021-10-14T10:02:02.000Z</time>
      </trkpt>
      <trkpt lat="47.29194" lon="-2.40611">
        <ele>-3</ele>
        <time>2021-10-14T10:02:05.000Z</time>
      </trkpt>
      <trkpt lat="47.29177" lon="-2.40626">
        <ele>-3</ele>
        <time>2021-10-14T10:02:09.000Z</time>
      </trkpt>
      <trkpt lat="47.29172" lon="-2.40629">
        <ele>-3</ele>
        <time>2021-10-14T10:02:10.000Z</time>
      </trkpt>
      <trkpt lat="47.29149" lon="-2.40645">
        <ele>-3</ele>
        <time>2021-10-14T10:02:15.000Z</time>
      </trkpt>
      <trkpt lat="47.29142" lon="-2.40637">
        <ele>-3</ele>
        <time>2021-10-14T10:02:17.000Z</time>
      </trkpt>
      <trkpt lat="47.2914" lon="-2.40617">
        <ele>-3</ele>
        <time>2021-10-14T10:02:20.000Z</time>
      </trkpt>
      <trkpt lat="47.29138" lon="-2.40603">
        <ele>-3</ele>
        <time>2021-10-14T10:02:22.000Z</time>
      </trkpt>
      <trkpt lat="47.29131" lon="-2.40584">
        <ele>-3</ele>
        <time>2021-10-14T10:02:25.000Z</time>
      </trkpt>
      <trkpt lat="47.29127" lon="-2.40578">
        <ele>-3</ele>
        <time>2021-10-14T10:02:26.000Z</time>
      </trkpt>
      <trkpt lat="47.29117" lon="-2.40562">
        <ele>-3</ele>
        <time>2021-10-14T10:02:29.000Z</time>
      </trkpt>
      <trkpt lat="47.29108" lon="-2.40554">
        <ele>-3</ele>
        <time>2021-10-14T10:02:31.000Z</time>
      </trkpt>
      <trkpt lat="47.29101" lon="-2.40545">
        <ele>-3</ele>
        <time>2021-10-14T10:02:33.000Z</time>
      </trkpt>
      <trkpt lat="47.29099" lon="-2.4053">
        <ele>-3</ele>
        <time>2021-10-14T10:02:35.000Z</time>
      </trkpt>
      <trkpt lat="47.29105" lon="-2.4051">
        <ele>-3</ele>
        <time>2021-10-14T10:02:38.000Z</time>
      </trkpt>
      <trkpt lat="47.29116" lon="-2.40498">
        <ele>-3</ele>
        <time>2021-10-14T10:02:41.000Z</time>
      </trkpt>
      <trkpt lat="47.2912" lon="-2.40495">
        <ele>-3</ele>
        <time>2021-10-14T10:02:42.000Z</time>
      </trkpt>
      <trkpt lat="47.29125" lon="-2.40493">
        <ele>-3</ele>
        <time>2021-10-14T10:02:43.000Z</time>
      </trkpt>
      <trkpt lat="47.29143" lon="-2.40486">
        <ele>-3</ele>
        <time>2021-10-14T10:02:47.000Z</time>
      </trkpt>
      <trkpt lat="47.29162" lon="-2.40495">
        <ele>-3</ele>
        <time>2021-10-14T10:02:51.000Z</time>
      </trkpt>
      <trkpt lat="47.2917" lon="-2.40514">
        <ele>-3</ele>
        <time>2021-10-14T10:02:54.000Z</time>
      </trkpt>
      <trkpt lat="47.29174" lon="-2.40519">
        <ele>-3</ele>
        <time>2021-10-14T10:02:55.000Z</time>
      </trkpt>
      <trkpt lat="47.29185" lon="-2.40517">
        <ele>-3</ele>
        <time>2021-10-14T10:02:57.000Z</time>
      </trkpt>
      <trkpt lat="47.29194" lon="-2.40512">
        <ele>-3</ele>
        <time>2021-10-14T10:02:59.000Z</time>
      </trkpt>
      <trkpt lat="47.29214" lon="-2.405">
        <ele>-3</ele>
        <time>2021-10-14T10:03:03.000Z</time>
      </trkpt>
      <trkpt lat="47.29249" lon="-2.40479">
        <ele>-3</ele>
        <time>2021-10-14T10:03:10.000Z</time>
      </trkpt>
      <trkpt lat="47.2927" lon="-2.4047">
        <ele>-3</ele>
        <time>2021-10-14T10:03:14.000Z</time>
      </trkpt>
      <trkpt lat="47.29275" lon="-2.40469">
        <ele>-3</ele>
        <time>2021-10-14T10:03:15.000Z</time>
      </trkpt>
      <trkpt lat="47.29292" lon="-2.40454">
        <ele>-3</ele>
        <time>2021-10-14T10:03:19.000Z</time>
      </trkpt>
      <trkpt lat="47.29299" lon="-2.40434">
        <ele>-3</ele>
        <time>2021-10-14T10:03:22.000Z</time>
      </trkpt>
      <trkpt lat="47.29301" lon="-2.40428">
        <ele>-3</ele>
        <time>2021-10-14T10:03:23.000Z</time>
      </trkpt>
      <trkpt lat="47.29307" lon="-2.40406">
        <ele>-3</ele>
        <time>2021-10-14T10:03:26.000Z</time>
      </trkpt>
      <trkpt lat="47.29303" lon="-2.4039">
        <ele>-3</ele>
        <time>2021-10-14T10:03:28.000Z</time>
      </trkpt>
      <trkpt lat="47.29296" lon="-2.40379">
        <ele>-3</ele>
        <time>2021-10-14T10:03:30.000Z</time>
      </trkpt>
      <trkpt lat="47.2929" lon="-2.40366">
        <ele>-3</ele>
        <time>2021-10-14T10:03:32.000Z</time>
      </trkpt>
      <trkpt lat="47.29289" lon="-2.4036">
        <ele>-3</ele>
        <time>2021-10-14T10:03:33.000Z</time>
      </trkpt>
      <trkpt lat="47.29289" lon="-2.40341">
        <ele>-3</ele>
        <time>2021-10-14T10:03:36.000Z</time>
      </trkpt>
      <trkpt lat="47.29297" lon="-2.40326">
        <ele>-3</ele>
        <time>2021-10-14T10:03:39.000Z</time>
      </trkpt>
      <trkpt lat="47.29305" lon="-2.40318">
        <ele>-3</ele>
        <time>2021-10-14T10:03:41.000Z</time>
      </trkpt>
      <trkpt lat="47.29318" lon="-2.40305">
        <ele>-3</ele>
        <time>2021-10-14T10:03:44.000Z</time>
      </trkpt>
      <trkpt lat="47.29326" lon="-2.40294">
        <ele>-3</ele>
        <time>2021-10-14T10:03:46.000Z</time>
      </trkpt>
      <trkpt lat="47.29343" lon="-2.40275">
        <ele>-3</ele>
        <time>2021-10-14T10:03:50.000Z</time>
      </trkpt>
      <trkpt lat="47.29347" lon="-2.40272">
        <ele>-3</ele>
        <time>2021-10-14T10:03:51.000Z</time>
      </trkpt>
      <trkpt lat="47.29369" lon="-2.40252">
        <ele>-3</ele>
        <time>2021-10-14T10:03:56.000Z</time>
      </trkpt>
      <trkpt lat="47.29385" lon="-2.4024">
        <ele>-3</ele>
        <time>2021-10-14T10:04:00.000Z</time>
      </trkpt>
      <trkpt lat="47.2939" lon="-2.40237">
        <ele>-3</ele>
        <time>2021-10-14T10:04:01.000Z</time>
      </trkpt>
      <trkpt lat="47.29426" lon="-2.40217">
        <ele>-3</ele>
        <time>2021-10-14T10:04:09.000Z</time>
      </trkpt>
      <trkpt lat="47.29441" lon="-2.40217">
        <ele>-3</ele>
        <time>2021-10-14T10:04:12.000Z</time>
      </trkpt>
      <trkpt lat="47.29447" lon="-2.40206">
        <ele>-3</ele>
        <time>2021-10-14T10:04:14.000Z</time>
      </trkpt>
      <trkpt lat="47.29449" lon="-2.40191">
        <ele>-3</ele>
        <time>2021-10-14T10:04:16.000Z</time>
      </trkpt>
      <trkpt lat="47.29453" lon="-2.40169">
        <ele>-3</ele>
        <time>2021-10-14T10:04:19.000Z</time>
      </trkpt>
      <trkpt lat="47.29455" lon="-2.40149">
        <ele>-3</ele>
        <time>2021-10-14T10:04:22.000Z</time>
      </trkpt>
      <trkpt lat="47.29456" lon="-2.40128">
        <ele>-3</ele>
        <time>2021-10-14T10:04:25.000Z</time>
      </trkpt>
      <trkpt lat="47.29462" lon="-2.40084">
        <ele>-3</ele>
        <time>2021-10-14T10:04:31.000Z</time>
      </trkpt>
      <trkpt lat="47.29462" lon="-2.40076">
        <ele>-3</ele>
        <time>2021-10-14T10:04:32.000Z</time>
      </trkpt>
      <trkpt lat="47.29462" lon="-2.4004">
        <ele>-3</ele>
        <time>2021-10-14T10:04:37.000Z</time>
      </trkpt>
      <trkpt lat="47.29461" lon="-2.40011">
        <ele>-3</ele>
        <time>2021-10-14T10:04:41.000Z</time>
      </trkpt>
      <trkpt lat="47.29461" lon="-2.40004">
        <ele>-3</ele>
        <time>2021-10-14T10:04:42.000Z</time>
      </trkpt>
      <trkpt lat="47.29466" lon="-2.39969">
        <ele>-3</ele>
        <time>2021-10-14T10:04:47.000Z</time>
      </trkpt>
      <trkpt lat="47.29468" lon="-2.39964">
        <ele>-3</ele>
        <time>2021-10-14T10:04:48.000Z</time>
      </trkpt>
      <trkpt lat="47.29474" lon="-2.39947">
        <ele>-3</ele>
        <time>2021-10-14T10:04:51.000Z</time>
      </trkpt>
      <trkpt lat="47.2948" lon="-2.39933">
        <ele>-3</ele>
        <time>2021-10-14T10:04:54.000Z</time>
      </trkpt>
      <trkpt lat="47.2949" lon="-2.39904">
        <ele>-3</ele>
        <time>2021-10-14T10:05:00.000Z</time>
      </trkpt>
      <trkpt lat="47.29492" lon="-2.39903">
        <ele>-3</ele>
        <time>2021-10-14T10:05:01.000Z</time>
      </trkpt>
      <trkpt lat="47.29496" lon="-2.399">
        <ele>-3</ele>
        <time>2021-10-14T10:05:03.000Z</time>
      </trkpt>
      <trkpt lat="47.29504" lon="-2.3989">
        <ele>-3</ele>
        <time>2021-10-14T10:05:07.000Z</time>
      </trkpt>
      <trkpt lat="47.29506" lon="-2.39887">
        <ele>-3</ele>
        <time>2021-10-14T10:05:08.000Z</time>
      </trkpt>
      <trkpt lat="47.2952" lon="-2.39861">
        <ele>-3</ele>
        <time>2021-10-14T10:05:14.000Z</time>
      </trkpt>
      <trkpt lat="47.29533" lon="-2.3983">
        <ele>-3</ele>
        <time>2021-10-14T10:05:21.000Z</time>
      </trkpt>
      <trkpt lat="47.29538" lon="-2.3982">
        <ele>-3</ele>
        <time>2021-10-14T10:05:23.000Z</time>
      </trkpt>
      <trkpt lat="47.29548" lon="-2.39801">
        <ele>-3</ele>
        <time>2021-10-14T10:05:27.000Z</time>
      </trkpt>
      <trkpt lat="47.29559" lon="-2.39775">
        <ele>-3</ele>
        <time>2021-10-14T10:05:32.000Z</time>
      </trkpt>
      <trkpt lat="47.29561" lon="-2.39769">
        <ele>-3</ele>
        <time>2021-10-14T10:05:33.000Z</time>
      </trkpt>
      <trkpt lat="47.29581" lon="-2.39728">
        <ele>-3</ele>
        <time>2021-10-14T10:05:40.000Z</time>
      </trkpt>
      <trkpt lat="47.29607" lon="-2.39681">
        <ele>-3</ele>
        <time>2021-10-14T10:05:48.000Z</time>
      </trkpt>
      <trkpt lat="47.29624" lon="-2.39645">
        <ele>-3</ele>
        <time>2021-10-14T10:05:54.000Z</time>
      </trkpt>
      <trkpt lat="47.29629" lon="-2.39606">
        <ele>-3</ele>
        <time>2021-10-14T10:05:59.000Z</time>
      </trkpt>
      <trkpt lat="47.2963" lon="-2.3958">
        <ele>-3</ele>
        <time>2021-10-14T10:06:03.000Z</time>
      </trkpt>
      <trkpt lat="47.29629" lon="-2.39574">
        <ele>-3</ele>
        <time>2021-10-14T10:06:04.000Z</time>
      </trkpt>
      <trkpt lat="47.2962" lon="-2.39572">
        <ele>-3</ele>
        <time>2021-10-14T10:06:07.000Z</time>
      </trkpt>
      <trkpt lat="47.29612" lon="-2.39568">
        <ele>-3</ele>
        <time>2021-10-14T10:06:11.000Z</time>
      </trkpt>
      <trkpt lat="47.29618" lon="-2.39564">
        <ele>-2.5999999046326</ele>
        <time>2021-10-14T10:06:14.000Z</time>
      </trkpt>
      <trkpt lat="47.29619" lon="-2.39564">
        <ele>-2.2000000476837</ele>
        <time>2021-10-14T10:06:15.000Z</time>
      </trkpt>
      <trkpt lat="47.29621" lon="-2.39564">
        <ele>-1.7999999523163</ele>
        <time>2021-10-14T10:06:16.000Z</time>
      </trkpt>
      <trkpt lat="47.29622" lon="-2.39563">
        <ele>-1.3999999761581</ele>
        <time>2021-10-14T10:06:17.000Z</time>
      </trkpt>
      <trkpt lat="47.29624" lon="-2.39562">
        <ele>-1</ele>
        <time>2021-10-14T10:06:18.000Z</time>
      </trkpt>
      <trkpt lat="47.29625" lon="-2.39559">
        <ele>-1</ele>
        <time>2021-10-14T10:06:19.000Z</time>
      </trkpt>
      <trkpt lat="47.29624" lon="-2.39557">
        <ele>-1</ele>
        <time>2021-10-14T10:06:20.000Z</time>
      </trkpt>
      <trkpt lat="47.29616" lon="-2.39555">
        <ele>-1</ele>
        <time>2021-10-14T10:06:23.000Z</time>
      </trkpt>
      <trkpt lat="47.29613" lon="-2.39555">
        <ele>-0.60000002384186</ele>
        <time>2021-10-14T10:06:24.000Z</time>
      </trkpt>
      <trkpt lat="47.2961" lon="-2.39555">
        <ele>-0.20000000298023</ele>
        <time>2021-10-14T10:06:25.000Z</time>
      </trkpt>
      <trkpt lat="47.29607" lon="-2.39554">
        <ele>0.20000000298023</ele>
        <time>2021-10-14T10:06:26.000Z</time>
      </trkpt>
      <trkpt lat="47.29604" lon="-2.39553">
        <ele>0.60000002384186</ele>
        <time>2021-10-14T10:06:27.000Z</time>
      </trkpt>
      <trkpt lat="47.29601" lon="-2.39553">
        <ele>1.2000000476837</ele>
        <time>2021-10-14T10:06:28.000Z</time>
      </trkpt>
      <trkpt lat="47.29598" lon="-2.39552">
        <ele>1.2000000476837</ele>
        <time>2021-10-14T10:06:29.000Z</time>
      </trkpt>
      <trkpt lat="47.29588" lon="-2.3955">
        <ele>1.6000000238419</ele>
        <time>2021-10-14T10:06:33.000Z</time>
      </trkpt>
      <trkpt lat="47.29585" lon="-2.39549">
        <ele>2</ele>
        <time>2021-10-14T10:06:34.000Z</time>
      </trkpt>
      <trkpt lat="47.29581" lon="-2.39549">
        <ele>2.4000000953674</ele>
        <time>2021-10-14T10:06:35.000Z</time>
      </trkpt>
      <trkpt lat="47.29577" lon="-2.39548">
        <ele>2.7999999523163</ele>
        <time>2021-10-14T10:06:36.000Z</time>
      </trkpt>
      <trkpt lat="47.29572" lon="-2.39547">
        <ele>3.2000000476837</ele>
        <time>2021-10-14T10:06:37.000Z</time>
      </trkpt>
      <trkpt lat="47.2956" lon="-2.39544">
        <ele>3.2000000476837</ele>
        <time>2021-10-14T10:06:39.000Z</time>
      </trkpt>
      <trkpt lat="47.29531" lon="-2.39537">
        <ele>2.5999999046326</ele>
        <time>2021-10-14T10:06:43.000Z</time>
      </trkpt>
      <trkpt lat="47.29523" lon="-2.39536">
        <ele>2.2000000476837</ele>
        <time>2021-10-14T10:06:44.000Z</time>
      </trkpt>
      <trkpt lat="47.29515" lon="-2.39535">
        <ele>1.6000000238419</ele>
        <time>2021-10-14T10:06:45.000Z</time>
      </trkpt>
      <trkpt lat="47.29507" lon="-2.39533">
        <ele>1.2000000476837</ele>
        <time>2021-10-14T10:06:46.000Z</time>
      </trkpt>
      <trkpt lat="47.295" lon="-2.39532">
        <ele>0.80000001192093</ele>
        <time>2021-10-14T10:06:47.000Z</time>
      </trkpt>
      <trkpt lat="47.29492" lon="-2.39531">
        <ele>0.20000000298023</ele>
        <time>2021-10-14T10:06:48.000Z</time>
      </trkpt>
      <trkpt lat="47.29486" lon="-2.39528">
        <ele>-0.40000000596046</ele>
        <time>2021-10-14T10:06:49.000Z</time>
      </trkpt>
      <trkpt lat="47.29478" lon="-2.39527">
        <ele>-0.80000001192093</ele>
        <time>2021-10-14T10:06:50.000Z</time>
      </trkpt>
      <trkpt lat="47.29471" lon="-2.39526">
        <ele>-1.3999999761581</ele>
        <time>2021-10-14T10:06:51.000Z</time>
      </trkpt>
      <trkpt lat="47.29419" lon="-2.39515">
        <ele>-1.3999999761581</ele>
        <time>2021-10-14T10:06:59.000Z</time>
      </trkpt>
      <trkpt lat="47.29366" lon="-2.39506">
        <ele>-1.3999999761581</ele>
        <time>2021-10-14T10:07:07.000Z</time>
      </trkpt>
      <trkpt lat="47.29315" lon="-2.39495">
        <ele>-1.3999999761581</ele>
        <time>2021-10-14T10:07:15.000Z</time>
      </trkpt>
      <trkpt lat="47.29271" lon="-2.39486">
        <ele>-1.3999999761581</ele>
        <time>2021-10-14T10:07:22.000Z</time>
      </trkpt>
      <trkpt lat="47.29224" lon="-2.39477">
        <ele>-1.3999999761581</ele>
        <time>2021-10-14T10:07:30.000Z</time>
      </trkpt>
      <trkpt lat="47.2918" lon="-2.39469">
        <ele>-1.3999999761581</ele>
        <time>2021-10-14T10:07:38.000Z</time>
      </trkpt>
      <trkpt lat="47.29151" lon="-2.39461">
        <ele>-1.3999999761581</ele>
        <time>2021-10-14T10:07:44.000Z</time>
      </trkpt>
      <trkpt lat="47.29144" lon="-2.39463">
        <ele>-1.3999999761581</ele>
        <time>2021-10-14T10:07:46.000Z</time>
      </trkpt>
      <trkpt lat="47.29141" lon="-2.39462">
        <ele>-1.3999999761581</ele>
        <time>2021-10-14T10:07:47.000Z</time>
      </trkpt>
      <trkpt lat="47.29139" lon="-2.39449">
        <ele>-1.3999999761581</ele>
        <time>2021-10-14T10:07:50.000Z</time>
      </trkpt>
      <trkpt lat="47.2914" lon="-2.39431">
        <ele>-1.3999999761581</ele>
        <time>2021-10-14T10:07:53.000Z</time>
      </trkpt>
      <trkpt lat="47.2914" lon="-2.3941">
        <ele>-1.3999999761581</ele>
        <time>2021-10-14T10:07:56.000Z</time>
      </trkpt>
      <trkpt lat="47.29138" lon="-2.39396">
        <ele>-1.3999999761581</ele>
        <time>2021-10-14T10:07:58.000Z</time>
      </trkpt>
      <trkpt lat="47.29134" lon="-2.39381">
        <ele>-1.3999999761581</ele>
        <time>2021-10-14T10:08:00.000Z</time>
      </trkpt>
      <trkpt lat="47.29127" lon="-2.39369">
        <ele>-1.3999999761581</ele>
        <time>2021-10-14T10:08:02.000Z</time>
      </trkpt>
      <trkpt lat="47.29122" lon="-2.39368">
        <ele>-1.3999999761581</ele>
        <time>2021-10-14T10:08:03.000Z</time>
      </trkpt>
      <trkpt lat="47.29109" lon="-2.39376">
        <ele>-1.3999999761581</ele>
        <time>2021-10-14T10:08:06.000Z</time>
      </trkpt>
      <trkpt lat="47.29095" lon="-2.39384">
        <ele>-1.3999999761581</ele>
        <time>2021-10-14T10:08:11.000Z</time>
      </trkpt>
      <trkpt lat="47.2909" lon="-2.39381">
        <ele>-1.3999999761581</ele>
        <time>2021-10-14T10:08:16.000Z</time>
      </trkpt>
      <trkpt lat="47.29085" lon="-2.39368">
        <ele>-1.3999999761581</ele>
        <time>2021-10-14T10:08:21.000Z</time>
      </trkpt>
      <trkpt lat="47.29069" lon="-2.39358">
        <ele>-1.3999999761581</ele>
        <time>2021-10-14T10:08:25.000Z</time>
      </trkpt>
      <trkpt lat="47.29036" lon="-2.39343">
        <ele>-1.3999999761581</ele>
        <time>2021-10-14T10:08:31.000Z</time>
      </trkpt>
      <trkpt lat="47.28986" lon="-2.39322">
        <ele>-2.2000000476837</ele>
        <time>2021-10-14T10:08:40.000Z</time>
      </trkpt>
      <trkpt lat="47.2898" lon="-2.39321">
        <ele>-2.5999999046326</ele>
        <time>2021-10-14T10:08:41.000Z</time>
      </trkpt>
      <trkpt lat="47.28974" lon="-2.39321">
        <ele>-3</ele>
        <time>2021-10-14T10:08:42.000Z</time>
      </trkpt>
      <trkpt lat="47.28969" lon="-2.39322">
        <ele>-3.4000000953674</ele>
        <time>2021-10-14T10:08:43.000Z</time>
      </trkpt>
      <trkpt lat="47.28958" lon="-2.39323">
        <ele>-3.4000000953674</ele>
        <time>2021-10-14T10:08:45.000Z</time>
      </trkpt>
      <trkpt lat="47.28953" lon="-2.39322">
        <ele>-3.4000000953674</ele>
        <time>2021-10-14T10:08:46.000Z</time>
      </trkpt>
      <trkpt lat="47.28945" lon="-2.39312">
        <ele>-3.4000000953674</ele>
        <time>2021-10-14T10:08:48.000Z</time>
      </trkpt>
      <trkpt lat="47.28939" lon="-2.3929">
        <ele>-3.4000000953674</ele>
        <time>2021-10-14T10:08:51.000Z</time>
      </trkpt>
      <trkpt lat="47.28935" lon="-2.39265">
        <ele>-3.4000000953674</ele>
        <time>2021-10-14T10:08:54.000Z</time>
      </trkpt>
      <trkpt lat="47.28934" lon="-2.39247">
        <ele>-3.4000000953674</ele>
        <time>2021-10-14T10:08:56.000Z</time>
      </trkpt>
      <trkpt lat="47.28933" lon="-2.39202">
        <ele>-3</ele>
        <time>2021-10-14T10:09:01.000Z</time>
      </trkpt>
      <trkpt lat="47.28933" lon="-2.39194">
        <ele>-2.5999999046326</ele>
        <time>2021-10-14T10:09:02.000Z</time>
      </trkpt>
      <trkpt lat="47.28932" lon="-2.39185">
        <ele>-2</ele>
        <time>2021-10-14T10:09:03.000Z</time>
      </trkpt>
      <trkpt lat="47.28932" lon="-2.39176">
        <ele>-1.6000000238419</ele>
        <time>2021-10-14T10:09:04.000Z</time>
      </trkpt>
      <trkpt lat="47.28933" lon="-2.39168">
        <ele>-1.2000000476837</ele>
        <time>2021-10-14T10:09:05.000Z</time>
      </trkpt>
      <trkpt lat="47.28934" lon="-2.39149">
        <ele>-1.2000000476837</ele>
        <time>2021-10-14T10:09:07.000Z</time>
      </trkpt>
      <trkpt lat="47.28936" lon="-2.39141">
        <ele>-1.2000000476837</ele>
        <time>2021-10-14T10:09:08.000Z</time>
      </trkpt>
      <trkpt lat="47.28943" lon="-2.39088">
        <ele>-1.2000000476837</ele>
        <time>2021-10-14T10:09:14.000Z</time>
      </trkpt>
      <trkpt lat="47.2895" lon="-2.39019">
        <ele>-1.2000000476837</ele>
        <time>2021-10-14T10:09:22.000Z</time>
      </trkpt>
      <trkpt lat="47.28953" lon="-2.38951">
        <ele>-1.2000000476837</ele>
        <time>2021-10-14T10:09:30.000Z</time>
      </trkpt>
      <trkpt lat="47.28958" lon="-2.38864">
        <ele>-1.2000000476837</ele>
        <time>2021-10-14T10:09:40.000Z</time>
      </trkpt>
      <trkpt lat="47.28959" lon="-2.3883">
        <ele>-1.2000000476837</ele>
        <time>2021-10-14T10:09:44.000Z</time>
      </trkpt>
      <trkpt lat="47.28959" lon="-2.38813">
        <ele>-1.2000000476837</ele>
        <time>2021-10-14T10:09:46.000Z</time>
      </trkpt>
      <trkpt lat="47.28959" lon="-2.38763">
        <ele>-1.2000000476837</ele>
        <time>2021-10-14T10:09:52.000Z</time>
      </trkpt>
      <trkpt lat="47.28957" lon="-2.38675">
        <ele>-1.2000000476837</ele>
        <time>2021-10-14T10:10:02.000Z</time>
      </trkpt>
      <trkpt lat="47.28956" lon="-2.38594">
        <ele>-1.2000000476837</ele>
        <time>2021-10-14T10:10:11.000Z</time>
      </trkpt>
      <trkpt lat="47.28955" lon="-2.38585">
        <ele>-1.2000000476837</ele>
        <time>2021-10-14T10:10:12.000Z</time>
      </trkpt>
      <trkpt lat="47.28947" lon="-2.38502">
        <ele>-1.2000000476837</ele>
        <time>2021-10-14T10:10:21.000Z</time>
      </trkpt>
      <trkpt lat="47.28941" lon="-2.38436">
        <ele>-1.2000000476837</ele>
        <time>2021-10-14T10:10:29.000Z</time>
      </trkpt>
      <trkpt lat="47.28935" lon="-2.38361">
        <ele>-1.2000000476837</ele>
        <time>2021-10-14T10:10:38.000Z</time>
      </trkpt>
      <trkpt lat="47.28933" lon="-2.38292">
        <ele>-1.2000000476837</ele>
        <time>2021-10-14T10:10:46.000Z</time>
      </trkpt>
      <trkpt lat="47.28937" lon="-2.38241">
        <ele>-1.2000000476837</ele>
        <time>2021-10-14T10:10:52.000Z</time>
      </trkpt>
      <trkpt lat="47.28928" lon="-2.38223">
        <ele>-1.2000000476837</ele>
        <time>2021-10-14T10:10:55.000Z</time>
      </trkpt>
      <trkpt lat="47.2891" lon="-2.3821">
        <ele>-1.2000000476837</ele>
        <time>2021-10-14T10:10:59.000Z</time>
      </trkpt>
      <trkpt lat="47.28902" lon="-2.38202">
        <ele>-1.2000000476837</ele>
        <time>2021-10-14T10:11:01.000Z</time>
      </trkpt>
      <trkpt lat="47.28899" lon="-2.38196">
        <ele>-1.2000000476837</ele>
        <time>2021-10-14T10:11:02.000Z</time>
      </trkpt>
      <trkpt lat="47.28898" lon="-2.38188">
        <ele>-1.2000000476837</ele>
        <time>2021-10-14T10:11:03.000Z</time>
      </trkpt>
      <trkpt lat="47.289" lon="-2.38164">
        <ele>-1.2000000476837</ele>
        <time>2021-10-14T10:11:06.000Z</time>
      </trkpt>
      <trkpt lat="47.28904" lon="-2.38113">
        <ele>-1.2000000476837</ele>
        <time>2021-10-14T10:11:12.000Z</time>
      </trkpt>
      <trkpt lat="47.28907" lon="-2.38062">
        <ele>-1.2000000476837</ele>
        <time>2021-10-14T10:11:18.000Z</time>
      </trkpt>
      <trkpt lat="47.28908" lon="-2.38045">
        <ele>-1.2000000476837</ele>
        <time>2021-10-14T10:11:20.000Z</time>
      </trkpt>
      <trkpt lat="47.2891" lon="-2.38011">
        <ele>-1.2000000476837</ele>
        <time>2021-10-14T10:11:24.000Z</time>
      </trkpt>
      <trkpt lat="47.28914" lon="-2.37948">
        <ele>-1.2000000476837</ele>
        <time>2021-10-14T10:11:31.000Z</time>
      </trkpt>
      <trkpt lat="47.28921" lon="-2.37868">
        <ele>-1.2000000476837</ele>
        <time>2021-10-14T10:11:40.000Z</time>
      </trkpt>
      <trkpt lat="47.28927" lon="-2.37808">
        <ele>-1.2000000476837</ele>
        <time>2021-10-14T10:11:47.000Z</time>
      </trkpt>
      <trkpt lat="47.28932" lon="-2.37745">
        <ele>-1.2000000476837</ele>
        <time>2021-10-14T10:11:54.000Z</time>
      </trkpt>
      <trkpt lat="47.28937" lon="-2.377">
        <ele>-1.2000000476837</ele>
        <time>2021-10-14T10:12:00.000Z</time>
      </trkpt>
      <trkpt lat="47.28936" lon="-2.37657">
        <ele>-1.2000000476837</ele>
        <time>2021-10-14T10:12:06.000Z</time>
      </trkpt>
      <trkpt lat="47.28935" lon="-2.37651">
        <ele>-1.2000000476837</ele>
        <time>2021-10-14T10:12:07.000Z</time>
      </trkpt>
      <trkpt lat="47.28923" lon="-2.37643">
        <ele>-1.2000000476837</ele>
        <time>2021-10-14T10:12:10.000Z</time>
      </trkpt>
      <trkpt lat="47.28915" lon="-2.37644">
        <ele>-1.2000000476837</ele>
        <time>2021-10-14T10:12:12.000Z</time>
      </trkpt>
      <trkpt lat="47.28908" lon="-2.37646">
        <ele>-1.2000000476837</ele>
        <time>2021-10-14T10:12:14.000Z</time>
      </trkpt>
      <trkpt lat="47.28884" lon="-2.37656">
        <ele>-1.2000000476837</ele>
        <time>2021-10-14T10:12:21.000Z</time>
      </trkpt>
      <trkpt lat="47.28864" lon="-2.37654">
        <ele>-1.2000000476837</ele>
        <time>2021-10-14T10:12:27.000Z</time>
      </trkpt>
      <trkpt lat="47.28861" lon="-2.37638">
        <ele>-1.2000000476837</ele>
        <time>2021-10-14T10:12:31.000Z</time>
      </trkpt>
      <trkpt lat="47.2886" lon="-2.37627">
        <ele>-1.2000000476837</ele>
        <time>2021-10-14T10:12:34.000Z</time>
      </trkpt>
      <trkpt lat="47.28861" lon="-2.37618">
        <ele>-1.2000000476837</ele>
        <time>2021-10-14T10:12:36.000Z</time>
      </trkpt>
      <trkpt lat="47.28865" lon="-2.37594">
        <ele>-1.2000000476837</ele>
        <time>2021-10-14T10:12:41.000Z</time>
      </trkpt>
      <trkpt lat="47.28877" lon="-2.37569">
        <ele>-1.2000000476837</ele>
        <time>2021-10-14T10:12:47.000Z</time>
      </trkpt>
      <trkpt lat="47.28882" lon="-2.37544">
        <ele>-1.2000000476837</ele>
        <time>2021-10-14T10:12:52.000Z</time>
      </trkpt>
      <trkpt lat="47.28882" lon="-2.37537">
        <ele>-1.2000000476837</ele>
        <time>2021-10-14T10:12:53.000Z</time>
      </trkpt>
      <trkpt lat="47.28878" lon="-2.37494">
        <ele>-1.2000000476837</ele>
        <time>2021-10-14T10:12:59.000Z</time>
      </trkpt>
      <trkpt lat="47.28873" lon="-2.37449">
        <ele>-1.2000000476837</ele>
        <time>2021-10-14T10:13:06.000Z</time>
      </trkpt>
      <trkpt lat="47.28867" lon="-2.37409">
        <ele>-1.2000000476837</ele>
        <time>2021-10-14T10:13:12.000Z</time>
      </trkpt>
      <trkpt lat="47.28861" lon="-2.37356">
        <ele>-1.2000000476837</ele>
        <time>2021-10-14T10:13:19.000Z</time>
      </trkpt>
      <trkpt lat="47.28857" lon="-2.37313">
        <ele>-1.2000000476837</ele>
        <time>2021-10-14T10:13:25.000Z</time>
      </trkpt>
      <trkpt lat="47.28856" lon="-2.37306">
        <ele>-1.2000000476837</ele>
        <time>2021-10-14T10:13:26.000Z</time>
      </trkpt>
      <trkpt lat="47.28855" lon="-2.37298">
        <ele>-0.80000001192093</ele>
        <time>2021-10-14T10:13:27.000Z</time>
      </trkpt>
      <trkpt lat="47.28854" lon="-2.37291">
        <ele>-0.40000000596046</ele>
        <time>2021-10-14T10:13:28.000Z</time>
      </trkpt>
      <trkpt lat="47.28854" lon="-2.37284">
        <ele>8.8</ele>
        <time>2021-10-14T10:13:29.000Z</time>
      </trkpt>
      <trkpt lat="47.28853" lon="-2.37277">
        <ele>0.40000000596046</ele>
        <time>2021-10-14T10:13:30.000Z</time>
      </trkpt>
      <trkpt lat="47.28852" lon="-2.3727">
        <ele>1</ele>
        <time>2021-10-14T10:13:31.000Z</time>
      </trkpt>
      <trkpt lat="47.28849" lon="-2.37249">
        <ele>1</ele>
        <time>2021-10-14T10:13:34.000Z</time>
      </trkpt>
      <trkpt lat="47.28839" lon="-2.3722">
        <ele>1</ele>
        <time>2021-10-14T10:13:39.000Z</time>
      </trkpt>
      <trkpt lat="47.28833" lon="-2.3718">
        <ele>1</ele>
        <time>2021-10-14T10:13:46.000Z</time>
      </trkpt>
      <trkpt lat="47.28828" lon="-2.37149">
        <ele>1</ele>
        <time>2021-10-14T10:13:52.000Z</time>
      </trkpt>
      <trkpt lat="47.28829" lon="-2.37118">
        <ele>1</ele>
        <time>2021-10-14T10:13:58.000Z</time>
      </trkpt>
      <trkpt lat="47.28827" lon="-2.37082">
        <ele>1</ele>
        <time>2021-10-14T10:14:04.000Z</time>
      </trkpt>
      <trkpt lat="47.28822" lon="-2.37058">
        <ele>1</ele>
        <time>2021-10-14T10:14:08.000Z</time>
      </trkpt>
      <trkpt lat="47.2882" lon="-2.37052">
        <ele>1</ele>
        <time>2021-10-14T10:14:09.000Z</time>
      </trkpt>
      <trkpt lat="47.28812" lon="-2.37025">
        <ele>1</ele>
        <time>2021-10-14T10:14:13.000Z</time>
      </trkpt>
      <trkpt lat="47.2881" lon="-2.37013">
        <ele>1</ele>
        <time>2021-10-14T10:14:15.000Z</time>
      </trkpt>
      <trkpt lat="47.28807" lon="-2.37">
        <ele>1.3999999761581</ele>
        <time>2021-10-14T10:14:17.000Z</time>
      </trkpt>
      <trkpt lat="47.28804" lon="-2.36993">
        <ele>1.7999999523163</ele>
        <time>2021-10-14T10:14:18.000Z</time>
      </trkpt>
      <trkpt lat="47.28802" lon="-2.36986">
        <ele>2.2000000476837</ele>
        <time>2021-10-14T10:14:19.000Z</time>
      </trkpt>
      <trkpt lat="47.288" lon="-2.36981">
        <ele>2.5999999046326</ele>
        <time>2021-10-14T10:14:20.000Z</time>
      </trkpt>
      <trkpt lat="47.28798" lon="-2.36975">
        <ele>3</ele>
        <time>2021-10-14T10:14:21.000Z</time>
      </trkpt>
      <trkpt lat="47.28789" lon="-2.36938">
        <ele>3</ele>
        <time>2021-10-14T10:14:27.000Z</time>
      </trkpt>
      <trkpt lat="47.28779" lon="-2.36914">
        <ele>3</ele>
        <time>2021-10-14T10:14:32.000Z</time>
      </trkpt>
      <trkpt lat="47.28762" lon="-2.36909">
        <ele>3</ele>
        <time>2021-10-14T10:14:37.000Z</time>
      </trkpt>
      <trkpt lat="47.28756" lon="-2.36909">
        <ele>3.4000000953674</ele>
        <time>2021-10-14T10:14:39.000Z</time>
      </trkpt>
      <trkpt lat="47.28753" lon="-2.36909">
        <ele>3.7999999523163</ele>
        <time>2021-10-14T10:14:40.000Z</time>
      </trkpt>
      <trkpt lat="47.28751" lon="-2.36909">
        <ele>4.4000000953674</ele>
        <time>2021-10-14T10:14:41.000Z</time>
      </trkpt>
      <trkpt lat="47.28748" lon="-2.3691">
        <ele>4.8000001907349</ele>
        <time>2021-10-14T10:14:42.000Z</time>
      </trkpt>
      <trkpt lat="47.28745" lon="-2.36912">
        <ele>5.1999998092651</ele>
        <time>2021-10-14T10:14:43.000Z</time>
      </trkpt>
      <trkpt lat="47.28736" lon="-2.36915">
        <ele>5.5999999046326</ele>
        <time>2021-10-14T10:14:46.000Z</time>
      </trkpt>
      <trkpt lat="47.28733" lon="-2.36916">
        <ele>6</ele>
        <time>2021-10-14T10:14:47.000Z</time>
      </trkpt>
      <trkpt lat="47.2873" lon="-2.36916">
        <ele>6.4000000953674</ele>
        <time>2021-10-14T10:14:48.000Z</time>
      </trkpt>
      <trkpt lat="47.28728" lon="-2.36916">
        <ele>7</ele>
        <time>2021-10-14T10:14:49.000Z</time>
      </trkpt>
      <trkpt lat="47.28726" lon="-2.36915">
        <ele>7.4000000953674</ele>
        <time>2021-10-14T10:14:50.000Z</time>
      </trkpt>
      <trkpt lat="47.28722" lon="-2.36912">
        <ele>8.1999998092651</ele>
        <time>2021-10-14T10:14:52.000Z</time>
      </trkpt>
      <trkpt lat="47.2872" lon="-2.3691">
        <ele>8.6000003814697</ele>
        <time>2021-10-14T10:14:53.000Z</time>
      </trkpt>
      <trkpt lat="47.28719" lon="-2.36906">
        <ele>9</ele>
        <time>2021-10-14T10:14:54.000Z</time>
      </trkpt>
      <trkpt lat="47.28717" lon="-2.36902">
        <ele>9.3999996185303</ele>
        <time>2021-10-14T10:14:55.000Z</time>
      </trkpt>
      <trkpt lat="47.28713" lon="-2.36895">
        <ele>9.8000001907349</ele>
        <time>2021-10-14T10:14:57.000Z</time>
      </trkpt>
      <trkpt lat="47.28712" lon="-2.36893">
        <ele>10.199999809265</ele>
        <time>2021-10-14T10:14:58.000Z</time>
      </trkpt>
      <trkpt lat="47.28711" lon="-2.3689">
        <ele>10.60000038147</ele>
        <time>2021-10-14T10:14:59.000Z</time>
      </trkpt>
      <trkpt lat="47.2871" lon="-2.36886">
        <ele>11.199999809265</ele>
        <time>2021-10-14T10:15:00.000Z</time>
      </trkpt>
      <trkpt lat="47.28707" lon="-2.36882">
        <ele>11.60000038147</ele>
        <time>2021-10-14T10:15:01.000Z</time>
      </trkpt>
      <trkpt lat="47.28698" lon="-2.36861">
        <ele>11.60000038147</ele>
        <time>2021-10-14T10:15:06.000Z</time>
      </trkpt>
      <trkpt lat="47.28687" lon="-2.36838">
        <ele>11.60000038147</ele>
        <time>2021-10-14T10:15:12.000Z</time>
      </trkpt>
      <trkpt lat="47.28683" lon="-2.3683">
        <ele>12</ele>
        <time>2021-10-14T10:15:14.000Z</time>
      </trkpt>
      <trkpt lat="47.28681" lon="-2.36826">
        <ele>12.39999961853</ele>
        <time>2021-10-14T10:15:15.000Z</time>
      </trkpt>
      <trkpt lat="47.2868" lon="-2.36823">
        <ele>13.199999809265</ele>
        <time>2021-10-14T10:15:16.000Z</time>
      </trkpt>
      <trkpt lat="47.28678" lon="-2.36819">
        <ele>13.60000038147</ele>
        <time>2021-10-14T10:15:17.000Z</time>
      </trkpt>
      <trkpt lat="47.28671" lon="-2.36806">
        <ele>13.60000038147</ele>
        <time>2021-10-14T10:15:20.000Z</time>
      </trkpt>
      <trkpt lat="47.28666" lon="-2.36802">
        <ele>13.60000038147</ele>
        <time>2021-10-14T10:15:21.000Z</time>
      </trkpt>
      <trkpt lat="47.28655" lon="-2.36801">
        <ele>13.60000038147</ele>
        <time>2021-10-14T10:15:24.000Z</time>
      </trkpt>
      <trkpt lat="47.28634" lon="-2.36818">
        <ele>13.60000038147</ele>
        <time>2021-10-14T10:15:29.000Z</time>
      </trkpt>
      <trkpt lat="47.28607" lon="-2.36845">
        <ele>13.60000038147</ele>
        <time>2021-10-14T10:15:35.000Z</time>
      </trkpt>
      <trkpt lat="47.28601" lon="-2.36844">
        <ele>13.60000038147</ele>
        <time>2021-10-14T10:15:36.000Z</time>
      </trkpt>
      <trkpt lat="47.28591" lon="-2.36837">
        <ele>13.60000038147</ele>
        <time>2021-10-14T10:15:38.000Z</time>
      </trkpt>
      <trkpt lat="47.28585" lon="-2.36823">
        <ele>13.60000038147</ele>
        <time>2021-10-14T10:15:40.000Z</time>
      </trkpt>
      <trkpt lat="47.2856" lon="-2.36777">
        <ele>13.60000038147</ele>
        <time>2021-10-14T10:15:48.000Z</time>
      </trkpt>
      <trkpt lat="47.28555" lon="-2.36766">
        <ele>13.60000038147</ele>
        <time>2021-10-14T10:15:50.000Z</time>
      </trkpt>
      <trkpt lat="47.28546" lon="-2.36752">
        <ele>13.60000038147</ele>
        <time>2021-10-14T10:15:53.000Z</time>
      </trkpt>
      <trkpt lat="47.28544" lon="-2.36748">
        <ele>13.60000038147</ele>
        <time>2021-10-14T10:15:54.000Z</time>
      </trkpt>
      <trkpt lat="47.28527" lon="-2.36719">
        <ele>13.60000038147</ele>
        <time>2021-10-14T10:16:01.000Z</time>
      </trkpt>
      <trkpt lat="47.28525" lon="-2.36715">
        <ele>14</ele>
        <time>2021-10-14T10:16:02.000Z</time>
      </trkpt>
      <trkpt lat="47.28522" lon="-2.36712">
        <ele>14.39999961853</ele>
        <time>2021-10-14T10:16:03.000Z</time>
      </trkpt>
      <trkpt lat="47.2852" lon="-2.36708">
        <ele>15</ele>
        <time>2021-10-14T10:16:04.000Z</time>
      </trkpt>
      <trkpt lat="47.28518" lon="-2.36705">
        <ele>15.39999961853</ele>
        <time>2021-10-14T10:16:05.000Z</time>
      </trkpt>
      <trkpt lat="47.28516" lon="-2.367">
        <ele>15.800000190735</ele>
        <time>2021-10-14T10:16:06.000Z</time>
      </trkpt>
      <trkpt lat="47.28513" lon="-2.36694">
        <ele>16.200000762939</ele>
        <time>2021-10-14T10:16:08.000Z</time>
      </trkpt>
      <trkpt lat="47.28511" lon="-2.36691">
        <ele>16.799999237061</ele>
        <time>2021-10-14T10:16:09.000Z</time>
      </trkpt>
      <trkpt lat="47.28509" lon="-2.36689">
        <ele>17.200000762939</ele>
        <time>2021-10-14T10:16:10.000Z</time>
      </trkpt>
      <trkpt lat="47.28508" lon="-2.36687">
        <ele>17.799999237061</ele>
        <time>2021-10-14T10:16:11.000Z</time>
      </trkpt>
      <trkpt lat="47.28506" lon="-2.36685">
        <ele>18.200000762939</ele>
        <time>2021-10-14T10:16:12.000Z</time>
      </trkpt>
      <trkpt lat="47.28502" lon="-2.36677">
        <ele>18.200000762939</ele>
        <time>2021-10-14T10:16:15.000Z</time>
      </trkpt>
      <trkpt lat="47.28493" lon="-2.36655">
        <ele>18.200000762939</ele>
        <time>2021-10-14T10:16:20.000Z</time>
      </trkpt>
      <trkpt lat="47.28481" lon="-2.36621">
        <ele>18.200000762939</ele>
        <time>2021-10-14T10:16:26.000Z</time>
      </trkpt>
      <trkpt lat="47.28469" lon="-2.36574">
        <ele>18.200000762939</ele>
        <time>2021-10-14T10:16:34.000Z</time>
      </trkpt>
      <trkpt lat="47.28471" lon="-2.36563">
        <ele>18.200000762939</ele>
        <time>2021-10-14T10:16:36.000Z</time>
      </trkpt>
      <trkpt lat="47.28476" lon="-2.36553">
        <ele>18.200000762939</ele>
        <time>2021-10-14T10:16:38.000Z</time>
      </trkpt>
      <trkpt lat="47.28479" lon="-2.36548">
        <ele>18.200000762939</ele>
        <time>2021-10-14T10:16:39.000Z</time>
      </trkpt>
      <trkpt lat="47.28491" lon="-2.36532">
        <ele>18.200000762939</ele>
        <time>2021-10-14T10:16:43.000Z</time>
      </trkpt>
      <trkpt lat="47.28494" lon="-2.36528">
        <ele>18.60000038147</ele>
        <time>2021-10-14T10:16:44.000Z</time>
      </trkpt>
      <trkpt lat="47.28497" lon="-2.36524">
        <ele>19</ele>
        <time>2021-10-14T10:16:45.000Z</time>
      </trkpt>
      <trkpt lat="47.285" lon="-2.3652">
        <ele>19.39999961853</ele>
        <time>2021-10-14T10:16:46.000Z</time>
      </trkpt>
      <trkpt lat="47.28503" lon="-2.36517">
        <ele>19.799999237061</ele>
        <time>2021-10-14T10:16:47.000Z</time>
      </trkpt>
      <trkpt lat="47.28505" lon="-2.36515">
        <ele>20.200000762939</ele>
        <time>2021-10-14T10:16:48.000Z</time>
      </trkpt>
      <trkpt lat="47.28508" lon="-2.36512">
        <ele>20.200000762939</ele>
        <time>2021-10-14T10:16:49.000Z</time>
      </trkpt>
      <trkpt lat="47.28519" lon="-2.36497">
        <ele>20.200000762939</ele>
        <time>2021-10-14T10:16:54.000Z</time>
      </trkpt>
      <trkpt lat="47.28519" lon="-2.36493">
        <ele>20.60000038147</ele>
        <time>2021-10-14T10:16:55.000Z</time>
      </trkpt>
      <trkpt lat="47.28518" lon="-2.36488">
        <ele>21.39999961853</ele>
        <time>2021-10-14T10:16:56.000Z</time>
      </trkpt>
      <trkpt lat="47.28518" lon="-2.36483">
        <ele>21.799999237061</ele>
        <time>2021-10-14T10:16:57.000Z</time>
      </trkpt>
      <trkpt lat="47.28518" lon="-2.36479">
        <ele>22.200000762939</ele>
        <time>2021-10-14T10:16:58.000Z</time>
      </trkpt>
      <trkpt lat="47.28515" lon="-2.36465">
        <ele>22.200000762939</ele>
        <time>2021-10-14T10:17:01.000Z</time>
      </trkpt>
      <trkpt lat="47.28504" lon="-2.36448">
        <ele>22.200000762939</ele>
        <time>2021-10-14T10:17:05.000Z</time>
      </trkpt>
      <trkpt lat="47.28485" lon="-2.36436">
        <ele>22.200000762939</ele>
        <time>2021-10-14T10:17:10.000Z</time>
      </trkpt>
      <trkpt lat="47.28477" lon="-2.36426">
        <ele>22.799999237061</ele>
        <time>2021-10-14T10:17:14.000Z</time>
      </trkpt>
      <trkpt lat="47.28475" lon="-2.36424">
        <ele>23.200000762939</ele>
        <time>2021-10-14T10:17:15.000Z</time>
      </trkpt>
      <trkpt lat="47.28474" lon="-2.36422">
        <ele>23.60000038147</ele>
        <time>2021-10-14T10:17:16.000Z</time>
      </trkpt>
      <trkpt lat="47.28473" lon="-2.36419">
        <ele>24</ele>
        <time>2021-10-14T10:17:17.000Z</time>
      </trkpt>
      <trkpt lat="47.28471" lon="-2.36416">
        <ele>24.39999961853</ele>
        <time>2021-10-14T10:17:18.000Z</time>
      </trkpt>
      <trkpt lat="47.28461" lon="-2.36401">
        <ele>24.39999961853</ele>
        <time>2021-10-14T10:17:23.000Z</time>
      </trkpt>
      <trkpt lat="47.2844" lon="-2.36387">
        <ele>24.39999961853</ele>
        <time>2021-10-14T10:17:27.000Z</time>
      </trkpt>
      <trkpt lat="47.28423" lon="-2.36371">
        <ele>24.39999961853</ele>
        <time>2021-10-14T10:17:31.000Z</time>
      </trkpt>
      <trkpt lat="47.28414" lon="-2.36358">
        <ele>24</ele>
        <time>2021-10-14T10:17:34.000Z</time>
      </trkpt>
      <trkpt lat="47.2841" lon="-2.36355">
        <ele>23.60000038147</ele>
        <time>2021-10-14T10:17:35.000Z</time>
      </trkpt>
      <trkpt lat="47.28406" lon="-2.36351">
        <ele>23.200000762939</ele>
        <time>2021-10-14T10:17:36.000Z</time>
      </trkpt>
      <trkpt lat="47.28403" lon="-2.36348">
        <ele>22.799999237061</ele>
        <time>2021-10-14T10:17:37.000Z</time>
      </trkpt>
      <trkpt lat="47.28399" lon="-2.36344">
        <ele>22.200000762939</ele>
        <time>2021-10-14T10:17:38.000Z</time>
      </trkpt>
      <trkpt lat="47.28378" lon="-2.36328">
        <ele>22.200000762939</ele>
        <time>2021-10-14T10:17:44.000Z</time>
      </trkpt>
      <trkpt lat="47.28371" lon="-2.36322">
        <ele>21.39999961853</ele>
        <time>2021-10-14T10:17:46.000Z</time>
      </trkpt>
      <trkpt lat="47.28369" lon="-2.36318">
        <ele>21</ele>
        <time>2021-10-14T10:17:47.000Z</time>
      </trkpt>
      <trkpt lat="47.28367" lon="-2.36313">
        <ele>20.60000038147</ele>
        <time>2021-10-14T10:17:48.000Z</time>
      </trkpt>
      <trkpt lat="47.28366" lon="-2.36307">
        <ele>20.200000762939</ele>
        <time>2021-10-14T10:17:49.000Z</time>
      </trkpt>
      <trkpt lat="47.28364" lon="-2.36287">
        <ele>20.200000762939</ele>
        <time>2021-10-14T10:17:51.000Z</time>
      </trkpt>
      <trkpt lat="47.28364" lon="-2.36279">
        <ele>20.200000762939</ele>
        <time>2021-10-14T10:17:52.000Z</time>
      </trkpt>
      <trkpt lat="47.2837" lon="-2.36258">
        <ele>20.200000762939</ele>
        <time>2021-10-14T10:17:55.000Z</time>
      </trkpt>
      <trkpt lat="47.28383" lon="-2.3624">
        <ele>20.200000762939</ele>
        <time>2021-10-14T10:18:00.000Z</time>
      </trkpt>
      <trkpt lat="47.28395" lon="-2.36228">
        <ele>20.799999237061</ele>
        <time>2021-10-14T10:18:04.000Z</time>
      </trkpt>
      <trkpt lat="47.28397" lon="-2.36226">
        <ele>21.200000762939</ele>
        <time>2021-10-14T10:18:05.000Z</time>
      </trkpt>
      <trkpt lat="47.284" lon="-2.36223">
        <ele>21.60000038147</ele>
        <time>2021-10-14T10:18:06.000Z</time>
      </trkpt>
      <trkpt lat="47.28404" lon="-2.3622">
        <ele>22</ele>
        <time>2021-10-14T10:18:07.000Z</time>
      </trkpt>
      <trkpt lat="47.28406" lon="-2.36216">
        <ele>22.39999961853</ele>
        <time>2021-10-14T10:18:08.000Z</time>
      </trkpt>
      <trkpt lat="47.28414" lon="-2.3621">
        <ele>22.39999961853</ele>
        <time>2021-10-14T10:18:11.000Z</time>
      </trkpt>
      <trkpt lat="47.28417" lon="-2.3621">
        <ele>23</ele>
        <time>2021-10-14T10:18:12.000Z</time>
      </trkpt>
      <trkpt lat="47.2842" lon="-2.3621">
        <ele>23.39999961853</ele>
        <time>2021-10-14T10:18:13.000Z</time>
      </trkpt>
      <trkpt lat="47.28424" lon="-2.36208">
        <ele>23.799999237061</ele>
        <time>2021-10-14T10:18:14.000Z</time>
      </trkpt>
      <trkpt lat="47.28427" lon="-2.36207">
        <ele>24.200000762939</ele>
        <time>2021-10-14T10:18:15.000Z</time>
      </trkpt>
      <trkpt lat="47.28429" lon="-2.36207">
        <ele>24.60000038147</ele>
        <time>2021-10-14T10:18:16.000Z</time>
      </trkpt>
      <trkpt lat="47.28431" lon="-2.36205">
        <ele>24.60000038147</ele>
        <time>2021-10-14T10:18:17.000Z</time>
      </trkpt>
      <trkpt lat="47.28442" lon="-2.36203">
        <ele>24.60000038147</ele>
        <time>2021-10-14T10:18:22.000Z</time>
      </trkpt>
      <trkpt lat="47.28442" lon="-2.36203">
        <ele>24.60000038147</ele>
        <time>2021-10-14T10:18:23.000Z</time>
      </trkpt>
      <trkpt lat="47.28448" lon="-2.36197">
        <ele>24.60000038147</ele>
        <time>2021-10-14T10:18:34.000Z</time>
      </trkpt>
      <trkpt lat="47.28448" lon="-2.36192">
        <ele>24.60000038147</ele>
        <time>2021-10-14T10:18:36.000Z</time>
      </trkpt>
      <trkpt lat="47.28447" lon="-2.36187">
        <ele>25</ele>
        <time>2021-10-14T10:18:38.000Z</time>
      </trkpt>
      <trkpt lat="47.28446" lon="-2.36183">
        <ele>25.39999961853</ele>
        <time>2021-10-14T10:18:39.000Z</time>
      </trkpt>
      <trkpt lat="47.28446" lon="-2.3618">
        <ele>25.799999237061</ele>
        <time>2021-10-14T10:18:40.000Z</time>
      </trkpt>
      <trkpt lat="47.28446" lon="-2.36176">
        <ele>26.39999961853</ele>
        <time>2021-10-14T10:18:41.000Z</time>
      </trkpt>
      <trkpt lat="47.28447" lon="-2.36172">
        <ele>26.799999237061</ele>
        <time>2021-10-14T10:18:42.000Z</time>
      </trkpt>
      <trkpt lat="47.28447" lon="-2.36169">
        <ele>26.799999237061</ele>
        <time>2021-10-14T10:18:43.000Z</time>
      </trkpt>
      <trkpt lat="47.28446" lon="-2.36153">
        <ele>26.799999237061</ele>
        <time>2021-10-14T10:18:47.000Z</time>
      </trkpt>
      <trkpt lat="47.28445" lon="-2.3615">
        <ele>27.200000762939</ele>
        <time>2021-10-14T10:18:48.000Z</time>
      </trkpt>
      <trkpt lat="47.28444" lon="-2.36147">
        <ele>27.60000038147</ele>
        <time>2021-10-14T10:18:49.000Z</time>
      </trkpt>
      <trkpt lat="47.28443" lon="-2.36144">
        <ele>28</ele>
        <time>2021-10-14T10:18:50.000Z</time>
      </trkpt>
      <trkpt lat="47.28442" lon="-2.3614">
        <ele>28.39999961853</ele>
        <time>2021-10-14T10:18:51.000Z</time>
      </trkpt>
      <trkpt lat="47.28442" lon="-2.36136">
        <ele>28.799999237061</ele>
        <time>2021-10-14T10:18:52.000Z</time>
      </trkpt>
      <trkpt lat="47.28442" lon="-2.36132">
        <ele>28.799999237061</ele>
        <time>2021-10-14T10:18:53.000Z</time>
      </trkpt>
      <trkpt lat="47.2844" lon="-2.36124">
        <ele>29.200000762939</ele>
        <time>2021-10-14T10:18:55.000Z</time>
      </trkpt>
      <trkpt lat="47.28439" lon="-2.36121">
        <ele>29.60000038147</ele>
        <time>2021-10-14T10:18:56.000Z</time>
      </trkpt>
      <trkpt lat="47.28438" lon="-2.36117">
        <ele>30.200000762939</ele>
        <time>2021-10-14T10:18:57.000Z</time>
      </trkpt>
      <trkpt lat="47.28438" lon="-2.36113">
        <ele>30.60000038147</ele>
        <time>2021-10-14T10:18:58.000Z</time>
      </trkpt>
      <trkpt lat="47.28438" lon="-2.36108">
        <ele>31</ele>
        <time>2021-10-14T10:18:59.000Z</time>
      </trkpt>
      <trkpt lat="47.28438" lon="-2.36088">
        <ele>31.39999961853</ele>
        <time>2021-10-14T10:19:04.000Z</time>
      </trkpt>
      <trkpt lat="47.28438" lon="-2.36084">
        <ele>31.799999237061</ele>
        <time>2021-10-14T10:19:05.000Z</time>
      </trkpt>
      <trkpt lat="47.28438" lon="-2.3608">
        <ele>32.200000762939</ele>
        <time>2021-10-14T10:19:06.000Z</time>
      </trkpt>
      <trkpt lat="47.28438" lon="-2.36075">
        <ele>32.599998474121</ele>
        <time>2021-10-14T10:19:07.000Z</time>
      </trkpt>
      <trkpt lat="47.28437" lon="-2.36071">
        <ele>33</ele>
        <time>2021-10-14T10:19:08.000Z</time>
      </trkpt>
      <trkpt lat="47.28437" lon="-2.36067">
        <ele>33</ele>
        <time>2021-10-14T10:19:09.000Z</time>
      </trkpt>
      <trkpt lat="47.28436" lon="-2.36047">
        <ele>33.400001525879</ele>
        <time>2021-10-14T10:19:14.000Z</time>
      </trkpt>
      <trkpt lat="47.28436" lon="-2.36044">
        <ele>33.799999237061</ele>
        <time>2021-10-14T10:19:15.000Z</time>
      </trkpt>
      <trkpt lat="47.28436" lon="-2.3604">
        <ele>34.200000762939</ele>
        <time>2021-10-14T10:19:16.000Z</time>
      </trkpt>
      <trkpt lat="47.28437" lon="-2.36037">
        <ele>34.599998474121</ele>
        <time>2021-10-14T10:19:17.000Z</time>
      </trkpt>
      <trkpt lat="47.28438" lon="-2.36034">
        <ele>35</ele>
        <time>2021-10-14T10:19:18.000Z</time>
      </trkpt>
      <trkpt lat="47.28439" lon="-2.36025">
        <ele>35</ele>
        <time>2021-10-14T10:19:21.000Z</time>
      </trkpt>
      <trkpt lat="47.28442" lon="-2.36019">
        <ele>35</ele>
        <time>2021-10-14T10:19:26.000Z</time>
      </trkpt>
      <trkpt lat="47.28443" lon="-2.36016">
        <ele>35</ele>
        <time>2021-10-14T10:19:28.000Z</time>
      </trkpt>
      <trkpt lat="47.28446" lon="-2.36008">
        <ele>35</ele>
        <time>2021-10-14T10:19:30.000Z</time>
      </trkpt>
      <trkpt lat="47.2845" lon="-2.35992">
        <ele>35</ele>
        <time>2021-10-14T10:19:35.000Z</time>
      </trkpt>
      <trkpt lat="47.28455" lon="-2.35974">
        <ele>35</ele>
        <time>2021-10-14T10:19:41.000Z</time>
      </trkpt>
      <trkpt lat="47.28467" lon="-2.35941">
        <ele>34.599998474121</ele>
        <time>2021-10-14T10:19:46.000Z</time>
      </trkpt>
      <trkpt lat="47.28469" lon="-2.35934">
        <ele>34.200000762939</ele>
        <time>2021-10-14T10:19:47.000Z</time>
      </trkpt>
      <trkpt lat="47.28472" lon="-2.35927">
        <ele>33</ele>
        <time>2021-10-14T10:19:48.000Z</time>
      </trkpt>
      <trkpt lat="47.28473" lon="-2.35921">
        <ele>32.400001525879</ele>
        <time>2021-10-14T10:19:49.000Z</time>
      </trkpt>
      <trkpt lat="47.28474" lon="-2.35915">
        <ele>31.799999237061</ele>
        <time>2021-10-14T10:19:50.000Z</time>
      </trkpt>
      <trkpt lat="47.28473" lon="-2.35909">
        <ele>31.200000762939</ele>
        <time>2021-10-14T10:19:51.000Z</time>
      </trkpt>
      <trkpt lat="47.28472" lon="-2.35903">
        <ele>30.60000038147</ele>
        <time>2021-10-14T10:19:52.000Z</time>
      </trkpt>
      <trkpt lat="47.28469" lon="-2.35898">
        <ele>29.799999237061</ele>
        <time>2021-10-14T10:19:53.000Z</time>
      </trkpt>
      <trkpt lat="47.28466" lon="-2.35894">
        <ele>29.200000762939</ele>
        <time>2021-10-14T10:19:54.000Z</time>
      </trkpt>
      <trkpt lat="47.28462" lon="-2.3589">
        <ele>28.39999961853</ele>
        <time>2021-10-14T10:19:55.000Z</time>
      </trkpt>
      <trkpt lat="47.28457" lon="-2.35888">
        <ele>27.799999237061</ele>
        <time>2021-10-14T10:19:56.000Z</time>
      </trkpt>
      <trkpt lat="47.28451" lon="-2.35885">
        <ele>27</ele>
        <time>2021-10-14T10:19:57.000Z</time>
      </trkpt>
      <trkpt lat="47.28446" lon="-2.35882">
        <ele>26.39999961853</ele>
        <time>2021-10-14T10:19:58.000Z</time>
      </trkpt>
      <trkpt lat="47.28434" lon="-2.35867">
        <ele>26.39999961853</ele>
        <time>2021-10-14T10:20:02.000Z</time>
      </trkpt>
      <trkpt lat="47.28418" lon="-2.35836">
        <ele>26.39999961853</ele>
        <time>2021-10-14T10:20:08.000Z</time>
      </trkpt>
      <trkpt lat="47.28398" lon="-2.35814">
        <ele>26.39999961853</ele>
        <time>2021-10-14T10:20:13.000Z</time>
      </trkpt>
      <trkpt lat="47.2838" lon="-2.35797">
        <ele>26.39999961853</ele>
        <time>2021-10-14T10:20:17.000Z</time>
      </trkpt>
      <trkpt lat="47.28371" lon="-2.35794">
        <ele>26.39999961853</ele>
        <time>2021-10-14T10:20:19.000Z</time>
      </trkpt>
      <trkpt lat="47.28366" lon="-2.35796">
        <ele>26</ele>
        <time>2021-10-14T10:20:20.000Z</time>
      </trkpt>
      <trkpt lat="47.28361" lon="-2.35799">
        <ele>25.60000038147</ele>
        <time>2021-10-14T10:20:21.000Z</time>
      </trkpt>
      <trkpt lat="47.28356" lon="-2.35801">
        <ele>25.200000762939</ele>
        <time>2021-10-14T10:20:22.000Z</time>
      </trkpt>
      <trkpt lat="47.28352" lon="-2.35803">
        <ele>24.799999237061</ele>
        <time>2021-10-14T10:20:23.000Z</time>
      </trkpt>
      <trkpt lat="47.28348" lon="-2.35806">
        <ele>24.200000762939</ele>
        <time>2021-10-14T10:20:24.000Z</time>
      </trkpt>
      <trkpt lat="47.28336" lon="-2.35819">
        <ele>24.200000762939</ele>
        <time>2021-10-14T10:20:27.000Z</time>
      </trkpt>
      <trkpt lat="47.28333" lon="-2.35824">
        <ele>24.200000762939</ele>
        <time>2021-10-14T10:20:28.000Z</time>
      </trkpt>
      <trkpt lat="47.28316" lon="-2.35846">
        <ele>24.200000762939</ele>
        <time>2021-10-14T10:20:33.000Z</time>
      </trkpt>
      <trkpt lat="47.28313" lon="-2.35849">
        <ele>24.200000762939</ele>
        <time>2021-10-14T10:20:34.000Z</time>
      </trkpt>
      <trkpt lat="47.28299" lon="-2.35863">
        <ele>24.200000762939</ele>
        <time>2021-10-14T10:20:37.000Z</time>
      </trkpt>
      <trkpt lat="47.28294" lon="-2.35867">
        <ele>23.799999237061</ele>
        <time>2021-10-14T10:20:38.000Z</time>
      </trkpt>
      <trkpt lat="47.28289" lon="-2.35871">
        <ele>23.39999961853</ele>
        <time>2021-10-14T10:20:39.000Z</time>
      </trkpt>
      <trkpt lat="47.28284" lon="-2.35875">
        <ele>23</ele>
        <time>2021-10-14T10:20:40.000Z</time>
      </trkpt>
      <trkpt lat="47.28279" lon="-2.35878">
        <ele>22.39999961853</ele>
        <time>2021-10-14T10:20:41.000Z</time>
      </trkpt>
      <trkpt lat="47.28274" lon="-2.35882">
        <ele>22</ele>
        <time>2021-10-14T10:20:42.000Z</time>
      </trkpt>
      <trkpt lat="47.2826" lon="-2.35894">
        <ele>22</ele>
        <time>2021-10-14T10:20:45.000Z</time>
      </trkpt>
      <trkpt lat="47.28246" lon="-2.359">
        <ele>22</ele>
        <time>2021-10-14T10:20:48.000Z</time>
      </trkpt>
      <trkpt lat="47.2824" lon="-2.35901">
        <ele>22</ele>
        <time>2021-10-14T10:20:49.000Z</time>
      </trkpt>
      <trkpt lat="47.28223" lon="-2.359">
        <ele>22</ele>
        <time>2021-10-14T10:20:52.000Z</time>
      </trkpt>
      <trkpt lat="47.28204" lon="-2.35892">
        <ele>22</ele>
        <time>2021-10-14T10:20:56.000Z</time>
      </trkpt>
      <trkpt lat="47.28194" lon="-2.35875">
        <ele>22</ele>
        <time>2021-10-14T10:21:00.000Z</time>
      </trkpt>
      <trkpt lat="47.28189" lon="-2.35859">
        <ele>21.60000038147</ele>
        <time>2021-10-14T10:21:03.000Z</time>
      </trkpt>
      <trkpt lat="47.28185" lon="-2.35855">
        <ele>21.200000762939</ele>
        <time>2021-10-14T10:21:04.000Z</time>
      </trkpt>
      <trkpt lat="47.28182" lon="-2.35852">
        <ele>20.799999237061</ele>
        <time>2021-10-14T10:21:05.000Z</time>
      </trkpt>
      <trkpt lat="47.28179" lon="-2.35849">
        <ele>20.39999961853</ele>
        <time>2021-10-14T10:21:06.000Z</time>
      </trkpt>
      <trkpt lat="47.28176" lon="-2.35845">
        <ele>20</ele>
        <time>2021-10-14T10:21:07.000Z</time>
      </trkpt>
      <trkpt lat="47.28161" lon="-2.35833">
        <ele>20</ele>
        <time>2021-10-14T10:21:11.000Z</time>
      </trkpt>
      <trkpt lat="47.28143" lon="-2.35809">
        <ele>20</ele>
        <time>2021-10-14T10:21:16.000Z</time>
      </trkpt>
      <trkpt lat="47.28138" lon="-2.3579">
        <ele>20</ele>
        <time>2021-10-14T10:21:19.000Z</time>
      </trkpt>
      <trkpt lat="47.28136" lon="-2.35777">
        <ele>20</ele>
        <time>2021-10-14T10:21:21.000Z</time>
      </trkpt>
      <trkpt lat="47.28133" lon="-2.35768">
        <ele>20</ele>
        <time>2021-10-14T10:21:23.000Z</time>
      </trkpt>
      <trkpt lat="47.2813" lon="-2.35765">
        <ele>20</ele>
        <time>2021-10-14T10:21:24.000Z</time>
      </trkpt>
      <trkpt lat="47.28118" lon="-2.35765">
        <ele>20</ele>
        <time>2021-10-14T10:21:28.000Z</time>
      </trkpt>
      <trkpt lat="47.28111" lon="-2.35771">
        <ele>19.60000038147</ele>
        <time>2021-10-14T10:21:30.000Z</time>
      </trkpt>
      <trkpt lat="47.28108" lon="-2.35775">
        <ele>19.200000762939</ele>
        <time>2021-10-14T10:21:31.000Z</time>
      </trkpt>
      <trkpt lat="47.28106" lon="-2.35778">
        <ele>18.799999237061</ele>
        <time>2021-10-14T10:21:32.000Z</time>
      </trkpt>
      <trkpt lat="47.28104" lon="-2.35783">
        <ele>18.200000762939</ele>
        <time>2021-10-14T10:21:33.000Z</time>
      </trkpt>
      <trkpt lat="47.28103" lon="-2.35787">
        <ele>17.799999237061</ele>
        <time>2021-10-14T10:21:34.000Z</time>
      </trkpt>
      <trkpt lat="47.28095" lon="-2.35805">
        <ele>17.799999237061</ele>
        <time>2021-10-14T10:21:38.000Z</time>
      </trkpt>
      <trkpt lat="47.28092" lon="-2.35807">
        <ele>17.799999237061</ele>
        <time>2021-10-14T10:21:39.000Z</time>
      </trkpt>
      <trkpt lat="47.28087" lon="-2.35805">
        <ele>17.799999237061</ele>
        <time>2021-10-14T10:21:41.000Z</time>
      </trkpt>
      <trkpt lat="47.28085" lon="-2.35789">
        <ele>18.39999961853</ele>
        <time>2021-10-14T10:21:45.000Z</time>
      </trkpt>
      <trkpt lat="47.28086" lon="-2.35785">
        <ele>18.799999237061</ele>
        <time>2021-10-14T10:21:46.000Z</time>
      </trkpt>
      <trkpt lat="47.28087" lon="-2.35781">
        <ele>19.200000762939</ele>
        <time>2021-10-14T10:21:47.000Z</time>
      </trkpt>
      <trkpt lat="47.28088" lon="-2.35777">
        <ele>19.799999237061</ele>
        <time>2021-10-14T10:21:48.000Z</time>
      </trkpt>
      <trkpt lat="47.28089" lon="-2.35773">
        <ele>20.200000762939</ele>
        <time>2021-10-14T10:21:49.000Z</time>
      </trkpt>
      <trkpt lat="47.28089" lon="-2.35765">
        <ele>20.200000762939</ele>
        <time>2021-10-14T10:21:51.000Z</time>
      </trkpt>
      <trkpt lat="47.2809" lon="-2.35749">
        <ele>20.60000038147</ele>
        <time>2021-10-14T10:21:54.000Z</time>
      </trkpt>
      <trkpt lat="47.28091" lon="-2.35744">
        <ele>21</ele>
        <time>2021-10-14T10:21:55.000Z</time>
      </trkpt>
      <trkpt lat="47.28091" lon="-2.35738">
        <ele>21.39999961853</ele>
        <time>2021-10-14T10:21:56.000Z</time>
      </trkpt>
      <trkpt lat="47.28091" lon="-2.35732">
        <ele>21.799999237061</ele>
        <time>2021-10-14T10:21:57.000Z</time>
      </trkpt>
      <trkpt lat="47.28092" lon="-2.35728">
        <ele>22.200000762939</ele>
        <time>2021-10-14T10:21:58.000Z</time>
      </trkpt>
      <trkpt lat="47.28094" lon="-2.35708">
        <ele>22.200000762939</ele>
        <time>2021-10-14T10:22:02.000Z</time>
      </trkpt>
      <trkpt lat="47.28092" lon="-2.35688">
        <ele>22.200000762939</ele>
        <time>2021-10-14T10:22:06.000Z</time>
      </trkpt>
      <trkpt lat="47.28091" lon="-2.35681">
        <ele>22.200000762939</ele>
        <time>2021-10-14T10:22:07.000Z</time>
      </trkpt>
      <trkpt lat="47.28084" lon="-2.35652">
        <ele>22.200000762939</ele>
        <time>2021-10-14T10:22:11.000Z</time>
      </trkpt>
      <trkpt lat="47.28077" lon="-2.35628">
        <ele>21.799999237061</ele>
        <time>2021-10-14T10:22:15.000Z</time>
      </trkpt>
      <trkpt lat="47.28076" lon="-2.35623">
        <ele>20.799999237061</ele>
        <time>2021-10-14T10:22:16.000Z</time>
      </trkpt>
      <trkpt lat="47.28076" lon="-2.35619">
        <ele>20.200000762939</ele>
        <time>2021-10-14T10:22:17.000Z</time>
      </trkpt>
      <trkpt lat="47.28077" lon="-2.35616">
        <ele>19.799999237061</ele>
        <time>2021-10-14T10:22:18.000Z</time>
      </trkpt>
      <trkpt lat="47.28078" lon="-2.35614">
        <ele>19.39999961853</ele>
        <time>2021-10-14T10:22:19.000Z</time>
      </trkpt>
      <trkpt lat="47.2808" lon="-2.35613">
        <ele>19</ele>
        <time>2021-10-14T10:22:20.000Z</time>
      </trkpt>
      <trkpt lat="47.28082" lon="-2.35615">
        <ele>18.39999961853</ele>
        <time>2021-10-14T10:22:21.000Z</time>
      </trkpt>
      <trkpt lat="47.28083" lon="-2.35616">
        <ele>18</ele>
        <time>2021-10-14T10:22:22.000Z</time>
      </trkpt>
      <trkpt lat="47.28083" lon="-2.35617">
        <ele>17.60000038147</ele>
        <time>2021-10-14T10:22:23.000Z</time>
      </trkpt>
      <trkpt lat="47.28083" lon="-2.35618">
        <ele>17.60000038147</ele>
        <time>2021-10-14T10:22:24.000Z</time>
      </trkpt>
      <trkpt lat="47.28081" lon="-2.3561">
        <ele>17.60000038147</ele>
        <time>2021-10-14T10:35:06.000Z</time>
      </trkpt>
      <trkpt lat="47.28077" lon="-2.35604">
        <ele>17.60000038147</ele>
        <time>2021-10-14T10:35:09.000Z</time>
      </trkpt>
      <trkpt lat="47.2807" lon="-2.35593">
        <ele>17.60000038147</ele>
        <time>2021-10-14T10:35:16.000Z</time>
      </trkpt>
      <trkpt lat="47.28065" lon="-2.35583">
        <ele>17.60000038147</ele>
        <time>2021-10-14T10:35:22.000Z</time>
      </trkpt>
      <trkpt lat="47.28063" lon="-2.35583">
        <ele>17.60000038147</ele>
        <time>2021-10-14T10:35:23.000Z</time>
      </trkpt>
      <trkpt lat="47.28055" lon="-2.35582">
        <ele>17.60000038147</ele>
        <time>2021-10-14T10:35:29.000Z</time>
      </trkpt>
      <trkpt lat="47.28053" lon="-2.35582">
        <ele>17.60000038147</ele>
        <time>2021-10-14T10:35:42.000Z</time>
      </trkpt>
      <trkpt lat="47.2805" lon="-2.3558">
        <ele>17.200000762939</ele>
        <time>2021-10-14T10:35:44.000Z</time>
      </trkpt>
      <trkpt lat="47.28047" lon="-2.3558">
        <ele>16.799999237061</ele>
        <time>2021-10-14T10:35:45.000Z</time>
      </trkpt>
      <trkpt lat="47.28045" lon="-2.35579">
        <ele>16.39999961853</ele>
        <time>2021-10-14T10:35:46.000Z</time>
      </trkpt>
      <trkpt lat="47.28042" lon="-2.35579">
        <ele>16</ele>
        <time>2021-10-14T10:35:47.000Z</time>
      </trkpt>
      <trkpt lat="47.28039" lon="-2.35578">
        <ele>15.39999961853</ele>
        <time>2021-10-14T10:35:48.000Z</time>
      </trkpt>
      <trkpt lat="47.28021" lon="-2.35578">
        <ele>15.39999961853</ele>
        <time>2021-10-14T10:35:54.000Z</time>
      </trkpt>
      <trkpt lat="47.28008" lon="-2.35582">
        <ele>15.39999961853</ele>
        <time>2021-10-14T10:35:58.000Z</time>
      </trkpt>
      <trkpt lat="47.27998" lon="-2.35585">
        <ele>15.39999961853</ele>
        <time>2021-10-14T10:36:01.000Z</time>
      </trkpt>
      <trkpt lat="47.27978" lon="-2.35588">
        <ele>15.39999961853</ele>
        <time>2021-10-14T10:36:07.000Z</time>
      </trkpt>
      <trkpt lat="47.27958" lon="-2.35583">
        <ele>15.39999961853</ele>
        <time>2021-10-14T10:36:13.000Z</time>
      </trkpt>
      <trkpt lat="47.27954" lon="-2.35583">
        <ele>15</ele>
        <time>2021-10-14T10:36:14.000Z</time>
      </trkpt>
      <trkpt lat="47.2795" lon="-2.35583">
        <ele>14.60000038147</ele>
        <time>2021-10-14T10:36:15.000Z</time>
      </trkpt>
      <trkpt lat="47.27946" lon="-2.35584">
        <ele>14.199999809265</ele>
        <time>2021-10-14T10:36:16.000Z</time>
      </trkpt>
      <trkpt lat="47.27941" lon="-2.35585">
        <ele>13.39999961853</ele>
        <time>2021-10-14T10:36:17.000Z</time>
      </trkpt>
      <trkpt lat="47.27934" lon="-2.35588">
        <ele>13.39999961853</ele>
        <time>2021-10-14T10:36:19.000Z</time>
      </trkpt>
      <trkpt lat="47.27896" lon="-2.35598">
        <ele>13.39999961853</ele>
        <time>2021-10-14T10:36:28.000Z</time>
      </trkpt>
      <trkpt lat="47.27861" lon="-2.35606">
        <ele>13.39999961853</ele>
        <time>2021-10-14T10:36:35.000Z</time>
      </trkpt>
      <trkpt lat="47.27856" lon="-2.35608">
        <ele>13</ele>
        <time>2021-10-14T10:36:36.000Z</time>
      </trkpt>
      <trkpt lat="47.27851" lon="-2.35609">
        <ele>12.60000038147</ele>
        <time>2021-10-14T10:36:37.000Z</time>
      </trkpt>
      <trkpt lat="47.27846" lon="-2.35611">
        <ele>12.199999809265</ele>
        <time>2021-10-14T10:36:38.000Z</time>
      </trkpt>
      <trkpt lat="47.2784" lon="-2.35612">
        <ele>11.800000190735</ele>
        <time>2021-10-14T10:36:39.000Z</time>
      </trkpt>
      <trkpt lat="47.27834" lon="-2.35614">
        <ele>11.39999961853</ele>
        <time>2021-10-14T10:36:40.000Z</time>
      </trkpt>
      <trkpt lat="47.27828" lon="-2.35615">
        <ele>11.39999961853</ele>
        <time>2021-10-14T10:36:41.000Z</time>
      </trkpt>
      <trkpt lat="47.27787" lon="-2.3563">
        <ele>11</ele>
        <time>2021-10-14T10:36:48.000Z</time>
      </trkpt>
      <trkpt lat="47.27781" lon="-2.35634">
        <ele>10.60000038147</ele>
        <time>2021-10-14T10:36:49.000Z</time>
      </trkpt>
      <trkpt lat="47.27775" lon="-2.35638">
        <ele>10.199999809265</ele>
        <time>2021-10-14T10:36:50.000Z</time>
      </trkpt>
      <trkpt lat="47.2777" lon="-2.35643">
        <ele>9.8000001907349</ele>
        <time>2021-10-14T10:36:51.000Z</time>
      </trkpt>
      <trkpt lat="47.27765" lon="-2.35647">
        <ele>9.1999998092651</ele>
        <time>2021-10-14T10:36:52.000Z</time>
      </trkpt>
      <trkpt lat="47.27756" lon="-2.35658">
        <ele>9.1999998092651</ele>
        <time>2021-10-14T10:36:54.000Z</time>
      </trkpt>
      <trkpt lat="47.27733" lon="-2.35696">
        <ele>9.1999998092651</ele>
        <time>2021-10-14T10:37:00.000Z</time>
      </trkpt>
      <trkpt lat="47.27725" lon="-2.35708">
        <ele>8.8000001907349</ele>
        <time>2021-10-14T10:37:02.000Z</time>
      </trkpt>
      <trkpt lat="47.2772" lon="-2.35714">
        <ele>8.3999996185303</ele>
        <time>2021-10-14T10:37:03.000Z</time>
      </trkpt>
      <trkpt lat="47.27715" lon="-2.35719">
        <ele>8</ele>
        <time>2021-10-14T10:37:04.000Z</time>
      </trkpt>
      <trkpt lat="47.2771" lon="-2.35724">
        <ele>7.5999999046326</ele>
        <time>2021-10-14T10:37:05.000Z</time>
      </trkpt>
      <trkpt lat="47.27704" lon="-2.35729">
        <ele>7</ele>
        <time>2021-10-14T10:37:06.000Z</time>
      </trkpt>
      <trkpt lat="47.27681" lon="-2.35747">
        <ele>7</ele>
        <time>2021-10-14T10:37:10.000Z</time>
      </trkpt>
      <trkpt lat="47.27666" lon="-2.3574">
        <ele>7</ele>
        <time>2021-10-14T10:37:13.000Z</time>
      </trkpt>
      <trkpt lat="47.27649" lon="-2.35723">
        <ele>7</ele>
        <time>2021-10-14T10:37:17.000Z</time>
      </trkpt>
      <trkpt lat="47.27643" lon="-2.35722">
        <ele>6.5999999046326</ele>
        <time>2021-10-14T10:37:18.000Z</time>
      </trkpt>
      <trkpt lat="47.27637" lon="-2.3572">
        <ele>6.1999998092651</ele>
        <time>2021-10-14T10:37:19.000Z</time>
      </trkpt>
      <trkpt lat="47.27632" lon="-2.35718">
        <ele>5.8000001907349</ele>
        <time>2021-10-14T10:37:20.000Z</time>
      </trkpt>
      <trkpt lat="47.27626" lon="-2.35717">
        <ele>5.4000000953674</ele>
        <time>2021-10-14T10:37:21.000Z</time>
      </trkpt>
      <trkpt lat="47.27621" lon="-2.35715">
        <ele>5</ele>
        <time>2021-10-14T10:37:22.000Z</time>
      </trkpt>
      <trkpt lat="47.27615" lon="-2.35713">
        <ele>5</ele>
        <time>2021-10-14T10:37:23.000Z</time>
      </trkpt>
      <trkpt lat="47.27574" lon="-2.35704">
        <ele>5</ele>
        <time>2021-10-14T10:37:30.000Z</time>
      </trkpt>
      <trkpt lat="47.27567" lon="-2.35702">
        <ele>4.1999998092651</ele>
        <time>2021-10-14T10:37:31.000Z</time>
      </trkpt>
      <trkpt lat="47.27562" lon="-2.35701">
        <ele>3.7999999523163</ele>
        <time>2021-10-14T10:37:32.000Z</time>
      </trkpt>
      <trkpt lat="47.27556" lon="-2.357">
        <ele>3.4000000953674</ele>
        <time>2021-10-14T10:37:33.000Z</time>
      </trkpt>
      <trkpt lat="47.2755" lon="-2.35699">
        <ele>3</ele>
        <time>2021-10-14T10:37:34.000Z</time>
      </trkpt>
      <trkpt lat="47.27523" lon="-2.35692">
        <ele>3</ele>
        <time>2021-10-14T10:37:39.000Z</time>
      </trkpt>
      <trkpt lat="47.27482" lon="-2.35681">
        <ele>2.5999999046326</ele>
        <time>2021-10-14T10:37:46.000Z</time>
      </trkpt>
      <trkpt lat="47.27476" lon="-2.3568">
        <ele>2.2000000476837</ele>
        <time>2021-10-14T10:37:47.000Z</time>
      </trkpt>
      <trkpt lat="47.27471" lon="-2.35679">
        <ele>1.6000000238419</ele>
        <time>2021-10-14T10:37:48.000Z</time>
      </trkpt>
      <trkpt lat="47.27465" lon="-2.35678">
        <ele>1.2000000476837</ele>
        <time>2021-10-14T10:37:49.000Z</time>
      </trkpt>
      <trkpt lat="47.2746" lon="-2.35676">
        <ele>0.80000001192093</ele>
        <time>2021-10-14T10:37:50.000Z</time>
      </trkpt>
      <trkpt lat="47.27443" lon="-2.35673">
        <ele>0.80000001192093</ele>
        <time>2021-10-14T10:37:53.000Z</time>
      </trkpt>
      <trkpt lat="47.27423" lon="-2.35668">
        <ele>0.80000001192093</ele>
        <time>2021-10-14T10:37:57.000Z</time>
      </trkpt>
      <trkpt lat="47.27413" lon="-2.35667">
        <ele>0.80000001192093</ele>
        <time>2021-10-14T10:37:59.000Z</time>
      </trkpt>
      <trkpt lat="47.2739" lon="-2.35679">
        <ele>0.80000001192093</ele>
        <time>2021-10-14T10:38:04.000Z</time>
      </trkpt>
      <trkpt lat="47.27357" lon="-2.35702">
        <ele>0.80000001192093</ele>
        <time>2021-10-14T10:38:11.000Z</time>
      </trkpt>
      <trkpt lat="47.27347" lon="-2.35709">
        <ele>0.40000000596046</ele>
        <time>2021-10-14T10:38:13.000Z</time>
      </trkpt>
      <trkpt lat="47.27341" lon="-2.35713">
        <ele>5</ele>
        <time>2021-10-14T10:38:14.000Z</time>
      </trkpt>
      <trkpt lat="47.27336" lon="-2.35717">
        <ele>-0.60000002384186</ele>
        <time>2021-10-14T10:38:15.000Z</time>
      </trkpt>
      <trkpt lat="47.27331" lon="-2.35722">
        <ele>-1</ele>
        <time>2021-10-14T10:38:16.000Z</time>
      </trkpt>
      <trkpt lat="47.27326" lon="-2.35728">
        <ele>-1.3999999761581</ele>
        <time>2021-10-14T10:38:17.000Z</time>
      </trkpt>
      <trkpt lat="47.27315" lon="-2.35743">
        <ele>-1.3999999761581</ele>
        <time>2021-10-14T10:38:20.000Z</time>
      </trkpt>
      <trkpt lat="47.2731" lon="-2.35741">
        <ele>-1.3999999761581</ele>
        <time>2021-10-14T10:38:21.000Z</time>
      </trkpt>
      <trkpt lat="47.27307" lon="-2.35736">
        <ele>-1</ele>
        <time>2021-10-14T10:38:22.000Z</time>
      </trkpt>
      <trkpt lat="47.27304" lon="-2.3573">
        <ele>-0.40000000596046</ele>
        <time>2021-10-14T10:38:23.000Z</time>
      </trkpt>
      <trkpt lat="47.27301" lon="-2.35724">
        <ele>5.8</ele>
        <time>2021-10-14T10:38:24.000Z</time>
      </trkpt>
      <trkpt lat="47.27298" lon="-2.35717">
        <ele>0.40000000596046</ele>
        <time>2021-10-14T10:38:25.000Z</time>
      </trkpt>
      <trkpt lat="47.27295" lon="-2.3571">
        <ele>0.80000001192093</ele>
        <time>2021-10-14T10:38:26.000Z</time>
      </trkpt>
      <trkpt lat="47.27286" lon="-2.3569">
        <ele>0.80000001192093</ele>
        <time>2021-10-14T10:38:29.000Z</time>
      </trkpt>
      <trkpt lat="47.27264" lon="-2.35639">
        <ele>0.80000001192093</ele>
        <time>2021-10-14T10:38:37.000Z</time>
      </trkpt>
      <trkpt lat="47.27244" lon="-2.35596">
        <ele>0.80000001192093</ele>
        <time>2021-10-14T10:38:44.000Z</time>
      </trkpt>
      <trkpt lat="47.27223" lon="-2.35546">
        <ele>1.2000000476837</ele>
        <time>2021-10-14T10:38:52.000Z</time>
      </trkpt>
      <trkpt lat="47.2722" lon="-2.3554">
        <ele>1.6000000238419</ele>
        <time>2021-10-14T10:38:53.000Z</time>
      </trkpt>
      <trkpt lat="47.27217" lon="-2.35534">
        <ele>2</ele>
        <time>2021-10-14T10:38:54.000Z</time>
      </trkpt>
      <trkpt lat="47.27214" lon="-2.35529">
        <ele>2.4000000953674</ele>
        <time>2021-10-14T10:38:55.000Z</time>
      </trkpt>
      <trkpt lat="47.27212" lon="-2.35523">
        <ele>3</ele>
        <time>2021-10-14T10:38:56.000Z</time>
      </trkpt>
      <trkpt lat="47.27195" lon="-2.35487">
        <ele>3</ele>
        <time>2021-10-14T10:39:02.000Z</time>
      </trkpt>
      <trkpt lat="47.27165" lon="-2.35429">
        <ele>3</ele>
        <time>2021-10-14T10:39:12.000Z</time>
      </trkpt>
      <trkpt lat="47.27139" lon="-2.35381">
        <ele>3</ele>
        <time>2021-10-14T10:39:20.000Z</time>
      </trkpt>
      <trkpt lat="47.2713" lon="-2.35362">
        <ele>3</ele>
        <time>2021-10-14T10:39:23.000Z</time>
      </trkpt>
      <trkpt lat="47.27123" lon="-2.35351">
        <ele>3</ele>
        <time>2021-10-14T10:39:25.000Z</time>
      </trkpt>
      <trkpt lat="47.27092" lon="-2.35301">
        <ele>3</ele>
        <time>2021-10-14T10:39:34.000Z</time>
      </trkpt>
      <trkpt lat="47.27055" lon="-2.35246">
        <ele>3</ele>
        <time>2021-10-14T10:39:45.000Z</time>
      </trkpt>
      <trkpt lat="47.2702" lon="-2.35191">
        <ele>3</ele>
        <time>2021-10-14T10:39:55.000Z</time>
      </trkpt>
      <trkpt lat="47.26993" lon="-2.35149">
        <ele>3</ele>
        <time>2021-10-14T10:40:03.000Z</time>
      </trkpt>
      <trkpt lat="47.26963" lon="-2.35102">
        <ele>3</ele>
        <time>2021-10-14T10:40:12.000Z</time>
      </trkpt>
      <trkpt lat="47.2695" lon="-2.35078">
        <ele>3</ele>
        <time>2021-10-14T10:40:16.000Z</time>
      </trkpt>
      <trkpt lat="47.26939" lon="-2.35063">
        <ele>3</ele>
        <time>2021-10-14T10:40:19.000Z</time>
      </trkpt>
      <trkpt lat="47.26935" lon="-2.35058">
        <ele>3</ele>
        <time>2021-10-14T10:40:20.000Z</time>
      </trkpt>
      <trkpt lat="47.26908" lon="-2.3502">
        <ele>3</ele>
        <time>2021-10-14T10:40:27.000Z</time>
      </trkpt>
      <trkpt lat="47.26876" lon="-2.34972">
        <ele>2.5999999046326</ele>
        <time>2021-10-14T10:40:36.000Z</time>
      </trkpt>
      <trkpt lat="47.26872" lon="-2.34966">
        <ele>2.2000000476837</ele>
        <time>2021-10-14T10:40:37.000Z</time>
      </trkpt>
      <trkpt lat="47.26868" lon="-2.3496">
        <ele>1.7999999523163</ele>
        <time>2021-10-14T10:40:38.000Z</time>
      </trkpt>
      <trkpt lat="47.26864" lon="-2.34954">
        <ele>1.3999999761581</ele>
        <time>2021-10-14T10:40:39.000Z</time>
      </trkpt>
      <trkpt lat="47.26861" lon="-2.34949">
        <ele>1</ele>
        <time>2021-10-14T10:40:40.000Z</time>
      </trkpt>
      <trkpt lat="47.26842" lon="-2.34921">
        <ele>1</ele>
        <time>2021-10-14T10:40:45.000Z</time>
      </trkpt>
      <trkpt lat="47.2681" lon="-2.34873">
        <ele>1</ele>
        <time>2021-10-14T10:40:54.000Z</time>
      </trkpt>
      <trkpt lat="47.26773" lon="-2.34819">
        <ele>1</ele>
        <time>2021-10-14T10:41:04.000Z</time>
      </trkpt>
      <trkpt lat="47.26761" lon="-2.34806">
        <ele>1</ele>
        <time>2021-10-14T10:41:07.000Z</time>
      </trkpt>
      <trkpt lat="47.26751" lon="-2.3479">
        <ele>1</ele>
        <time>2021-10-14T10:41:10.000Z</time>
      </trkpt>
      <trkpt lat="47.26713" lon="-2.34744">
        <ele>1</ele>
        <time>2021-10-14T10:41:19.000Z</time>
      </trkpt>
      <trkpt lat="47.26672" lon="-2.34694">
        <ele>1</ele>
        <time>2021-10-14T10:41:29.000Z</time>
      </trkpt>
      <trkpt lat="47.26636" lon="-2.34649">
        <ele>1</ele>
        <time>2021-10-14T10:41:38.000Z</time>
      </trkpt>
      <trkpt lat="47.266" lon="-2.34605">
        <ele>1</ele>
        <time>2021-10-14T10:41:47.000Z</time>
      </trkpt>
      <trkpt lat="47.26567" lon="-2.34569">
        <ele>1</ele>
        <time>2021-10-14T10:41:55.000Z</time>
      </trkpt>
      <trkpt lat="47.26522" lon="-2.34523">
        <ele>1</ele>
        <time>2021-10-14T10:42:06.000Z</time>
      </trkpt>
      <trkpt lat="47.26517" lon="-2.34519">
        <ele>1</ele>
        <time>2021-10-14T10:42:07.000Z</time>
      </trkpt>
      <trkpt lat="47.26497" lon="-2.34508">
        <ele>1</ele>
        <time>2021-10-14T10:42:11.000Z</time>
      </trkpt>
      <trkpt lat="47.26447" lon="-2.34472">
        <ele>1</ele>
        <time>2021-10-14T10:42:21.000Z</time>
      </trkpt>
      <trkpt lat="47.26404" lon="-2.34439">
        <ele>1</ele>
        <time>2021-10-14T10:42:30.000Z</time>
      </trkpt>
      <trkpt lat="47.26369" lon="-2.34409">
        <ele>1</ele>
        <time>2021-10-14T10:42:38.000Z</time>
      </trkpt>
      <trkpt lat="47.26343" lon="-2.34386">
        <ele>1</ele>
        <time>2021-10-14T10:42:44.000Z</time>
      </trkpt>
      <trkpt lat="47.26333" lon="-2.34382">
        <ele>1</ele>
        <time>2021-10-14T10:42:46.000Z</time>
      </trkpt>
      <trkpt lat="47.26316" lon="-2.34368">
        <ele>1</ele>
        <time>2021-10-14T10:42:50.000Z</time>
      </trkpt>
      <trkpt lat="47.26313" lon="-2.34363">
        <ele>1</ele>
        <time>2021-10-14T10:42:51.000Z</time>
      </trkpt>
      <trkpt lat="47.26309" lon="-2.34358">
        <ele>1</ele>
        <time>2021-10-14T10:42:52.000Z</time>
      </trkpt>
      <trkpt lat="47.26297" lon="-2.34344">
        <ele>1</ele>
        <time>2021-10-14T10:42:55.000Z</time>
      </trkpt>
      <trkpt lat="47.26252" lon="-2.34295">
        <ele>1</ele>
        <time>2021-10-14T10:43:06.000Z</time>
      </trkpt>
      <trkpt lat="47.26218" lon="-2.34258">
        <ele>1</ele>
        <time>2021-10-14T10:43:14.000Z</time>
      </trkpt>
      <trkpt lat="47.26188" lon="-2.34226">
        <ele>1</ele>
        <time>2021-10-14T10:43:21.000Z</time>
      </trkpt>
      <trkpt lat="47.26147" lon="-2.34187">
        <ele>1</ele>
        <time>2021-10-14T10:43:30.000Z</time>
      </trkpt>
      <trkpt lat="47.26142" lon="-2.34185">
        <ele>1</ele>
        <time>2021-10-14T10:43:31.000Z</time>
      </trkpt>
      <trkpt lat="47.26132" lon="-2.3418">
        <ele>1</ele>
        <time>2021-10-14T10:43:33.000Z</time>
      </trkpt>
      <trkpt lat="47.26123" lon="-2.3417">
        <ele>1</ele>
        <time>2021-10-14T10:43:35.000Z</time>
      </trkpt>
      <trkpt lat="47.26104" lon="-2.34156">
        <ele>1</ele>
        <time>2021-10-14T10:43:39.000Z</time>
      </trkpt>
      <trkpt lat="47.26098" lon="-2.34153">
        <ele>1</ele>
        <time>2021-10-14T10:43:40.000Z</time>
      </trkpt>
      <trkpt lat="47.26061" lon="-2.34135">
        <ele>1</ele>
        <time>2021-10-14T10:43:47.000Z</time>
      </trkpt>
      <trkpt lat="47.2603" lon="-2.3412">
        <ele>0.40000000596046</ele>
        <time>2021-10-14T10:43:53.000Z</time>
      </trkpt>
      <trkpt lat="47.26025" lon="-2.34117">
        <ele>5.7</ele>
        <time>2021-10-14T10:43:54.000Z</time>
      </trkpt>
      <trkpt lat="47.26019" lon="-2.34115">
        <ele>-0.40000000596046</ele>
        <time>2021-10-14T10:43:55.000Z</time>
      </trkpt>
      <trkpt lat="47.26014" lon="-2.34112">
        <ele>-0.80000001192093</ele>
        <time>2021-10-14T10:43:56.000Z</time>
      </trkpt>
      <trkpt lat="47.26009" lon="-2.3411">
        <ele>-1.3999999761581</ele>
        <time>2021-10-14T10:43:57.000Z</time>
      </trkpt>
      <trkpt lat="47.25985" lon="-2.34099">
        <ele>-1.3999999761581</ele>
        <time>2021-10-14T10:44:02.000Z</time>
      </trkpt>
      <trkpt lat="47.25945" lon="-2.34081">
        <ele>-1.3999999761581</ele>
        <time>2021-10-14T10:44:10.000Z</time>
      </trkpt>
      <trkpt lat="47.25925" lon="-2.34074">
        <ele>-1.3999999761581</ele>
        <time>2021-10-14T10:44:14.000Z</time>
      </trkpt>
      <trkpt lat="47.25914" lon="-2.34074">
        <ele>-1.3999999761581</ele>
        <time>2021-10-14T10:44:16.000Z</time>
      </trkpt>
      <trkpt lat="47.259" lon="-2.34063">
        <ele>-1.3999999761581</ele>
        <time>2021-10-14T10:44:19.000Z</time>
      </trkpt>
      <trkpt lat="47.25895" lon="-2.34041">
        <ele>-1.3999999761581</ele>
        <time>2021-10-14T10:44:22.000Z</time>
      </trkpt>
      <trkpt lat="47.259" lon="-2.34019">
        <ele>-1.3999999761581</ele>
        <time>2021-10-14T10:44:25.000Z</time>
      </trkpt>
      <trkpt lat="47.25906" lon="-2.33998">
        <ele>-1.3999999761581</ele>
        <time>2021-10-14T10:44:28.000Z</time>
      </trkpt>
      <trkpt lat="47.25911" lon="-2.33984">
        <ele>-1.3999999761581</ele>
        <time>2021-10-14T10:44:30.000Z</time>
      </trkpt>
      <trkpt lat="47.25934" lon="-2.33936">
        <ele>-1.7999999523163</ele>
        <time>2021-10-14T10:44:38.000Z</time>
      </trkpt>
      <trkpt lat="47.25937" lon="-2.3393">
        <ele>-2.2000000476837</ele>
        <time>2021-10-14T10:44:39.000Z</time>
      </trkpt>
      <trkpt lat="47.2594" lon="-2.33925">
        <ele>-2.5999999046326</ele>
        <time>2021-10-14T10:44:40.000Z</time>
      </trkpt>
      <trkpt lat="47.25943" lon="-2.3392">
        <ele>-3</ele>
        <time>2021-10-14T10:44:41.000Z</time>
      </trkpt>
      <trkpt lat="47.25944" lon="-2.33917">
        <ele>-3.4000000953674</ele>
        <time>2021-10-14T10:44:42.000Z</time>
      </trkpt>
      <trkpt lat="47.25945" lon="-2.339">
        <ele>-3.4000000953674</ele>
        <time>2021-10-14T10:44:46.000Z</time>
      </trkpt>
      <trkpt lat="47.25947" lon="-2.33895">
        <ele>-3.4000000953674</ele>
        <time>2021-10-14T10:44:47.000Z</time>
      </trkpt>
      <trkpt lat="47.25955" lon="-2.33879">
        <ele>-3.4000000953674</ele>
        <time>2021-10-14T10:44:50.000Z</time>
      </trkpt>
      <trkpt lat="47.25957" lon="-2.33872">
        <ele>-3.4000000953674</ele>
        <time>2021-10-14T10:44:51.000Z</time>
      </trkpt>
      <trkpt lat="47.25963" lon="-2.3385">
        <ele>-3.4000000953674</ele>
        <time>2021-10-14T10:44:54.000Z</time>
      </trkpt>
      <trkpt lat="47.25981" lon="-2.33798">
        <ele>-3.4000000953674</ele>
        <time>2021-10-14T10:45:01.000Z</time>
      </trkpt>
      <trkpt lat="47.25992" lon="-2.33762">
        <ele>-3.4000000953674</ele>
        <time>2021-10-14T10:45:06.000Z</time>
      </trkpt>
      <trkpt lat="47.25996" lon="-2.33748">
        <ele>-3.4000000953674</ele>
        <time>2021-10-14T10:45:08.000Z</time>
      </trkpt>
      <trkpt lat="47.26003" lon="-2.33727">
        <ele>-3.4000000953674</ele>
        <time>2021-10-14T10:45:11.000Z</time>
      </trkpt>
      <trkpt lat="47.26008" lon="-2.33716">
        <ele>-3.4000000953674</ele>
        <time>2021-10-14T10:45:13.000Z</time>
      </trkpt>
      <trkpt lat="47.26013" lon="-2.33705">
        <ele>-3.4000000953674</ele>
        <time>2021-10-14T10:45:15.000Z</time>
      </trkpt>
      <trkpt lat="47.2602" lon="-2.33678">
        <ele>-3.4000000953674</ele>
        <time>2021-10-14T10:45:19.000Z</time>
      </trkpt>
      <trkpt lat="47.26022" lon="-2.33673">
        <ele>-3.4000000953674</ele>
        <time>2021-10-14T10:45:20.000Z</time>
      </trkpt>
      <trkpt lat="47.26027" lon="-2.33666">
        <ele>-3.4000000953674</ele>
        <time>2021-10-14T10:45:22.000Z</time>
      </trkpt>
      <trkpt lat="47.26034" lon="-2.33666">
        <ele>-3.4000000953674</ele>
        <time>2021-10-14T10:45:24.000Z</time>
      </trkpt>
      <trkpt lat="47.2604" lon="-2.33667">
        <ele>-3.4000000953674</ele>
        <time>2021-10-14T10:45:26.000Z</time>
      </trkpt>
      <trkpt lat="47.26046" lon="-2.33661">
        <ele>-3.4000000953674</ele>
        <time>2021-10-14T10:45:30.000Z</time>
      </trkpt>
      <trkpt lat="47.26048" lon="-2.33661">
        <ele>-3.4000000953674</ele>
        <time>2021-10-14T10:45:31.000Z</time>
      </trkpt>
      <trkpt lat="47.26053" lon="-2.33662">
        <ele>-3.4000000953674</ele>
        <time>2021-10-14T10:45:33.000Z</time>
      </trkpt>
      <trkpt lat="47.26059" lon="-2.33649">
        <ele>-3.4000000953674</ele>
        <time>2021-10-14T10:45:36.000Z</time>
      </trkpt>
      <trkpt lat="47.26065" lon="-2.3363">
        <ele>-3.4000000953674</ele>
        <time>2021-10-14T10:45:39.000Z</time>
      </trkpt>
      <trkpt lat="47.26069" lon="-2.33617">
        <ele>-3.4000000953674</ele>
        <time>2021-10-14T10:45:41.000Z</time>
      </trkpt>
      <trkpt lat="47.26086" lon="-2.33573">
        <ele>-3.4000000953674</ele>
        <time>2021-10-14T10:45:48.000Z</time>
      </trkpt>
      <trkpt lat="47.26097" lon="-2.33541">
        <ele>-3.4000000953674</ele>
        <time>2021-10-14T10:45:53.000Z</time>
      </trkpt>
      <trkpt lat="47.26104" lon="-2.3352">
        <ele>-3.4000000953674</ele>
        <time>2021-10-14T10:45:56.000Z</time>
      </trkpt>
      <trkpt lat="47.26123" lon="-2.33468">
        <ele>-3.4000000953674</ele>
        <time>2021-10-14T10:46:04.000Z</time>
      </trkpt>
      <trkpt lat="47.26131" lon="-2.33446">
        <ele>-3.4000000953674</ele>
        <time>2021-10-14T10:46:09.000Z</time>
      </trkpt>
      <trkpt lat="47.26133" lon="-2.33431">
        <ele>-3.4000000953674</ele>
        <time>2021-10-14T10:46:12.000Z</time>
      </trkpt>
      <trkpt lat="47.26132" lon="-2.33425">
        <ele>-3.4000000953674</ele>
        <time>2021-10-14T10:46:13.000Z</time>
      </trkpt>
      <trkpt lat="47.26124" lon="-2.33413">
        <ele>-3.4000000953674</ele>
        <time>2021-10-14T10:46:16.000Z</time>
      </trkpt>
      <trkpt lat="47.26121" lon="-2.33409">
        <ele>-3.4000000953674</ele>
        <time>2021-10-14T10:46:17.000Z</time>
      </trkpt>
      <trkpt lat="47.26109" lon="-2.33397">
        <ele>-3.4000000953674</ele>
        <time>2021-10-14T10:46:20.000Z</time>
      </trkpt>
      <trkpt lat="47.26102" lon="-2.33388">
        <ele>-3.4000000953674</ele>
        <time>2021-10-14T10:46:22.000Z</time>
      </trkpt>
      <trkpt lat="47.26081" lon="-2.33358">
        <ele>-3.4000000953674</ele>
        <time>2021-10-14T10:46:28.000Z</time>
      </trkpt>
      <trkpt lat="47.26072" lon="-2.33342">
        <ele>-3.4000000953674</ele>
        <time>2021-10-14T10:46:31.000Z</time>
      </trkpt>
      <trkpt lat="47.26065" lon="-2.33322">
        <ele>-3.4000000953674</ele>
        <time>2021-10-14T10:46:34.000Z</time>
      </trkpt>
      <trkpt lat="47.26045" lon="-2.33261">
        <ele>-3.4000000953674</ele>
        <time>2021-10-14T10:46:43.000Z</time>
      </trkpt>
      <trkpt lat="47.26023" lon="-2.33202">
        <ele>-3.4000000953674</ele>
        <time>2021-10-14T10:46:52.000Z</time>
      </trkpt>
      <trkpt lat="47.26004" lon="-2.33148">
        <ele>-3.4000000953674</ele>
        <time>2021-10-14T10:47:00.000Z</time>
      </trkpt>
      <trkpt lat="47.25988" lon="-2.33095">
        <ele>-3.4000000953674</ele>
        <time>2021-10-14T10:47:08.000Z</time>
      </trkpt>
      <trkpt lat="47.25986" lon="-2.33087">
        <ele>-3.4000000953674</ele>
        <time>2021-10-14T10:47:09.000Z</time>
      </trkpt>
      <trkpt lat="47.25977" lon="-2.33069">
        <ele>-3.4000000953674</ele>
        <time>2021-10-14T10:47:12.000Z</time>
      </trkpt>
      <trkpt lat="47.25972" lon="-2.33056">
        <ele>-3.4000000953674</ele>
        <time>2021-10-14T10:47:14.000Z</time>
      </trkpt>
      <trkpt lat="47.25962" lon="-2.33029">
        <ele>-3.4000000953674</ele>
        <time>2021-10-14T10:47:18.000Z</time>
      </trkpt>
      <trkpt lat="47.25939" lon="-2.3296">
        <ele>-3.4000000953674</ele>
        <time>2021-10-14T10:47:28.000Z</time>
      </trkpt>
      <trkpt lat="47.25921" lon="-2.3291">
        <ele>-3.4000000953674</ele>
        <time>2021-10-14T10:47:35.000Z</time>
      </trkpt>
      <trkpt lat="47.25899" lon="-2.32847">
        <ele>-3.4000000953674</ele>
        <time>2021-10-14T10:47:44.000Z</time>
      </trkpt>
      <trkpt lat="47.25877" lon="-2.3278">
        <ele>-3.4000000953674</ele>
        <time>2021-10-14T10:47:53.000Z</time>
      </trkpt>
      <trkpt lat="47.25863" lon="-2.32723">
        <ele>-3.4000000953674</ele>
        <time>2021-10-14T10:48:01.000Z</time>
      </trkpt>
      <trkpt lat="47.25861" lon="-2.3271">
        <ele>-3.4000000953674</ele>
        <time>2021-10-14T10:48:03.000Z</time>
      </trkpt>
      <trkpt lat="47.25855" lon="-2.32699">
        <ele>-3.4000000953674</ele>
        <time>2021-10-14T10:48:05.000Z</time>
      </trkpt>
      <trkpt lat="47.25847" lon="-2.3268">
        <ele>-3.4000000953674</ele>
        <time>2021-10-14T10:48:08.000Z</time>
      </trkpt>
      <trkpt lat="47.25845" lon="-2.32672">
        <ele>-3.4000000953674</ele>
        <time>2021-10-14T10:48:09.000Z</time>
      </trkpt>
      <trkpt lat="47.25839" lon="-2.3265">
        <ele>-3.4000000953674</ele>
        <time>2021-10-14T10:48:12.000Z</time>
      </trkpt>
      <trkpt lat="47.25833" lon="-2.32627">
        <ele>-3.4000000953674</ele>
        <time>2021-10-14T10:48:15.000Z</time>
      </trkpt>
      <trkpt lat="47.25818" lon="-2.32569">
        <ele>-3.4000000953674</ele>
        <time>2021-10-14T10:48:23.000Z</time>
      </trkpt>
      <trkpt lat="47.25802" lon="-2.32498">
        <ele>-3.4000000953674</ele>
        <time>2021-10-14T10:48:33.000Z</time>
      </trkpt>
      <trkpt lat="47.25799" lon="-2.3247">
        <ele>-3.4000000953674</ele>
        <time>2021-10-14T10:48:38.000Z</time>
      </trkpt>
      <trkpt lat="47.258" lon="-2.32465">
        <ele>-3.4000000953674</ele>
        <time>2021-10-14T10:48:39.000Z</time>
      </trkpt>
      <trkpt lat="47.25806" lon="-2.32459">
        <ele>-3.4000000953674</ele>
        <time>2021-10-14T10:48:41.000Z</time>
      </trkpt>
      <trkpt lat="47.25814" lon="-2.32456">
        <ele>-3.4000000953674</ele>
        <time>2021-10-14T10:48:43.000Z</time>
      </trkpt>
      <trkpt lat="47.25818" lon="-2.32457">
        <ele>-3.4000000953674</ele>
        <time>2021-10-14T10:48:44.000Z</time>
      </trkpt>
      <trkpt lat="47.25837" lon="-2.32468">
        <ele>-3.4000000953674</ele>
        <time>2021-10-14T10:48:48.000Z</time>
      </trkpt>
      <trkpt lat="47.25842" lon="-2.3247">
        <ele>-3.4000000953674</ele>
        <time>2021-10-14T10:48:49.000Z</time>
      </trkpt>
      <trkpt lat="47.25853" lon="-2.32472">
        <ele>-3.4000000953674</ele>
        <time>2021-10-14T10:48:51.000Z</time>
      </trkpt>
      <trkpt lat="47.25873" lon="-2.3247">
        <ele>-3.4000000953674</ele>
        <time>2021-10-14T10:48:55.000Z</time>
      </trkpt>
      <trkpt lat="47.25893" lon="-2.32465">
        <ele>-3.4000000953674</ele>
        <time>2021-10-14T10:48:59.000Z</time>
      </trkpt>
      <trkpt lat="47.25902" lon="-2.32457">
        <ele>-3.4000000953674</ele>
        <time>2021-10-14T10:49:01.000Z</time>
      </trkpt>
      <trkpt lat="47.25911" lon="-2.32447">
        <ele>-3.4000000953674</ele>
        <time>2021-10-14T10:49:03.000Z</time>
      </trkpt>
      <trkpt lat="47.25927" lon="-2.32425">
        <ele>-3.4000000953674</ele>
        <time>2021-10-14T10:49:07.000Z</time>
      </trkpt>
      <trkpt lat="47.25958" lon="-2.32385">
        <ele>-3.4000000953674</ele>
        <time>2021-10-14T10:49:15.000Z</time>
      </trkpt>
      <trkpt lat="47.25983" lon="-2.32351">
        <ele>-3.4000000953674</ele>
        <time>2021-10-14T10:49:22.000Z</time>
      </trkpt>
      <trkpt lat="47.26012" lon="-2.32312">
        <ele>-3.4000000953674</ele>
        <time>2021-10-14T10:49:30.000Z</time>
      </trkpt>
      <trkpt lat="47.26038" lon="-2.32279">
        <ele>-3.4000000953674</ele>
        <time>2021-10-14T10:49:37.000Z</time>
      </trkpt>
      <trkpt lat="47.26065" lon="-2.32251">
        <ele>-3.4000000953674</ele>
        <time>2021-10-14T10:49:44.000Z</time>
      </trkpt>
      <trkpt lat="47.26089" lon="-2.32217">
        <ele>-3.4000000953674</ele>
        <time>2021-10-14T10:49:51.000Z</time>
      </trkpt>
      <trkpt lat="47.261" lon="-2.32202">
        <ele>-3.4000000953674</ele>
        <time>2021-10-14T10:49:54.000Z</time>
      </trkpt>
      <trkpt lat="47.26105" lon="-2.32191">
        <ele>-3.4000000953674</ele>
        <time>2021-10-14T10:49:56.000Z</time>
      </trkpt>
      <trkpt lat="47.26121" lon="-2.32149">
        <ele>-3.4000000953674</ele>
        <time>2021-10-14T10:50:03.000Z</time>
      </trkpt>
      <trkpt lat="47.26123" lon="-2.32143">
        <ele>-3.4000000953674</ele>
        <time>2021-10-14T10:50:04.000Z</time>
      </trkpt>
      <trkpt lat="47.26132" lon="-2.32111">
        <ele>-3.4000000953674</ele>
        <time>2021-10-14T10:50:09.000Z</time>
      </trkpt>
      <trkpt lat="47.26134" lon="-2.32105">
        <ele>-3.4000000953674</ele>
        <time>2021-10-14T10:50:10.000Z</time>
      </trkpt>
      <trkpt lat="47.2615" lon="-2.32051">
        <ele>-3.4000000953674</ele>
        <time>2021-10-14T10:50:19.000Z</time>
      </trkpt>
      <trkpt lat="47.26167" lon="-2.32022">
        <ele>-3.4000000953674</ele>
        <time>2021-10-14T10:50:25.000Z</time>
      </trkpt>
      <trkpt lat="47.26182" lon="-2.32023">
        <ele>-3.4000000953674</ele>
        <time>2021-10-14T10:50:29.000Z</time>
      </trkpt>
      <trkpt lat="47.26191" lon="-2.32026">
        <ele>-3.4000000953674</ele>
        <time>2021-10-14T10:50:34.000Z</time>
      </trkpt>
      <trkpt lat="47.26193" lon="-2.32026">
        <ele>-3.4000000953674</ele>
        <time>2021-10-14T10:50:35.000Z</time>
      </trkpt>
      <trkpt lat="47.26194" lon="-2.32018">
        <ele>-3.4000000953674</ele>
        <time>2021-10-14T10:50:38.000Z</time>
      </trkpt>
      <trkpt lat="47.26198" lon="-2.32007">
        <ele>-3.4000000953674</ele>
        <time>2021-10-14T10:50:42.000Z</time>
      </trkpt>
      <trkpt lat="47.26209" lon="-2.31993">
        <ele>-3.4000000953674</ele>
        <time>2021-10-14T10:50:47.000Z</time>
      </trkpt>
      <trkpt lat="47.26225" lon="-2.31976">
        <ele>-3.4000000953674</ele>
        <time>2021-10-14T10:50:53.000Z</time>
      </trkpt>
      <trkpt lat="47.26229" lon="-2.31972">
        <ele>-3.7999999523163</ele>
        <time>2021-10-14T10:50:54.000Z</time>
      </trkpt>
      <trkpt lat="47.26232" lon="-2.31969">
        <ele>-4.1999998092651</ele>
        <time>2021-10-14T10:50:55.000Z</time>
      </trkpt>
      <trkpt lat="47.26235" lon="-2.31966">
        <ele>-4.5999999046326</ele>
        <time>2021-10-14T10:50:56.000Z</time>
      </trkpt>
      <trkpt lat="47.26238" lon="-2.31963">
        <ele>-5</ele>
        <time>2021-10-14T10:50:57.000Z</time>
      </trkpt>
      <trkpt lat="47.26241" lon="-2.3196">
        <ele>-5.4000000953674</ele>
        <time>2021-10-14T10:50:58.000Z</time>
      </trkpt>
      <trkpt lat="47.26249" lon="-2.31945">
        <ele>-5.4000000953674</ele>
        <time>2021-10-14T10:51:03.000Z</time>
      </trkpt>
      <trkpt lat="47.26267" lon="-2.31916">
        <ele>-5.4000000953674</ele>
        <time>2021-10-14T10:51:10.000Z</time>
      </trkpt>
      <trkpt lat="47.26288" lon="-2.31898">
        <ele>-5.4000000953674</ele>
        <time>2021-10-14T10:51:15.000Z</time>
      </trkpt>
      <trkpt lat="47.26297" lon="-2.3189">
        <ele>-5.4000000953674</ele>
        <time>2021-10-14T10:51:19.000Z</time>
      </trkpt>
      <trkpt lat="47.263" lon="-2.31882">
        <ele>-5.4000000953674</ele>
        <time>2021-10-14T10:51:23.000Z</time>
      </trkpt>
      <trkpt lat="47.263" lon="-2.31877">
        <ele>-5.4000000953674</ele>
        <time>2021-10-14T10:51:24.000Z</time>
      </trkpt>
      <trkpt lat="47.26299" lon="-2.31853">
        <ele>-5.4000000953674</ele>
        <time>2021-10-14T10:51:29.000Z</time>
      </trkpt>
      <trkpt lat="47.26301" lon="-2.31819">
        <ele>-5.4000000953674</ele>
        <time>2021-10-14T10:51:36.000Z</time>
      </trkpt>
      <trkpt lat="47.26303" lon="-2.31779">
        <ele>-5.4000000953674</ele>
        <time>2021-10-14T10:51:43.000Z</time>
      </trkpt>
      <trkpt lat="47.263" lon="-2.3174">
        <ele>-5.4000000953674</ele>
        <time>2021-10-14T10:51:50.000Z</time>
      </trkpt>
      <trkpt lat="47.26301" lon="-2.31714">
        <ele>-5</ele>
        <time>2021-10-14T10:51:54.000Z</time>
      </trkpt>
      <trkpt lat="47.26304" lon="-2.31711">
        <ele>-4.5999999046326</ele>
        <time>2021-10-14T10:51:55.000Z</time>
      </trkpt>
      <trkpt lat="47.26307" lon="-2.31708">
        <ele>-4.1999998092651</ele>
        <time>2021-10-14T10:51:56.000Z</time>
      </trkpt>
      <trkpt lat="47.26309" lon="-2.31706">
        <ele>-3.7999999523163</ele>
        <time>2021-10-14T10:51:57.000Z</time>
      </trkpt>
      <trkpt lat="47.26312" lon="-2.31703">
        <ele>-3.4000000953674</ele>
        <time>2021-10-14T10:51:58.000Z</time>
      </trkpt>
      <trkpt lat="47.26324" lon="-2.31699">
        <ele>-3.4000000953674</ele>
        <time>2021-10-14T10:52:01.000Z</time>
      </trkpt>
      <trkpt lat="47.26335" lon="-2.31687">
        <ele>-3.4000000953674</ele>
        <time>2021-10-14T10:52:05.000Z</time>
      </trkpt>
      <trkpt lat="47.26351" lon="-2.31681">
        <ele>-2.7999999523163</ele>
        <time>2021-10-14T10:52:10.000Z</time>
      </trkpt>
      <trkpt lat="47.26354" lon="-2.31679">
        <ele>-2.4000000953674</ele>
        <time>2021-10-14T10:52:11.000Z</time>
      </trkpt>
      <trkpt lat="47.26357" lon="-2.31677">
        <ele>-2</ele>
        <time>2021-10-14T10:52:12.000Z</time>
      </trkpt>
      <trkpt lat="47.2636" lon="-2.31676">
        <ele>-1.6000000238419</ele>
        <time>2021-10-14T10:52:13.000Z</time>
      </trkpt>
      <trkpt lat="47.26363" lon="-2.31674">
        <ele>-1.2000000476837</ele>
        <time>2021-10-14T10:52:14.000Z</time>
      </trkpt>
      <trkpt lat="47.26379" lon="-2.3167">
        <ele>-1.2000000476837</ele>
        <time>2021-10-14T10:52:19.000Z</time>
      </trkpt>
      <trkpt lat="47.26395" lon="-2.3166">
        <ele>-1.2000000476837</ele>
        <time>2021-10-14T10:52:24.000Z</time>
      </trkpt>
      <trkpt lat="47.2641" lon="-2.31646">
        <ele>-1.2000000476837</ele>
        <time>2021-10-14T10:52:30.000Z</time>
      </trkpt>
      <trkpt lat="47.2641" lon="-2.31643">
        <ele>-1.2000000476837</ele>
        <time>2021-10-14T10:52:31.000Z</time>
      </trkpt>
      <trkpt lat="47.26409" lon="-2.31634">
        <ele>-0.80000001192093</ele>
        <time>2021-10-14T10:52:33.000Z</time>
      </trkpt>
      <trkpt lat="47.26409" lon="-2.3163">
        <ele>-0.40000000596046</ele>
        <time>2021-10-14T10:52:34.000Z</time>
      </trkpt>
      <trkpt lat="47.26409" lon="-2.31625">
        <ele>0.20000000298023</ele>
        <time>2021-10-14T10:52:35.000Z</time>
      </trkpt>
      <trkpt lat="47.26409" lon="-2.3162">
        <ele>0.60000002384186</ele>
        <time>2021-10-14T10:52:36.000Z</time>
      </trkpt>
      <trkpt lat="47.26409" lon="-2.31615">
        <ele>1</ele>
        <time>2021-10-14T10:52:37.000Z</time>
      </trkpt>
      <trkpt lat="47.26408" lon="-2.31596">
        <ele>1</ele>
        <time>2021-10-14T10:52:41.000Z</time>
      </trkpt>
      <trkpt lat="47.26408" lon="-2.31559">
        <ele>1</ele>
        <time>2021-10-14T10:52:49.000Z</time>
      </trkpt>
      <trkpt lat="47.26411" lon="-2.31545">
        <ele>1</ele>
        <time>2021-10-14T10:52:53.000Z</time>
      </trkpt>
      <trkpt lat="47.26413" lon="-2.31545">
        <ele>1</ele>
        <time>2021-10-14T10:52:55.000Z</time>
      </trkpt>
    </trkseg>
  </trk>
</gpx>